<?xml version="1.0" encoding="UTF-8"?>
<gpx version="1.1" creator="https://www.www-youtrack-es.amenigma.com" xsi:schemaLocation="http://www.topografix.com/GPX/1/1 http://www.topografix.com/GPX/1/1/gpx.xsd http://www.garmin.com/xmlschemas/GpxExtensions/v3 http://www.garmin.com/xmlschemas/GpxExtensionsv3.xsd http://www.garmin.com/xmlschemas/TrackPointExtension/v1 http://www.garmin.com/xmlschemas/TrackPointExtensionv1.xsd" xmlns:gpxtpx="http://www.garmin.com/xmlschemas/TrackPointExtension/v1" xmlns:gpxx="http://www.garmin.com/xmlschemas/GpxExtensions/v3" xmlns:xsi="http://www.w3.org/2001/XMLSchema-instance">
  <metadata>
    <link href="https://www.www-youtrack-es.amenigma.com">
      <text>YouTrack.es</text>
    </link>
    <time>2026-09-01T09:45:53Z</time>
  </metadata>
  <trk>
    <src>https://www.www-youtrack-es.amenigma.com</src>
    <link href="https://www.www-youtrack-es.amenigma.com/ruta/33734-cerdanya--sanavatre-vall-d-ingla-roca-foradada">
      <text>YouTrack.es</text>
    </link>
    <trkseg>
      <trkpt lat="42.385352" lon="1.849731">
        <ele>1050.7</ele>
        <time>2022-07-03T07:29:25Z</time>
      </trkpt>
      <trkpt lat="42.385353" lon="1.849730">
        <ele>1050.7</ele>
        <time>2022-07-03T07:29:26Z</time>
      </trkpt>
      <trkpt lat="42.385415" lon="1.849737">
        <ele>1050.7</ele>
        <time>2022-07-03T07:30:10Z</time>
      </trkpt>
      <trkpt lat="42.385470" lon="1.849689">
        <ele>1050.6</ele>
        <time>2022-07-03T07:30:13Z</time>
      </trkpt>
      <trkpt lat="42.385531" lon="1.849617">
        <ele>1050.7</ele>
        <time>2022-07-03T07:30:16Z</time>
      </trkpt>
      <trkpt lat="42.385596" lon="1.849561">
        <ele>1050.7</ele>
        <time>2022-07-03T07:30:18Z</time>
      </trkpt>
      <trkpt lat="42.385674" lon="1.849500">
        <ele>1050.4</ele>
        <time>2022-07-03T07:30:20Z</time>
      </trkpt>
      <trkpt lat="42.385753" lon="1.849450">
        <ele>1050.5</ele>
        <time>2022-07-03T07:30:22Z</time>
      </trkpt>
      <trkpt lat="42.385816" lon="1.849448">
        <ele>1050.4</ele>
        <time>2022-07-03T07:30:24Z</time>
      </trkpt>
      <trkpt lat="42.385887" lon="1.849470">
        <ele>1050.0</ele>
        <time>2022-07-03T07:30:27Z</time>
      </trkpt>
      <trkpt lat="42.385958" lon="1.849524">
        <ele>1049.6</ele>
        <time>2022-07-03T07:30:30Z</time>
      </trkpt>
      <trkpt lat="42.386015" lon="1.849488">
        <ele>1049.2</ele>
        <time>2022-07-03T07:30:32Z</time>
      </trkpt>
      <trkpt lat="42.386106" lon="1.849493">
        <ele>1048.9</ele>
        <time>2022-07-03T07:30:34Z</time>
      </trkpt>
      <trkpt lat="42.386163" lon="1.849527">
        <ele>1048.3</ele>
        <time>2022-07-03T07:30:35Z</time>
      </trkpt>
      <trkpt lat="42.386227" lon="1.849568">
        <ele>1047.9</ele>
        <time>2022-07-03T07:30:36Z</time>
      </trkpt>
      <trkpt lat="42.386298" lon="1.849612">
        <ele>1047.3</ele>
        <time>2022-07-03T07:30:37Z</time>
      </trkpt>
      <trkpt lat="42.386369" lon="1.849654">
        <ele>1046.8</ele>
        <time>2022-07-03T07:30:38Z</time>
      </trkpt>
      <trkpt lat="42.386440" lon="1.849684">
        <ele>1046.3</ele>
        <time>2022-07-03T07:30:39Z</time>
      </trkpt>
      <trkpt lat="42.386513" lon="1.849707">
        <ele>1045.4</ele>
        <time>2022-07-03T07:30:40Z</time>
      </trkpt>
      <trkpt lat="42.386597" lon="1.849722">
        <ele>1044.7</ele>
        <time>2022-07-03T07:30:41Z</time>
      </trkpt>
      <trkpt lat="42.386677" lon="1.849708">
        <ele>1045.0</ele>
        <time>2022-07-03T07:30:42Z</time>
      </trkpt>
      <trkpt lat="42.386752" lon="1.849666">
        <ele>1043.8</ele>
        <time>2022-07-03T07:30:43Z</time>
      </trkpt>
      <trkpt lat="42.386814" lon="1.849598">
        <ele>1043.1</ele>
        <time>2022-07-03T07:30:44Z</time>
      </trkpt>
      <trkpt lat="42.386869" lon="1.849521">
        <ele>1042.8</ele>
        <time>2022-07-03T07:30:45Z</time>
      </trkpt>
      <trkpt lat="42.386923" lon="1.849450">
        <ele>1042.2</ele>
        <time>2022-07-03T07:30:46Z</time>
      </trkpt>
      <trkpt lat="42.386974" lon="1.849382">
        <ele>1041.8</ele>
        <time>2022-07-03T07:30:47Z</time>
      </trkpt>
      <trkpt lat="42.387026" lon="1.849315">
        <ele>1041.6</ele>
        <time>2022-07-03T07:30:48Z</time>
      </trkpt>
      <trkpt lat="42.387071" lon="1.849257">
        <ele>1041.5</ele>
        <time>2022-07-03T07:30:49Z</time>
      </trkpt>
      <trkpt lat="42.387119" lon="1.849191">
        <ele>1041.2</ele>
        <time>2022-07-03T07:30:50Z</time>
      </trkpt>
      <trkpt lat="42.387163" lon="1.849119">
        <ele>1040.9</ele>
        <time>2022-07-03T07:30:51Z</time>
      </trkpt>
      <trkpt lat="42.387204" lon="1.849043">
        <ele>1040.7</ele>
        <time>2022-07-03T07:30:52Z</time>
      </trkpt>
      <trkpt lat="42.387240" lon="1.848962">
        <ele>1040.5</ele>
        <time>2022-07-03T07:30:53Z</time>
      </trkpt>
      <trkpt lat="42.387273" lon="1.848888">
        <ele>1040.4</ele>
        <time>2022-07-03T07:30:54Z</time>
      </trkpt>
      <trkpt lat="42.387312" lon="1.848813">
        <ele>1040.1</ele>
        <time>2022-07-03T07:30:55Z</time>
      </trkpt>
      <trkpt lat="42.387345" lon="1.848734">
        <ele>1039.9</ele>
        <time>2022-07-03T07:30:56Z</time>
      </trkpt>
      <trkpt lat="42.387381" lon="1.848655">
        <ele>1040.1</ele>
        <time>2022-07-03T07:30:57Z</time>
      </trkpt>
      <trkpt lat="42.387416" lon="1.848581">
        <ele>1040.2</ele>
        <time>2022-07-03T07:30:58Z</time>
      </trkpt>
      <trkpt lat="42.387450" lon="1.848503">
        <ele>1040.3</ele>
        <time>2022-07-03T07:30:59Z</time>
      </trkpt>
      <trkpt lat="42.387480" lon="1.848429">
        <ele>1040.1</ele>
        <time>2022-07-03T07:31:00Z</time>
      </trkpt>
      <trkpt lat="42.387511" lon="1.848357">
        <ele>1039.9</ele>
        <time>2022-07-03T07:31:01Z</time>
      </trkpt>
      <trkpt lat="42.387545" lon="1.848285">
        <ele>1040.0</ele>
        <time>2022-07-03T07:31:02Z</time>
      </trkpt>
      <trkpt lat="42.387575" lon="1.848218">
        <ele>1040.0</ele>
        <time>2022-07-03T07:31:03Z</time>
      </trkpt>
      <trkpt lat="42.387603" lon="1.848147">
        <ele>1039.8</ele>
        <time>2022-07-03T07:31:04Z</time>
      </trkpt>
      <trkpt lat="42.387632" lon="1.848082">
        <ele>1039.6</ele>
        <time>2022-07-03T07:31:05Z</time>
      </trkpt>
      <trkpt lat="42.387666" lon="1.848022">
        <ele>1039.8</ele>
        <time>2022-07-03T07:31:06Z</time>
      </trkpt>
      <trkpt lat="42.387755" lon="1.847953">
        <ele>1039.8</ele>
        <time>2022-07-03T07:31:08Z</time>
      </trkpt>
      <trkpt lat="42.387857" lon="1.847956">
        <ele>1039.5</ele>
        <time>2022-07-03T07:31:10Z</time>
      </trkpt>
      <trkpt lat="42.387959" lon="1.847986">
        <ele>1039.3</ele>
        <time>2022-07-03T07:31:12Z</time>
      </trkpt>
      <trkpt lat="42.388055" lon="1.848003">
        <ele>1039.6</ele>
        <time>2022-07-03T07:31:14Z</time>
      </trkpt>
      <trkpt lat="42.388148" lon="1.848002">
        <ele>1039.7</ele>
        <time>2022-07-03T07:31:16Z</time>
      </trkpt>
      <trkpt lat="42.388243" lon="1.847949">
        <ele>1039.2</ele>
        <time>2022-07-03T07:31:18Z</time>
      </trkpt>
      <trkpt lat="42.388289" lon="1.847897">
        <ele>1038.9</ele>
        <time>2022-07-03T07:31:19Z</time>
      </trkpt>
      <trkpt lat="42.388329" lon="1.847836">
        <ele>1038.7</ele>
        <time>2022-07-03T07:31:20Z</time>
      </trkpt>
      <trkpt lat="42.388368" lon="1.847774">
        <ele>1038.7</ele>
        <time>2022-07-03T07:31:21Z</time>
      </trkpt>
      <trkpt lat="42.388409" lon="1.847714">
        <ele>1038.8</ele>
        <time>2022-07-03T07:31:22Z</time>
      </trkpt>
      <trkpt lat="42.388454" lon="1.847660">
        <ele>1038.8</ele>
        <time>2022-07-03T07:31:23Z</time>
      </trkpt>
      <trkpt lat="42.388501" lon="1.847610">
        <ele>1039.0</ele>
        <time>2022-07-03T07:31:24Z</time>
      </trkpt>
      <trkpt lat="42.388551" lon="1.847569">
        <ele>1038.9</ele>
        <time>2022-07-03T07:31:25Z</time>
      </trkpt>
      <trkpt lat="42.388603" lon="1.847536">
        <ele>1039.1</ele>
        <time>2022-07-03T07:31:26Z</time>
      </trkpt>
      <trkpt lat="42.388694" lon="1.847526">
        <ele>1039.5</ele>
        <time>2022-07-03T07:31:28Z</time>
      </trkpt>
      <trkpt lat="42.388768" lon="1.847581">
        <ele>1039.7</ele>
        <time>2022-07-03T07:31:30Z</time>
      </trkpt>
      <trkpt lat="42.388827" lon="1.847651">
        <ele>1040.0</ele>
        <time>2022-07-03T07:31:32Z</time>
      </trkpt>
      <trkpt lat="42.388887" lon="1.847723">
        <ele>1040.5</ele>
        <time>2022-07-03T07:31:34Z</time>
      </trkpt>
      <trkpt lat="42.388938" lon="1.847806">
        <ele>1040.6</ele>
        <time>2022-07-03T07:31:36Z</time>
      </trkpt>
      <trkpt lat="42.388996" lon="1.847883">
        <ele>1040.9</ele>
        <time>2022-07-03T07:31:38Z</time>
      </trkpt>
      <trkpt lat="42.389054" lon="1.847965">
        <ele>1041.1</ele>
        <time>2022-07-03T07:31:40Z</time>
      </trkpt>
      <trkpt lat="42.389106" lon="1.848058">
        <ele>1040.8</ele>
        <time>2022-07-03T07:31:42Z</time>
      </trkpt>
      <trkpt lat="42.389157" lon="1.848152">
        <ele>1041.1</ele>
        <time>2022-07-03T07:31:44Z</time>
      </trkpt>
      <trkpt lat="42.389212" lon="1.848242">
        <ele>1040.7</ele>
        <time>2022-07-03T07:31:46Z</time>
      </trkpt>
      <trkpt lat="42.389269" lon="1.848334">
        <ele>1041.1</ele>
        <time>2022-07-03T07:31:48Z</time>
      </trkpt>
      <trkpt lat="42.389329" lon="1.848430">
        <ele>1041.2</ele>
        <time>2022-07-03T07:31:50Z</time>
      </trkpt>
      <trkpt lat="42.389386" lon="1.848528">
        <ele>1041.4</ele>
        <time>2022-07-03T07:31:52Z</time>
      </trkpt>
      <trkpt lat="42.389442" lon="1.848627">
        <ele>1041.3</ele>
        <time>2022-07-03T07:31:54Z</time>
      </trkpt>
      <trkpt lat="42.389495" lon="1.848724">
        <ele>1041.5</ele>
        <time>2022-07-03T07:31:56Z</time>
      </trkpt>
      <trkpt lat="42.389549" lon="1.848809">
        <ele>1041.6</ele>
        <time>2022-07-03T07:31:58Z</time>
      </trkpt>
      <trkpt lat="42.389598" lon="1.848881">
        <ele>1042.1</ele>
        <time>2022-07-03T07:32:00Z</time>
      </trkpt>
      <trkpt lat="42.389633" lon="1.848944">
        <ele>1041.8</ele>
        <time>2022-07-03T07:32:02Z</time>
      </trkpt>
      <trkpt lat="42.389693" lon="1.848999">
        <ele>1041.7</ele>
        <time>2022-07-03T07:32:05Z</time>
      </trkpt>
      <trkpt lat="42.389754" lon="1.848998">
        <ele>1041.5</ele>
        <time>2022-07-03T07:32:08Z</time>
      </trkpt>
      <trkpt lat="42.389797" lon="1.848949">
        <ele>1041.6</ele>
        <time>2022-07-03T07:32:11Z</time>
      </trkpt>
      <trkpt lat="42.389849" lon="1.848899">
        <ele>1041.5</ele>
        <time>2022-07-03T07:32:16Z</time>
      </trkpt>
      <trkpt lat="42.389902" lon="1.848844">
        <ele>1041.4</ele>
        <time>2022-07-03T07:32:21Z</time>
      </trkpt>
      <trkpt lat="42.389964" lon="1.848820">
        <ele>1041.5</ele>
        <time>2022-07-03T07:32:24Z</time>
      </trkpt>
      <trkpt lat="42.390008" lon="1.848752">
        <ele>1041.5</ele>
        <time>2022-07-03T07:32:29Z</time>
      </trkpt>
      <trkpt lat="42.390050" lon="1.848695">
        <ele>1041.6</ele>
        <time>2022-07-03T07:32:33Z</time>
      </trkpt>
      <trkpt lat="42.390098" lon="1.848621">
        <ele>1041.4</ele>
        <time>2022-07-03T07:32:37Z</time>
      </trkpt>
      <trkpt lat="42.390127" lon="1.848554">
        <ele>1041.3</ele>
        <time>2022-07-03T07:32:41Z</time>
      </trkpt>
      <trkpt lat="42.390069" lon="1.848498">
        <ele>1041.3</ele>
        <time>2022-07-03T07:32:45Z</time>
      </trkpt>
      <trkpt lat="42.390033" lon="1.848398">
        <ele>1041.3</ele>
        <time>2022-07-03T07:32:48Z</time>
      </trkpt>
      <trkpt lat="42.390009" lon="1.848310">
        <ele>1042.1</ele>
        <time>2022-07-03T07:32:51Z</time>
      </trkpt>
      <trkpt lat="42.389975" lon="1.848244">
        <ele>1042.5</ele>
        <time>2022-07-03T07:32:53Z</time>
      </trkpt>
      <trkpt lat="42.389946" lon="1.848168">
        <ele>1042.7</ele>
        <time>2022-07-03T07:32:55Z</time>
      </trkpt>
      <trkpt lat="42.389902" lon="1.848118">
        <ele>1042.7</ele>
        <time>2022-07-03T07:32:57Z</time>
      </trkpt>
      <trkpt lat="42.389851" lon="1.848025">
        <ele>1042.7</ele>
        <time>2022-07-03T07:32:59Z</time>
      </trkpt>
      <trkpt lat="42.389797" lon="1.847965">
        <ele>1042.6</ele>
        <time>2022-07-03T07:33:01Z</time>
      </trkpt>
      <trkpt lat="42.389734" lon="1.847933">
        <ele>1042.2</ele>
        <time>2022-07-03T07:33:03Z</time>
      </trkpt>
      <trkpt lat="42.389669" lon="1.847849">
        <ele>1041.8</ele>
        <time>2022-07-03T07:33:05Z</time>
      </trkpt>
      <trkpt lat="42.389611" lon="1.847764">
        <ele>1041.8</ele>
        <time>2022-07-03T07:33:07Z</time>
      </trkpt>
      <trkpt lat="42.389556" lon="1.847678">
        <ele>1041.7</ele>
        <time>2022-07-03T07:33:09Z</time>
      </trkpt>
      <trkpt lat="42.389517" lon="1.847604">
        <ele>1041.8</ele>
        <time>2022-07-03T07:33:11Z</time>
      </trkpt>
      <trkpt lat="42.389478" lon="1.847529">
        <ele>1041.6</ele>
        <time>2022-07-03T07:33:13Z</time>
      </trkpt>
      <trkpt lat="42.389404" lon="1.847449">
        <ele>1041.7</ele>
        <time>2022-07-03T07:33:15Z</time>
      </trkpt>
      <trkpt lat="42.389354" lon="1.847359">
        <ele>1042.1</ele>
        <time>2022-07-03T07:33:17Z</time>
      </trkpt>
      <trkpt lat="42.389310" lon="1.847277">
        <ele>1042.0</ele>
        <time>2022-07-03T07:33:19Z</time>
      </trkpt>
      <trkpt lat="42.389264" lon="1.847220">
        <ele>1042.0</ele>
        <time>2022-07-03T07:33:21Z</time>
      </trkpt>
      <trkpt lat="42.389196" lon="1.847155">
        <ele>1041.9</ele>
        <time>2022-07-03T07:33:23Z</time>
      </trkpt>
      <trkpt lat="42.389146" lon="1.847075">
        <ele>1041.9</ele>
        <time>2022-07-03T07:33:25Z</time>
      </trkpt>
      <trkpt lat="42.389117" lon="1.847008">
        <ele>1041.6</ele>
        <time>2022-07-03T07:33:27Z</time>
      </trkpt>
      <trkpt lat="42.389043" lon="1.846926">
        <ele>1040.9</ele>
        <time>2022-07-03T07:33:30Z</time>
      </trkpt>
      <trkpt lat="42.389009" lon="1.846852">
        <ele>1040.7</ele>
        <time>2022-07-03T07:33:32Z</time>
      </trkpt>
      <trkpt lat="42.388973" lon="1.846779">
        <ele>1040.8</ele>
        <time>2022-07-03T07:33:34Z</time>
      </trkpt>
      <trkpt lat="42.388921" lon="1.846717">
        <ele>1040.9</ele>
        <time>2022-07-03T07:33:36Z</time>
      </trkpt>
      <trkpt lat="42.388872" lon="1.846660">
        <ele>1040.9</ele>
        <time>2022-07-03T07:33:38Z</time>
      </trkpt>
      <trkpt lat="42.388845" lon="1.846575">
        <ele>1040.6</ele>
        <time>2022-07-03T07:33:40Z</time>
      </trkpt>
      <trkpt lat="42.388859" lon="1.846502">
        <ele>1040.4</ele>
        <time>2022-07-03T07:33:41Z</time>
      </trkpt>
      <trkpt lat="42.388858" lon="1.846405">
        <ele>1039.7</ele>
        <time>2022-07-03T07:33:43Z</time>
      </trkpt>
      <trkpt lat="42.388824" lon="1.846298">
        <ele>1039.5</ele>
        <time>2022-07-03T07:33:45Z</time>
      </trkpt>
      <trkpt lat="42.388794" lon="1.846174">
        <ele>1039.4</ele>
        <time>2022-07-03T07:33:47Z</time>
      </trkpt>
      <trkpt lat="42.388780" lon="1.846053">
        <ele>1038.9</ele>
        <time>2022-07-03T07:33:49Z</time>
      </trkpt>
      <trkpt lat="42.388755" lon="1.845952">
        <ele>1038.4</ele>
        <time>2022-07-03T07:33:51Z</time>
      </trkpt>
      <trkpt lat="42.388708" lon="1.845864">
        <ele>1038.9</ele>
        <time>2022-07-03T07:33:53Z</time>
      </trkpt>
      <trkpt lat="42.388696" lon="1.845765">
        <ele>1038.8</ele>
        <time>2022-07-03T07:33:55Z</time>
      </trkpt>
      <trkpt lat="42.388681" lon="1.845669">
        <ele>1038.7</ele>
        <time>2022-07-03T07:33:57Z</time>
      </trkpt>
      <trkpt lat="42.388648" lon="1.845583">
        <ele>1038.6</ele>
        <time>2022-07-03T07:33:59Z</time>
      </trkpt>
      <trkpt lat="42.388634" lon="1.845458">
        <ele>1038.3</ele>
        <time>2022-07-03T07:34:01Z</time>
      </trkpt>
      <trkpt lat="42.388618" lon="1.845386">
        <ele>1038.4</ele>
        <time>2022-07-03T07:34:02Z</time>
      </trkpt>
      <trkpt lat="42.388598" lon="1.845299">
        <ele>1038.4</ele>
        <time>2022-07-03T07:34:04Z</time>
      </trkpt>
      <trkpt lat="42.388570" lon="1.845217">
        <ele>1038.5</ele>
        <time>2022-07-03T07:34:06Z</time>
      </trkpt>
      <trkpt lat="42.388524" lon="1.845113">
        <ele>1038.3</ele>
        <time>2022-07-03T07:34:08Z</time>
      </trkpt>
      <trkpt lat="42.388485" lon="1.845044">
        <ele>1037.9</ele>
        <time>2022-07-03T07:34:12Z</time>
      </trkpt>
      <trkpt lat="42.388464" lon="1.844975">
        <ele>1037.6</ele>
        <time>2022-07-03T07:34:21Z</time>
      </trkpt>
      <trkpt lat="42.388436" lon="1.844909">
        <ele>1038.0</ele>
        <time>2022-07-03T07:34:28Z</time>
      </trkpt>
      <trkpt lat="42.388398" lon="1.844849">
        <ele>1037.8</ele>
        <time>2022-07-03T07:34:36Z</time>
      </trkpt>
      <trkpt lat="42.388390" lon="1.844776">
        <ele>1038.4</ele>
        <time>2022-07-03T07:35:18Z</time>
      </trkpt>
      <trkpt lat="42.388342" lon="1.844716">
        <ele>1038.2</ele>
        <time>2022-07-03T07:35:26Z</time>
      </trkpt>
      <trkpt lat="42.388297" lon="1.844661">
        <ele>1038.3</ele>
        <time>2022-07-03T07:35:29Z</time>
      </trkpt>
      <trkpt lat="42.388269" lon="1.844592">
        <ele>1039.1</ele>
        <time>2022-07-03T07:35:33Z</time>
      </trkpt>
      <trkpt lat="42.388269" lon="1.844500">
        <ele>1039.3</ele>
        <time>2022-07-03T07:35:36Z</time>
      </trkpt>
      <trkpt lat="42.388268" lon="1.844424">
        <ele>1039.2</ele>
        <time>2022-07-03T07:35:38Z</time>
      </trkpt>
      <trkpt lat="42.388258" lon="1.844337">
        <ele>1039.4</ele>
        <time>2022-07-03T07:35:40Z</time>
      </trkpt>
      <trkpt lat="42.388238" lon="1.844217">
        <ele>1039.5</ele>
        <time>2022-07-03T07:35:42Z</time>
      </trkpt>
      <trkpt lat="42.388240" lon="1.844113">
        <ele>1039.4</ele>
        <time>2022-07-03T07:35:44Z</time>
      </trkpt>
      <trkpt lat="42.388245" lon="1.844008">
        <ele>1039.3</ele>
        <time>2022-07-03T07:35:46Z</time>
      </trkpt>
      <trkpt lat="42.388249" lon="1.843909">
        <ele>1039.3</ele>
        <time>2022-07-03T07:35:48Z</time>
      </trkpt>
      <trkpt lat="42.388267" lon="1.843820">
        <ele>1039.0</ele>
        <time>2022-07-03T07:35:50Z</time>
      </trkpt>
      <trkpt lat="42.388280" lon="1.843710">
        <ele>1038.6</ele>
        <time>2022-07-03T07:35:52Z</time>
      </trkpt>
      <trkpt lat="42.388286" lon="1.843606">
        <ele>1039.4</ele>
        <time>2022-07-03T07:35:54Z</time>
      </trkpt>
      <trkpt lat="42.388294" lon="1.843513">
        <ele>1039.1</ele>
        <time>2022-07-03T07:35:56Z</time>
      </trkpt>
      <trkpt lat="42.388305" lon="1.843416">
        <ele>1038.9</ele>
        <time>2022-07-03T07:35:58Z</time>
      </trkpt>
      <trkpt lat="42.388322" lon="1.843338">
        <ele>1038.7</ele>
        <time>2022-07-03T07:36:00Z</time>
      </trkpt>
      <trkpt lat="42.388334" lon="1.843244">
        <ele>1038.5</ele>
        <time>2022-07-03T07:36:03Z</time>
      </trkpt>
      <trkpt lat="42.388340" lon="1.843169">
        <ele>1038.1</ele>
        <time>2022-07-03T07:36:09Z</time>
      </trkpt>
      <trkpt lat="42.388352" lon="1.843066">
        <ele>1038.2</ele>
        <time>2022-07-03T07:36:14Z</time>
      </trkpt>
      <trkpt lat="42.388389" lon="1.842995">
        <ele>1038.3</ele>
        <time>2022-07-03T07:36:17Z</time>
      </trkpt>
      <trkpt lat="42.388409" lon="1.842926">
        <ele>1038.3</ele>
        <time>2022-07-03T07:36:21Z</time>
      </trkpt>
      <trkpt lat="42.388419" lon="1.842832">
        <ele>1038.0</ele>
        <time>2022-07-03T07:36:29Z</time>
      </trkpt>
      <trkpt lat="42.388405" lon="1.842757">
        <ele>1037.9</ele>
        <time>2022-07-03T07:36:31Z</time>
      </trkpt>
      <trkpt lat="42.388397" lon="1.842668">
        <ele>1037.9</ele>
        <time>2022-07-03T07:36:33Z</time>
      </trkpt>
      <trkpt lat="42.388389" lon="1.842579">
        <ele>1037.9</ele>
        <time>2022-07-03T07:36:35Z</time>
      </trkpt>
      <trkpt lat="42.388383" lon="1.842476">
        <ele>1038.1</ele>
        <time>2022-07-03T07:36:37Z</time>
      </trkpt>
      <trkpt lat="42.388373" lon="1.842345">
        <ele>1038.4</ele>
        <time>2022-07-03T07:36:39Z</time>
      </trkpt>
      <trkpt lat="42.388365" lon="1.842271">
        <ele>1038.1</ele>
        <time>2022-07-03T07:36:40Z</time>
      </trkpt>
      <trkpt lat="42.388358" lon="1.842196">
        <ele>1038.1</ele>
        <time>2022-07-03T07:36:41Z</time>
      </trkpt>
      <trkpt lat="42.388354" lon="1.842120">
        <ele>1038.1</ele>
        <time>2022-07-03T07:36:42Z</time>
      </trkpt>
      <trkpt lat="42.388346" lon="1.842047">
        <ele>1038.2</ele>
        <time>2022-07-03T07:36:43Z</time>
      </trkpt>
      <trkpt lat="42.388322" lon="1.841913">
        <ele>1038.1</ele>
        <time>2022-07-03T07:36:45Z</time>
      </trkpt>
      <trkpt lat="42.388298" lon="1.841774">
        <ele>1037.9</ele>
        <time>2022-07-03T07:36:47Z</time>
      </trkpt>
      <trkpt lat="42.388272" lon="1.841642">
        <ele>1037.8</ele>
        <time>2022-07-03T07:36:49Z</time>
      </trkpt>
      <trkpt lat="42.388249" lon="1.841505">
        <ele>1037.5</ele>
        <time>2022-07-03T07:36:51Z</time>
      </trkpt>
      <trkpt lat="42.388222" lon="1.841364">
        <ele>1037.6</ele>
        <time>2022-07-03T07:36:53Z</time>
      </trkpt>
      <trkpt lat="42.388194" lon="1.841231">
        <ele>1037.5</ele>
        <time>2022-07-03T07:36:55Z</time>
      </trkpt>
      <trkpt lat="42.388163" lon="1.841105">
        <ele>1037.2</ele>
        <time>2022-07-03T07:36:57Z</time>
      </trkpt>
      <trkpt lat="42.388132" lon="1.840996">
        <ele>1037.2</ele>
        <time>2022-07-03T07:36:59Z</time>
      </trkpt>
      <trkpt lat="42.388090" lon="1.840892">
        <ele>1037.2</ele>
        <time>2022-07-03T07:37:01Z</time>
      </trkpt>
      <trkpt lat="42.388064" lon="1.840787">
        <ele>1037.0</ele>
        <time>2022-07-03T07:37:03Z</time>
      </trkpt>
      <trkpt lat="42.388024" lon="1.840698">
        <ele>1037.3</ele>
        <time>2022-07-03T07:37:05Z</time>
      </trkpt>
      <trkpt lat="42.387989" lon="1.840620">
        <ele>1037.1</ele>
        <time>2022-07-03T07:37:07Z</time>
      </trkpt>
      <trkpt lat="42.387952" lon="1.840551">
        <ele>1037.3</ele>
        <time>2022-07-03T07:37:09Z</time>
      </trkpt>
      <trkpt lat="42.387906" lon="1.840462">
        <ele>1037.4</ele>
        <time>2022-07-03T07:37:12Z</time>
      </trkpt>
      <trkpt lat="42.387867" lon="1.840392">
        <ele>1037.6</ele>
        <time>2022-07-03T07:37:14Z</time>
      </trkpt>
      <trkpt lat="42.387821" lon="1.840314">
        <ele>1037.6</ele>
        <time>2022-07-03T07:37:16Z</time>
      </trkpt>
      <trkpt lat="42.387775" lon="1.840240">
        <ele>1037.7</ele>
        <time>2022-07-03T07:37:18Z</time>
      </trkpt>
      <trkpt lat="42.387731" lon="1.840163">
        <ele>1037.5</ele>
        <time>2022-07-03T07:37:20Z</time>
      </trkpt>
      <trkpt lat="42.387684" lon="1.840074">
        <ele>1037.2</ele>
        <time>2022-07-03T07:37:22Z</time>
      </trkpt>
      <trkpt lat="42.387629" lon="1.839994">
        <ele>1037.5</ele>
        <time>2022-07-03T07:37:24Z</time>
      </trkpt>
      <trkpt lat="42.387569" lon="1.839925">
        <ele>1037.6</ele>
        <time>2022-07-03T07:37:26Z</time>
      </trkpt>
      <trkpt lat="42.387502" lon="1.839860">
        <ele>1037.8</ele>
        <time>2022-07-03T07:37:28Z</time>
      </trkpt>
      <trkpt lat="42.387435" lon="1.839788">
        <ele>1037.9</ele>
        <time>2022-07-03T07:37:30Z</time>
      </trkpt>
      <trkpt lat="42.387366" lon="1.839716">
        <ele>1038.0</ele>
        <time>2022-07-03T07:37:32Z</time>
      </trkpt>
      <trkpt lat="42.387292" lon="1.839641">
        <ele>1038.0</ele>
        <time>2022-07-03T07:37:34Z</time>
      </trkpt>
      <trkpt lat="42.387218" lon="1.839573">
        <ele>1037.9</ele>
        <time>2022-07-03T07:37:36Z</time>
      </trkpt>
      <trkpt lat="42.387154" lon="1.839509">
        <ele>1037.8</ele>
        <time>2022-07-03T07:37:38Z</time>
      </trkpt>
      <trkpt lat="42.387087" lon="1.839441">
        <ele>1037.7</ele>
        <time>2022-07-03T07:37:40Z</time>
      </trkpt>
      <trkpt lat="42.387021" lon="1.839384">
        <ele>1037.8</ele>
        <time>2022-07-03T07:37:42Z</time>
      </trkpt>
      <trkpt lat="42.386955" lon="1.839331">
        <ele>1037.8</ele>
        <time>2022-07-03T07:37:44Z</time>
      </trkpt>
      <trkpt lat="42.386881" lon="1.839279">
        <ele>1037.7</ele>
        <time>2022-07-03T07:37:46Z</time>
      </trkpt>
      <trkpt lat="42.386807" lon="1.839220">
        <ele>1037.7</ele>
        <time>2022-07-03T07:37:48Z</time>
      </trkpt>
      <trkpt lat="42.386733" lon="1.839153">
        <ele>1037.2</ele>
        <time>2022-07-03T07:37:50Z</time>
      </trkpt>
      <trkpt lat="42.386689" lon="1.839108">
        <ele>1037.0</ele>
        <time>2022-07-03T07:37:51Z</time>
      </trkpt>
      <trkpt lat="42.386595" lon="1.839036">
        <ele>1037.4</ele>
        <time>2022-07-03T07:37:53Z</time>
      </trkpt>
      <trkpt lat="42.386498" lon="1.838973">
        <ele>1037.3</ele>
        <time>2022-07-03T07:37:55Z</time>
      </trkpt>
      <trkpt lat="42.386447" lon="1.838944">
        <ele>1036.8</ele>
        <time>2022-07-03T07:37:56Z</time>
      </trkpt>
      <trkpt lat="42.386396" lon="1.838914">
        <ele>1037.0</ele>
        <time>2022-07-03T07:37:57Z</time>
      </trkpt>
      <trkpt lat="42.386346" lon="1.838881">
        <ele>1036.9</ele>
        <time>2022-07-03T07:37:58Z</time>
      </trkpt>
      <trkpt lat="42.386297" lon="1.838849">
        <ele>1036.9</ele>
        <time>2022-07-03T07:37:59Z</time>
      </trkpt>
      <trkpt lat="42.386244" lon="1.838816">
        <ele>1036.8</ele>
        <time>2022-07-03T07:38:00Z</time>
      </trkpt>
      <trkpt lat="42.386192" lon="1.838787">
        <ele>1036.8</ele>
        <time>2022-07-03T07:38:01Z</time>
      </trkpt>
      <trkpt lat="42.386141" lon="1.838755">
        <ele>1036.7</ele>
        <time>2022-07-03T07:38:02Z</time>
      </trkpt>
      <trkpt lat="42.386092" lon="1.838722">
        <ele>1036.6</ele>
        <time>2022-07-03T07:38:03Z</time>
      </trkpt>
      <trkpt lat="42.385995" lon="1.838661">
        <ele>1035.9</ele>
        <time>2022-07-03T07:38:05Z</time>
      </trkpt>
      <trkpt lat="42.385897" lon="1.838607">
        <ele>1035.8</ele>
        <time>2022-07-03T07:38:07Z</time>
      </trkpt>
      <trkpt lat="42.385803" lon="1.838558">
        <ele>1035.6</ele>
        <time>2022-07-03T07:38:09Z</time>
      </trkpt>
      <trkpt lat="42.385708" lon="1.838532">
        <ele>1035.8</ele>
        <time>2022-07-03T07:38:11Z</time>
      </trkpt>
      <trkpt lat="42.385609" lon="1.838495">
        <ele>1034.9</ele>
        <time>2022-07-03T07:38:13Z</time>
      </trkpt>
      <trkpt lat="42.385505" lon="1.838436">
        <ele>1035.2</ele>
        <time>2022-07-03T07:38:15Z</time>
      </trkpt>
      <trkpt lat="42.385412" lon="1.838397">
        <ele>1034.7</ele>
        <time>2022-07-03T07:38:17Z</time>
      </trkpt>
      <trkpt lat="42.385363" lon="1.838359">
        <ele>1034.5</ele>
        <time>2022-07-03T07:38:18Z</time>
      </trkpt>
      <trkpt lat="42.385314" lon="1.838320">
        <ele>1034.9</ele>
        <time>2022-07-03T07:38:19Z</time>
      </trkpt>
      <trkpt lat="42.385263" lon="1.838288">
        <ele>1034.8</ele>
        <time>2022-07-03T07:38:20Z</time>
      </trkpt>
      <trkpt lat="42.385159" lon="1.838211">
        <ele>1034.7</ele>
        <time>2022-07-03T07:38:22Z</time>
      </trkpt>
      <trkpt lat="42.385105" lon="1.838172">
        <ele>1034.4</ele>
        <time>2022-07-03T07:38:23Z</time>
      </trkpt>
      <trkpt lat="42.385058" lon="1.838129">
        <ele>1034.3</ele>
        <time>2022-07-03T07:38:24Z</time>
      </trkpt>
      <trkpt lat="42.384970" lon="1.838053">
        <ele>1034.3</ele>
        <time>2022-07-03T07:38:26Z</time>
      </trkpt>
      <trkpt lat="42.384924" lon="1.838006">
        <ele>1034.7</ele>
        <time>2022-07-03T07:38:27Z</time>
      </trkpt>
      <trkpt lat="42.384878" lon="1.837960">
        <ele>1034.6</ele>
        <time>2022-07-03T07:38:28Z</time>
      </trkpt>
      <trkpt lat="42.384829" lon="1.837918">
        <ele>1034.6</ele>
        <time>2022-07-03T07:38:29Z</time>
      </trkpt>
      <trkpt lat="42.384779" lon="1.837885">
        <ele>1034.5</ele>
        <time>2022-07-03T07:38:30Z</time>
      </trkpt>
      <trkpt lat="42.384739" lon="1.837828">
        <ele>1034.4</ele>
        <time>2022-07-03T07:38:31Z</time>
      </trkpt>
      <trkpt lat="42.384665" lon="1.837737">
        <ele>1033.9</ele>
        <time>2022-07-03T07:38:33Z</time>
      </trkpt>
      <trkpt lat="42.384585" lon="1.837654">
        <ele>1033.9</ele>
        <time>2022-07-03T07:38:35Z</time>
      </trkpt>
      <trkpt lat="42.384534" lon="1.837568">
        <ele>1033.8</ele>
        <time>2022-07-03T07:38:37Z</time>
      </trkpt>
      <trkpt lat="42.384496" lon="1.837501">
        <ele>1033.5</ele>
        <time>2022-07-03T07:38:39Z</time>
      </trkpt>
      <trkpt lat="42.384503" lon="1.837427">
        <ele>1033.5</ele>
        <time>2022-07-03T07:38:43Z</time>
      </trkpt>
      <trkpt lat="42.384491" lon="1.837345">
        <ele>1033.9</ele>
        <time>2022-07-03T07:38:48Z</time>
      </trkpt>
      <trkpt lat="42.384467" lon="1.837280">
        <ele>1033.7</ele>
        <time>2022-07-03T07:38:55Z</time>
      </trkpt>
      <trkpt lat="42.384414" lon="1.837255">
        <ele>1033.6</ele>
        <time>2022-07-03T07:38:58Z</time>
      </trkpt>
      <trkpt lat="42.384364" lon="1.837200">
        <ele>1033.6</ele>
        <time>2022-07-03T07:39:00Z</time>
      </trkpt>
      <trkpt lat="42.384334" lon="1.837136">
        <ele>1033.5</ele>
        <time>2022-07-03T07:39:02Z</time>
      </trkpt>
      <trkpt lat="42.384305" lon="1.837063">
        <ele>1033.5</ele>
        <time>2022-07-03T07:39:04Z</time>
      </trkpt>
      <trkpt lat="42.384273" lon="1.836992">
        <ele>1033.7</ele>
        <time>2022-07-03T07:39:06Z</time>
      </trkpt>
      <trkpt lat="42.384223" lon="1.836921">
        <ele>1034.1</ele>
        <time>2022-07-03T07:39:09Z</time>
      </trkpt>
      <trkpt lat="42.384172" lon="1.836862">
        <ele>1034.2</ele>
        <time>2022-07-03T07:39:11Z</time>
      </trkpt>
      <trkpt lat="42.384125" lon="1.836772">
        <ele>1034.3</ele>
        <time>2022-07-03T07:39:13Z</time>
      </trkpt>
      <trkpt lat="42.384083" lon="1.836684">
        <ele>1034.4</ele>
        <time>2022-07-03T07:39:15Z</time>
      </trkpt>
      <trkpt lat="42.384044" lon="1.836588">
        <ele>1034.4</ele>
        <time>2022-07-03T07:39:17Z</time>
      </trkpt>
      <trkpt lat="42.384014" lon="1.836504">
        <ele>1034.4</ele>
        <time>2022-07-03T07:39:19Z</time>
      </trkpt>
      <trkpt lat="42.383980" lon="1.836418">
        <ele>1034.6</ele>
        <time>2022-07-03T07:39:21Z</time>
      </trkpt>
      <trkpt lat="42.383952" lon="1.836342">
        <ele>1034.8</ele>
        <time>2022-07-03T07:39:23Z</time>
      </trkpt>
      <trkpt lat="42.383930" lon="1.836259">
        <ele>1034.9</ele>
        <time>2022-07-03T07:39:25Z</time>
      </trkpt>
      <trkpt lat="42.383898" lon="1.836165">
        <ele>1034.6</ele>
        <time>2022-07-03T07:39:27Z</time>
      </trkpt>
      <trkpt lat="42.383863" lon="1.836073">
        <ele>1034.6</ele>
        <time>2022-07-03T07:39:29Z</time>
      </trkpt>
      <trkpt lat="42.383822" lon="1.835990">
        <ele>1034.8</ele>
        <time>2022-07-03T07:39:31Z</time>
      </trkpt>
      <trkpt lat="42.383785" lon="1.835889">
        <ele>1034.3</ele>
        <time>2022-07-03T07:39:33Z</time>
      </trkpt>
      <trkpt lat="42.383748" lon="1.835794">
        <ele>1034.3</ele>
        <time>2022-07-03T07:39:35Z</time>
      </trkpt>
      <trkpt lat="42.383706" lon="1.835687">
        <ele>1033.8</ele>
        <time>2022-07-03T07:39:37Z</time>
      </trkpt>
      <trkpt lat="42.383676" lon="1.835591">
        <ele>1033.8</ele>
        <time>2022-07-03T07:39:39Z</time>
      </trkpt>
      <trkpt lat="42.383640" lon="1.835490">
        <ele>1034.2</ele>
        <time>2022-07-03T07:39:41Z</time>
      </trkpt>
      <trkpt lat="42.383604" lon="1.835399">
        <ele>1034.5</ele>
        <time>2022-07-03T07:39:43Z</time>
      </trkpt>
      <trkpt lat="42.383558" lon="1.835303">
        <ele>1034.7</ele>
        <time>2022-07-03T07:39:45Z</time>
      </trkpt>
      <trkpt lat="42.383498" lon="1.835198">
        <ele>1034.6</ele>
        <time>2022-07-03T07:39:47Z</time>
      </trkpt>
      <trkpt lat="42.383446" lon="1.835085">
        <ele>1034.5</ele>
        <time>2022-07-03T07:39:49Z</time>
      </trkpt>
      <trkpt lat="42.383402" lon="1.834980">
        <ele>1034.4</ele>
        <time>2022-07-03T07:39:51Z</time>
      </trkpt>
      <trkpt lat="42.383371" lon="1.834866">
        <ele>1034.6</ele>
        <time>2022-07-03T07:39:53Z</time>
      </trkpt>
      <trkpt lat="42.383329" lon="1.834755">
        <ele>1034.6</ele>
        <time>2022-07-03T07:39:55Z</time>
      </trkpt>
      <trkpt lat="42.383277" lon="1.834636">
        <ele>1034.3</ele>
        <time>2022-07-03T07:39:57Z</time>
      </trkpt>
      <trkpt lat="42.383242" lon="1.834579">
        <ele>1034.1</ele>
        <time>2022-07-03T07:39:58Z</time>
      </trkpt>
      <trkpt lat="42.383204" lon="1.834524">
        <ele>1033.7</ele>
        <time>2022-07-03T07:39:59Z</time>
      </trkpt>
      <trkpt lat="42.383162" lon="1.834463">
        <ele>1033.3</ele>
        <time>2022-07-03T07:40:00Z</time>
      </trkpt>
      <trkpt lat="42.383120" lon="1.834404">
        <ele>1033.1</ele>
        <time>2022-07-03T07:40:01Z</time>
      </trkpt>
      <trkpt lat="42.383077" lon="1.834346">
        <ele>1032.8</ele>
        <time>2022-07-03T07:40:02Z</time>
      </trkpt>
      <trkpt lat="42.383035" lon="1.834288">
        <ele>1032.2</ele>
        <time>2022-07-03T07:40:03Z</time>
      </trkpt>
      <trkpt lat="42.382996" lon="1.834237">
        <ele>1031.6</ele>
        <time>2022-07-03T07:40:04Z</time>
      </trkpt>
      <trkpt lat="42.382915" lon="1.834142">
        <ele>1031.5</ele>
        <time>2022-07-03T07:40:06Z</time>
      </trkpt>
      <trkpt lat="42.382873" lon="1.834084">
        <ele>1031.4</ele>
        <time>2022-07-03T07:40:07Z</time>
      </trkpt>
      <trkpt lat="42.382833" lon="1.834025">
        <ele>1031.5</ele>
        <time>2022-07-03T07:40:08Z</time>
      </trkpt>
      <trkpt lat="42.382795" lon="1.833969">
        <ele>1032.0</ele>
        <time>2022-07-03T07:40:09Z</time>
      </trkpt>
      <trkpt lat="42.382759" lon="1.833912">
        <ele>1032.7</ele>
        <time>2022-07-03T07:40:10Z</time>
      </trkpt>
      <trkpt lat="42.382718" lon="1.833858">
        <ele>1032.6</ele>
        <time>2022-07-03T07:40:11Z</time>
      </trkpt>
      <trkpt lat="42.382677" lon="1.833809">
        <ele>1032.4</ele>
        <time>2022-07-03T07:40:12Z</time>
      </trkpt>
      <trkpt lat="42.382610" lon="1.833734">
        <ele>1031.8</ele>
        <time>2022-07-03T07:40:14Z</time>
      </trkpt>
      <trkpt lat="42.382563" lon="1.833686">
        <ele>1031.4</ele>
        <time>2022-07-03T07:40:16Z</time>
      </trkpt>
      <trkpt lat="42.382524" lon="1.833636">
        <ele>1031.2</ele>
        <time>2022-07-03T07:40:18Z</time>
      </trkpt>
      <trkpt lat="42.382475" lon="1.833580">
        <ele>1030.7</ele>
        <time>2022-07-03T07:40:21Z</time>
      </trkpt>
      <trkpt lat="42.382423" lon="1.833517">
        <ele>1030.5</ele>
        <time>2022-07-03T07:40:24Z</time>
      </trkpt>
      <trkpt lat="42.382375" lon="1.833458">
        <ele>1030.2</ele>
        <time>2022-07-03T07:40:27Z</time>
      </trkpt>
      <trkpt lat="42.382303" lon="1.833409">
        <ele>1030.6</ele>
        <time>2022-07-03T07:40:31Z</time>
      </trkpt>
      <trkpt lat="42.382232" lon="1.833364">
        <ele>1030.4</ele>
        <time>2022-07-03T07:40:34Z</time>
      </trkpt>
      <trkpt lat="42.382165" lon="1.833325">
        <ele>1030.3</ele>
        <time>2022-07-03T07:40:37Z</time>
      </trkpt>
      <trkpt lat="42.382091" lon="1.833290">
        <ele>1031.3</ele>
        <time>2022-07-03T07:40:40Z</time>
      </trkpt>
      <trkpt lat="42.382030" lon="1.833266">
        <ele>1030.7</ele>
        <time>2022-07-03T07:40:42Z</time>
      </trkpt>
      <trkpt lat="42.381947" lon="1.833242">
        <ele>1030.6</ele>
        <time>2022-07-03T07:40:44Z</time>
      </trkpt>
      <trkpt lat="42.381866" lon="1.833214">
        <ele>1030.5</ele>
        <time>2022-07-03T07:40:46Z</time>
      </trkpt>
      <trkpt lat="42.381790" lon="1.833172">
        <ele>1030.7</ele>
        <time>2022-07-03T07:40:48Z</time>
      </trkpt>
      <trkpt lat="42.381718" lon="1.833108">
        <ele>1030.8</ele>
        <time>2022-07-03T07:40:50Z</time>
      </trkpt>
      <trkpt lat="42.381636" lon="1.833044">
        <ele>1030.9</ele>
        <time>2022-07-03T07:40:52Z</time>
      </trkpt>
      <trkpt lat="42.381553" lon="1.832989">
        <ele>1030.9</ele>
        <time>2022-07-03T07:40:54Z</time>
      </trkpt>
      <trkpt lat="42.381472" lon="1.832928">
        <ele>1031.3</ele>
        <time>2022-07-03T07:40:56Z</time>
      </trkpt>
      <trkpt lat="42.381393" lon="1.832858">
        <ele>1031.0</ele>
        <time>2022-07-03T07:40:58Z</time>
      </trkpt>
      <trkpt lat="42.381310" lon="1.832780">
        <ele>1031.1</ele>
        <time>2022-07-03T07:41:00Z</time>
      </trkpt>
      <trkpt lat="42.381231" lon="1.832712">
        <ele>1030.8</ele>
        <time>2022-07-03T07:41:02Z</time>
      </trkpt>
      <trkpt lat="42.381155" lon="1.832635">
        <ele>1030.4</ele>
        <time>2022-07-03T07:41:04Z</time>
      </trkpt>
      <trkpt lat="42.381097" lon="1.832540">
        <ele>1030.5</ele>
        <time>2022-07-03T07:41:06Z</time>
      </trkpt>
      <trkpt lat="42.381035" lon="1.832438">
        <ele>1030.5</ele>
        <time>2022-07-03T07:41:08Z</time>
      </trkpt>
      <trkpt lat="42.380983" lon="1.832330">
        <ele>1030.4</ele>
        <time>2022-07-03T07:41:10Z</time>
      </trkpt>
      <trkpt lat="42.380932" lon="1.832219">
        <ele>1030.2</ele>
        <time>2022-07-03T07:41:12Z</time>
      </trkpt>
      <trkpt lat="42.380882" lon="1.832119">
        <ele>1030.0</ele>
        <time>2022-07-03T07:41:14Z</time>
      </trkpt>
      <trkpt lat="42.380827" lon="1.832036">
        <ele>1030.3</ele>
        <time>2022-07-03T07:41:16Z</time>
      </trkpt>
      <trkpt lat="42.380772" lon="1.831949">
        <ele>1029.7</ele>
        <time>2022-07-03T07:41:18Z</time>
      </trkpt>
      <trkpt lat="42.380717" lon="1.831855">
        <ele>1029.6</ele>
        <time>2022-07-03T07:41:20Z</time>
      </trkpt>
      <trkpt lat="42.380661" lon="1.831751">
        <ele>1029.5</ele>
        <time>2022-07-03T07:41:22Z</time>
      </trkpt>
      <trkpt lat="42.380604" lon="1.831649">
        <ele>1029.7</ele>
        <time>2022-07-03T07:41:24Z</time>
      </trkpt>
      <trkpt lat="42.380550" lon="1.831554">
        <ele>1029.7</ele>
        <time>2022-07-03T07:41:26Z</time>
      </trkpt>
      <trkpt lat="42.380504" lon="1.831472">
        <ele>1029.7</ele>
        <time>2022-07-03T07:41:28Z</time>
      </trkpt>
      <trkpt lat="42.380453" lon="1.831387">
        <ele>1029.4</ele>
        <time>2022-07-03T07:41:31Z</time>
      </trkpt>
      <trkpt lat="42.380406" lon="1.831297">
        <ele>1029.3</ele>
        <time>2022-07-03T07:41:34Z</time>
      </trkpt>
      <trkpt lat="42.380384" lon="1.831202">
        <ele>1029.1</ele>
        <time>2022-07-03T07:41:36Z</time>
      </trkpt>
      <trkpt lat="42.380383" lon="1.831092">
        <ele>1029.2</ele>
        <time>2022-07-03T07:41:38Z</time>
      </trkpt>
      <trkpt lat="42.380394" lon="1.830985">
        <ele>1029.2</ele>
        <time>2022-07-03T07:41:40Z</time>
      </trkpt>
      <trkpt lat="42.380405" lon="1.830870">
        <ele>1029.2</ele>
        <time>2022-07-03T07:41:42Z</time>
      </trkpt>
      <trkpt lat="42.380411" lon="1.830762">
        <ele>1029.5</ele>
        <time>2022-07-03T07:41:44Z</time>
      </trkpt>
      <trkpt lat="42.380411" lon="1.830650">
        <ele>1029.7</ele>
        <time>2022-07-03T07:41:46Z</time>
      </trkpt>
      <trkpt lat="42.380414" lon="1.830538">
        <ele>1029.7</ele>
        <time>2022-07-03T07:41:48Z</time>
      </trkpt>
      <trkpt lat="42.380407" lon="1.830416">
        <ele>1029.6</ele>
        <time>2022-07-03T07:41:50Z</time>
      </trkpt>
      <trkpt lat="42.380384" lon="1.830299">
        <ele>1029.8</ele>
        <time>2022-07-03T07:41:52Z</time>
      </trkpt>
      <trkpt lat="42.380357" lon="1.830196">
        <ele>1030.0</ele>
        <time>2022-07-03T07:41:54Z</time>
      </trkpt>
      <trkpt lat="42.380333" lon="1.830096">
        <ele>1030.2</ele>
        <time>2022-07-03T07:41:56Z</time>
      </trkpt>
      <trkpt lat="42.380313" lon="1.829996">
        <ele>1030.4</ele>
        <time>2022-07-03T07:41:58Z</time>
      </trkpt>
      <trkpt lat="42.380296" lon="1.829880">
        <ele>1030.6</ele>
        <time>2022-07-03T07:42:00Z</time>
      </trkpt>
      <trkpt lat="42.380281" lon="1.829749">
        <ele>1030.7</ele>
        <time>2022-07-03T07:42:02Z</time>
      </trkpt>
      <trkpt lat="42.380260" lon="1.829611">
        <ele>1030.9</ele>
        <time>2022-07-03T07:42:04Z</time>
      </trkpt>
      <trkpt lat="42.380226" lon="1.829475">
        <ele>1030.7</ele>
        <time>2022-07-03T07:42:06Z</time>
      </trkpt>
      <trkpt lat="42.380177" lon="1.829343">
        <ele>1030.2</ele>
        <time>2022-07-03T07:42:08Z</time>
      </trkpt>
      <trkpt lat="42.380148" lon="1.829274">
        <ele>1030.2</ele>
        <time>2022-07-03T07:42:09Z</time>
      </trkpt>
      <trkpt lat="42.380121" lon="1.829204">
        <ele>1030.3</ele>
        <time>2022-07-03T07:42:10Z</time>
      </trkpt>
      <trkpt lat="42.380093" lon="1.829135">
        <ele>1030.2</ele>
        <time>2022-07-03T07:42:11Z</time>
      </trkpt>
      <trkpt lat="42.380066" lon="1.829064">
        <ele>1030.1</ele>
        <time>2022-07-03T07:42:12Z</time>
      </trkpt>
      <trkpt lat="42.380042" lon="1.828990">
        <ele>1030.4</ele>
        <time>2022-07-03T07:42:13Z</time>
      </trkpt>
      <trkpt lat="42.380018" lon="1.828920">
        <ele>1030.4</ele>
        <time>2022-07-03T07:42:14Z</time>
      </trkpt>
      <trkpt lat="42.379993" lon="1.828852">
        <ele>1030.2</ele>
        <time>2022-07-03T07:42:15Z</time>
      </trkpt>
      <trkpt lat="42.379947" lon="1.828720">
        <ele>1030.4</ele>
        <time>2022-07-03T07:42:17Z</time>
      </trkpt>
      <trkpt lat="42.379904" lon="1.828593">
        <ele>1030.2</ele>
        <time>2022-07-03T07:42:19Z</time>
      </trkpt>
      <trkpt lat="42.379865" lon="1.828539">
        <ele>1030.1</ele>
        <time>2022-07-03T07:42:20Z</time>
      </trkpt>
      <trkpt lat="42.379771" lon="1.828528">
        <ele>1029.9</ele>
        <time>2022-07-03T07:42:22Z</time>
      </trkpt>
      <trkpt lat="42.379688" lon="1.828570">
        <ele>1029.9</ele>
        <time>2022-07-03T07:42:24Z</time>
      </trkpt>
      <trkpt lat="42.379644" lon="1.828612">
        <ele>1030.2</ele>
        <time>2022-07-03T07:42:25Z</time>
      </trkpt>
      <trkpt lat="42.379551" lon="1.828665">
        <ele>1030.1</ele>
        <time>2022-07-03T07:42:27Z</time>
      </trkpt>
      <trkpt lat="42.379458" lon="1.828729">
        <ele>1030.1</ele>
        <time>2022-07-03T07:42:29Z</time>
      </trkpt>
      <trkpt lat="42.379369" lon="1.828787">
        <ele>1029.8</ele>
        <time>2022-07-03T07:42:31Z</time>
      </trkpt>
      <trkpt lat="42.379275" lon="1.828842">
        <ele>1030.0</ele>
        <time>2022-07-03T07:42:33Z</time>
      </trkpt>
      <trkpt lat="42.379179" lon="1.828890">
        <ele>1030.0</ele>
        <time>2022-07-03T07:42:35Z</time>
      </trkpt>
      <trkpt lat="42.379085" lon="1.828917">
        <ele>1029.8</ele>
        <time>2022-07-03T07:42:37Z</time>
      </trkpt>
      <trkpt lat="42.378991" lon="1.828930">
        <ele>1029.7</ele>
        <time>2022-07-03T07:42:39Z</time>
      </trkpt>
      <trkpt lat="42.378937" lon="1.828934">
        <ele>1029.6</ele>
        <time>2022-07-03T07:42:40Z</time>
      </trkpt>
      <trkpt lat="42.378825" lon="1.828958">
        <ele>1029.6</ele>
        <time>2022-07-03T07:42:42Z</time>
      </trkpt>
      <trkpt lat="42.378713" lon="1.828975">
        <ele>1029.3</ele>
        <time>2022-07-03T07:42:44Z</time>
      </trkpt>
      <trkpt lat="42.378647" lon="1.828947">
        <ele>1029.1</ele>
        <time>2022-07-03T07:42:45Z</time>
      </trkpt>
      <trkpt lat="42.378588" lon="1.828914">
        <ele>1028.9</ele>
        <time>2022-07-03T07:42:46Z</time>
      </trkpt>
      <trkpt lat="42.378529" lon="1.828866">
        <ele>1028.7</ele>
        <time>2022-07-03T07:42:47Z</time>
      </trkpt>
      <trkpt lat="42.378470" lon="1.828813">
        <ele>1028.7</ele>
        <time>2022-07-03T07:42:48Z</time>
      </trkpt>
      <trkpt lat="42.378415" lon="1.828759">
        <ele>1028.2</ele>
        <time>2022-07-03T07:42:49Z</time>
      </trkpt>
      <trkpt lat="42.378361" lon="1.828704">
        <ele>1028.2</ele>
        <time>2022-07-03T07:42:50Z</time>
      </trkpt>
      <trkpt lat="42.378304" lon="1.828660">
        <ele>1027.2</ele>
        <time>2022-07-03T07:42:51Z</time>
      </trkpt>
      <trkpt lat="42.378252" lon="1.828611">
        <ele>1027.3</ele>
        <time>2022-07-03T07:42:52Z</time>
      </trkpt>
      <trkpt lat="42.378205" lon="1.828561">
        <ele>1027.4</ele>
        <time>2022-07-03T07:42:53Z</time>
      </trkpt>
      <trkpt lat="42.378161" lon="1.828506">
        <ele>1027.8</ele>
        <time>2022-07-03T07:42:54Z</time>
      </trkpt>
      <trkpt lat="42.378119" lon="1.828456">
        <ele>1028.1</ele>
        <time>2022-07-03T07:42:55Z</time>
      </trkpt>
      <trkpt lat="42.378051" lon="1.828357">
        <ele>1027.6</ele>
        <time>2022-07-03T07:42:57Z</time>
      </trkpt>
      <trkpt lat="42.377996" lon="1.828255">
        <ele>1027.5</ele>
        <time>2022-07-03T07:42:59Z</time>
      </trkpt>
      <trkpt lat="42.377949" lon="1.828151">
        <ele>1027.3</ele>
        <time>2022-07-03T07:43:01Z</time>
      </trkpt>
      <trkpt lat="42.377913" lon="1.828041">
        <ele>1027.4</ele>
        <time>2022-07-03T07:43:03Z</time>
      </trkpt>
      <trkpt lat="42.377885" lon="1.827930">
        <ele>1027.5</ele>
        <time>2022-07-03T07:43:05Z</time>
      </trkpt>
      <trkpt lat="42.377851" lon="1.827824">
        <ele>1027.9</ele>
        <time>2022-07-03T07:43:07Z</time>
      </trkpt>
      <trkpt lat="42.377823" lon="1.827702">
        <ele>1027.7</ele>
        <time>2022-07-03T07:43:09Z</time>
      </trkpt>
      <trkpt lat="42.377803" lon="1.827584">
        <ele>1027.8</ele>
        <time>2022-07-03T07:43:11Z</time>
      </trkpt>
      <trkpt lat="42.377775" lon="1.827470">
        <ele>1027.9</ele>
        <time>2022-07-03T07:43:13Z</time>
      </trkpt>
      <trkpt lat="42.377755" lon="1.827359">
        <ele>1029.1</ele>
        <time>2022-07-03T07:43:15Z</time>
      </trkpt>
      <trkpt lat="42.377744" lon="1.827243">
        <ele>1028.9</ele>
        <time>2022-07-03T07:43:17Z</time>
      </trkpt>
      <trkpt lat="42.377739" lon="1.827119">
        <ele>1028.6</ele>
        <time>2022-07-03T07:43:19Z</time>
      </trkpt>
      <trkpt lat="42.377747" lon="1.826994">
        <ele>1027.9</ele>
        <time>2022-07-03T07:43:21Z</time>
      </trkpt>
      <trkpt lat="42.377773" lon="1.826877">
        <ele>1027.7</ele>
        <time>2022-07-03T07:43:23Z</time>
      </trkpt>
      <trkpt lat="42.377801" lon="1.826758">
        <ele>1027.5</ele>
        <time>2022-07-03T07:43:25Z</time>
      </trkpt>
      <trkpt lat="42.377843" lon="1.826647">
        <ele>1027.4</ele>
        <time>2022-07-03T07:43:27Z</time>
      </trkpt>
      <trkpt lat="42.377884" lon="1.826526">
        <ele>1027.5</ele>
        <time>2022-07-03T07:43:29Z</time>
      </trkpt>
      <trkpt lat="42.377931" lon="1.826411">
        <ele>1027.3</ele>
        <time>2022-07-03T07:43:31Z</time>
      </trkpt>
      <trkpt lat="42.377986" lon="1.826309">
        <ele>1026.8</ele>
        <time>2022-07-03T07:43:33Z</time>
      </trkpt>
      <trkpt lat="42.378038" lon="1.826218">
        <ele>1026.9</ele>
        <time>2022-07-03T07:43:35Z</time>
      </trkpt>
      <trkpt lat="42.378084" lon="1.826120">
        <ele>1027.1</ele>
        <time>2022-07-03T07:43:37Z</time>
      </trkpt>
      <trkpt lat="42.378126" lon="1.826023">
        <ele>1027.3</ele>
        <time>2022-07-03T07:43:39Z</time>
      </trkpt>
      <trkpt lat="42.378168" lon="1.825924">
        <ele>1027.5</ele>
        <time>2022-07-03T07:43:41Z</time>
      </trkpt>
      <trkpt lat="42.378202" lon="1.825807">
        <ele>1027.5</ele>
        <time>2022-07-03T07:43:43Z</time>
      </trkpt>
      <trkpt lat="42.378226" lon="1.825688">
        <ele>1027.6</ele>
        <time>2022-07-03T07:43:45Z</time>
      </trkpt>
      <trkpt lat="42.378255" lon="1.825567">
        <ele>1027.8</ele>
        <time>2022-07-03T07:43:47Z</time>
      </trkpt>
      <trkpt lat="42.378278" lon="1.825440">
        <ele>1028.0</ele>
        <time>2022-07-03T07:43:49Z</time>
      </trkpt>
      <trkpt lat="42.378294" lon="1.825306">
        <ele>1027.9</ele>
        <time>2022-07-03T07:43:51Z</time>
      </trkpt>
      <trkpt lat="42.378312" lon="1.825174">
        <ele>1027.9</ele>
        <time>2022-07-03T07:43:53Z</time>
      </trkpt>
      <trkpt lat="42.378323" lon="1.825039">
        <ele>1027.9</ele>
        <time>2022-07-03T07:43:55Z</time>
      </trkpt>
      <trkpt lat="42.378327" lon="1.824897">
        <ele>1027.6</ele>
        <time>2022-07-03T07:43:57Z</time>
      </trkpt>
      <trkpt lat="42.378326" lon="1.824823">
        <ele>1027.7</ele>
        <time>2022-07-03T07:43:58Z</time>
      </trkpt>
      <trkpt lat="42.378323" lon="1.824692">
        <ele>1029.1</ele>
        <time>2022-07-03T07:44:00Z</time>
      </trkpt>
      <trkpt lat="42.378304" lon="1.824568">
        <ele>1028.4</ele>
        <time>2022-07-03T07:44:02Z</time>
      </trkpt>
      <trkpt lat="42.378271" lon="1.824438">
        <ele>1028.3</ele>
        <time>2022-07-03T07:44:04Z</time>
      </trkpt>
      <trkpt lat="42.378238" lon="1.824313">
        <ele>1028.2</ele>
        <time>2022-07-03T07:44:06Z</time>
      </trkpt>
      <trkpt lat="42.378208" lon="1.824181">
        <ele>1027.9</ele>
        <time>2022-07-03T07:44:08Z</time>
      </trkpt>
      <trkpt lat="42.378166" lon="1.824059">
        <ele>1027.6</ele>
        <time>2022-07-03T07:44:10Z</time>
      </trkpt>
      <trkpt lat="42.378126" lon="1.823941">
        <ele>1027.3</ele>
        <time>2022-07-03T07:44:12Z</time>
      </trkpt>
      <trkpt lat="42.378068" lon="1.823821">
        <ele>1027.4</ele>
        <time>2022-07-03T07:44:14Z</time>
      </trkpt>
      <trkpt lat="42.378010" lon="1.823725">
        <ele>1027.7</ele>
        <time>2022-07-03T07:44:16Z</time>
      </trkpt>
      <trkpt lat="42.377960" lon="1.823633">
        <ele>1027.4</ele>
        <time>2022-07-03T07:44:18Z</time>
      </trkpt>
      <trkpt lat="42.377896" lon="1.823570">
        <ele>1027.6</ele>
        <time>2022-07-03T07:44:20Z</time>
      </trkpt>
      <trkpt lat="42.377841" lon="1.823543">
        <ele>1027.6</ele>
        <time>2022-07-03T07:44:22Z</time>
      </trkpt>
      <trkpt lat="42.377784" lon="1.823522">
        <ele>1026.9</ele>
        <time>2022-07-03T07:44:25Z</time>
      </trkpt>
      <trkpt lat="42.377732" lon="1.823456">
        <ele>1026.6</ele>
        <time>2022-07-03T07:44:28Z</time>
      </trkpt>
      <trkpt lat="42.377668" lon="1.823400">
        <ele>1026.2</ele>
        <time>2022-07-03T07:44:30Z</time>
      </trkpt>
      <trkpt lat="42.377605" lon="1.823340">
        <ele>1026.4</ele>
        <time>2022-07-03T07:44:32Z</time>
      </trkpt>
      <trkpt lat="42.377541" lon="1.823290">
        <ele>1026.6</ele>
        <time>2022-07-03T07:44:34Z</time>
      </trkpt>
      <trkpt lat="42.377474" lon="1.823238">
        <ele>1026.3</ele>
        <time>2022-07-03T07:44:36Z</time>
      </trkpt>
      <trkpt lat="42.377402" lon="1.823182">
        <ele>1026.4</ele>
        <time>2022-07-03T07:44:38Z</time>
      </trkpt>
      <trkpt lat="42.377329" lon="1.823126">
        <ele>1026.7</ele>
        <time>2022-07-03T07:44:40Z</time>
      </trkpt>
      <trkpt lat="42.377262" lon="1.823069">
        <ele>1026.8</ele>
        <time>2022-07-03T07:44:42Z</time>
      </trkpt>
      <trkpt lat="42.377208" lon="1.823001">
        <ele>1027.0</ele>
        <time>2022-07-03T07:44:44Z</time>
      </trkpt>
      <trkpt lat="42.377149" lon="1.822929">
        <ele>1027.0</ele>
        <time>2022-07-03T07:44:46Z</time>
      </trkpt>
      <trkpt lat="42.377090" lon="1.822862">
        <ele>1026.8</ele>
        <time>2022-07-03T07:44:48Z</time>
      </trkpt>
      <trkpt lat="42.377024" lon="1.822800">
        <ele>1026.7</ele>
        <time>2022-07-03T07:44:50Z</time>
      </trkpt>
      <trkpt lat="42.376948" lon="1.822758">
        <ele>1026.5</ele>
        <time>2022-07-03T07:44:52Z</time>
      </trkpt>
      <trkpt lat="42.376866" lon="1.822704">
        <ele>1026.4</ele>
        <time>2022-07-03T07:44:54Z</time>
      </trkpt>
      <trkpt lat="42.376786" lon="1.822648">
        <ele>1026.4</ele>
        <time>2022-07-03T07:44:56Z</time>
      </trkpt>
      <trkpt lat="42.376709" lon="1.822606">
        <ele>1026.1</ele>
        <time>2022-07-03T07:44:58Z</time>
      </trkpt>
      <trkpt lat="42.376634" lon="1.822574">
        <ele>1026.5</ele>
        <time>2022-07-03T07:45:00Z</time>
      </trkpt>
      <trkpt lat="42.376548" lon="1.822552">
        <ele>1026.3</ele>
        <time>2022-07-03T07:45:02Z</time>
      </trkpt>
      <trkpt lat="42.376464" lon="1.822501">
        <ele>1025.9</ele>
        <time>2022-07-03T07:45:04Z</time>
      </trkpt>
      <trkpt lat="42.376409" lon="1.822474">
        <ele>1025.7</ele>
        <time>2022-07-03T07:45:05Z</time>
      </trkpt>
      <trkpt lat="42.376328" lon="1.822388">
        <ele>1025.4</ele>
        <time>2022-07-03T07:45:07Z</time>
      </trkpt>
      <trkpt lat="42.376283" lon="1.822342">
        <ele>1025.1</ele>
        <time>2022-07-03T07:45:08Z</time>
      </trkpt>
      <trkpt lat="42.376211" lon="1.822247">
        <ele>1024.8</ele>
        <time>2022-07-03T07:45:10Z</time>
      </trkpt>
      <trkpt lat="42.376136" lon="1.822174">
        <ele>1024.6</ele>
        <time>2022-07-03T07:45:12Z</time>
      </trkpt>
      <trkpt lat="42.376054" lon="1.822100">
        <ele>1024.1</ele>
        <time>2022-07-03T07:45:14Z</time>
      </trkpt>
      <trkpt lat="42.375979" lon="1.822024">
        <ele>1024.2</ele>
        <time>2022-07-03T07:45:16Z</time>
      </trkpt>
      <trkpt lat="42.375932" lon="1.821980">
        <ele>1024.2</ele>
        <time>2022-07-03T07:45:17Z</time>
      </trkpt>
      <trkpt lat="42.375842" lon="1.821897">
        <ele>1024.4</ele>
        <time>2022-07-03T07:45:19Z</time>
      </trkpt>
      <trkpt lat="42.375796" lon="1.821853">
        <ele>1024.3</ele>
        <time>2022-07-03T07:45:20Z</time>
      </trkpt>
      <trkpt lat="42.375707" lon="1.821753">
        <ele>1024.1</ele>
        <time>2022-07-03T07:45:22Z</time>
      </trkpt>
      <trkpt lat="42.375667" lon="1.821696">
        <ele>1024.1</ele>
        <time>2022-07-03T07:45:23Z</time>
      </trkpt>
      <trkpt lat="42.375591" lon="1.821602">
        <ele>1023.7</ele>
        <time>2022-07-03T07:45:25Z</time>
      </trkpt>
      <trkpt lat="42.375509" lon="1.821513">
        <ele>1023.9</ele>
        <time>2022-07-03T07:45:27Z</time>
      </trkpt>
      <trkpt lat="42.375435" lon="1.821432">
        <ele>1023.9</ele>
        <time>2022-07-03T07:45:29Z</time>
      </trkpt>
      <trkpt lat="42.375375" lon="1.821358">
        <ele>1024.0</ele>
        <time>2022-07-03T07:45:31Z</time>
      </trkpt>
      <trkpt lat="42.375303" lon="1.821288">
        <ele>1023.9</ele>
        <time>2022-07-03T07:45:33Z</time>
      </trkpt>
      <trkpt lat="42.375236" lon="1.821227">
        <ele>1023.8</ele>
        <time>2022-07-03T07:45:35Z</time>
      </trkpt>
      <trkpt lat="42.375164" lon="1.821160">
        <ele>1024.0</ele>
        <time>2022-07-03T07:45:37Z</time>
      </trkpt>
      <trkpt lat="42.375093" lon="1.821095">
        <ele>1023.9</ele>
        <time>2022-07-03T07:45:39Z</time>
      </trkpt>
      <trkpt lat="42.375024" lon="1.821023">
        <ele>1024.1</ele>
        <time>2022-07-03T07:45:41Z</time>
      </trkpt>
      <trkpt lat="42.374952" lon="1.820936">
        <ele>1024.1</ele>
        <time>2022-07-03T07:45:43Z</time>
      </trkpt>
      <trkpt lat="42.374881" lon="1.820854">
        <ele>1024.1</ele>
        <time>2022-07-03T07:45:45Z</time>
      </trkpt>
      <trkpt lat="42.374815" lon="1.820774">
        <ele>1024.1</ele>
        <time>2022-07-03T07:45:47Z</time>
      </trkpt>
      <trkpt lat="42.374747" lon="1.820667">
        <ele>1024.5</ele>
        <time>2022-07-03T07:45:49Z</time>
      </trkpt>
      <trkpt lat="42.374680" lon="1.820580">
        <ele>1024.6</ele>
        <time>2022-07-03T07:45:51Z</time>
      </trkpt>
      <trkpt lat="42.374613" lon="1.820492">
        <ele>1024.2</ele>
        <time>2022-07-03T07:45:53Z</time>
      </trkpt>
      <trkpt lat="42.374557" lon="1.820409">
        <ele>1024.2</ele>
        <time>2022-07-03T07:45:55Z</time>
      </trkpt>
      <trkpt lat="42.374503" lon="1.820315">
        <ele>1023.4</ele>
        <time>2022-07-03T07:45:57Z</time>
      </trkpt>
      <trkpt lat="42.374444" lon="1.820192">
        <ele>1023.1</ele>
        <time>2022-07-03T07:45:59Z</time>
      </trkpt>
      <trkpt lat="42.374416" lon="1.820119">
        <ele>1023.0</ele>
        <time>2022-07-03T07:46:00Z</time>
      </trkpt>
      <trkpt lat="42.374392" lon="1.820051">
        <ele>1023.2</ele>
        <time>2022-07-03T07:46:01Z</time>
      </trkpt>
      <trkpt lat="42.374371" lon="1.819982">
        <ele>1023.0</ele>
        <time>2022-07-03T07:46:02Z</time>
      </trkpt>
      <trkpt lat="42.374352" lon="1.819912">
        <ele>1023.1</ele>
        <time>2022-07-03T07:46:03Z</time>
      </trkpt>
      <trkpt lat="42.374324" lon="1.819778">
        <ele>1023.1</ele>
        <time>2022-07-03T07:46:05Z</time>
      </trkpt>
      <trkpt lat="42.374313" lon="1.819640">
        <ele>1023.0</ele>
        <time>2022-07-03T07:46:07Z</time>
      </trkpt>
      <trkpt lat="42.374301" lon="1.819492">
        <ele>1023.2</ele>
        <time>2022-07-03T07:46:09Z</time>
      </trkpt>
      <trkpt lat="42.374282" lon="1.819353">
        <ele>1022.9</ele>
        <time>2022-07-03T07:46:11Z</time>
      </trkpt>
      <trkpt lat="42.374264" lon="1.819219">
        <ele>1023.1</ele>
        <time>2022-07-03T07:46:13Z</time>
      </trkpt>
      <trkpt lat="42.374264" lon="1.819088">
        <ele>1023.5</ele>
        <time>2022-07-03T07:46:15Z</time>
      </trkpt>
      <trkpt lat="42.374264" lon="1.818967">
        <ele>1023.7</ele>
        <time>2022-07-03T07:46:17Z</time>
      </trkpt>
      <trkpt lat="42.374267" lon="1.818845">
        <ele>1023.8</ele>
        <time>2022-07-03T07:46:19Z</time>
      </trkpt>
      <trkpt lat="42.374266" lon="1.818717">
        <ele>1023.8</ele>
        <time>2022-07-03T07:46:21Z</time>
      </trkpt>
      <trkpt lat="42.374265" lon="1.818594">
        <ele>1023.7</ele>
        <time>2022-07-03T07:46:23Z</time>
      </trkpt>
      <trkpt lat="42.374260" lon="1.818478">
        <ele>1024.0</ele>
        <time>2022-07-03T07:46:25Z</time>
      </trkpt>
      <trkpt lat="42.374252" lon="1.818360">
        <ele>1024.2</ele>
        <time>2022-07-03T07:46:27Z</time>
      </trkpt>
      <trkpt lat="42.374239" lon="1.818243">
        <ele>1024.4</ele>
        <time>2022-07-03T07:46:29Z</time>
      </trkpt>
      <trkpt lat="42.374228" lon="1.818124">
        <ele>1024.6</ele>
        <time>2022-07-03T07:46:31Z</time>
      </trkpt>
      <trkpt lat="42.374214" lon="1.818005">
        <ele>1024.8</ele>
        <time>2022-07-03T07:46:33Z</time>
      </trkpt>
      <trkpt lat="42.374198" lon="1.817892">
        <ele>1025.1</ele>
        <time>2022-07-03T07:46:35Z</time>
      </trkpt>
      <trkpt lat="42.374182" lon="1.817778">
        <ele>1024.7</ele>
        <time>2022-07-03T07:46:37Z</time>
      </trkpt>
      <trkpt lat="42.374171" lon="1.817671">
        <ele>1024.8</ele>
        <time>2022-07-03T07:46:39Z</time>
      </trkpt>
      <trkpt lat="42.374164" lon="1.817583">
        <ele>1024.6</ele>
        <time>2022-07-03T07:46:41Z</time>
      </trkpt>
      <trkpt lat="42.374150" lon="1.817465">
        <ele>1024.3</ele>
        <time>2022-07-03T07:46:43Z</time>
      </trkpt>
      <trkpt lat="42.374139" lon="1.817350">
        <ele>1024.4</ele>
        <time>2022-07-03T07:46:45Z</time>
      </trkpt>
      <trkpt lat="42.374133" lon="1.817236">
        <ele>1024.6</ele>
        <time>2022-07-03T07:46:47Z</time>
      </trkpt>
      <trkpt lat="42.374121" lon="1.817116">
        <ele>1024.7</ele>
        <time>2022-07-03T07:46:49Z</time>
      </trkpt>
      <trkpt lat="42.374104" lon="1.816983">
        <ele>1024.5</ele>
        <time>2022-07-03T07:46:51Z</time>
      </trkpt>
      <trkpt lat="42.374092" lon="1.816858">
        <ele>1024.6</ele>
        <time>2022-07-03T07:46:53Z</time>
      </trkpt>
      <trkpt lat="42.374076" lon="1.816735">
        <ele>1024.6</ele>
        <time>2022-07-03T07:46:55Z</time>
      </trkpt>
      <trkpt lat="42.374052" lon="1.816614">
        <ele>1024.6</ele>
        <time>2022-07-03T07:46:57Z</time>
      </trkpt>
      <trkpt lat="42.374017" lon="1.816504">
        <ele>1024.6</ele>
        <time>2022-07-03T07:46:59Z</time>
      </trkpt>
      <trkpt lat="42.373975" lon="1.816386">
        <ele>1024.6</ele>
        <time>2022-07-03T07:47:01Z</time>
      </trkpt>
      <trkpt lat="42.373931" lon="1.816276">
        <ele>1024.8</ele>
        <time>2022-07-03T07:47:03Z</time>
      </trkpt>
      <trkpt lat="42.373887" lon="1.816179">
        <ele>1024.7</ele>
        <time>2022-07-03T07:47:05Z</time>
      </trkpt>
      <trkpt lat="42.373841" lon="1.816079">
        <ele>1024.8</ele>
        <time>2022-07-03T07:47:07Z</time>
      </trkpt>
      <trkpt lat="42.373792" lon="1.815979">
        <ele>1024.6</ele>
        <time>2022-07-03T07:47:09Z</time>
      </trkpt>
      <trkpt lat="42.373737" lon="1.815874">
        <ele>1024.7</ele>
        <time>2022-07-03T07:47:11Z</time>
      </trkpt>
      <trkpt lat="42.373682" lon="1.815770">
        <ele>1024.3</ele>
        <time>2022-07-03T07:47:13Z</time>
      </trkpt>
      <trkpt lat="42.373633" lon="1.815662">
        <ele>1024.2</ele>
        <time>2022-07-03T07:47:15Z</time>
      </trkpt>
      <trkpt lat="42.373585" lon="1.815548">
        <ele>1024.2</ele>
        <time>2022-07-03T07:47:17Z</time>
      </trkpt>
      <trkpt lat="42.373531" lon="1.815434">
        <ele>1023.6</ele>
        <time>2022-07-03T07:47:19Z</time>
      </trkpt>
      <trkpt lat="42.373484" lon="1.815332">
        <ele>1023.3</ele>
        <time>2022-07-03T07:47:21Z</time>
      </trkpt>
      <trkpt lat="42.373431" lon="1.815225">
        <ele>1023.2</ele>
        <time>2022-07-03T07:47:23Z</time>
      </trkpt>
      <trkpt lat="42.373378" lon="1.815114">
        <ele>1023.1</ele>
        <time>2022-07-03T07:47:25Z</time>
      </trkpt>
      <trkpt lat="42.373323" lon="1.815009">
        <ele>1023.1</ele>
        <time>2022-07-03T07:47:27Z</time>
      </trkpt>
      <trkpt lat="42.373266" lon="1.814902">
        <ele>1022.9</ele>
        <time>2022-07-03T07:47:29Z</time>
      </trkpt>
      <trkpt lat="42.373208" lon="1.814797">
        <ele>1022.7</ele>
        <time>2022-07-03T07:47:31Z</time>
      </trkpt>
      <trkpt lat="42.373151" lon="1.814696">
        <ele>1022.4</ele>
        <time>2022-07-03T07:47:33Z</time>
      </trkpt>
      <trkpt lat="42.373108" lon="1.814593">
        <ele>1022.2</ele>
        <time>2022-07-03T07:47:35Z</time>
      </trkpt>
      <trkpt lat="42.373059" lon="1.814502">
        <ele>1021.7</ele>
        <time>2022-07-03T07:47:37Z</time>
      </trkpt>
      <trkpt lat="42.373009" lon="1.814408">
        <ele>1022.0</ele>
        <time>2022-07-03T07:47:39Z</time>
      </trkpt>
      <trkpt lat="42.372963" lon="1.814316">
        <ele>1022.3</ele>
        <time>2022-07-03T07:47:41Z</time>
      </trkpt>
      <trkpt lat="42.372922" lon="1.814237">
        <ele>1022.7</ele>
        <time>2022-07-03T07:47:43Z</time>
      </trkpt>
      <trkpt lat="42.372884" lon="1.814173">
        <ele>1022.9</ele>
        <time>2022-07-03T07:47:45Z</time>
      </trkpt>
      <trkpt lat="42.372838" lon="1.814105">
        <ele>1023.7</ele>
        <time>2022-07-03T07:47:48Z</time>
      </trkpt>
      <trkpt lat="42.372826" lon="1.814031">
        <ele>1023.9</ele>
        <time>2022-07-03T07:47:50Z</time>
      </trkpt>
      <trkpt lat="42.372794" lon="1.813948">
        <ele>1024.5</ele>
        <time>2022-07-03T07:47:53Z</time>
      </trkpt>
      <trkpt lat="42.372737" lon="1.813932">
        <ele>1024.8</ele>
        <time>2022-07-03T07:48:05Z</time>
      </trkpt>
      <trkpt lat="42.372684" lon="1.813958">
        <ele>1024.9</ele>
        <time>2022-07-03T07:48:12Z</time>
      </trkpt>
      <trkpt lat="42.372632" lon="1.814008">
        <ele>1026.1</ele>
        <time>2022-07-03T07:48:22Z</time>
      </trkpt>
      <trkpt lat="42.372581" lon="1.814077">
        <ele>1026.0</ele>
        <time>2022-07-03T07:48:26Z</time>
      </trkpt>
      <trkpt lat="42.372535" lon="1.814147">
        <ele>1026.0</ele>
        <time>2022-07-03T07:48:29Z</time>
      </trkpt>
      <trkpt lat="42.372495" lon="1.814205">
        <ele>1026.0</ele>
        <time>2022-07-03T07:48:31Z</time>
      </trkpt>
      <trkpt lat="42.372457" lon="1.814260">
        <ele>1026.0</ele>
        <time>2022-07-03T07:48:33Z</time>
      </trkpt>
      <trkpt lat="42.372404" lon="1.814336">
        <ele>1026.0</ele>
        <time>2022-07-03T07:48:36Z</time>
      </trkpt>
      <trkpt lat="42.372350" lon="1.814397">
        <ele>1026.0</ele>
        <time>2022-07-03T07:48:39Z</time>
      </trkpt>
      <trkpt lat="42.372285" lon="1.814394">
        <ele>1025.8</ele>
        <time>2022-07-03T07:48:41Z</time>
      </trkpt>
      <trkpt lat="42.372226" lon="1.814367">
        <ele>1025.9</ele>
        <time>2022-07-03T07:48:43Z</time>
      </trkpt>
      <trkpt lat="42.372153" lon="1.814299">
        <ele>1026.5</ele>
        <time>2022-07-03T07:48:46Z</time>
      </trkpt>
      <trkpt lat="42.372095" lon="1.814232">
        <ele>1026.5</ele>
        <time>2022-07-03T07:48:48Z</time>
      </trkpt>
      <trkpt lat="42.372041" lon="1.814150">
        <ele>1026.9</ele>
        <time>2022-07-03T07:48:50Z</time>
      </trkpt>
      <trkpt lat="42.371979" lon="1.814071">
        <ele>1027.0</ele>
        <time>2022-07-03T07:48:52Z</time>
      </trkpt>
      <trkpt lat="42.371919" lon="1.813990">
        <ele>1027.1</ele>
        <time>2022-07-03T07:48:54Z</time>
      </trkpt>
      <trkpt lat="42.371866" lon="1.813925">
        <ele>1027.1</ele>
        <time>2022-07-03T07:48:56Z</time>
      </trkpt>
      <trkpt lat="42.371812" lon="1.813853">
        <ele>1026.9</ele>
        <time>2022-07-03T07:48:58Z</time>
      </trkpt>
      <trkpt lat="42.371769" lon="1.813767">
        <ele>1026.9</ele>
        <time>2022-07-03T07:49:00Z</time>
      </trkpt>
      <trkpt lat="42.371703" lon="1.813694">
        <ele>1026.7</ele>
        <time>2022-07-03T07:49:02Z</time>
      </trkpt>
      <trkpt lat="42.371642" lon="1.813642">
        <ele>1026.6</ele>
        <time>2022-07-03T07:49:04Z</time>
      </trkpt>
      <trkpt lat="42.371582" lon="1.813575">
        <ele>1026.8</ele>
        <time>2022-07-03T07:49:06Z</time>
      </trkpt>
      <trkpt lat="42.371525" lon="1.813508">
        <ele>1026.6</ele>
        <time>2022-07-03T07:49:08Z</time>
      </trkpt>
      <trkpt lat="42.371456" lon="1.813435">
        <ele>1026.6</ele>
        <time>2022-07-03T07:49:10Z</time>
      </trkpt>
      <trkpt lat="42.371381" lon="1.813374">
        <ele>1026.7</ele>
        <time>2022-07-03T07:49:12Z</time>
      </trkpt>
      <trkpt lat="42.371321" lon="1.813330">
        <ele>1026.7</ele>
        <time>2022-07-03T07:49:14Z</time>
      </trkpt>
      <trkpt lat="42.371252" lon="1.813296">
        <ele>1026.7</ele>
        <time>2022-07-03T07:49:16Z</time>
      </trkpt>
      <trkpt lat="42.371179" lon="1.813242">
        <ele>1026.9</ele>
        <time>2022-07-03T07:49:18Z</time>
      </trkpt>
      <trkpt lat="42.371120" lon="1.813179">
        <ele>1026.8</ele>
        <time>2022-07-03T07:49:20Z</time>
      </trkpt>
      <trkpt lat="42.371065" lon="1.813106">
        <ele>1026.7</ele>
        <time>2022-07-03T07:49:22Z</time>
      </trkpt>
      <trkpt lat="42.371016" lon="1.813049">
        <ele>1026.7</ele>
        <time>2022-07-03T07:49:24Z</time>
      </trkpt>
      <trkpt lat="42.370964" lon="1.812985">
        <ele>1026.7</ele>
        <time>2022-07-03T07:49:26Z</time>
      </trkpt>
      <trkpt lat="42.370919" lon="1.812920">
        <ele>1026.8</ele>
        <time>2022-07-03T07:49:28Z</time>
      </trkpt>
      <trkpt lat="42.370869" lon="1.812851">
        <ele>1026.8</ele>
        <time>2022-07-03T07:49:31Z</time>
      </trkpt>
      <trkpt lat="42.370828" lon="1.812766">
        <ele>1026.8</ele>
        <time>2022-07-03T07:49:34Z</time>
      </trkpt>
      <trkpt lat="42.370792" lon="1.812690">
        <ele>1027.0</ele>
        <time>2022-07-03T07:49:36Z</time>
      </trkpt>
      <trkpt lat="42.370747" lon="1.812589">
        <ele>1027.1</ele>
        <time>2022-07-03T07:49:38Z</time>
      </trkpt>
      <trkpt lat="42.370698" lon="1.812495">
        <ele>1027.0</ele>
        <time>2022-07-03T07:49:40Z</time>
      </trkpt>
      <trkpt lat="42.370664" lon="1.812406">
        <ele>1027.0</ele>
        <time>2022-07-03T07:49:42Z</time>
      </trkpt>
      <trkpt lat="42.370619" lon="1.812313">
        <ele>1026.9</ele>
        <time>2022-07-03T07:49:44Z</time>
      </trkpt>
      <trkpt lat="42.370570" lon="1.812241">
        <ele>1027.0</ele>
        <time>2022-07-03T07:49:46Z</time>
      </trkpt>
      <trkpt lat="42.370524" lon="1.812182">
        <ele>1026.6</ele>
        <time>2022-07-03T07:49:48Z</time>
      </trkpt>
      <trkpt lat="42.370498" lon="1.812098">
        <ele>1027.2</ele>
        <time>2022-07-03T07:49:50Z</time>
      </trkpt>
      <trkpt lat="42.370477" lon="1.812030">
        <ele>1026.9</ele>
        <time>2022-07-03T07:49:52Z</time>
      </trkpt>
      <trkpt lat="42.370426" lon="1.811917">
        <ele>1026.8</ele>
        <time>2022-07-03T07:49:54Z</time>
      </trkpt>
      <trkpt lat="42.370387" lon="1.811806">
        <ele>1026.7</ele>
        <time>2022-07-03T07:49:56Z</time>
      </trkpt>
      <trkpt lat="42.370343" lon="1.811686">
        <ele>1026.7</ele>
        <time>2022-07-03T07:49:58Z</time>
      </trkpt>
      <trkpt lat="42.370312" lon="1.811572">
        <ele>1026.8</ele>
        <time>2022-07-03T07:50:00Z</time>
      </trkpt>
      <trkpt lat="42.370276" lon="1.811481">
        <ele>1026.7</ele>
        <time>2022-07-03T07:50:02Z</time>
      </trkpt>
      <trkpt lat="42.370261" lon="1.811397">
        <ele>1026.9</ele>
        <time>2022-07-03T07:50:04Z</time>
      </trkpt>
      <trkpt lat="42.370255" lon="1.811311">
        <ele>1027.0</ele>
        <time>2022-07-03T07:50:06Z</time>
      </trkpt>
      <trkpt lat="42.370237" lon="1.811217">
        <ele>1027.1</ele>
        <time>2022-07-03T07:50:08Z</time>
      </trkpt>
      <trkpt lat="42.370234" lon="1.811096">
        <ele>1026.9</ele>
        <time>2022-07-03T07:50:10Z</time>
      </trkpt>
      <trkpt lat="42.370200" lon="1.810977">
        <ele>1026.8</ele>
        <time>2022-07-03T07:50:12Z</time>
      </trkpt>
      <trkpt lat="42.370185" lon="1.810854">
        <ele>1026.7</ele>
        <time>2022-07-03T07:50:14Z</time>
      </trkpt>
      <trkpt lat="42.370184" lon="1.810729">
        <ele>1026.7</ele>
        <time>2022-07-03T07:50:16Z</time>
      </trkpt>
      <trkpt lat="42.370159" lon="1.810605">
        <ele>1026.9</ele>
        <time>2022-07-03T07:50:18Z</time>
      </trkpt>
      <trkpt lat="42.370141" lon="1.810477">
        <ele>1027.0</ele>
        <time>2022-07-03T07:50:20Z</time>
      </trkpt>
      <trkpt lat="42.370130" lon="1.810358">
        <ele>1026.7</ele>
        <time>2022-07-03T07:50:22Z</time>
      </trkpt>
      <trkpt lat="42.370128" lon="1.810234">
        <ele>1026.7</ele>
        <time>2022-07-03T07:50:24Z</time>
      </trkpt>
      <trkpt lat="42.370114" lon="1.810161">
        <ele>1026.6</ele>
        <time>2022-07-03T07:50:25Z</time>
      </trkpt>
      <trkpt lat="42.370088" lon="1.810049">
        <ele>1026.6</ele>
        <time>2022-07-03T07:50:27Z</time>
      </trkpt>
      <trkpt lat="42.370070" lon="1.809941">
        <ele>1026.9</ele>
        <time>2022-07-03T07:50:29Z</time>
      </trkpt>
      <trkpt lat="42.370063" lon="1.809850">
        <ele>1026.8</ele>
        <time>2022-07-03T07:50:31Z</time>
      </trkpt>
      <trkpt lat="42.370067" lon="1.809761">
        <ele>1027.0</ele>
        <time>2022-07-03T07:50:33Z</time>
      </trkpt>
      <trkpt lat="42.370071" lon="1.809674">
        <ele>1027.0</ele>
        <time>2022-07-03T07:50:35Z</time>
      </trkpt>
      <trkpt lat="42.370073" lon="1.809574">
        <ele>1027.1</ele>
        <time>2022-07-03T07:50:37Z</time>
      </trkpt>
      <trkpt lat="42.370070" lon="1.809495">
        <ele>1027.1</ele>
        <time>2022-07-03T07:50:39Z</time>
      </trkpt>
      <trkpt lat="42.370080" lon="1.809396">
        <ele>1027.1</ele>
        <time>2022-07-03T07:50:41Z</time>
      </trkpt>
      <trkpt lat="42.370082" lon="1.809274">
        <ele>1027.1</ele>
        <time>2022-07-03T07:50:43Z</time>
      </trkpt>
      <trkpt lat="42.370088" lon="1.809153">
        <ele>1027.2</ele>
        <time>2022-07-03T07:50:45Z</time>
      </trkpt>
      <trkpt lat="42.370089" lon="1.809030">
        <ele>1027.1</ele>
        <time>2022-07-03T07:50:47Z</time>
      </trkpt>
      <trkpt lat="42.370099" lon="1.808929">
        <ele>1026.7</ele>
        <time>2022-07-03T07:50:49Z</time>
      </trkpt>
      <trkpt lat="42.370086" lon="1.808827">
        <ele>1027.1</ele>
        <time>2022-07-03T07:50:51Z</time>
      </trkpt>
      <trkpt lat="42.370082" lon="1.808717">
        <ele>1027.1</ele>
        <time>2022-07-03T07:50:53Z</time>
      </trkpt>
      <trkpt lat="42.370103" lon="1.808616">
        <ele>1027.0</ele>
        <time>2022-07-03T07:50:55Z</time>
      </trkpt>
      <trkpt lat="42.370139" lon="1.808504">
        <ele>1027.1</ele>
        <time>2022-07-03T07:50:57Z</time>
      </trkpt>
      <trkpt lat="42.370133" lon="1.808391">
        <ele>1027.0</ele>
        <time>2022-07-03T07:50:59Z</time>
      </trkpt>
      <trkpt lat="42.370151" lon="1.808271">
        <ele>1027.1</ele>
        <time>2022-07-03T07:51:01Z</time>
      </trkpt>
      <trkpt lat="42.370177" lon="1.808174">
        <ele>1027.0</ele>
        <time>2022-07-03T07:51:03Z</time>
      </trkpt>
      <trkpt lat="42.370192" lon="1.808053">
        <ele>1026.9</ele>
        <time>2022-07-03T07:51:05Z</time>
      </trkpt>
      <trkpt lat="42.370206" lon="1.807946">
        <ele>1027.1</ele>
        <time>2022-07-03T07:51:07Z</time>
      </trkpt>
      <trkpt lat="42.370232" lon="1.807840">
        <ele>1027.2</ele>
        <time>2022-07-03T07:51:09Z</time>
      </trkpt>
      <trkpt lat="42.370234" lon="1.807717">
        <ele>1027.3</ele>
        <time>2022-07-03T07:51:11Z</time>
      </trkpt>
      <trkpt lat="42.370249" lon="1.807611">
        <ele>1027.1</ele>
        <time>2022-07-03T07:51:13Z</time>
      </trkpt>
      <trkpt lat="42.370200" lon="1.807462">
        <ele>1027.2</ele>
        <time>2022-07-03T07:51:15Z</time>
      </trkpt>
      <trkpt lat="42.370201" lon="1.807323">
        <ele>1027.1</ele>
        <time>2022-07-03T07:51:17Z</time>
      </trkpt>
      <trkpt lat="42.370192" lon="1.807173">
        <ele>1027.2</ele>
        <time>2022-07-03T07:51:19Z</time>
      </trkpt>
      <trkpt lat="42.370174" lon="1.807043">
        <ele>1027.0</ele>
        <time>2022-07-03T07:51:21Z</time>
      </trkpt>
      <trkpt lat="42.370137" lon="1.806915">
        <ele>1026.9</ele>
        <time>2022-07-03T07:51:23Z</time>
      </trkpt>
      <trkpt lat="42.370109" lon="1.806848">
        <ele>1026.8</ele>
        <time>2022-07-03T07:51:24Z</time>
      </trkpt>
      <trkpt lat="42.370063" lon="1.806737">
        <ele>1026.7</ele>
        <time>2022-07-03T07:51:26Z</time>
      </trkpt>
      <trkpt lat="42.370019" lon="1.806637">
        <ele>1026.9</ele>
        <time>2022-07-03T07:51:28Z</time>
      </trkpt>
      <trkpt lat="42.369988" lon="1.806572">
        <ele>1027.0</ele>
        <time>2022-07-03T07:51:29Z</time>
      </trkpt>
      <trkpt lat="42.369951" lon="1.806517">
        <ele>1027.1</ele>
        <time>2022-07-03T07:51:30Z</time>
      </trkpt>
      <trkpt lat="42.369913" lon="1.806458">
        <ele>1027.2</ele>
        <time>2022-07-03T07:51:31Z</time>
      </trkpt>
      <trkpt lat="42.369882" lon="1.806384">
        <ele>1027.2</ele>
        <time>2022-07-03T07:51:32Z</time>
      </trkpt>
      <trkpt lat="42.369821" lon="1.806289">
        <ele>1027.3</ele>
        <time>2022-07-03T07:51:34Z</time>
      </trkpt>
      <trkpt lat="42.369765" lon="1.806197">
        <ele>1027.4</ele>
        <time>2022-07-03T07:51:36Z</time>
      </trkpt>
      <trkpt lat="42.369713" lon="1.806103">
        <ele>1027.5</ele>
        <time>2022-07-03T07:51:38Z</time>
      </trkpt>
      <trkpt lat="42.369665" lon="1.806023">
        <ele>1027.5</ele>
        <time>2022-07-03T07:51:40Z</time>
      </trkpt>
      <trkpt lat="42.369617" lon="1.805935">
        <ele>1027.6</ele>
        <time>2022-07-03T07:51:42Z</time>
      </trkpt>
      <trkpt lat="42.369571" lon="1.805858">
        <ele>1027.7</ele>
        <time>2022-07-03T07:51:44Z</time>
      </trkpt>
      <trkpt lat="42.369515" lon="1.805782">
        <ele>1027.8</ele>
        <time>2022-07-03T07:51:46Z</time>
      </trkpt>
      <trkpt lat="42.369447" lon="1.805728">
        <ele>1027.5</ele>
        <time>2022-07-03T07:51:48Z</time>
      </trkpt>
      <trkpt lat="42.369388" lon="1.805640">
        <ele>1027.5</ele>
        <time>2022-07-03T07:51:50Z</time>
      </trkpt>
      <trkpt lat="42.369329" lon="1.805573">
        <ele>1027.3</ele>
        <time>2022-07-03T07:51:52Z</time>
      </trkpt>
      <trkpt lat="42.369268" lon="1.805492">
        <ele>1027.4</ele>
        <time>2022-07-03T07:51:54Z</time>
      </trkpt>
      <trkpt lat="42.369217" lon="1.805392">
        <ele>1027.5</ele>
        <time>2022-07-03T07:51:56Z</time>
      </trkpt>
      <trkpt lat="42.369145" lon="1.805300">
        <ele>1027.6</ele>
        <time>2022-07-03T07:51:58Z</time>
      </trkpt>
      <trkpt lat="42.369083" lon="1.805209">
        <ele>1027.4</ele>
        <time>2022-07-03T07:52:00Z</time>
      </trkpt>
      <trkpt lat="42.369030" lon="1.805123">
        <ele>1027.6</ele>
        <time>2022-07-03T07:52:02Z</time>
      </trkpt>
      <trkpt lat="42.368978" lon="1.805029">
        <ele>1027.6</ele>
        <time>2022-07-03T07:52:04Z</time>
      </trkpt>
      <trkpt lat="42.368914" lon="1.804925">
        <ele>1027.6</ele>
        <time>2022-07-03T07:52:06Z</time>
      </trkpt>
      <trkpt lat="42.368883" lon="1.804857">
        <ele>1027.5</ele>
        <time>2022-07-03T07:52:07Z</time>
      </trkpt>
      <trkpt lat="42.368833" lon="1.804755">
        <ele>1027.3</ele>
        <time>2022-07-03T07:52:09Z</time>
      </trkpt>
      <trkpt lat="42.368792" lon="1.804669">
        <ele>1027.2</ele>
        <time>2022-07-03T07:52:11Z</time>
      </trkpt>
      <trkpt lat="42.368748" lon="1.804569">
        <ele>1027.1</ele>
        <time>2022-07-03T07:52:13Z</time>
      </trkpt>
      <trkpt lat="42.368701" lon="1.804485">
        <ele>1027.2</ele>
        <time>2022-07-03T07:52:15Z</time>
      </trkpt>
      <trkpt lat="42.368651" lon="1.804390">
        <ele>1027.1</ele>
        <time>2022-07-03T07:52:17Z</time>
      </trkpt>
      <trkpt lat="42.368603" lon="1.804316">
        <ele>1027.0</ele>
        <time>2022-07-03T07:52:19Z</time>
      </trkpt>
      <trkpt lat="42.368557" lon="1.804231">
        <ele>1026.9</ele>
        <time>2022-07-03T07:52:21Z</time>
      </trkpt>
      <trkpt lat="42.368519" lon="1.804122">
        <ele>1027.0</ele>
        <time>2022-07-03T07:52:23Z</time>
      </trkpt>
      <trkpt lat="42.368477" lon="1.804030">
        <ele>1027.1</ele>
        <time>2022-07-03T07:52:25Z</time>
      </trkpt>
      <trkpt lat="42.368432" lon="1.803927">
        <ele>1027.2</ele>
        <time>2022-07-03T07:52:27Z</time>
      </trkpt>
      <trkpt lat="42.368388" lon="1.803817">
        <ele>1027.1</ele>
        <time>2022-07-03T07:52:29Z</time>
      </trkpt>
      <trkpt lat="42.368354" lon="1.803736">
        <ele>1027.1</ele>
        <time>2022-07-03T07:52:31Z</time>
      </trkpt>
      <trkpt lat="42.368321" lon="1.803640">
        <ele>1027.4</ele>
        <time>2022-07-03T07:52:33Z</time>
      </trkpt>
      <trkpt lat="42.368294" lon="1.803549">
        <ele>1027.5</ele>
        <time>2022-07-03T07:52:35Z</time>
      </trkpt>
      <trkpt lat="42.368291" lon="1.803475">
        <ele>1027.6</ele>
        <time>2022-07-03T07:52:37Z</time>
      </trkpt>
      <trkpt lat="42.368274" lon="1.803395">
        <ele>1027.6</ele>
        <time>2022-07-03T07:52:39Z</time>
      </trkpt>
      <trkpt lat="42.368255" lon="1.803320">
        <ele>1027.5</ele>
        <time>2022-07-03T07:52:41Z</time>
      </trkpt>
      <trkpt lat="42.368243" lon="1.803238">
        <ele>1027.2</ele>
        <time>2022-07-03T07:52:43Z</time>
      </trkpt>
      <trkpt lat="42.368216" lon="1.803164">
        <ele>1027.3</ele>
        <time>2022-07-03T07:52:45Z</time>
      </trkpt>
      <trkpt lat="42.368192" lon="1.803079">
        <ele>1027.3</ele>
        <time>2022-07-03T07:52:47Z</time>
      </trkpt>
      <trkpt lat="42.368176" lon="1.802995">
        <ele>1027.3</ele>
        <time>2022-07-03T07:52:49Z</time>
      </trkpt>
      <trkpt lat="42.368167" lon="1.802908">
        <ele>1027.3</ele>
        <time>2022-07-03T07:52:51Z</time>
      </trkpt>
      <trkpt lat="42.368158" lon="1.802827">
        <ele>1027.2</ele>
        <time>2022-07-03T07:52:53Z</time>
      </trkpt>
      <trkpt lat="42.368141" lon="1.802733">
        <ele>1027.2</ele>
        <time>2022-07-03T07:52:56Z</time>
      </trkpt>
      <trkpt lat="42.368132" lon="1.802653">
        <ele>1027.1</ele>
        <time>2022-07-03T07:53:02Z</time>
      </trkpt>
      <trkpt lat="42.368128" lon="1.802576">
        <ele>1027.1</ele>
        <time>2022-07-03T07:53:04Z</time>
      </trkpt>
      <trkpt lat="42.368120" lon="1.802486">
        <ele>1026.9</ele>
        <time>2022-07-03T07:53:06Z</time>
      </trkpt>
      <trkpt lat="42.368115" lon="1.802399">
        <ele>1026.7</ele>
        <time>2022-07-03T07:53:08Z</time>
      </trkpt>
      <trkpt lat="42.368102" lon="1.802323">
        <ele>1026.8</ele>
        <time>2022-07-03T07:53:10Z</time>
      </trkpt>
      <trkpt lat="42.368072" lon="1.802254">
        <ele>1027.0</ele>
        <time>2022-07-03T07:53:12Z</time>
      </trkpt>
      <trkpt lat="42.368030" lon="1.802189">
        <ele>1027.1</ele>
        <time>2022-07-03T07:53:14Z</time>
      </trkpt>
      <trkpt lat="42.367986" lon="1.802133">
        <ele>1027.4</ele>
        <time>2022-07-03T07:53:16Z</time>
      </trkpt>
      <trkpt lat="42.367976" lon="1.802021">
        <ele>1027.9</ele>
        <time>2022-07-03T07:53:19Z</time>
      </trkpt>
      <trkpt lat="42.367988" lon="1.801915">
        <ele>1028.0</ele>
        <time>2022-07-03T07:53:21Z</time>
      </trkpt>
      <trkpt lat="42.367993" lon="1.801806">
        <ele>1027.8</ele>
        <time>2022-07-03T07:53:23Z</time>
      </trkpt>
      <trkpt lat="42.367996" lon="1.801701">
        <ele>1027.4</ele>
        <time>2022-07-03T07:53:25Z</time>
      </trkpt>
      <trkpt lat="42.367986" lon="1.801615">
        <ele>1026.6</ele>
        <time>2022-07-03T07:53:27Z</time>
      </trkpt>
      <trkpt lat="42.367992" lon="1.801521">
        <ele>1025.2</ele>
        <time>2022-07-03T07:53:29Z</time>
      </trkpt>
      <trkpt lat="42.367996" lon="1.801411">
        <ele>1024.0</ele>
        <time>2022-07-03T07:53:31Z</time>
      </trkpt>
      <trkpt lat="42.367994" lon="1.801310">
        <ele>1023.3</ele>
        <time>2022-07-03T07:53:33Z</time>
      </trkpt>
      <trkpt lat="42.367987" lon="1.801206">
        <ele>1022.7</ele>
        <time>2022-07-03T07:53:35Z</time>
      </trkpt>
      <trkpt lat="42.367988" lon="1.801133">
        <ele>1021.6</ele>
        <time>2022-07-03T07:53:37Z</time>
      </trkpt>
      <trkpt lat="42.368003" lon="1.801061">
        <ele>1020.8</ele>
        <time>2022-07-03T07:53:44Z</time>
      </trkpt>
      <trkpt lat="42.368053" lon="1.801001">
        <ele>1020.0</ele>
        <time>2022-07-03T07:53:48Z</time>
      </trkpt>
      <trkpt lat="42.368081" lon="1.800901">
        <ele>1019.2</ele>
        <time>2022-07-03T07:53:51Z</time>
      </trkpt>
      <trkpt lat="42.368145" lon="1.800806">
        <ele>1018.3</ele>
        <time>2022-07-03T07:53:53Z</time>
      </trkpt>
      <trkpt lat="42.368172" lon="1.800715">
        <ele>1017.3</ele>
        <time>2022-07-03T07:53:55Z</time>
      </trkpt>
      <trkpt lat="42.368171" lon="1.800610">
        <ele>1017.0</ele>
        <time>2022-07-03T07:53:57Z</time>
      </trkpt>
      <trkpt lat="42.368146" lon="1.800511">
        <ele>1016.9</ele>
        <time>2022-07-03T07:53:59Z</time>
      </trkpt>
      <trkpt lat="42.368111" lon="1.800420">
        <ele>1016.7</ele>
        <time>2022-07-03T07:54:01Z</time>
      </trkpt>
      <trkpt lat="42.368063" lon="1.800334">
        <ele>1015.8</ele>
        <time>2022-07-03T07:54:03Z</time>
      </trkpt>
      <trkpt lat="42.368025" lon="1.800246">
        <ele>1015.9</ele>
        <time>2022-07-03T07:54:05Z</time>
      </trkpt>
      <trkpt lat="42.368018" lon="1.800149">
        <ele>1015.9</ele>
        <time>2022-07-03T07:54:08Z</time>
      </trkpt>
      <trkpt lat="42.368085" lon="1.800127">
        <ele>1015.7</ele>
        <time>2022-07-03T07:54:11Z</time>
      </trkpt>
      <trkpt lat="42.368138" lon="1.800093">
        <ele>1015.6</ele>
        <time>2022-07-03T07:54:15Z</time>
      </trkpt>
      <trkpt lat="42.368138" lon="1.800001">
        <ele>1015.3</ele>
        <time>2022-07-03T07:54:19Z</time>
      </trkpt>
      <trkpt lat="42.368186" lon="1.799958">
        <ele>1015.4</ele>
        <time>2022-07-03T07:54:22Z</time>
      </trkpt>
      <trkpt lat="42.368223" lon="1.799890">
        <ele>1015.6</ele>
        <time>2022-07-03T07:54:25Z</time>
      </trkpt>
      <trkpt lat="42.368240" lon="1.799797">
        <ele>1016.5</ele>
        <time>2022-07-03T07:54:28Z</time>
      </trkpt>
      <trkpt lat="42.368249" lon="1.799724">
        <ele>1016.8</ele>
        <time>2022-07-03T07:54:30Z</time>
      </trkpt>
      <trkpt lat="42.368263" lon="1.799639">
        <ele>1016.9</ele>
        <time>2022-07-03T07:54:32Z</time>
      </trkpt>
      <trkpt lat="42.368282" lon="1.799545">
        <ele>1017.0</ele>
        <time>2022-07-03T07:54:34Z</time>
      </trkpt>
      <trkpt lat="42.368303" lon="1.799443">
        <ele>1016.8</ele>
        <time>2022-07-03T07:54:36Z</time>
      </trkpt>
      <trkpt lat="42.368318" lon="1.799344">
        <ele>1016.9</ele>
        <time>2022-07-03T07:54:38Z</time>
      </trkpt>
      <trkpt lat="42.368329" lon="1.799241">
        <ele>1017.0</ele>
        <time>2022-07-03T07:54:40Z</time>
      </trkpt>
      <trkpt lat="42.368340" lon="1.799150">
        <ele>1017.2</ele>
        <time>2022-07-03T07:54:42Z</time>
      </trkpt>
      <trkpt lat="42.368335" lon="1.799063">
        <ele>1017.2</ele>
        <time>2022-07-03T07:54:44Z</time>
      </trkpt>
      <trkpt lat="42.368336" lon="1.798940">
        <ele>1017.2</ele>
        <time>2022-07-03T07:54:46Z</time>
      </trkpt>
      <trkpt lat="42.368336" lon="1.798830">
        <ele>1017.0</ele>
        <time>2022-07-03T07:54:48Z</time>
      </trkpt>
      <trkpt lat="42.368349" lon="1.798745">
        <ele>1016.8</ele>
        <time>2022-07-03T07:54:50Z</time>
      </trkpt>
      <trkpt lat="42.368377" lon="1.798649">
        <ele>1016.6</ele>
        <time>2022-07-03T07:54:52Z</time>
      </trkpt>
      <trkpt lat="42.368388" lon="1.798521">
        <ele>1016.3</ele>
        <time>2022-07-03T07:54:54Z</time>
      </trkpt>
      <trkpt lat="42.368394" lon="1.798406">
        <ele>1016.5</ele>
        <time>2022-07-03T07:54:56Z</time>
      </trkpt>
      <trkpt lat="42.368424" lon="1.798329">
        <ele>1016.4</ele>
        <time>2022-07-03T07:54:57Z</time>
      </trkpt>
      <trkpt lat="42.368448" lon="1.798214">
        <ele>1016.5</ele>
        <time>2022-07-03T07:54:59Z</time>
      </trkpt>
      <trkpt lat="42.368453" lon="1.798135">
        <ele>1016.5</ele>
        <time>2022-07-03T07:55:00Z</time>
      </trkpt>
      <trkpt lat="42.368470" lon="1.797997">
        <ele>1016.2</ele>
        <time>2022-07-03T07:55:02Z</time>
      </trkpt>
      <trkpt lat="42.368467" lon="1.797860">
        <ele>1016.0</ele>
        <time>2022-07-03T07:55:04Z</time>
      </trkpt>
      <trkpt lat="42.368488" lon="1.797788">
        <ele>1016.0</ele>
        <time>2022-07-03T07:55:05Z</time>
      </trkpt>
      <trkpt lat="42.368491" lon="1.797713">
        <ele>1015.8</ele>
        <time>2022-07-03T07:55:06Z</time>
      </trkpt>
      <trkpt lat="42.368502" lon="1.797630">
        <ele>1016.1</ele>
        <time>2022-07-03T07:55:07Z</time>
      </trkpt>
      <trkpt lat="42.368511" lon="1.797549">
        <ele>1015.8</ele>
        <time>2022-07-03T07:55:08Z</time>
      </trkpt>
      <trkpt lat="42.368536" lon="1.797415">
        <ele>1015.7</ele>
        <time>2022-07-03T07:55:10Z</time>
      </trkpt>
      <trkpt lat="42.368541" lon="1.797290">
        <ele>1015.6</ele>
        <time>2022-07-03T07:55:12Z</time>
      </trkpt>
      <trkpt lat="42.368533" lon="1.797155">
        <ele>1015.5</ele>
        <time>2022-07-03T07:55:14Z</time>
      </trkpt>
      <trkpt lat="42.368543" lon="1.797025">
        <ele>1015.5</ele>
        <time>2022-07-03T07:55:16Z</time>
      </trkpt>
      <trkpt lat="42.368554" lon="1.796898">
        <ele>1015.5</ele>
        <time>2022-07-03T07:55:18Z</time>
      </trkpt>
      <trkpt lat="42.368578" lon="1.796774">
        <ele>1015.5</ele>
        <time>2022-07-03T07:55:20Z</time>
      </trkpt>
      <trkpt lat="42.368603" lon="1.796641">
        <ele>1015.5</ele>
        <time>2022-07-03T07:55:22Z</time>
      </trkpt>
      <trkpt lat="42.368627" lon="1.796508">
        <ele>1015.5</ele>
        <time>2022-07-03T07:55:24Z</time>
      </trkpt>
      <trkpt lat="42.368647" lon="1.796370">
        <ele>1015.4</ele>
        <time>2022-07-03T07:55:26Z</time>
      </trkpt>
      <trkpt lat="42.368655" lon="1.796297">
        <ele>1015.4</ele>
        <time>2022-07-03T07:55:27Z</time>
      </trkpt>
      <trkpt lat="42.368672" lon="1.796156">
        <ele>1015.0</ele>
        <time>2022-07-03T07:55:29Z</time>
      </trkpt>
      <trkpt lat="42.368696" lon="1.796022">
        <ele>1015.0</ele>
        <time>2022-07-03T07:55:31Z</time>
      </trkpt>
      <trkpt lat="42.368717" lon="1.795897">
        <ele>1015.2</ele>
        <time>2022-07-03T07:55:33Z</time>
      </trkpt>
      <trkpt lat="42.368720" lon="1.795766">
        <ele>1015.2</ele>
        <time>2022-07-03T07:55:35Z</time>
      </trkpt>
      <trkpt lat="42.368724" lon="1.795626">
        <ele>1015.4</ele>
        <time>2022-07-03T07:55:37Z</time>
      </trkpt>
      <trkpt lat="42.368732" lon="1.795510">
        <ele>1015.6</ele>
        <time>2022-07-03T07:55:39Z</time>
      </trkpt>
      <trkpt lat="42.368753" lon="1.795417">
        <ele>1015.4</ele>
        <time>2022-07-03T07:55:41Z</time>
      </trkpt>
      <trkpt lat="42.368776" lon="1.795339">
        <ele>1015.6</ele>
        <time>2022-07-03T07:55:43Z</time>
      </trkpt>
      <trkpt lat="42.368788" lon="1.795255">
        <ele>1015.6</ele>
        <time>2022-07-03T07:55:45Z</time>
      </trkpt>
      <trkpt lat="42.368785" lon="1.795136">
        <ele>1016.2</ele>
        <time>2022-07-03T07:55:47Z</time>
      </trkpt>
      <trkpt lat="42.368765" lon="1.795021">
        <ele>1017.0</ele>
        <time>2022-07-03T07:55:49Z</time>
      </trkpt>
      <trkpt lat="42.368746" lon="1.794916">
        <ele>1017.2</ele>
        <time>2022-07-03T07:55:51Z</time>
      </trkpt>
      <trkpt lat="42.368710" lon="1.794817">
        <ele>1017.4</ele>
        <time>2022-07-03T07:55:53Z</time>
      </trkpt>
      <trkpt lat="42.368674" lon="1.794722">
        <ele>1017.8</ele>
        <time>2022-07-03T07:55:55Z</time>
      </trkpt>
      <trkpt lat="42.368635" lon="1.794654">
        <ele>1017.6</ele>
        <time>2022-07-03T07:55:57Z</time>
      </trkpt>
      <trkpt lat="42.368603" lon="1.794575">
        <ele>1017.6</ele>
        <time>2022-07-03T07:55:59Z</time>
      </trkpt>
      <trkpt lat="42.368574" lon="1.794489">
        <ele>1017.9</ele>
        <time>2022-07-03T07:56:01Z</time>
      </trkpt>
      <trkpt lat="42.368544" lon="1.794408">
        <ele>1017.9</ele>
        <time>2022-07-03T07:56:03Z</time>
      </trkpt>
      <trkpt lat="42.368502" lon="1.794317">
        <ele>1017.9</ele>
        <time>2022-07-03T07:56:05Z</time>
      </trkpt>
      <trkpt lat="42.368456" lon="1.794213">
        <ele>1018.1</ele>
        <time>2022-07-03T07:56:07Z</time>
      </trkpt>
      <trkpt lat="42.368415" lon="1.794132">
        <ele>1018.0</ele>
        <time>2022-07-03T07:56:09Z</time>
      </trkpt>
      <trkpt lat="42.368359" lon="1.794050">
        <ele>1018.0</ele>
        <time>2022-07-03T07:56:11Z</time>
      </trkpt>
      <trkpt lat="42.368303" lon="1.793961">
        <ele>1018.0</ele>
        <time>2022-07-03T07:56:13Z</time>
      </trkpt>
      <trkpt lat="42.368249" lon="1.793876">
        <ele>1018.1</ele>
        <time>2022-07-03T07:56:15Z</time>
      </trkpt>
      <trkpt lat="42.368201" lon="1.793782">
        <ele>1017.8</ele>
        <time>2022-07-03T07:56:18Z</time>
      </trkpt>
      <trkpt lat="42.368160" lon="1.793718">
        <ele>1017.3</ele>
        <time>2022-07-03T07:56:21Z</time>
      </trkpt>
      <trkpt lat="42.368133" lon="1.793651">
        <ele>1016.3</ele>
        <time>2022-07-03T07:56:27Z</time>
      </trkpt>
      <trkpt lat="42.368079" lon="1.793625">
        <ele>1016.3</ele>
        <time>2022-07-03T07:56:35Z</time>
      </trkpt>
      <trkpt lat="42.368021" lon="1.793609">
        <ele>1017.2</ele>
        <time>2022-07-03T07:56:41Z</time>
      </trkpt>
      <trkpt lat="42.367968" lon="1.793593">
        <ele>1018.2</ele>
        <time>2022-07-03T07:56:48Z</time>
      </trkpt>
      <trkpt lat="42.367932" lon="1.793533">
        <ele>1018.6</ele>
        <time>2022-07-03T07:56:53Z</time>
      </trkpt>
      <trkpt lat="42.367914" lon="1.793463">
        <ele>1018.6</ele>
        <time>2022-07-03T07:56:56Z</time>
      </trkpt>
      <trkpt lat="42.367924" lon="1.793371">
        <ele>1018.7</ele>
        <time>2022-07-03T07:56:59Z</time>
      </trkpt>
      <trkpt lat="42.367954" lon="1.793250">
        <ele>1019.1</ele>
        <time>2022-07-03T07:57:02Z</time>
      </trkpt>
      <trkpt lat="42.367979" lon="1.793133">
        <ele>1019.1</ele>
        <time>2022-07-03T07:57:04Z</time>
      </trkpt>
      <trkpt lat="42.367995" lon="1.793009">
        <ele>1019.1</ele>
        <time>2022-07-03T07:57:06Z</time>
      </trkpt>
      <trkpt lat="42.368010" lon="1.792882">
        <ele>1019.2</ele>
        <time>2022-07-03T07:57:08Z</time>
      </trkpt>
      <trkpt lat="42.368029" lon="1.792762">
        <ele>1019.2</ele>
        <time>2022-07-03T07:57:10Z</time>
      </trkpt>
      <trkpt lat="42.368045" lon="1.792645">
        <ele>1019.1</ele>
        <time>2022-07-03T07:57:12Z</time>
      </trkpt>
      <trkpt lat="42.368064" lon="1.792529">
        <ele>1018.9</ele>
        <time>2022-07-03T07:57:14Z</time>
      </trkpt>
      <trkpt lat="42.368088" lon="1.792404">
        <ele>1018.7</ele>
        <time>2022-07-03T07:57:16Z</time>
      </trkpt>
      <trkpt lat="42.368098" lon="1.792269">
        <ele>1018.5</ele>
        <time>2022-07-03T07:57:18Z</time>
      </trkpt>
      <trkpt lat="42.368105" lon="1.792137">
        <ele>1018.7</ele>
        <time>2022-07-03T07:57:20Z</time>
      </trkpt>
      <trkpt lat="42.368118" lon="1.792017">
        <ele>1018.7</ele>
        <time>2022-07-03T07:57:22Z</time>
      </trkpt>
      <trkpt lat="42.368132" lon="1.791899">
        <ele>1019.1</ele>
        <time>2022-07-03T07:57:24Z</time>
      </trkpt>
      <trkpt lat="42.368145" lon="1.791775">
        <ele>1019.2</ele>
        <time>2022-07-03T07:57:26Z</time>
      </trkpt>
      <trkpt lat="42.368161" lon="1.791652">
        <ele>1019.2</ele>
        <time>2022-07-03T07:57:28Z</time>
      </trkpt>
      <trkpt lat="42.368179" lon="1.791540">
        <ele>1019.4</ele>
        <time>2022-07-03T07:57:30Z</time>
      </trkpt>
      <trkpt lat="42.368196" lon="1.791430">
        <ele>1019.3</ele>
        <time>2022-07-03T07:57:32Z</time>
      </trkpt>
      <trkpt lat="42.368212" lon="1.791328">
        <ele>1019.5</ele>
        <time>2022-07-03T07:57:34Z</time>
      </trkpt>
      <trkpt lat="42.368220" lon="1.791235">
        <ele>1019.8</ele>
        <time>2022-07-03T07:57:36Z</time>
      </trkpt>
      <trkpt lat="42.368227" lon="1.791145">
        <ele>1020.1</ele>
        <time>2022-07-03T07:57:38Z</time>
      </trkpt>
      <trkpt lat="42.368243" lon="1.791052">
        <ele>1020.5</ele>
        <time>2022-07-03T07:57:40Z</time>
      </trkpt>
      <trkpt lat="42.368258" lon="1.790952">
        <ele>1020.6</ele>
        <time>2022-07-03T07:57:42Z</time>
      </trkpt>
      <trkpt lat="42.368272" lon="1.790850">
        <ele>1020.9</ele>
        <time>2022-07-03T07:57:44Z</time>
      </trkpt>
      <trkpt lat="42.368280" lon="1.790748">
        <ele>1021.3</ele>
        <time>2022-07-03T07:57:46Z</time>
      </trkpt>
      <trkpt lat="42.368289" lon="1.790645">
        <ele>1021.7</ele>
        <time>2022-07-03T07:57:48Z</time>
      </trkpt>
      <trkpt lat="42.368301" lon="1.790542">
        <ele>1022.0</ele>
        <time>2022-07-03T07:57:50Z</time>
      </trkpt>
      <trkpt lat="42.368301" lon="1.790449">
        <ele>1022.3</ele>
        <time>2022-07-03T07:57:52Z</time>
      </trkpt>
      <trkpt lat="42.368322" lon="1.790366">
        <ele>1022.6</ele>
        <time>2022-07-03T07:57:54Z</time>
      </trkpt>
      <trkpt lat="42.368374" lon="1.790290">
        <ele>1022.9</ele>
        <time>2022-07-03T07:57:56Z</time>
      </trkpt>
      <trkpt lat="42.368407" lon="1.790188">
        <ele>1023.1</ele>
        <time>2022-07-03T07:57:58Z</time>
      </trkpt>
      <trkpt lat="42.368410" lon="1.790065">
        <ele>1023.1</ele>
        <time>2022-07-03T07:58:00Z</time>
      </trkpt>
      <trkpt lat="42.368391" lon="1.789934">
        <ele>1023.1</ele>
        <time>2022-07-03T07:58:02Z</time>
      </trkpt>
      <trkpt lat="42.368383" lon="1.789785">
        <ele>1023.2</ele>
        <time>2022-07-03T07:58:04Z</time>
      </trkpt>
      <trkpt lat="42.368389" lon="1.789705">
        <ele>1023.2</ele>
        <time>2022-07-03T07:58:05Z</time>
      </trkpt>
      <trkpt lat="42.368402" lon="1.789623">
        <ele>1023.1</ele>
        <time>2022-07-03T07:58:06Z</time>
      </trkpt>
      <trkpt lat="42.368416" lon="1.789538">
        <ele>1023.0</ele>
        <time>2022-07-03T07:58:07Z</time>
      </trkpt>
      <trkpt lat="42.368430" lon="1.789451">
        <ele>1023.0</ele>
        <time>2022-07-03T07:58:08Z</time>
      </trkpt>
      <trkpt lat="42.368444" lon="1.789363">
        <ele>1022.9</ele>
        <time>2022-07-03T07:58:09Z</time>
      </trkpt>
      <trkpt lat="42.368461" lon="1.789274">
        <ele>1022.7</ele>
        <time>2022-07-03T07:58:10Z</time>
      </trkpt>
      <trkpt lat="42.368477" lon="1.789184">
        <ele>1022.6</ele>
        <time>2022-07-03T07:58:11Z</time>
      </trkpt>
      <trkpt lat="42.368492" lon="1.789089">
        <ele>1022.5</ele>
        <time>2022-07-03T07:58:12Z</time>
      </trkpt>
      <trkpt lat="42.368506" lon="1.788994">
        <ele>1022.3</ele>
        <time>2022-07-03T07:58:13Z</time>
      </trkpt>
      <trkpt lat="42.368520" lon="1.788899">
        <ele>1022.2</ele>
        <time>2022-07-03T07:58:14Z</time>
      </trkpt>
      <trkpt lat="42.368537" lon="1.788804">
        <ele>1022.0</ele>
        <time>2022-07-03T07:58:15Z</time>
      </trkpt>
      <trkpt lat="42.368553" lon="1.788709">
        <ele>1021.8</ele>
        <time>2022-07-03T07:58:16Z</time>
      </trkpt>
      <trkpt lat="42.368567" lon="1.788614">
        <ele>1021.7</ele>
        <time>2022-07-03T07:58:17Z</time>
      </trkpt>
      <trkpt lat="42.368581" lon="1.788519">
        <ele>1021.6</ele>
        <time>2022-07-03T07:58:18Z</time>
      </trkpt>
      <trkpt lat="42.368599" lon="1.788429">
        <ele>1021.5</ele>
        <time>2022-07-03T07:58:19Z</time>
      </trkpt>
      <trkpt lat="42.368630" lon="1.788348">
        <ele>1021.5</ele>
        <time>2022-07-03T07:58:20Z</time>
      </trkpt>
      <trkpt lat="42.368674" lon="1.788286">
        <ele>1021.5</ele>
        <time>2022-07-03T07:58:21Z</time>
      </trkpt>
      <trkpt lat="42.368715" lon="1.788226">
        <ele>1021.4</ele>
        <time>2022-07-03T07:58:22Z</time>
      </trkpt>
      <trkpt lat="42.368741" lon="1.788162">
        <ele>1021.3</ele>
        <time>2022-07-03T07:58:23Z</time>
      </trkpt>
      <trkpt lat="42.368754" lon="1.788040">
        <ele>1021.2</ele>
        <time>2022-07-03T07:58:25Z</time>
      </trkpt>
      <trkpt lat="42.368736" lon="1.787949">
        <ele>1020.8</ele>
        <time>2022-07-03T07:58:27Z</time>
      </trkpt>
      <trkpt lat="42.368691" lon="1.787894">
        <ele>1020.7</ele>
        <time>2022-07-03T07:58:29Z</time>
      </trkpt>
      <trkpt lat="42.368636" lon="1.787870">
        <ele>1020.6</ele>
        <time>2022-07-03T07:58:31Z</time>
      </trkpt>
      <trkpt lat="42.368565" lon="1.787872">
        <ele>1020.5</ele>
        <time>2022-07-03T07:58:33Z</time>
      </trkpt>
      <trkpt lat="42.368497" lon="1.787860">
        <ele>1020.6</ele>
        <time>2022-07-03T07:58:35Z</time>
      </trkpt>
      <trkpt lat="42.368438" lon="1.787847">
        <ele>1020.7</ele>
        <time>2022-07-03T07:58:37Z</time>
      </trkpt>
      <trkpt lat="42.368381" lon="1.787845">
        <ele>1020.8</ele>
        <time>2022-07-03T07:58:39Z</time>
      </trkpt>
      <trkpt lat="42.368321" lon="1.787841">
        <ele>1020.8</ele>
        <time>2022-07-03T07:58:41Z</time>
      </trkpt>
      <trkpt lat="42.368256" lon="1.787835">
        <ele>1020.6</ele>
        <time>2022-07-03T07:58:43Z</time>
      </trkpt>
      <trkpt lat="42.368192" lon="1.787821">
        <ele>1020.7</ele>
        <time>2022-07-03T07:58:45Z</time>
      </trkpt>
      <trkpt lat="42.368126" lon="1.787807">
        <ele>1020.8</ele>
        <time>2022-07-03T07:58:47Z</time>
      </trkpt>
      <trkpt lat="42.368064" lon="1.787785">
        <ele>1021.0</ele>
        <time>2022-07-03T07:58:49Z</time>
      </trkpt>
      <trkpt lat="42.368014" lon="1.787755">
        <ele>1021.2</ele>
        <time>2022-07-03T07:58:51Z</time>
      </trkpt>
      <trkpt lat="42.367946" lon="1.787699">
        <ele>1021.5</ele>
        <time>2022-07-03T07:58:54Z</time>
      </trkpt>
      <trkpt lat="42.367887" lon="1.787637">
        <ele>1021.6</ele>
        <time>2022-07-03T07:58:57Z</time>
      </trkpt>
      <trkpt lat="42.367843" lon="1.787591">
        <ele>1021.6</ele>
        <time>2022-07-03T07:58:59Z</time>
      </trkpt>
      <trkpt lat="42.367799" lon="1.787541">
        <ele>1021.5</ele>
        <time>2022-07-03T07:59:01Z</time>
      </trkpt>
      <trkpt lat="42.367746" lon="1.787495">
        <ele>1021.6</ele>
        <time>2022-07-03T07:59:57Z</time>
      </trkpt>
      <trkpt lat="42.367699" lon="1.787444">
        <ele>1021.6</ele>
        <time>2022-07-03T08:00:00Z</time>
      </trkpt>
      <trkpt lat="42.367646" lon="1.787403">
        <ele>1021.5</ele>
        <time>2022-07-03T08:00:02Z</time>
      </trkpt>
      <trkpt lat="42.367580" lon="1.787378">
        <ele>1021.5</ele>
        <time>2022-07-03T08:00:04Z</time>
      </trkpt>
      <trkpt lat="42.367513" lon="1.787363">
        <ele>1021.5</ele>
        <time>2022-07-03T08:00:06Z</time>
      </trkpt>
      <trkpt lat="42.367455" lon="1.787346">
        <ele>1021.5</ele>
        <time>2022-07-03T08:00:21Z</time>
      </trkpt>
      <trkpt lat="42.367389" lon="1.787355">
        <ele>1021.4</ele>
        <time>2022-07-03T08:00:25Z</time>
      </trkpt>
      <trkpt lat="42.367321" lon="1.787357">
        <ele>1021.4</ele>
        <time>2022-07-03T08:00:30Z</time>
      </trkpt>
      <trkpt lat="42.367273" lon="1.787323">
        <ele>1021.7</ele>
        <time>2022-07-03T08:01:02Z</time>
      </trkpt>
      <trkpt lat="42.367215" lon="1.787342">
        <ele>1021.9</ele>
        <time>2022-07-03T08:01:06Z</time>
      </trkpt>
      <trkpt lat="42.367149" lon="1.787346">
        <ele>1022.0</ele>
        <time>2022-07-03T08:01:10Z</time>
      </trkpt>
      <trkpt lat="42.367086" lon="1.787275">
        <ele>1022.2</ele>
        <time>2022-07-03T08:01:13Z</time>
      </trkpt>
      <trkpt lat="42.367065" lon="1.787155">
        <ele>1021.5</ele>
        <time>2022-07-03T08:01:15Z</time>
      </trkpt>
      <trkpt lat="42.367064" lon="1.787054">
        <ele>1021.8</ele>
        <time>2022-07-03T08:01:17Z</time>
      </trkpt>
      <trkpt lat="42.367070" lon="1.786964">
        <ele>1022.2</ele>
        <time>2022-07-03T08:01:19Z</time>
      </trkpt>
      <trkpt lat="42.367076" lon="1.786884">
        <ele>1022.7</ele>
        <time>2022-07-03T08:01:21Z</time>
      </trkpt>
      <trkpt lat="42.367073" lon="1.786806">
        <ele>1023.1</ele>
        <time>2022-07-03T08:01:23Z</time>
      </trkpt>
      <trkpt lat="42.367033" lon="1.786725">
        <ele>1023.7</ele>
        <time>2022-07-03T08:01:26Z</time>
      </trkpt>
      <trkpt lat="42.366981" lon="1.786702">
        <ele>1024.1</ele>
        <time>2022-07-03T08:01:28Z</time>
      </trkpt>
      <trkpt lat="42.366921" lon="1.786684">
        <ele>1024.3</ele>
        <time>2022-07-03T08:01:30Z</time>
      </trkpt>
      <trkpt lat="42.366862" lon="1.786673">
        <ele>1024.4</ele>
        <time>2022-07-03T08:01:32Z</time>
      </trkpt>
      <trkpt lat="42.366806" lon="1.786657">
        <ele>1024.7</ele>
        <time>2022-07-03T08:01:34Z</time>
      </trkpt>
      <trkpt lat="42.366748" lon="1.786638">
        <ele>1024.8</ele>
        <time>2022-07-03T08:01:36Z</time>
      </trkpt>
      <trkpt lat="42.366687" lon="1.786611">
        <ele>1025.0</ele>
        <time>2022-07-03T08:01:38Z</time>
      </trkpt>
      <trkpt lat="42.366618" lon="1.786563">
        <ele>1025.1</ele>
        <time>2022-07-03T08:01:40Z</time>
      </trkpt>
      <trkpt lat="42.366553" lon="1.786497">
        <ele>1025.2</ele>
        <time>2022-07-03T08:01:42Z</time>
      </trkpt>
      <trkpt lat="42.366517" lon="1.786411">
        <ele>1025.3</ele>
        <time>2022-07-03T08:01:44Z</time>
      </trkpt>
      <trkpt lat="42.366491" lon="1.786342">
        <ele>1025.3</ele>
        <time>2022-07-03T08:01:46Z</time>
      </trkpt>
      <trkpt lat="42.366433" lon="1.786290">
        <ele>1025.7</ele>
        <time>2022-07-03T08:01:49Z</time>
      </trkpt>
      <trkpt lat="42.366371" lon="1.786265">
        <ele>1025.6</ele>
        <time>2022-07-03T08:01:51Z</time>
      </trkpt>
      <trkpt lat="42.366298" lon="1.786243">
        <ele>1025.8</ele>
        <time>2022-07-03T08:01:53Z</time>
      </trkpt>
      <trkpt lat="42.366220" lon="1.786231">
        <ele>1025.9</ele>
        <time>2022-07-03T08:01:55Z</time>
      </trkpt>
      <trkpt lat="42.366154" lon="1.786186">
        <ele>1026.0</ele>
        <time>2022-07-03T08:01:57Z</time>
      </trkpt>
      <trkpt lat="42.366117" lon="1.786103">
        <ele>1026.9</ele>
        <time>2022-07-03T08:01:59Z</time>
      </trkpt>
      <trkpt lat="42.366088" lon="1.786036">
        <ele>1026.9</ele>
        <time>2022-07-03T08:02:01Z</time>
      </trkpt>
      <trkpt lat="42.366043" lon="1.785951">
        <ele>1026.9</ele>
        <time>2022-07-03T08:02:04Z</time>
      </trkpt>
      <trkpt lat="42.365999" lon="1.785867">
        <ele>1027.6</ele>
        <time>2022-07-03T08:02:07Z</time>
      </trkpt>
      <trkpt lat="42.365958" lon="1.785779">
        <ele>1028.3</ele>
        <time>2022-07-03T08:02:10Z</time>
      </trkpt>
      <trkpt lat="42.365906" lon="1.785696">
        <ele>1028.6</ele>
        <time>2022-07-03T08:02:13Z</time>
      </trkpt>
      <trkpt lat="42.365861" lon="1.785622">
        <ele>1029.4</ele>
        <time>2022-07-03T08:02:16Z</time>
      </trkpt>
      <trkpt lat="42.365835" lon="1.785546">
        <ele>1030.3</ele>
        <time>2022-07-03T08:02:19Z</time>
      </trkpt>
      <trkpt lat="42.365798" lon="1.785468">
        <ele>1031.0</ele>
        <time>2022-07-03T08:02:22Z</time>
      </trkpt>
      <trkpt lat="42.365757" lon="1.785392">
        <ele>1031.9</ele>
        <time>2022-07-03T08:02:25Z</time>
      </trkpt>
      <trkpt lat="42.365714" lon="1.785312">
        <ele>1032.6</ele>
        <time>2022-07-03T08:02:28Z</time>
      </trkpt>
      <trkpt lat="42.365661" lon="1.785232">
        <ele>1033.1</ele>
        <time>2022-07-03T08:02:31Z</time>
      </trkpt>
      <trkpt lat="42.365627" lon="1.785176">
        <ele>1033.5</ele>
        <time>2022-07-03T08:02:33Z</time>
      </trkpt>
      <trkpt lat="42.365572" lon="1.785095">
        <ele>1033.8</ele>
        <time>2022-07-03T08:02:36Z</time>
      </trkpt>
      <trkpt lat="42.365520" lon="1.785014">
        <ele>1034.6</ele>
        <time>2022-07-03T08:02:39Z</time>
      </trkpt>
      <trkpt lat="42.365475" lon="1.784930">
        <ele>1034.8</ele>
        <time>2022-07-03T08:02:42Z</time>
      </trkpt>
      <trkpt lat="42.365428" lon="1.784848">
        <ele>1035.2</ele>
        <time>2022-07-03T08:02:45Z</time>
      </trkpt>
      <trkpt lat="42.365384" lon="1.784776">
        <ele>1035.6</ele>
        <time>2022-07-03T08:02:48Z</time>
      </trkpt>
      <trkpt lat="42.365332" lon="1.784714">
        <ele>1036.1</ele>
        <time>2022-07-03T08:02:51Z</time>
      </trkpt>
      <trkpt lat="42.365269" lon="1.784679">
        <ele>1036.8</ele>
        <time>2022-07-03T08:02:54Z</time>
      </trkpt>
      <trkpt lat="42.365203" lon="1.784650">
        <ele>1037.3</ele>
        <time>2022-07-03T08:02:57Z</time>
      </trkpt>
      <trkpt lat="42.365129" lon="1.784629">
        <ele>1037.8</ele>
        <time>2022-07-03T08:03:00Z</time>
      </trkpt>
      <trkpt lat="42.365062" lon="1.784596">
        <ele>1038.1</ele>
        <time>2022-07-03T08:03:03Z</time>
      </trkpt>
      <trkpt lat="42.364995" lon="1.784556">
        <ele>1038.3</ele>
        <time>2022-07-03T08:03:06Z</time>
      </trkpt>
      <trkpt lat="42.364938" lon="1.784504">
        <ele>1038.7</ele>
        <time>2022-07-03T08:03:09Z</time>
      </trkpt>
      <trkpt lat="42.364889" lon="1.784435">
        <ele>1039.0</ele>
        <time>2022-07-03T08:03:12Z</time>
      </trkpt>
      <trkpt lat="42.364848" lon="1.784359">
        <ele>1039.7</ele>
        <time>2022-07-03T08:03:15Z</time>
      </trkpt>
      <trkpt lat="42.364804" lon="1.784279">
        <ele>1040.1</ele>
        <time>2022-07-03T08:03:18Z</time>
      </trkpt>
      <trkpt lat="42.364764" lon="1.784196">
        <ele>1040.7</ele>
        <time>2022-07-03T08:03:21Z</time>
      </trkpt>
      <trkpt lat="42.364726" lon="1.784113">
        <ele>1041.2</ele>
        <time>2022-07-03T08:03:24Z</time>
      </trkpt>
      <trkpt lat="42.364699" lon="1.784048">
        <ele>1041.5</ele>
        <time>2022-07-03T08:03:26Z</time>
      </trkpt>
      <trkpt lat="42.364663" lon="1.783959">
        <ele>1041.6</ele>
        <time>2022-07-03T08:03:29Z</time>
      </trkpt>
      <trkpt lat="42.364622" lon="1.783875">
        <ele>1041.6</ele>
        <time>2022-07-03T08:03:32Z</time>
      </trkpt>
      <trkpt lat="42.364588" lon="1.783788">
        <ele>1042.7</ele>
        <time>2022-07-03T08:03:35Z</time>
      </trkpt>
      <trkpt lat="42.364560" lon="1.783693">
        <ele>1042.9</ele>
        <time>2022-07-03T08:03:38Z</time>
      </trkpt>
      <trkpt lat="42.364527" lon="1.783603">
        <ele>1043.1</ele>
        <time>2022-07-03T08:03:41Z</time>
      </trkpt>
      <trkpt lat="42.364502" lon="1.783534">
        <ele>1043.4</ele>
        <time>2022-07-03T08:03:43Z</time>
      </trkpt>
      <trkpt lat="42.364476" lon="1.783468">
        <ele>1043.6</ele>
        <time>2022-07-03T08:03:45Z</time>
      </trkpt>
      <trkpt lat="42.364449" lon="1.783398">
        <ele>1043.7</ele>
        <time>2022-07-03T08:03:47Z</time>
      </trkpt>
      <trkpt lat="42.364422" lon="1.783327">
        <ele>1044.2</ele>
        <time>2022-07-03T08:03:49Z</time>
      </trkpt>
      <trkpt lat="42.364393" lon="1.783259">
        <ele>1044.4</ele>
        <time>2022-07-03T08:03:51Z</time>
      </trkpt>
      <trkpt lat="42.364368" lon="1.783190">
        <ele>1044.5</ele>
        <time>2022-07-03T08:03:53Z</time>
      </trkpt>
      <trkpt lat="42.364332" lon="1.783100">
        <ele>1044.7</ele>
        <time>2022-07-03T08:03:56Z</time>
      </trkpt>
      <trkpt lat="42.364295" lon="1.783006">
        <ele>1045.0</ele>
        <time>2022-07-03T08:03:59Z</time>
      </trkpt>
      <trkpt lat="42.364270" lon="1.782935">
        <ele>1045.3</ele>
        <time>2022-07-03T08:04:01Z</time>
      </trkpt>
      <trkpt lat="42.364234" lon="1.782865">
        <ele>1045.4</ele>
        <time>2022-07-03T08:04:03Z</time>
      </trkpt>
      <trkpt lat="42.364197" lon="1.782797">
        <ele>1045.5</ele>
        <time>2022-07-03T08:04:05Z</time>
      </trkpt>
      <trkpt lat="42.364159" lon="1.782738">
        <ele>1045.9</ele>
        <time>2022-07-03T08:04:07Z</time>
      </trkpt>
      <trkpt lat="42.364121" lon="1.782677">
        <ele>1046.5</ele>
        <time>2022-07-03T08:04:09Z</time>
      </trkpt>
      <trkpt lat="42.364086" lon="1.782614">
        <ele>1046.8</ele>
        <time>2022-07-03T08:04:11Z</time>
      </trkpt>
      <trkpt lat="42.364047" lon="1.782539">
        <ele>1047.1</ele>
        <time>2022-07-03T08:04:14Z</time>
      </trkpt>
      <trkpt lat="42.364012" lon="1.782477">
        <ele>1047.4</ele>
        <time>2022-07-03T08:04:16Z</time>
      </trkpt>
      <trkpt lat="42.363971" lon="1.782413">
        <ele>1047.6</ele>
        <time>2022-07-03T08:04:18Z</time>
      </trkpt>
      <trkpt lat="42.363937" lon="1.782349">
        <ele>1047.9</ele>
        <time>2022-07-03T08:04:20Z</time>
      </trkpt>
      <trkpt lat="42.363895" lon="1.782273">
        <ele>1048.1</ele>
        <time>2022-07-03T08:04:23Z</time>
      </trkpt>
      <trkpt lat="42.363850" lon="1.782201">
        <ele>1048.5</ele>
        <time>2022-07-03T08:04:26Z</time>
      </trkpt>
      <trkpt lat="42.363814" lon="1.782140">
        <ele>1048.8</ele>
        <time>2022-07-03T08:04:28Z</time>
      </trkpt>
      <trkpt lat="42.363759" lon="1.782079">
        <ele>1049.0</ele>
        <time>2022-07-03T08:04:31Z</time>
      </trkpt>
      <trkpt lat="42.363714" lon="1.782034">
        <ele>1049.2</ele>
        <time>2022-07-03T08:04:34Z</time>
      </trkpt>
      <trkpt lat="42.363659" lon="1.781982">
        <ele>1049.3</ele>
        <time>2022-07-03T08:04:37Z</time>
      </trkpt>
      <trkpt lat="42.363619" lon="1.781933">
        <ele>1049.8</ele>
        <time>2022-07-03T08:04:39Z</time>
      </trkpt>
      <trkpt lat="42.363579" lon="1.781881">
        <ele>1049.9</ele>
        <time>2022-07-03T08:04:41Z</time>
      </trkpt>
      <trkpt lat="42.363523" lon="1.781810">
        <ele>1050.3</ele>
        <time>2022-07-03T08:04:44Z</time>
      </trkpt>
      <trkpt lat="42.363491" lon="1.781740">
        <ele>1050.8</ele>
        <time>2022-07-03T08:04:47Z</time>
      </trkpt>
      <trkpt lat="42.363483" lon="1.781658">
        <ele>1051.2</ele>
        <time>2022-07-03T08:04:49Z</time>
      </trkpt>
      <trkpt lat="42.363465" lon="1.781550">
        <ele>1051.7</ele>
        <time>2022-07-03T08:04:52Z</time>
      </trkpt>
      <trkpt lat="42.363441" lon="1.781454">
        <ele>1051.6</ele>
        <time>2022-07-03T08:04:55Z</time>
      </trkpt>
      <trkpt lat="42.363397" lon="1.781408">
        <ele>1051.8</ele>
        <time>2022-07-03T08:04:57Z</time>
      </trkpt>
      <trkpt lat="42.363331" lon="1.781413">
        <ele>1052.4</ele>
        <time>2022-07-03T08:05:00Z</time>
      </trkpt>
      <trkpt lat="42.363269" lon="1.781366">
        <ele>1052.6</ele>
        <time>2022-07-03T08:05:04Z</time>
      </trkpt>
      <trkpt lat="42.363228" lon="1.781287">
        <ele>1052.7</ele>
        <time>2022-07-03T08:05:08Z</time>
      </trkpt>
      <trkpt lat="42.363200" lon="1.781201">
        <ele>1053.0</ele>
        <time>2022-07-03T08:05:11Z</time>
      </trkpt>
      <trkpt lat="42.363190" lon="1.781123">
        <ele>1053.0</ele>
        <time>2022-07-03T08:05:13Z</time>
      </trkpt>
      <trkpt lat="42.363181" lon="1.781045">
        <ele>1053.2</ele>
        <time>2022-07-03T08:05:15Z</time>
      </trkpt>
      <trkpt lat="42.363149" lon="1.780971">
        <ele>1053.1</ele>
        <time>2022-07-03T08:05:17Z</time>
      </trkpt>
      <trkpt lat="42.363098" lon="1.780940">
        <ele>1053.1</ele>
        <time>2022-07-03T08:05:19Z</time>
      </trkpt>
      <trkpt lat="42.363043" lon="1.780966">
        <ele>1053.2</ele>
        <time>2022-07-03T08:05:21Z</time>
      </trkpt>
      <trkpt lat="42.363000" lon="1.781018">
        <ele>1053.3</ele>
        <time>2022-07-03T08:05:23Z</time>
      </trkpt>
      <trkpt lat="42.362947" lon="1.781096">
        <ele>1053.7</ele>
        <time>2022-07-03T08:05:26Z</time>
      </trkpt>
      <trkpt lat="42.362903" lon="1.781165">
        <ele>1054.1</ele>
        <time>2022-07-03T08:05:29Z</time>
      </trkpt>
      <trkpt lat="42.362818" lon="1.781193">
        <ele>1054.4</ele>
        <time>2022-07-03T08:05:32Z</time>
      </trkpt>
      <trkpt lat="42.362762" lon="1.781204">
        <ele>1054.5</ele>
        <time>2022-07-03T08:05:34Z</time>
      </trkpt>
      <trkpt lat="42.362706" lon="1.781199">
        <ele>1054.6</ele>
        <time>2022-07-03T08:05:35Z</time>
      </trkpt>
      <trkpt lat="42.362624" lon="1.781191">
        <ele>1054.7</ele>
        <time>2022-07-03T08:05:37Z</time>
      </trkpt>
      <trkpt lat="42.362548" lon="1.781163">
        <ele>1054.8</ele>
        <time>2022-07-03T08:05:39Z</time>
      </trkpt>
      <trkpt lat="42.362468" lon="1.781142">
        <ele>1054.9</ele>
        <time>2022-07-03T08:05:41Z</time>
      </trkpt>
      <trkpt lat="42.362388" lon="1.781118">
        <ele>1055.0</ele>
        <time>2022-07-03T08:05:43Z</time>
      </trkpt>
      <trkpt lat="42.362314" lon="1.781095">
        <ele>1055.3</ele>
        <time>2022-07-03T08:05:45Z</time>
      </trkpt>
      <trkpt lat="42.362239" lon="1.781068">
        <ele>1055.5</ele>
        <time>2022-07-03T08:05:47Z</time>
      </trkpt>
      <trkpt lat="42.362164" lon="1.781042">
        <ele>1055.7</ele>
        <time>2022-07-03T08:05:49Z</time>
      </trkpt>
      <trkpt lat="42.362091" lon="1.781024">
        <ele>1055.9</ele>
        <time>2022-07-03T08:05:51Z</time>
      </trkpt>
      <trkpt lat="42.362019" lon="1.781008">
        <ele>1056.1</ele>
        <time>2022-07-03T08:05:53Z</time>
      </trkpt>
      <trkpt lat="42.361948" lon="1.780992">
        <ele>1056.3</ele>
        <time>2022-07-03T08:05:55Z</time>
      </trkpt>
      <trkpt lat="42.361877" lon="1.780975">
        <ele>1056.6</ele>
        <time>2022-07-03T08:05:57Z</time>
      </trkpt>
      <trkpt lat="42.361814" lon="1.780964">
        <ele>1057.0</ele>
        <time>2022-07-03T08:05:59Z</time>
      </trkpt>
      <trkpt lat="42.361751" lon="1.780949">
        <ele>1057.3</ele>
        <time>2022-07-03T08:06:01Z</time>
      </trkpt>
      <trkpt lat="42.361684" lon="1.780930">
        <ele>1057.5</ele>
        <time>2022-07-03T08:06:03Z</time>
      </trkpt>
      <trkpt lat="42.361617" lon="1.780910">
        <ele>1057.7</ele>
        <time>2022-07-03T08:06:05Z</time>
      </trkpt>
      <trkpt lat="42.361545" lon="1.780889">
        <ele>1057.8</ele>
        <time>2022-07-03T08:06:07Z</time>
      </trkpt>
      <trkpt lat="42.361472" lon="1.780868">
        <ele>1058.0</ele>
        <time>2022-07-03T08:06:09Z</time>
      </trkpt>
      <trkpt lat="42.361397" lon="1.780851">
        <ele>1058.2</ele>
        <time>2022-07-03T08:06:11Z</time>
      </trkpt>
      <trkpt lat="42.361327" lon="1.780838">
        <ele>1058.4</ele>
        <time>2022-07-03T08:06:13Z</time>
      </trkpt>
      <trkpt lat="42.361253" lon="1.780826">
        <ele>1058.7</ele>
        <time>2022-07-03T08:06:15Z</time>
      </trkpt>
      <trkpt lat="42.361179" lon="1.780812">
        <ele>1058.9</ele>
        <time>2022-07-03T08:06:17Z</time>
      </trkpt>
      <trkpt lat="42.361105" lon="1.780797">
        <ele>1059.0</ele>
        <time>2022-07-03T08:06:19Z</time>
      </trkpt>
      <trkpt lat="42.361030" lon="1.780785">
        <ele>1059.1</ele>
        <time>2022-07-03T08:06:21Z</time>
      </trkpt>
      <trkpt lat="42.360955" lon="1.780782">
        <ele>1059.3</ele>
        <time>2022-07-03T08:06:23Z</time>
      </trkpt>
      <trkpt lat="42.360879" lon="1.780778">
        <ele>1059.5</ele>
        <time>2022-07-03T08:06:25Z</time>
      </trkpt>
      <trkpt lat="42.360802" lon="1.780784">
        <ele>1059.9</ele>
        <time>2022-07-03T08:06:27Z</time>
      </trkpt>
      <trkpt lat="42.360727" lon="1.780797">
        <ele>1060.0</ele>
        <time>2022-07-03T08:06:29Z</time>
      </trkpt>
      <trkpt lat="42.360651" lon="1.780816">
        <ele>1060.1</ele>
        <time>2022-07-03T08:06:31Z</time>
      </trkpt>
      <trkpt lat="42.360576" lon="1.780843">
        <ele>1060.3</ele>
        <time>2022-07-03T08:06:33Z</time>
      </trkpt>
      <trkpt lat="42.360499" lon="1.780862">
        <ele>1060.4</ele>
        <time>2022-07-03T08:06:35Z</time>
      </trkpt>
      <trkpt lat="42.360420" lon="1.780886">
        <ele>1060.8</ele>
        <time>2022-07-03T08:06:37Z</time>
      </trkpt>
      <trkpt lat="42.360338" lon="1.780898">
        <ele>1061.1</ele>
        <time>2022-07-03T08:06:39Z</time>
      </trkpt>
      <trkpt lat="42.360255" lon="1.780907">
        <ele>1061.2</ele>
        <time>2022-07-03T08:06:41Z</time>
      </trkpt>
      <trkpt lat="42.360177" lon="1.780918">
        <ele>1061.3</ele>
        <time>2022-07-03T08:06:43Z</time>
      </trkpt>
      <trkpt lat="42.360100" lon="1.780932">
        <ele>1061.6</ele>
        <time>2022-07-03T08:06:45Z</time>
      </trkpt>
      <trkpt lat="42.360023" lon="1.780944">
        <ele>1061.8</ele>
        <time>2022-07-03T08:06:47Z</time>
      </trkpt>
      <trkpt lat="42.359945" lon="1.780958">
        <ele>1061.7</ele>
        <time>2022-07-03T08:06:49Z</time>
      </trkpt>
      <trkpt lat="42.359866" lon="1.780973">
        <ele>1061.8</ele>
        <time>2022-07-03T08:06:51Z</time>
      </trkpt>
      <trkpt lat="42.359791" lon="1.780983">
        <ele>1061.9</ele>
        <time>2022-07-03T08:06:53Z</time>
      </trkpt>
      <trkpt lat="42.359713" lon="1.780989">
        <ele>1062.1</ele>
        <time>2022-07-03T08:06:55Z</time>
      </trkpt>
      <trkpt lat="42.359636" lon="1.780999">
        <ele>1062.3</ele>
        <time>2022-07-03T08:06:57Z</time>
      </trkpt>
      <trkpt lat="42.359560" lon="1.781016">
        <ele>1062.5</ele>
        <time>2022-07-03T08:06:59Z</time>
      </trkpt>
      <trkpt lat="42.359482" lon="1.781036">
        <ele>1062.6</ele>
        <time>2022-07-03T08:07:01Z</time>
      </trkpt>
      <trkpt lat="42.359405" lon="1.781058">
        <ele>1062.8</ele>
        <time>2022-07-03T08:07:03Z</time>
      </trkpt>
      <trkpt lat="42.359329" lon="1.781080">
        <ele>1063.1</ele>
        <time>2022-07-03T08:07:05Z</time>
      </trkpt>
      <trkpt lat="42.359254" lon="1.781098">
        <ele>1063.3</ele>
        <time>2022-07-03T08:07:07Z</time>
      </trkpt>
      <trkpt lat="42.359186" lon="1.781108">
        <ele>1063.5</ele>
        <time>2022-07-03T08:07:09Z</time>
      </trkpt>
      <trkpt lat="42.359111" lon="1.781109">
        <ele>1063.8</ele>
        <time>2022-07-03T08:07:11Z</time>
      </trkpt>
      <trkpt lat="42.359036" lon="1.781102">
        <ele>1064.1</ele>
        <time>2022-07-03T08:07:13Z</time>
      </trkpt>
      <trkpt lat="42.358965" lon="1.781088">
        <ele>1064.4</ele>
        <time>2022-07-03T08:07:15Z</time>
      </trkpt>
      <trkpt lat="42.358894" lon="1.781064">
        <ele>1064.6</ele>
        <time>2022-07-03T08:07:17Z</time>
      </trkpt>
      <trkpt lat="42.358821" lon="1.781039">
        <ele>1064.7</ele>
        <time>2022-07-03T08:07:19Z</time>
      </trkpt>
      <trkpt lat="42.358746" lon="1.781018">
        <ele>1064.8</ele>
        <time>2022-07-03T08:07:21Z</time>
      </trkpt>
      <trkpt lat="42.358667" lon="1.780997">
        <ele>1065.0</ele>
        <time>2022-07-03T08:07:23Z</time>
      </trkpt>
      <trkpt lat="42.358583" lon="1.780985">
        <ele>1065.1</ele>
        <time>2022-07-03T08:07:25Z</time>
      </trkpt>
      <trkpt lat="42.358507" lon="1.780961">
        <ele>1065.3</ele>
        <time>2022-07-03T08:07:27Z</time>
      </trkpt>
      <trkpt lat="42.358431" lon="1.780925">
        <ele>1065.5</ele>
        <time>2022-07-03T08:07:29Z</time>
      </trkpt>
      <trkpt lat="42.358358" lon="1.780882">
        <ele>1065.8</ele>
        <time>2022-07-03T08:07:31Z</time>
      </trkpt>
      <trkpt lat="42.358285" lon="1.780847">
        <ele>1066.0</ele>
        <time>2022-07-03T08:07:33Z</time>
      </trkpt>
      <trkpt lat="42.358212" lon="1.780812">
        <ele>1066.2</ele>
        <time>2022-07-03T08:07:35Z</time>
      </trkpt>
      <trkpt lat="42.358139" lon="1.780775">
        <ele>1066.4</ele>
        <time>2022-07-03T08:07:37Z</time>
      </trkpt>
      <trkpt lat="42.358066" lon="1.780741">
        <ele>1066.5</ele>
        <time>2022-07-03T08:07:39Z</time>
      </trkpt>
      <trkpt lat="42.357990" lon="1.780706">
        <ele>1066.8</ele>
        <time>2022-07-03T08:07:41Z</time>
      </trkpt>
      <trkpt lat="42.357917" lon="1.780673">
        <ele>1066.9</ele>
        <time>2022-07-03T08:07:43Z</time>
      </trkpt>
      <trkpt lat="42.357842" lon="1.780636">
        <ele>1067.1</ele>
        <time>2022-07-03T08:07:45Z</time>
      </trkpt>
      <trkpt lat="42.357765" lon="1.780603">
        <ele>1067.1</ele>
        <time>2022-07-03T08:07:47Z</time>
      </trkpt>
      <trkpt lat="42.357690" lon="1.780576">
        <ele>1067.3</ele>
        <time>2022-07-03T08:07:49Z</time>
      </trkpt>
      <trkpt lat="42.357613" lon="1.780537">
        <ele>1067.4</ele>
        <time>2022-07-03T08:07:51Z</time>
      </trkpt>
      <trkpt lat="42.357533" lon="1.780517">
        <ele>1067.5</ele>
        <time>2022-07-03T08:07:53Z</time>
      </trkpt>
      <trkpt lat="42.357447" lon="1.780510">
        <ele>1067.6</ele>
        <time>2022-07-03T08:07:55Z</time>
      </trkpt>
      <trkpt lat="42.357362" lon="1.780503">
        <ele>1067.8</ele>
        <time>2022-07-03T08:07:57Z</time>
      </trkpt>
      <trkpt lat="42.357277" lon="1.780499">
        <ele>1068.0</ele>
        <time>2022-07-03T08:07:59Z</time>
      </trkpt>
      <trkpt lat="42.357193" lon="1.780506">
        <ele>1068.1</ele>
        <time>2022-07-03T08:08:01Z</time>
      </trkpt>
      <trkpt lat="42.357104" lon="1.780517">
        <ele>1068.1</ele>
        <time>2022-07-03T08:08:03Z</time>
      </trkpt>
      <trkpt lat="42.357020" lon="1.780529">
        <ele>1068.2</ele>
        <time>2022-07-03T08:08:05Z</time>
      </trkpt>
      <trkpt lat="42.356936" lon="1.780542">
        <ele>1068.3</ele>
        <time>2022-07-03T08:08:07Z</time>
      </trkpt>
      <trkpt lat="42.356853" lon="1.780554">
        <ele>1068.5</ele>
        <time>2022-07-03T08:08:09Z</time>
      </trkpt>
      <trkpt lat="42.356783" lon="1.780565">
        <ele>1068.7</ele>
        <time>2022-07-03T08:08:11Z</time>
      </trkpt>
      <trkpt lat="42.356723" lon="1.780574">
        <ele>1068.9</ele>
        <time>2022-07-03T08:08:13Z</time>
      </trkpt>
      <trkpt lat="42.356647" lon="1.780580">
        <ele>1069.0</ele>
        <time>2022-07-03T08:08:15Z</time>
      </trkpt>
      <trkpt lat="42.356571" lon="1.780535">
        <ele>1069.2</ele>
        <time>2022-07-03T08:08:17Z</time>
      </trkpt>
      <trkpt lat="42.356509" lon="1.780470">
        <ele>1069.4</ele>
        <time>2022-07-03T08:08:19Z</time>
      </trkpt>
      <trkpt lat="42.356450" lon="1.780408">
        <ele>1069.6</ele>
        <time>2022-07-03T08:08:21Z</time>
      </trkpt>
      <trkpt lat="42.356383" lon="1.780354">
        <ele>1069.9</ele>
        <time>2022-07-03T08:08:23Z</time>
      </trkpt>
      <trkpt lat="42.356322" lon="1.780310">
        <ele>1070.2</ele>
        <time>2022-07-03T08:08:25Z</time>
      </trkpt>
      <trkpt lat="42.356267" lon="1.780269">
        <ele>1070.6</ele>
        <time>2022-07-03T08:08:27Z</time>
      </trkpt>
      <trkpt lat="42.356211" lon="1.780237">
        <ele>1071.0</ele>
        <time>2022-07-03T08:08:29Z</time>
      </trkpt>
      <trkpt lat="42.356161" lon="1.780205">
        <ele>1071.4</ele>
        <time>2022-07-03T08:08:31Z</time>
      </trkpt>
      <trkpt lat="42.356108" lon="1.780178">
        <ele>1071.7</ele>
        <time>2022-07-03T08:08:33Z</time>
      </trkpt>
      <trkpt lat="42.356051" lon="1.780179">
        <ele>1072.2</ele>
        <time>2022-07-03T08:08:35Z</time>
      </trkpt>
      <trkpt lat="42.355999" lon="1.780203">
        <ele>1072.7</ele>
        <time>2022-07-03T08:08:37Z</time>
      </trkpt>
      <trkpt lat="42.355942" lon="1.780239">
        <ele>1073.2</ele>
        <time>2022-07-03T08:08:39Z</time>
      </trkpt>
      <trkpt lat="42.355883" lon="1.780269">
        <ele>1073.6</ele>
        <time>2022-07-03T08:08:41Z</time>
      </trkpt>
      <trkpt lat="42.355832" lon="1.780292">
        <ele>1074.1</ele>
        <time>2022-07-03T08:08:43Z</time>
      </trkpt>
      <trkpt lat="42.355775" lon="1.780311">
        <ele>1074.5</ele>
        <time>2022-07-03T08:08:45Z</time>
      </trkpt>
      <trkpt lat="42.355714" lon="1.780326">
        <ele>1074.9</ele>
        <time>2022-07-03T08:08:47Z</time>
      </trkpt>
      <trkpt lat="42.355648" lon="1.780336">
        <ele>1075.1</ele>
        <time>2022-07-03T08:08:49Z</time>
      </trkpt>
      <trkpt lat="42.355586" lon="1.780349">
        <ele>1075.3</ele>
        <time>2022-07-03T08:08:51Z</time>
      </trkpt>
      <trkpt lat="42.355522" lon="1.780358">
        <ele>1075.7</ele>
        <time>2022-07-03T08:08:53Z</time>
      </trkpt>
      <trkpt lat="42.355457" lon="1.780372">
        <ele>1076.0</ele>
        <time>2022-07-03T08:08:55Z</time>
      </trkpt>
      <trkpt lat="42.355392" lon="1.780382">
        <ele>1076.2</ele>
        <time>2022-07-03T08:08:57Z</time>
      </trkpt>
      <trkpt lat="42.355326" lon="1.780396">
        <ele>1076.4</ele>
        <time>2022-07-03T08:08:59Z</time>
      </trkpt>
      <trkpt lat="42.355257" lon="1.780410">
        <ele>1076.7</ele>
        <time>2022-07-03T08:09:01Z</time>
      </trkpt>
      <trkpt lat="42.355190" lon="1.780422">
        <ele>1076.9</ele>
        <time>2022-07-03T08:09:03Z</time>
      </trkpt>
      <trkpt lat="42.355117" lon="1.780436">
        <ele>1077.0</ele>
        <time>2022-07-03T08:09:05Z</time>
      </trkpt>
      <trkpt lat="42.355047" lon="1.780447">
        <ele>1077.1</ele>
        <time>2022-07-03T08:09:07Z</time>
      </trkpt>
      <trkpt lat="42.354982" lon="1.780460">
        <ele>1077.3</ele>
        <time>2022-07-03T08:09:09Z</time>
      </trkpt>
      <trkpt lat="42.354917" lon="1.780464">
        <ele>1077.5</ele>
        <time>2022-07-03T08:09:11Z</time>
      </trkpt>
      <trkpt lat="42.354853" lon="1.780472">
        <ele>1077.7</ele>
        <time>2022-07-03T08:09:13Z</time>
      </trkpt>
      <trkpt lat="42.354784" lon="1.780479">
        <ele>1077.9</ele>
        <time>2022-07-03T08:09:15Z</time>
      </trkpt>
      <trkpt lat="42.354716" lon="1.780475">
        <ele>1078.1</ele>
        <time>2022-07-03T08:09:17Z</time>
      </trkpt>
      <trkpt lat="42.354648" lon="1.780469">
        <ele>1078.2</ele>
        <time>2022-07-03T08:09:19Z</time>
      </trkpt>
      <trkpt lat="42.354578" lon="1.780462">
        <ele>1078.3</ele>
        <time>2022-07-03T08:09:21Z</time>
      </trkpt>
      <trkpt lat="42.354508" lon="1.780454">
        <ele>1078.3</ele>
        <time>2022-07-03T08:09:23Z</time>
      </trkpt>
      <trkpt lat="42.354438" lon="1.780449">
        <ele>1078.4</ele>
        <time>2022-07-03T08:09:25Z</time>
      </trkpt>
      <trkpt lat="42.354370" lon="1.780447">
        <ele>1078.6</ele>
        <time>2022-07-03T08:09:27Z</time>
      </trkpt>
      <trkpt lat="42.354303" lon="1.780450">
        <ele>1078.9</ele>
        <time>2022-07-03T08:09:29Z</time>
      </trkpt>
      <trkpt lat="42.354232" lon="1.780456">
        <ele>1079.0</ele>
        <time>2022-07-03T08:09:31Z</time>
      </trkpt>
      <trkpt lat="42.354162" lon="1.780469">
        <ele>1079.2</ele>
        <time>2022-07-03T08:09:33Z</time>
      </trkpt>
      <trkpt lat="42.354092" lon="1.780479">
        <ele>1079.3</ele>
        <time>2022-07-03T08:09:35Z</time>
      </trkpt>
      <trkpt lat="42.354023" lon="1.780496">
        <ele>1079.6</ele>
        <time>2022-07-03T08:09:37Z</time>
      </trkpt>
      <trkpt lat="42.353958" lon="1.780506">
        <ele>1079.7</ele>
        <time>2022-07-03T08:09:39Z</time>
      </trkpt>
      <trkpt lat="42.353896" lon="1.780512">
        <ele>1080.1</ele>
        <time>2022-07-03T08:09:41Z</time>
      </trkpt>
      <trkpt lat="42.353828" lon="1.780516">
        <ele>1080.3</ele>
        <time>2022-07-03T08:09:43Z</time>
      </trkpt>
      <trkpt lat="42.353758" lon="1.780522">
        <ele>1080.5</ele>
        <time>2022-07-03T08:09:45Z</time>
      </trkpt>
      <trkpt lat="42.353694" lon="1.780531">
        <ele>1080.7</ele>
        <time>2022-07-03T08:09:47Z</time>
      </trkpt>
      <trkpt lat="42.353625" lon="1.780542">
        <ele>1081.0</ele>
        <time>2022-07-03T08:09:49Z</time>
      </trkpt>
      <trkpt lat="42.353556" lon="1.780553">
        <ele>1081.3</ele>
        <time>2022-07-03T08:09:51Z</time>
      </trkpt>
      <trkpt lat="42.353496" lon="1.780573">
        <ele>1081.6</ele>
        <time>2022-07-03T08:09:53Z</time>
      </trkpt>
      <trkpt lat="42.353433" lon="1.780597">
        <ele>1081.7</ele>
        <time>2022-07-03T08:09:55Z</time>
      </trkpt>
      <trkpt lat="42.353372" lon="1.780626">
        <ele>1081.9</ele>
        <time>2022-07-03T08:09:57Z</time>
      </trkpt>
      <trkpt lat="42.353315" lon="1.780654">
        <ele>1082.0</ele>
        <time>2022-07-03T08:09:59Z</time>
      </trkpt>
      <trkpt lat="42.353253" lon="1.780686">
        <ele>1082.1</ele>
        <time>2022-07-03T08:10:01Z</time>
      </trkpt>
      <trkpt lat="42.353182" lon="1.780734">
        <ele>1082.1</ele>
        <time>2022-07-03T08:10:03Z</time>
      </trkpt>
      <trkpt lat="42.353116" lon="1.780770">
        <ele>1082.4</ele>
        <time>2022-07-03T08:10:05Z</time>
      </trkpt>
      <trkpt lat="42.353050" lon="1.780802">
        <ele>1082.7</ele>
        <time>2022-07-03T08:10:07Z</time>
      </trkpt>
      <trkpt lat="42.352986" lon="1.780842">
        <ele>1082.9</ele>
        <time>2022-07-03T08:10:09Z</time>
      </trkpt>
      <trkpt lat="42.352924" lon="1.780875">
        <ele>1083.0</ele>
        <time>2022-07-03T08:10:11Z</time>
      </trkpt>
      <trkpt lat="42.352865" lon="1.780905">
        <ele>1083.0</ele>
        <time>2022-07-03T08:10:13Z</time>
      </trkpt>
      <trkpt lat="42.352804" lon="1.780943">
        <ele>1083.2</ele>
        <time>2022-07-03T08:10:15Z</time>
      </trkpt>
      <trkpt lat="42.352740" lon="1.780980">
        <ele>1083.2</ele>
        <time>2022-07-03T08:10:17Z</time>
      </trkpt>
      <trkpt lat="42.352671" lon="1.781011">
        <ele>1083.4</ele>
        <time>2022-07-03T08:10:19Z</time>
      </trkpt>
      <trkpt lat="42.352604" lon="1.781057">
        <ele>1083.6</ele>
        <time>2022-07-03T08:10:21Z</time>
      </trkpt>
      <trkpt lat="42.352539" lon="1.781096">
        <ele>1083.8</ele>
        <time>2022-07-03T08:10:23Z</time>
      </trkpt>
      <trkpt lat="42.352468" lon="1.781144">
        <ele>1084.1</ele>
        <time>2022-07-03T08:10:25Z</time>
      </trkpt>
      <trkpt lat="42.352417" lon="1.781186">
        <ele>1084.3</ele>
        <time>2022-07-03T08:10:27Z</time>
      </trkpt>
      <trkpt lat="42.352362" lon="1.781234">
        <ele>1084.6</ele>
        <time>2022-07-03T08:10:29Z</time>
      </trkpt>
      <trkpt lat="42.352304" lon="1.781284">
        <ele>1084.7</ele>
        <time>2022-07-03T08:10:31Z</time>
      </trkpt>
      <trkpt lat="42.352250" lon="1.781335">
        <ele>1084.8</ele>
        <time>2022-07-03T08:10:33Z</time>
      </trkpt>
      <trkpt lat="42.352189" lon="1.781387">
        <ele>1084.9</ele>
        <time>2022-07-03T08:10:35Z</time>
      </trkpt>
      <trkpt lat="42.352110" lon="1.781447">
        <ele>1084.7</ele>
        <time>2022-07-03T08:10:37Z</time>
      </trkpt>
      <trkpt lat="42.352030" lon="1.781505">
        <ele>1084.7</ele>
        <time>2022-07-03T08:10:39Z</time>
      </trkpt>
      <trkpt lat="42.351951" lon="1.781560">
        <ele>1084.6</ele>
        <time>2022-07-03T08:10:41Z</time>
      </trkpt>
      <trkpt lat="42.351879" lon="1.781620">
        <ele>1084.6</ele>
        <time>2022-07-03T08:10:43Z</time>
      </trkpt>
      <trkpt lat="42.351806" lon="1.781670">
        <ele>1084.7</ele>
        <time>2022-07-03T08:10:45Z</time>
      </trkpt>
      <trkpt lat="42.351737" lon="1.781714">
        <ele>1084.8</ele>
        <time>2022-07-03T08:10:47Z</time>
      </trkpt>
      <trkpt lat="42.351672" lon="1.781765">
        <ele>1085.0</ele>
        <time>2022-07-03T08:10:49Z</time>
      </trkpt>
      <trkpt lat="42.351608" lon="1.781811">
        <ele>1085.3</ele>
        <time>2022-07-03T08:10:51Z</time>
      </trkpt>
      <trkpt lat="42.351540" lon="1.781853">
        <ele>1085.5</ele>
        <time>2022-07-03T08:10:53Z</time>
      </trkpt>
      <trkpt lat="42.351467" lon="1.781893">
        <ele>1085.6</ele>
        <time>2022-07-03T08:10:55Z</time>
      </trkpt>
      <trkpt lat="42.351388" lon="1.781933">
        <ele>1085.9</ele>
        <time>2022-07-03T08:10:57Z</time>
      </trkpt>
      <trkpt lat="42.351318" lon="1.781972">
        <ele>1086.0</ele>
        <time>2022-07-03T08:10:59Z</time>
      </trkpt>
      <trkpt lat="42.351240" lon="1.781998">
        <ele>1086.1</ele>
        <time>2022-07-03T08:11:01Z</time>
      </trkpt>
      <trkpt lat="42.351175" lon="1.782019">
        <ele>1086.3</ele>
        <time>2022-07-03T08:11:03Z</time>
      </trkpt>
      <trkpt lat="42.351101" lon="1.782038">
        <ele>1086.6</ele>
        <time>2022-07-03T08:11:05Z</time>
      </trkpt>
      <trkpt lat="42.351030" lon="1.782061">
        <ele>1086.8</ele>
        <time>2022-07-03T08:11:07Z</time>
      </trkpt>
      <trkpt lat="42.350956" lon="1.782064">
        <ele>1087.0</ele>
        <time>2022-07-03T08:11:09Z</time>
      </trkpt>
      <trkpt lat="42.350880" lon="1.782050">
        <ele>1087.1</ele>
        <time>2022-07-03T08:11:11Z</time>
      </trkpt>
      <trkpt lat="42.350796" lon="1.782039">
        <ele>1087.1</ele>
        <time>2022-07-03T08:11:13Z</time>
      </trkpt>
      <trkpt lat="42.350718" lon="1.782010">
        <ele>1087.3</ele>
        <time>2022-07-03T08:11:15Z</time>
      </trkpt>
      <trkpt lat="42.350648" lon="1.781965">
        <ele>1087.4</ele>
        <time>2022-07-03T08:11:17Z</time>
      </trkpt>
      <trkpt lat="42.350579" lon="1.781922">
        <ele>1087.7</ele>
        <time>2022-07-03T08:11:19Z</time>
      </trkpt>
      <trkpt lat="42.350509" lon="1.781885">
        <ele>1087.9</ele>
        <time>2022-07-03T08:11:21Z</time>
      </trkpt>
      <trkpt lat="42.350438" lon="1.781860">
        <ele>1088.1</ele>
        <time>2022-07-03T08:11:23Z</time>
      </trkpt>
      <trkpt lat="42.350363" lon="1.781837">
        <ele>1088.4</ele>
        <time>2022-07-03T08:11:25Z</time>
      </trkpt>
      <trkpt lat="42.350290" lon="1.781806">
        <ele>1088.7</ele>
        <time>2022-07-03T08:11:27Z</time>
      </trkpt>
      <trkpt lat="42.350216" lon="1.781779">
        <ele>1088.7</ele>
        <time>2022-07-03T08:11:29Z</time>
      </trkpt>
      <trkpt lat="42.350146" lon="1.781750">
        <ele>1088.9</ele>
        <time>2022-07-03T08:11:31Z</time>
      </trkpt>
      <trkpt lat="42.350075" lon="1.781719">
        <ele>1089.0</ele>
        <time>2022-07-03T08:11:33Z</time>
      </trkpt>
      <trkpt lat="42.350002" lon="1.781683">
        <ele>1089.0</ele>
        <time>2022-07-03T08:11:35Z</time>
      </trkpt>
      <trkpt lat="42.349935" lon="1.781646">
        <ele>1089.3</ele>
        <time>2022-07-03T08:11:37Z</time>
      </trkpt>
      <trkpt lat="42.349864" lon="1.781610">
        <ele>1089.5</ele>
        <time>2022-07-03T08:11:39Z</time>
      </trkpt>
      <trkpt lat="42.349792" lon="1.781580">
        <ele>1089.7</ele>
        <time>2022-07-03T08:11:41Z</time>
      </trkpt>
      <trkpt lat="42.349725" lon="1.781554">
        <ele>1089.9</ele>
        <time>2022-07-03T08:11:43Z</time>
      </trkpt>
      <trkpt lat="42.349658" lon="1.781529">
        <ele>1090.2</ele>
        <time>2022-07-03T08:11:45Z</time>
      </trkpt>
      <trkpt lat="42.349574" lon="1.781496">
        <ele>1090.4</ele>
        <time>2022-07-03T08:11:48Z</time>
      </trkpt>
      <trkpt lat="42.349502" lon="1.781482">
        <ele>1090.6</ele>
        <time>2022-07-03T08:11:50Z</time>
      </trkpt>
      <trkpt lat="42.349438" lon="1.781457">
        <ele>1090.8</ele>
        <time>2022-07-03T08:11:52Z</time>
      </trkpt>
      <trkpt lat="42.349376" lon="1.781433">
        <ele>1091.2</ele>
        <time>2022-07-03T08:11:54Z</time>
      </trkpt>
      <trkpt lat="42.349321" lon="1.781405">
        <ele>1091.4</ele>
        <time>2022-07-03T08:11:56Z</time>
      </trkpt>
      <trkpt lat="42.349240" lon="1.781382">
        <ele>1091.7</ele>
        <time>2022-07-03T08:11:58Z</time>
      </trkpt>
      <trkpt lat="42.349178" lon="1.781363">
        <ele>1092.1</ele>
        <time>2022-07-03T08:12:00Z</time>
      </trkpt>
      <trkpt lat="42.349117" lon="1.781327">
        <ele>1092.6</ele>
        <time>2022-07-03T08:12:02Z</time>
      </trkpt>
      <trkpt lat="42.349060" lon="1.781294">
        <ele>1093.1</ele>
        <time>2022-07-03T08:12:04Z</time>
      </trkpt>
      <trkpt lat="42.348994" lon="1.781272">
        <ele>1093.4</ele>
        <time>2022-07-03T08:12:06Z</time>
      </trkpt>
      <trkpt lat="42.348930" lon="1.781258">
        <ele>1093.9</ele>
        <time>2022-07-03T08:12:09Z</time>
      </trkpt>
      <trkpt lat="42.348856" lon="1.781240">
        <ele>1094.2</ele>
        <time>2022-07-03T08:12:12Z</time>
      </trkpt>
      <trkpt lat="42.348793" lon="1.781219">
        <ele>1094.5</ele>
        <time>2022-07-03T08:12:14Z</time>
      </trkpt>
      <trkpt lat="42.348728" lon="1.781216">
        <ele>1094.8</ele>
        <time>2022-07-03T08:12:16Z</time>
      </trkpt>
      <trkpt lat="42.348662" lon="1.781221">
        <ele>1095.1</ele>
        <time>2022-07-03T08:12:18Z</time>
      </trkpt>
      <trkpt lat="42.348573" lon="1.781197">
        <ele>1095.2</ele>
        <time>2022-07-03T08:12:21Z</time>
      </trkpt>
      <trkpt lat="42.348489" lon="1.781166">
        <ele>1095.5</ele>
        <time>2022-07-03T08:12:23Z</time>
      </trkpt>
      <trkpt lat="42.348419" lon="1.781150">
        <ele>1095.7</ele>
        <time>2022-07-03T08:12:25Z</time>
      </trkpt>
      <trkpt lat="42.348358" lon="1.781130">
        <ele>1095.9</ele>
        <time>2022-07-03T08:12:27Z</time>
      </trkpt>
      <trkpt lat="42.348302" lon="1.781119">
        <ele>1095.8</ele>
        <time>2022-07-03T08:12:29Z</time>
      </trkpt>
      <trkpt lat="42.348241" lon="1.781108">
        <ele>1096.1</ele>
        <time>2022-07-03T08:12:31Z</time>
      </trkpt>
      <trkpt lat="42.348185" lon="1.781092">
        <ele>1096.4</ele>
        <time>2022-07-03T08:12:33Z</time>
      </trkpt>
      <trkpt lat="42.348130" lon="1.781083">
        <ele>1096.3</ele>
        <time>2022-07-03T08:12:35Z</time>
      </trkpt>
      <trkpt lat="42.348040" lon="1.781066">
        <ele>1096.4</ele>
        <time>2022-07-03T08:12:37Z</time>
      </trkpt>
      <trkpt lat="42.347979" lon="1.781053">
        <ele>1096.7</ele>
        <time>2022-07-03T08:12:39Z</time>
      </trkpt>
      <trkpt lat="42.347920" lon="1.781040">
        <ele>1097.1</ele>
        <time>2022-07-03T08:12:41Z</time>
      </trkpt>
      <trkpt lat="42.347840" lon="1.781026">
        <ele>1097.4</ele>
        <time>2022-07-03T08:12:44Z</time>
      </trkpt>
      <trkpt lat="42.347780" lon="1.781006">
        <ele>1097.7</ele>
        <time>2022-07-03T08:12:46Z</time>
      </trkpt>
      <trkpt lat="42.347704" lon="1.780993">
        <ele>1098.1</ele>
        <time>2022-07-03T08:12:48Z</time>
      </trkpt>
      <trkpt lat="42.347635" lon="1.780996">
        <ele>1098.2</ele>
        <time>2022-07-03T08:12:50Z</time>
      </trkpt>
      <trkpt lat="42.347569" lon="1.780994">
        <ele>1098.2</ele>
        <time>2022-07-03T08:12:52Z</time>
      </trkpt>
      <trkpt lat="42.347503" lon="1.780987">
        <ele>1098.4</ele>
        <time>2022-07-03T08:12:54Z</time>
      </trkpt>
      <trkpt lat="42.347430" lon="1.780992">
        <ele>1098.2</ele>
        <time>2022-07-03T08:12:56Z</time>
      </trkpt>
      <trkpt lat="42.347362" lon="1.780991">
        <ele>1098.0</ele>
        <time>2022-07-03T08:12:58Z</time>
      </trkpt>
      <trkpt lat="42.347284" lon="1.780997">
        <ele>1098.1</ele>
        <time>2022-07-03T08:13:00Z</time>
      </trkpt>
      <trkpt lat="42.347210" lon="1.780999">
        <ele>1098.4</ele>
        <time>2022-07-03T08:13:02Z</time>
      </trkpt>
      <trkpt lat="42.347145" lon="1.780996">
        <ele>1098.4</ele>
        <time>2022-07-03T08:13:04Z</time>
      </trkpt>
      <trkpt lat="42.347066" lon="1.780995">
        <ele>1098.3</ele>
        <time>2022-07-03T08:13:06Z</time>
      </trkpt>
      <trkpt lat="42.346995" lon="1.780988">
        <ele>1098.7</ele>
        <time>2022-07-03T08:13:08Z</time>
      </trkpt>
      <trkpt lat="42.346924" lon="1.780970">
        <ele>1098.8</ele>
        <time>2022-07-03T08:13:10Z</time>
      </trkpt>
      <trkpt lat="42.346846" lon="1.780954">
        <ele>1098.9</ele>
        <time>2022-07-03T08:13:12Z</time>
      </trkpt>
      <trkpt lat="42.346771" lon="1.780934">
        <ele>1099.0</ele>
        <time>2022-07-03T08:13:14Z</time>
      </trkpt>
      <trkpt lat="42.346699" lon="1.780924">
        <ele>1099.1</ele>
        <time>2022-07-03T08:13:16Z</time>
      </trkpt>
      <trkpt lat="42.346631" lon="1.780917">
        <ele>1099.2</ele>
        <time>2022-07-03T08:13:18Z</time>
      </trkpt>
      <trkpt lat="42.346563" lon="1.780907">
        <ele>1099.6</ele>
        <time>2022-07-03T08:13:20Z</time>
      </trkpt>
      <trkpt lat="42.346492" lon="1.780900">
        <ele>1099.9</ele>
        <time>2022-07-03T08:13:22Z</time>
      </trkpt>
      <trkpt lat="42.346422" lon="1.780903">
        <ele>1100.0</ele>
        <time>2022-07-03T08:13:24Z</time>
      </trkpt>
      <trkpt lat="42.346356" lon="1.780906">
        <ele>1100.3</ele>
        <time>2022-07-03T08:13:26Z</time>
      </trkpt>
      <trkpt lat="42.346286" lon="1.780911">
        <ele>1100.4</ele>
        <time>2022-07-03T08:13:28Z</time>
      </trkpt>
      <trkpt lat="42.346223" lon="1.780913">
        <ele>1100.2</ele>
        <time>2022-07-03T08:13:30Z</time>
      </trkpt>
      <trkpt lat="42.346150" lon="1.780920">
        <ele>1100.7</ele>
        <time>2022-07-03T08:13:32Z</time>
      </trkpt>
      <trkpt lat="42.346087" lon="1.780915">
        <ele>1100.7</ele>
        <time>2022-07-03T08:13:34Z</time>
      </trkpt>
      <trkpt lat="42.346028" lon="1.780910">
        <ele>1100.9</ele>
        <time>2022-07-03T08:13:36Z</time>
      </trkpt>
      <trkpt lat="42.345964" lon="1.780909">
        <ele>1101.0</ele>
        <time>2022-07-03T08:13:38Z</time>
      </trkpt>
      <trkpt lat="42.345904" lon="1.780906">
        <ele>1101.2</ele>
        <time>2022-07-03T08:13:40Z</time>
      </trkpt>
      <trkpt lat="42.345843" lon="1.780898">
        <ele>1101.4</ele>
        <time>2022-07-03T08:13:42Z</time>
      </trkpt>
      <trkpt lat="42.345779" lon="1.780895">
        <ele>1101.6</ele>
        <time>2022-07-03T08:13:44Z</time>
      </trkpt>
      <trkpt lat="42.345722" lon="1.780903">
        <ele>1101.8</ele>
        <time>2022-07-03T08:13:46Z</time>
      </trkpt>
      <trkpt lat="42.345655" lon="1.780899">
        <ele>1102.5</ele>
        <time>2022-07-03T08:13:49Z</time>
      </trkpt>
      <trkpt lat="42.345602" lon="1.780867">
        <ele>1103.5</ele>
        <time>2022-07-03T08:13:52Z</time>
      </trkpt>
      <trkpt lat="42.345526" lon="1.780837">
        <ele>1104.2</ele>
        <time>2022-07-03T08:13:55Z</time>
      </trkpt>
      <trkpt lat="42.345474" lon="1.780813">
        <ele>1104.4</ele>
        <time>2022-07-03T08:13:57Z</time>
      </trkpt>
      <trkpt lat="42.345407" lon="1.780797">
        <ele>1104.8</ele>
        <time>2022-07-03T08:14:00Z</time>
      </trkpt>
      <trkpt lat="42.345326" lon="1.780781">
        <ele>1105.3</ele>
        <time>2022-07-03T08:14:03Z</time>
      </trkpt>
      <trkpt lat="42.345271" lon="1.780772">
        <ele>1105.6</ele>
        <time>2022-07-03T08:14:05Z</time>
      </trkpt>
      <trkpt lat="42.345193" lon="1.780759">
        <ele>1105.9</ele>
        <time>2022-07-03T08:14:08Z</time>
      </trkpt>
      <trkpt lat="42.345114" lon="1.780757">
        <ele>1106.1</ele>
        <time>2022-07-03T08:14:11Z</time>
      </trkpt>
      <trkpt lat="42.345052" lon="1.780747">
        <ele>1106.3</ele>
        <time>2022-07-03T08:14:13Z</time>
      </trkpt>
      <trkpt lat="42.344996" lon="1.780737">
        <ele>1106.5</ele>
        <time>2022-07-03T08:14:15Z</time>
      </trkpt>
      <trkpt lat="42.344937" lon="1.780746">
        <ele>1106.8</ele>
        <time>2022-07-03T08:14:17Z</time>
      </trkpt>
      <trkpt lat="42.344869" lon="1.780746">
        <ele>1107.1</ele>
        <time>2022-07-03T08:14:19Z</time>
      </trkpt>
      <trkpt lat="42.344804" lon="1.780737">
        <ele>1107.1</ele>
        <time>2022-07-03T08:14:21Z</time>
      </trkpt>
      <trkpt lat="42.344744" lon="1.780730">
        <ele>1107.1</ele>
        <time>2022-07-03T08:14:23Z</time>
      </trkpt>
      <trkpt lat="42.344669" lon="1.780726">
        <ele>1106.9</ele>
        <time>2022-07-03T08:14:26Z</time>
      </trkpt>
      <trkpt lat="42.344613" lon="1.780724">
        <ele>1107.0</ele>
        <time>2022-07-03T08:14:28Z</time>
      </trkpt>
      <trkpt lat="42.344537" lon="1.780707">
        <ele>1107.5</ele>
        <time>2022-07-03T08:14:31Z</time>
      </trkpt>
      <trkpt lat="42.344462" lon="1.780695">
        <ele>1107.8</ele>
        <time>2022-07-03T08:14:33Z</time>
      </trkpt>
      <trkpt lat="42.344391" lon="1.780693">
        <ele>1108.5</ele>
        <time>2022-07-03T08:14:35Z</time>
      </trkpt>
      <trkpt lat="42.344322" lon="1.780679">
        <ele>1108.7</ele>
        <time>2022-07-03T08:14:37Z</time>
      </trkpt>
      <trkpt lat="42.344258" lon="1.780681">
        <ele>1108.7</ele>
        <time>2022-07-03T08:14:39Z</time>
      </trkpt>
      <trkpt lat="42.344201" lon="1.780687">
        <ele>1108.7</ele>
        <time>2022-07-03T08:14:41Z</time>
      </trkpt>
      <trkpt lat="42.344141" lon="1.780691">
        <ele>1108.9</ele>
        <time>2022-07-03T08:14:43Z</time>
      </trkpt>
      <trkpt lat="42.344069" lon="1.780714">
        <ele>1109.2</ele>
        <time>2022-07-03T08:14:46Z</time>
      </trkpt>
      <trkpt lat="42.344014" lon="1.780713">
        <ele>1109.7</ele>
        <time>2022-07-03T08:14:48Z</time>
      </trkpt>
      <trkpt lat="42.343931" lon="1.780716">
        <ele>1109.1</ele>
        <time>2022-07-03T08:14:51Z</time>
      </trkpt>
      <trkpt lat="42.343855" lon="1.780708">
        <ele>1109.8</ele>
        <time>2022-07-03T08:14:53Z</time>
      </trkpt>
      <trkpt lat="42.343796" lon="1.780712">
        <ele>1110.0</ele>
        <time>2022-07-03T08:14:55Z</time>
      </trkpt>
      <trkpt lat="42.343737" lon="1.780718">
        <ele>1110.1</ele>
        <time>2022-07-03T08:14:57Z</time>
      </trkpt>
      <trkpt lat="42.343678" lon="1.780723">
        <ele>1110.2</ele>
        <time>2022-07-03T08:14:59Z</time>
      </trkpt>
      <trkpt lat="42.343601" lon="1.780729">
        <ele>1110.8</ele>
        <time>2022-07-03T08:15:02Z</time>
      </trkpt>
      <trkpt lat="42.343534" lon="1.780730">
        <ele>1111.1</ele>
        <time>2022-07-03T08:15:04Z</time>
      </trkpt>
      <trkpt lat="42.343465" lon="1.780706">
        <ele>1111.3</ele>
        <time>2022-07-03T08:15:06Z</time>
      </trkpt>
      <trkpt lat="42.343396" lon="1.780683">
        <ele>1111.5</ele>
        <time>2022-07-03T08:15:08Z</time>
      </trkpt>
      <trkpt lat="42.343332" lon="1.780673">
        <ele>1111.5</ele>
        <time>2022-07-03T08:15:10Z</time>
      </trkpt>
      <trkpt lat="42.343266" lon="1.780648">
        <ele>1111.6</ele>
        <time>2022-07-03T08:15:12Z</time>
      </trkpt>
      <trkpt lat="42.343200" lon="1.780623">
        <ele>1111.8</ele>
        <time>2022-07-03T08:15:14Z</time>
      </trkpt>
      <trkpt lat="42.343115" lon="1.780604">
        <ele>1112.0</ele>
        <time>2022-07-03T08:15:17Z</time>
      </trkpt>
      <trkpt lat="42.343058" lon="1.780586">
        <ele>1112.4</ele>
        <time>2022-07-03T08:15:19Z</time>
      </trkpt>
      <trkpt lat="42.342990" lon="1.780558">
        <ele>1112.8</ele>
        <time>2022-07-03T08:15:21Z</time>
      </trkpt>
      <trkpt lat="42.342923" lon="1.780539">
        <ele>1113.0</ele>
        <time>2022-07-03T08:15:23Z</time>
      </trkpt>
      <trkpt lat="42.342845" lon="1.780519">
        <ele>1113.1</ele>
        <time>2022-07-03T08:15:25Z</time>
      </trkpt>
      <trkpt lat="42.342772" lon="1.780505">
        <ele>1113.5</ele>
        <time>2022-07-03T08:15:27Z</time>
      </trkpt>
      <trkpt lat="42.342707" lon="1.780498">
        <ele>1113.7</ele>
        <time>2022-07-03T08:15:29Z</time>
      </trkpt>
      <trkpt lat="42.342640" lon="1.780490">
        <ele>1114.1</ele>
        <time>2022-07-03T08:15:31Z</time>
      </trkpt>
      <trkpt lat="42.342572" lon="1.780482">
        <ele>1114.5</ele>
        <time>2022-07-03T08:15:33Z</time>
      </trkpt>
      <trkpt lat="42.342506" lon="1.780474">
        <ele>1114.8</ele>
        <time>2022-07-03T08:15:35Z</time>
      </trkpt>
      <trkpt lat="42.342440" lon="1.780465">
        <ele>1114.7</ele>
        <time>2022-07-03T08:15:37Z</time>
      </trkpt>
      <trkpt lat="42.342371" lon="1.780463">
        <ele>1114.7</ele>
        <time>2022-07-03T08:15:39Z</time>
      </trkpt>
      <trkpt lat="42.342315" lon="1.780449">
        <ele>1114.9</ele>
        <time>2022-07-03T08:15:41Z</time>
      </trkpt>
      <trkpt lat="42.342257" lon="1.780443">
        <ele>1115.3</ele>
        <time>2022-07-03T08:15:43Z</time>
      </trkpt>
      <trkpt lat="42.342200" lon="1.780447">
        <ele>1115.4</ele>
        <time>2022-07-03T08:15:45Z</time>
      </trkpt>
      <trkpt lat="42.342137" lon="1.780449">
        <ele>1115.6</ele>
        <time>2022-07-03T08:15:47Z</time>
      </trkpt>
      <trkpt lat="42.342083" lon="1.780445">
        <ele>1115.8</ele>
        <time>2022-07-03T08:15:49Z</time>
      </trkpt>
      <trkpt lat="42.342004" lon="1.780442">
        <ele>1115.9</ele>
        <time>2022-07-03T08:15:52Z</time>
      </trkpt>
      <trkpt lat="42.341946" lon="1.780445">
        <ele>1116.3</ele>
        <time>2022-07-03T08:15:54Z</time>
      </trkpt>
      <trkpt lat="42.341889" lon="1.780444">
        <ele>1116.6</ele>
        <time>2022-07-03T08:15:56Z</time>
      </trkpt>
      <trkpt lat="42.341811" lon="1.780441">
        <ele>1117.1</ele>
        <time>2022-07-03T08:15:59Z</time>
      </trkpt>
      <trkpt lat="42.341741" lon="1.780439">
        <ele>1117.3</ele>
        <time>2022-07-03T08:16:01Z</time>
      </trkpt>
      <trkpt lat="42.341671" lon="1.780430">
        <ele>1117.6</ele>
        <time>2022-07-03T08:16:03Z</time>
      </trkpt>
      <trkpt lat="42.341599" lon="1.780434">
        <ele>1117.6</ele>
        <time>2022-07-03T08:16:05Z</time>
      </trkpt>
      <trkpt lat="42.341532" lon="1.780438">
        <ele>1117.8</ele>
        <time>2022-07-03T08:16:07Z</time>
      </trkpt>
      <trkpt lat="42.341465" lon="1.780444">
        <ele>1118.0</ele>
        <time>2022-07-03T08:16:09Z</time>
      </trkpt>
      <trkpt lat="42.341385" lon="1.780462">
        <ele>1118.2</ele>
        <time>2022-07-03T08:16:11Z</time>
      </trkpt>
      <trkpt lat="42.341317" lon="1.780463">
        <ele>1118.3</ele>
        <time>2022-07-03T08:16:13Z</time>
      </trkpt>
      <trkpt lat="42.341255" lon="1.780466">
        <ele>1118.7</ele>
        <time>2022-07-03T08:16:15Z</time>
      </trkpt>
      <trkpt lat="42.341200" lon="1.780459">
        <ele>1118.9</ele>
        <time>2022-07-03T08:16:17Z</time>
      </trkpt>
      <trkpt lat="42.341145" lon="1.780467">
        <ele>1119.1</ele>
        <time>2022-07-03T08:16:19Z</time>
      </trkpt>
      <trkpt lat="42.341089" lon="1.780474">
        <ele>1119.6</ele>
        <time>2022-07-03T08:16:21Z</time>
      </trkpt>
      <trkpt lat="42.341032" lon="1.780476">
        <ele>1119.8</ele>
        <time>2022-07-03T08:16:23Z</time>
      </trkpt>
      <trkpt lat="42.340977" lon="1.780483">
        <ele>1120.2</ele>
        <time>2022-07-03T08:16:25Z</time>
      </trkpt>
      <trkpt lat="42.340917" lon="1.780486">
        <ele>1120.7</ele>
        <time>2022-07-03T08:16:27Z</time>
      </trkpt>
      <trkpt lat="42.340855" lon="1.780494">
        <ele>1120.8</ele>
        <time>2022-07-03T08:16:29Z</time>
      </trkpt>
      <trkpt lat="42.340774" lon="1.780488">
        <ele>1121.2</ele>
        <time>2022-07-03T08:16:32Z</time>
      </trkpt>
      <trkpt lat="42.340697" lon="1.780479">
        <ele>1121.5</ele>
        <time>2022-07-03T08:16:35Z</time>
      </trkpt>
      <trkpt lat="42.340619" lon="1.780471">
        <ele>1122.1</ele>
        <time>2022-07-03T08:16:38Z</time>
      </trkpt>
      <trkpt lat="42.340545" lon="1.780470">
        <ele>1122.7</ele>
        <time>2022-07-03T08:16:41Z</time>
      </trkpt>
      <trkpt lat="42.340474" lon="1.780466">
        <ele>1123.4</ele>
        <time>2022-07-03T08:16:44Z</time>
      </trkpt>
      <trkpt lat="42.340407" lon="1.780455">
        <ele>1124.2</ele>
        <time>2022-07-03T08:16:47Z</time>
      </trkpt>
      <trkpt lat="42.340338" lon="1.780455">
        <ele>1124.6</ele>
        <time>2022-07-03T08:16:50Z</time>
      </trkpt>
      <trkpt lat="42.340267" lon="1.780459">
        <ele>1125.3</ele>
        <time>2022-07-03T08:16:53Z</time>
      </trkpt>
      <trkpt lat="42.340196" lon="1.780476">
        <ele>1125.8</ele>
        <time>2022-07-03T08:16:56Z</time>
      </trkpt>
      <trkpt lat="42.340128" lon="1.780510">
        <ele>1126.5</ele>
        <time>2022-07-03T08:16:59Z</time>
      </trkpt>
      <trkpt lat="42.340053" lon="1.780551">
        <ele>1127.0</ele>
        <time>2022-07-03T08:17:02Z</time>
      </trkpt>
      <trkpt lat="42.339989" lon="1.780593">
        <ele>1127.4</ele>
        <time>2022-07-03T08:17:05Z</time>
      </trkpt>
      <trkpt lat="42.339921" lon="1.780643">
        <ele>1127.7</ele>
        <time>2022-07-03T08:17:08Z</time>
      </trkpt>
      <trkpt lat="42.339861" lon="1.780683">
        <ele>1128.2</ele>
        <time>2022-07-03T08:17:11Z</time>
      </trkpt>
      <trkpt lat="42.339798" lon="1.780727">
        <ele>1128.7</ele>
        <time>2022-07-03T08:17:14Z</time>
      </trkpt>
      <trkpt lat="42.339733" lon="1.780770">
        <ele>1129.2</ele>
        <time>2022-07-03T08:17:17Z</time>
      </trkpt>
      <trkpt lat="42.339667" lon="1.780809">
        <ele>1129.7</ele>
        <time>2022-07-03T08:17:20Z</time>
      </trkpt>
      <trkpt lat="42.339596" lon="1.780857">
        <ele>1129.9</ele>
        <time>2022-07-03T08:17:23Z</time>
      </trkpt>
      <trkpt lat="42.339532" lon="1.780901">
        <ele>1130.4</ele>
        <time>2022-07-03T08:17:26Z</time>
      </trkpt>
      <trkpt lat="42.339470" lon="1.780941">
        <ele>1130.7</ele>
        <time>2022-07-03T08:17:29Z</time>
      </trkpt>
      <trkpt lat="42.339399" lon="1.780989">
        <ele>1130.8</ele>
        <time>2022-07-03T08:17:32Z</time>
      </trkpt>
      <trkpt lat="42.339332" lon="1.781029">
        <ele>1130.8</ele>
        <time>2022-07-03T08:17:35Z</time>
      </trkpt>
      <trkpt lat="42.339268" lon="1.781069">
        <ele>1131.3</ele>
        <time>2022-07-03T08:17:38Z</time>
      </trkpt>
      <trkpt lat="42.339203" lon="1.781101">
        <ele>1131.4</ele>
        <time>2022-07-03T08:17:41Z</time>
      </trkpt>
      <trkpt lat="42.339134" lon="1.781141">
        <ele>1131.8</ele>
        <time>2022-07-03T08:17:44Z</time>
      </trkpt>
      <trkpt lat="42.339064" lon="1.781174">
        <ele>1132.0</ele>
        <time>2022-07-03T08:17:47Z</time>
      </trkpt>
      <trkpt lat="42.339007" lon="1.781207">
        <ele>1132.3</ele>
        <time>2022-07-03T08:17:50Z</time>
      </trkpt>
      <trkpt lat="42.338934" lon="1.781241">
        <ele>1132.8</ele>
        <time>2022-07-03T08:17:53Z</time>
      </trkpt>
      <trkpt lat="42.338880" lon="1.781260">
        <ele>1133.1</ele>
        <time>2022-07-03T08:17:55Z</time>
      </trkpt>
      <trkpt lat="42.338829" lon="1.781284">
        <ele>1133.8</ele>
        <time>2022-07-03T08:17:58Z</time>
      </trkpt>
      <trkpt lat="42.338769" lon="1.781302">
        <ele>1134.4</ele>
        <time>2022-07-03T08:18:01Z</time>
      </trkpt>
      <trkpt lat="42.338710" lon="1.781321">
        <ele>1134.6</ele>
        <time>2022-07-03T08:18:03Z</time>
      </trkpt>
      <trkpt lat="42.338651" lon="1.781341">
        <ele>1135.1</ele>
        <time>2022-07-03T08:18:06Z</time>
      </trkpt>
      <trkpt lat="42.338583" lon="1.781377">
        <ele>1135.8</ele>
        <time>2022-07-03T08:18:10Z</time>
      </trkpt>
      <trkpt lat="42.338531" lon="1.781406">
        <ele>1136.1</ele>
        <time>2022-07-03T08:18:12Z</time>
      </trkpt>
      <trkpt lat="42.338467" lon="1.781429">
        <ele>1137.0</ele>
        <time>2022-07-03T08:18:16Z</time>
      </trkpt>
      <trkpt lat="42.338417" lon="1.781459">
        <ele>1137.7</ele>
        <time>2022-07-03T08:18:20Z</time>
      </trkpt>
      <trkpt lat="42.338359" lon="1.781493">
        <ele>1138.1</ele>
        <time>2022-07-03T08:18:23Z</time>
      </trkpt>
      <trkpt lat="42.338302" lon="1.781518">
        <ele>1138.7</ele>
        <time>2022-07-03T08:18:26Z</time>
      </trkpt>
      <trkpt lat="42.338234" lon="1.781550">
        <ele>1139.4</ele>
        <time>2022-07-03T08:18:29Z</time>
      </trkpt>
      <trkpt lat="42.338162" lon="1.781579">
        <ele>1140.1</ele>
        <time>2022-07-03T08:18:32Z</time>
      </trkpt>
      <trkpt lat="42.338095" lon="1.781603">
        <ele>1140.6</ele>
        <time>2022-07-03T08:18:35Z</time>
      </trkpt>
      <trkpt lat="42.338032" lon="1.781610">
        <ele>1141.1</ele>
        <time>2022-07-03T08:18:38Z</time>
      </trkpt>
      <trkpt lat="42.337971" lon="1.781615">
        <ele>1141.8</ele>
        <time>2022-07-03T08:18:41Z</time>
      </trkpt>
      <trkpt lat="42.337916" lon="1.781636">
        <ele>1143.2</ele>
        <time>2022-07-03T08:18:45Z</time>
      </trkpt>
      <trkpt lat="42.337852" lon="1.781657">
        <ele>1143.8</ele>
        <time>2022-07-03T08:18:48Z</time>
      </trkpt>
      <trkpt lat="42.337782" lon="1.781687">
        <ele>1144.5</ele>
        <time>2022-07-03T08:18:51Z</time>
      </trkpt>
      <trkpt lat="42.337706" lon="1.781711">
        <ele>1145.2</ele>
        <time>2022-07-03T08:18:56Z</time>
      </trkpt>
      <trkpt lat="42.337648" lon="1.781743">
        <ele>1145.9</ele>
        <time>2022-07-03T08:19:02Z</time>
      </trkpt>
      <trkpt lat="42.337564" lon="1.781783">
        <ele>1145.9</ele>
        <time>2022-07-03T08:19:03Z</time>
      </trkpt>
      <trkpt lat="42.337512" lon="1.781822">
        <ele>1146.5</ele>
        <time>2022-07-03T08:19:06Z</time>
      </trkpt>
      <trkpt lat="42.337464" lon="1.781863">
        <ele>1146.8</ele>
        <time>2022-07-03T08:19:09Z</time>
      </trkpt>
      <trkpt lat="42.337414" lon="1.781919">
        <ele>1147.0</ele>
        <time>2022-07-03T08:19:12Z</time>
      </trkpt>
      <trkpt lat="42.337374" lon="1.781978">
        <ele>1147.5</ele>
        <time>2022-07-03T08:19:15Z</time>
      </trkpt>
      <trkpt lat="42.337319" lon="1.782033">
        <ele>1147.7</ele>
        <time>2022-07-03T08:19:17Z</time>
      </trkpt>
      <trkpt lat="42.337264" lon="1.782093">
        <ele>1148.0</ele>
        <time>2022-07-03T08:19:19Z</time>
      </trkpt>
      <trkpt lat="42.337224" lon="1.782152">
        <ele>1148.2</ele>
        <time>2022-07-03T08:19:22Z</time>
      </trkpt>
      <trkpt lat="42.337171" lon="1.782216">
        <ele>1148.3</ele>
        <time>2022-07-03T08:19:25Z</time>
      </trkpt>
      <trkpt lat="42.337122" lon="1.782261">
        <ele>1148.6</ele>
        <time>2022-07-03T08:19:27Z</time>
      </trkpt>
      <trkpt lat="42.337058" lon="1.782324">
        <ele>1149.0</ele>
        <time>2022-07-03T08:19:29Z</time>
      </trkpt>
      <trkpt lat="42.337008" lon="1.782382">
        <ele>1149.5</ele>
        <time>2022-07-03T08:19:32Z</time>
      </trkpt>
      <trkpt lat="42.336956" lon="1.782447">
        <ele>1149.9</ele>
        <time>2022-07-03T08:19:35Z</time>
      </trkpt>
      <trkpt lat="42.336916" lon="1.782529">
        <ele>1150.7</ele>
        <time>2022-07-03T08:19:40Z</time>
      </trkpt>
      <trkpt lat="42.336877" lon="1.782582">
        <ele>1151.1</ele>
        <time>2022-07-03T08:19:44Z</time>
      </trkpt>
      <trkpt lat="42.336816" lon="1.782659">
        <ele>1151.4</ele>
        <time>2022-07-03T08:19:46Z</time>
      </trkpt>
      <trkpt lat="42.336760" lon="1.782722">
        <ele>1151.4</ele>
        <time>2022-07-03T08:19:48Z</time>
      </trkpt>
      <trkpt lat="42.336711" lon="1.782775">
        <ele>1151.3</ele>
        <time>2022-07-03T08:19:50Z</time>
      </trkpt>
      <trkpt lat="42.336659" lon="1.782828">
        <ele>1151.6</ele>
        <time>2022-07-03T08:19:52Z</time>
      </trkpt>
      <trkpt lat="42.336615" lon="1.782877">
        <ele>1151.8</ele>
        <time>2022-07-03T08:19:54Z</time>
      </trkpt>
      <trkpt lat="42.336563" lon="1.782940">
        <ele>1151.8</ele>
        <time>2022-07-03T08:19:57Z</time>
      </trkpt>
      <trkpt lat="42.336516" lon="1.782982">
        <ele>1151.8</ele>
        <time>2022-07-03T08:19:59Z</time>
      </trkpt>
      <trkpt lat="42.336428" lon="1.783011">
        <ele>1151.2</ele>
        <time>2022-07-03T08:20:01Z</time>
      </trkpt>
      <trkpt lat="42.336368" lon="1.783004">
        <ele>1150.6</ele>
        <time>2022-07-03T08:20:03Z</time>
      </trkpt>
      <trkpt lat="42.336306" lon="1.782989">
        <ele>1150.9</ele>
        <time>2022-07-03T08:20:05Z</time>
      </trkpt>
      <trkpt lat="42.336242" lon="1.782983">
        <ele>1151.2</ele>
        <time>2022-07-03T08:20:07Z</time>
      </trkpt>
      <trkpt lat="42.336152" lon="1.782987">
        <ele>1151.3</ele>
        <time>2022-07-03T08:20:09Z</time>
      </trkpt>
      <trkpt lat="42.336079" lon="1.782958">
        <ele>1151.3</ele>
        <time>2022-07-03T08:20:11Z</time>
      </trkpt>
      <trkpt lat="42.336012" lon="1.782924">
        <ele>1151.4</ele>
        <time>2022-07-03T08:20:13Z</time>
      </trkpt>
      <trkpt lat="42.335945" lon="1.782940">
        <ele>1151.6</ele>
        <time>2022-07-03T08:20:15Z</time>
      </trkpt>
      <trkpt lat="42.335864" lon="1.782955">
        <ele>1151.9</ele>
        <time>2022-07-03T08:20:18Z</time>
      </trkpt>
      <trkpt lat="42.335815" lon="1.782915">
        <ele>1152.0</ele>
        <time>2022-07-03T08:20:23Z</time>
      </trkpt>
      <trkpt lat="42.335730" lon="1.782933">
        <ele>1152.4</ele>
        <time>2022-07-03T08:20:29Z</time>
      </trkpt>
      <trkpt lat="42.335648" lon="1.782948">
        <ele>1152.7</ele>
        <time>2022-07-03T08:20:31Z</time>
      </trkpt>
      <trkpt lat="42.335569" lon="1.782974">
        <ele>1153.2</ele>
        <time>2022-07-03T08:20:33Z</time>
      </trkpt>
      <trkpt lat="42.335519" lon="1.783010">
        <ele>1153.4</ele>
        <time>2022-07-03T08:20:36Z</time>
      </trkpt>
      <trkpt lat="42.335459" lon="1.783062">
        <ele>1153.0</ele>
        <time>2022-07-03T08:20:39Z</time>
      </trkpt>
      <trkpt lat="42.335394" lon="1.783117">
        <ele>1154.5</ele>
        <time>2022-07-03T08:20:42Z</time>
      </trkpt>
      <trkpt lat="42.335330" lon="1.783162">
        <ele>1154.9</ele>
        <time>2022-07-03T08:20:44Z</time>
      </trkpt>
      <trkpt lat="42.335281" lon="1.783204">
        <ele>1155.3</ele>
        <time>2022-07-03T08:20:46Z</time>
      </trkpt>
      <trkpt lat="42.335230" lon="1.783265">
        <ele>1156.1</ele>
        <time>2022-07-03T08:20:50Z</time>
      </trkpt>
      <trkpt lat="42.335154" lon="1.783326">
        <ele>1156.0</ele>
        <time>2022-07-03T08:20:53Z</time>
      </trkpt>
      <trkpt lat="42.335043" lon="1.783393">
        <ele>1157.1</ele>
        <time>2022-07-03T08:20:56Z</time>
      </trkpt>
      <trkpt lat="42.334920" lon="1.783412">
        <ele>1157.0</ele>
        <time>2022-07-03T08:20:59Z</time>
      </trkpt>
      <trkpt lat="42.334729" lon="1.783482">
        <ele>1157.7</ele>
        <time>2022-07-03T08:21:02Z</time>
      </trkpt>
      <trkpt lat="42.334637" lon="1.783506">
        <ele>1158.3</ele>
        <time>2022-07-03T08:21:04Z</time>
      </trkpt>
      <trkpt lat="42.334544" lon="1.783524">
        <ele>1158.0</ele>
        <time>2022-07-03T08:21:06Z</time>
      </trkpt>
      <trkpt lat="42.334324" lon="1.783549">
        <ele>1158.0</ele>
        <time>2022-07-03T08:21:10Z</time>
      </trkpt>
      <trkpt lat="42.334176" lon="1.783556">
        <ele>1159.0</ele>
        <time>2022-07-03T08:21:14Z</time>
      </trkpt>
      <trkpt lat="42.334093" lon="1.783542">
        <ele>1159.9</ele>
        <time>2022-07-03T08:21:17Z</time>
      </trkpt>
      <trkpt lat="42.334053" lon="1.783492">
        <ele>1161.1</ele>
        <time>2022-07-03T08:21:20Z</time>
      </trkpt>
      <trkpt lat="42.333997" lon="1.783469">
        <ele>1161.7</ele>
        <time>2022-07-03T08:21:24Z</time>
      </trkpt>
      <trkpt lat="42.333934" lon="1.783435">
        <ele>1162.0</ele>
        <time>2022-07-03T08:21:28Z</time>
      </trkpt>
      <trkpt lat="42.333857" lon="1.783412">
        <ele>1163.0</ele>
        <time>2022-07-03T08:21:34Z</time>
      </trkpt>
      <trkpt lat="42.333835" lon="1.783491">
        <ele>1168.0</ele>
        <time>2022-07-03T08:21:53Z</time>
      </trkpt>
      <trkpt lat="42.333628" lon="1.783654">
        <ele>1170.0</ele>
        <time>2022-07-03T08:22:01Z</time>
      </trkpt>
      <trkpt lat="42.333518" lon="1.783749">
        <ele>1171.6</ele>
        <time>2022-07-03T08:22:06Z</time>
      </trkpt>
      <trkpt lat="42.333438" lon="1.783809">
        <ele>1172.0</ele>
        <time>2022-07-03T08:22:09Z</time>
      </trkpt>
      <trkpt lat="42.333387" lon="1.783903">
        <ele>1173.0</ele>
        <time>2022-07-03T08:22:20Z</time>
      </trkpt>
      <trkpt lat="42.333318" lon="1.783971">
        <ele>1174.0</ele>
        <time>2022-07-03T08:22:25Z</time>
      </trkpt>
      <trkpt lat="42.333230" lon="1.784038">
        <ele>1175.5</ele>
        <time>2022-07-03T08:22:28Z</time>
      </trkpt>
      <trkpt lat="42.333148" lon="1.784076">
        <ele>1175.7</ele>
        <time>2022-07-03T08:22:30Z</time>
      </trkpt>
      <trkpt lat="42.333065" lon="1.784098">
        <ele>1176.1</ele>
        <time>2022-07-03T08:22:32Z</time>
      </trkpt>
      <trkpt lat="42.332981" lon="1.784118">
        <ele>1176.3</ele>
        <time>2022-07-03T08:22:34Z</time>
      </trkpt>
      <trkpt lat="42.332904" lon="1.784126">
        <ele>1176.7</ele>
        <time>2022-07-03T08:22:36Z</time>
      </trkpt>
      <trkpt lat="42.332849" lon="1.784112">
        <ele>1176.9</ele>
        <time>2022-07-03T08:22:38Z</time>
      </trkpt>
      <trkpt lat="42.332793" lon="1.784111">
        <ele>1177.2</ele>
        <time>2022-07-03T08:22:41Z</time>
      </trkpt>
      <trkpt lat="42.332726" lon="1.784116">
        <ele>1177.7</ele>
        <time>2022-07-03T08:22:46Z</time>
      </trkpt>
      <trkpt lat="42.332647" lon="1.784147">
        <ele>1177.9</ele>
        <time>2022-07-03T08:22:48Z</time>
      </trkpt>
      <trkpt lat="42.332591" lon="1.784164">
        <ele>1177.0</ele>
        <time>2022-07-03T08:22:50Z</time>
      </trkpt>
      <trkpt lat="42.332480" lon="1.784192">
        <ele>1179.0</ele>
        <time>2022-07-03T08:22:53Z</time>
      </trkpt>
      <trkpt lat="42.332368" lon="1.784206">
        <ele>1179.4</ele>
        <time>2022-07-03T08:22:55Z</time>
      </trkpt>
      <trkpt lat="42.332265" lon="1.784203">
        <ele>1179.8</ele>
        <time>2022-07-03T08:22:57Z</time>
      </trkpt>
      <trkpt lat="42.332176" lon="1.784162">
        <ele>1179.0</ele>
        <time>2022-07-03T08:23:00Z</time>
      </trkpt>
      <trkpt lat="42.332045" lon="1.784118">
        <ele>1179.0</ele>
        <time>2022-07-03T08:23:04Z</time>
      </trkpt>
      <trkpt lat="42.331917" lon="1.784068">
        <ele>1179.0</ele>
        <time>2022-07-03T08:23:08Z</time>
      </trkpt>
      <trkpt lat="42.331823" lon="1.784037">
        <ele>1179.0</ele>
        <time>2022-07-03T08:23:12Z</time>
      </trkpt>
      <trkpt lat="42.331702" lon="1.784104">
        <ele>1179.0</ele>
        <time>2022-07-03T08:23:16Z</time>
      </trkpt>
      <trkpt lat="42.331631" lon="1.784191">
        <ele>1179.6</ele>
        <time>2022-07-03T08:23:19Z</time>
      </trkpt>
      <trkpt lat="42.331572" lon="1.784253">
        <ele>1180.0</ele>
        <time>2022-07-03T08:23:21Z</time>
      </trkpt>
      <trkpt lat="42.331524" lon="1.784302">
        <ele>1180.1</ele>
        <time>2022-07-03T08:23:23Z</time>
      </trkpt>
      <trkpt lat="42.331466" lon="1.784334">
        <ele>1180.5</ele>
        <time>2022-07-03T08:23:25Z</time>
      </trkpt>
      <trkpt lat="42.331332" lon="1.784342">
        <ele>1181.0</ele>
        <time>2022-07-03T08:23:27Z</time>
      </trkpt>
      <trkpt lat="42.331160" lon="1.784299">
        <ele>1181.0</ele>
        <time>2022-07-03T08:23:31Z</time>
      </trkpt>
      <trkpt lat="42.331044" lon="1.784259">
        <ele>1182.0</ele>
        <time>2022-07-03T08:23:35Z</time>
      </trkpt>
      <trkpt lat="42.330858" lon="1.784269">
        <ele>1183.0</ele>
        <time>2022-07-03T08:23:43Z</time>
      </trkpt>
      <trkpt lat="42.330613" lon="1.784303">
        <ele>1184.0</ele>
        <time>2022-07-03T08:23:51Z</time>
      </trkpt>
      <trkpt lat="42.330354" lon="1.784381">
        <ele>1184.0</ele>
        <time>2022-07-03T08:23:57Z</time>
      </trkpt>
      <trkpt lat="42.330107" lon="1.784414">
        <ele>1186.0</ele>
        <time>2022-07-03T08:24:03Z</time>
      </trkpt>
      <trkpt lat="42.329919" lon="1.784363">
        <ele>1186.0</ele>
        <time>2022-07-03T08:24:09Z</time>
      </trkpt>
      <trkpt lat="42.329816" lon="1.784268">
        <ele>1187.0</ele>
        <time>2022-07-03T08:24:13Z</time>
      </trkpt>
      <trkpt lat="42.329734" lon="1.784165">
        <ele>1188.0</ele>
        <time>2022-07-03T08:24:17Z</time>
      </trkpt>
      <trkpt lat="42.329669" lon="1.784068">
        <ele>1189.0</ele>
        <time>2022-07-03T08:24:21Z</time>
      </trkpt>
      <trkpt lat="42.329610" lon="1.783980">
        <ele>1189.0</ele>
        <time>2022-07-03T08:24:25Z</time>
      </trkpt>
      <trkpt lat="42.329560" lon="1.783951">
        <ele>1190.0</ele>
        <time>2022-07-03T08:24:29Z</time>
      </trkpt>
      <trkpt lat="42.329505" lon="1.783947">
        <ele>1191.0</ele>
        <time>2022-07-03T08:24:33Z</time>
      </trkpt>
      <trkpt lat="42.329443" lon="1.783955">
        <ele>1192.0</ele>
        <time>2022-07-03T08:24:37Z</time>
      </trkpt>
      <trkpt lat="42.329369" lon="1.783968">
        <ele>1193.0</ele>
        <time>2022-07-03T08:24:41Z</time>
      </trkpt>
      <trkpt lat="42.329282" lon="1.783983">
        <ele>1193.0</ele>
        <time>2022-07-03T08:24:45Z</time>
      </trkpt>
      <trkpt lat="42.329198" lon="1.784013">
        <ele>1194.0</ele>
        <time>2022-07-03T08:24:49Z</time>
      </trkpt>
      <trkpt lat="42.329100" lon="1.784038">
        <ele>1194.0</ele>
        <time>2022-07-03T08:24:53Z</time>
      </trkpt>
      <trkpt lat="42.329016" lon="1.784029">
        <ele>1195.0</ele>
        <time>2022-07-03T08:24:57Z</time>
      </trkpt>
      <trkpt lat="42.328946" lon="1.783979">
        <ele>1196.0</ele>
        <time>2022-07-03T08:25:01Z</time>
      </trkpt>
      <trkpt lat="42.328877" lon="1.783911">
        <ele>1197.0</ele>
        <time>2022-07-03T08:25:05Z</time>
      </trkpt>
      <trkpt lat="42.328811" lon="1.783848">
        <ele>1197.0</ele>
        <time>2022-07-03T08:25:09Z</time>
      </trkpt>
      <trkpt lat="42.328757" lon="1.783789">
        <ele>1198.0</ele>
        <time>2022-07-03T08:25:13Z</time>
      </trkpt>
      <trkpt lat="42.328664" lon="1.783708">
        <ele>1199.0</ele>
        <time>2022-07-03T08:25:19Z</time>
      </trkpt>
      <trkpt lat="42.328555" lon="1.783663">
        <ele>1200.0</ele>
        <time>2022-07-03T08:25:25Z</time>
      </trkpt>
      <trkpt lat="42.328470" lon="1.783524">
        <ele>1201.0</ele>
        <time>2022-07-03T08:25:31Z</time>
      </trkpt>
      <trkpt lat="42.328369" lon="1.783446">
        <ele>1202.0</ele>
        <time>2022-07-03T08:25:37Z</time>
      </trkpt>
      <trkpt lat="42.328314" lon="1.783434">
        <ele>1203.0</ele>
        <time>2022-07-03T08:25:47Z</time>
      </trkpt>
      <trkpt lat="42.328273" lon="1.783490">
        <ele>1203.6</ele>
        <time>2022-07-03T08:25:58Z</time>
      </trkpt>
      <trkpt lat="42.328199" lon="1.783444">
        <ele>1203.0</ele>
        <time>2022-07-03T08:26:04Z</time>
      </trkpt>
      <trkpt lat="42.328138" lon="1.783432">
        <ele>1204.1</ele>
        <time>2022-07-03T08:26:07Z</time>
      </trkpt>
      <trkpt lat="42.328076" lon="1.783402">
        <ele>1204.6</ele>
        <time>2022-07-03T08:26:10Z</time>
      </trkpt>
      <trkpt lat="42.328025" lon="1.783370">
        <ele>1205.1</ele>
        <time>2022-07-03T08:26:13Z</time>
      </trkpt>
      <trkpt lat="42.327910" lon="1.783351">
        <ele>1205.0</ele>
        <time>2022-07-03T08:26:19Z</time>
      </trkpt>
      <trkpt lat="42.327842" lon="1.783332">
        <ele>1206.0</ele>
        <time>2022-07-03T08:26:23Z</time>
      </trkpt>
      <trkpt lat="42.327776" lon="1.783294">
        <ele>1207.0</ele>
        <time>2022-07-03T08:26:27Z</time>
      </trkpt>
      <trkpt lat="42.327724" lon="1.783226">
        <ele>1208.0</ele>
        <time>2022-07-03T08:26:31Z</time>
      </trkpt>
      <trkpt lat="42.327669" lon="1.783164">
        <ele>1209.0</ele>
        <time>2022-07-03T08:26:35Z</time>
      </trkpt>
      <trkpt lat="42.327612" lon="1.783093">
        <ele>1209.0</ele>
        <time>2022-07-03T08:26:39Z</time>
      </trkpt>
      <trkpt lat="42.327553" lon="1.783028">
        <ele>1210.0</ele>
        <time>2022-07-03T08:26:43Z</time>
      </trkpt>
      <trkpt lat="42.327485" lon="1.783001">
        <ele>1211.0</ele>
        <time>2022-07-03T08:26:47Z</time>
      </trkpt>
      <trkpt lat="42.327416" lon="1.782983">
        <ele>1212.0</ele>
        <time>2022-07-03T08:26:51Z</time>
      </trkpt>
      <trkpt lat="42.327346" lon="1.782955">
        <ele>1212.0</ele>
        <time>2022-07-03T08:26:55Z</time>
      </trkpt>
      <trkpt lat="42.327278" lon="1.782917">
        <ele>1213.0</ele>
        <time>2022-07-03T08:26:59Z</time>
      </trkpt>
      <trkpt lat="42.327212" lon="1.782866">
        <ele>1214.0</ele>
        <time>2022-07-03T08:27:03Z</time>
      </trkpt>
      <trkpt lat="42.327149" lon="1.782809">
        <ele>1214.0</ele>
        <time>2022-07-03T08:27:07Z</time>
      </trkpt>
      <trkpt lat="42.327079" lon="1.782758">
        <ele>1215.0</ele>
        <time>2022-07-03T08:27:11Z</time>
      </trkpt>
      <trkpt lat="42.327003" lon="1.782713">
        <ele>1216.0</ele>
        <time>2022-07-03T08:27:15Z</time>
      </trkpt>
      <trkpt lat="42.326927" lon="1.782718">
        <ele>1217.0</ele>
        <time>2022-07-03T08:27:19Z</time>
      </trkpt>
      <trkpt lat="42.326861" lon="1.782753">
        <ele>1218.0</ele>
        <time>2022-07-03T08:27:23Z</time>
      </trkpt>
      <trkpt lat="42.326799" lon="1.782806">
        <ele>1218.0</ele>
        <time>2022-07-03T08:27:27Z</time>
      </trkpt>
      <trkpt lat="42.326719" lon="1.782871">
        <ele>1219.0</ele>
        <time>2022-07-03T08:27:32Z</time>
      </trkpt>
      <trkpt lat="42.326656" lon="1.782892">
        <ele>1219.8</ele>
        <time>2022-07-03T08:27:35Z</time>
      </trkpt>
      <trkpt lat="42.326584" lon="1.782899">
        <ele>1220.2</ele>
        <time>2022-07-03T08:27:38Z</time>
      </trkpt>
      <trkpt lat="42.326510" lon="1.782905">
        <ele>1220.6</ele>
        <time>2022-07-03T08:27:41Z</time>
      </trkpt>
      <trkpt lat="42.326431" lon="1.782880">
        <ele>1220.0</ele>
        <time>2022-07-03T08:27:45Z</time>
      </trkpt>
      <trkpt lat="42.326365" lon="1.782848">
        <ele>1221.0</ele>
        <time>2022-07-03T08:27:49Z</time>
      </trkpt>
      <trkpt lat="42.326302" lon="1.782817">
        <ele>1221.0</ele>
        <time>2022-07-03T08:27:53Z</time>
      </trkpt>
      <trkpt lat="42.326236" lon="1.782785">
        <ele>1222.0</ele>
        <time>2022-07-03T08:27:57Z</time>
      </trkpt>
      <trkpt lat="42.326169" lon="1.782754">
        <ele>1223.0</ele>
        <time>2022-07-03T08:28:01Z</time>
      </trkpt>
      <trkpt lat="42.326115" lon="1.782731">
        <ele>1224.1</ele>
        <time>2022-07-03T08:28:04Z</time>
      </trkpt>
      <trkpt lat="42.326057" lon="1.782708">
        <ele>1224.0</ele>
        <time>2022-07-03T08:28:07Z</time>
      </trkpt>
      <trkpt lat="42.326000" lon="1.782686">
        <ele>1225.0</ele>
        <time>2022-07-03T08:28:10Z</time>
      </trkpt>
      <trkpt lat="42.325944" lon="1.782656">
        <ele>1225.2</ele>
        <time>2022-07-03T08:28:13Z</time>
      </trkpt>
      <trkpt lat="42.325884" lon="1.782639">
        <ele>1225.7</ele>
        <time>2022-07-03T08:28:16Z</time>
      </trkpt>
      <trkpt lat="42.325826" lon="1.782607">
        <ele>1226.2</ele>
        <time>2022-07-03T08:28:19Z</time>
      </trkpt>
      <trkpt lat="42.325767" lon="1.782590">
        <ele>1226.8</ele>
        <time>2022-07-03T08:28:22Z</time>
      </trkpt>
      <trkpt lat="42.325712" lon="1.782557">
        <ele>1227.5</ele>
        <time>2022-07-03T08:28:26Z</time>
      </trkpt>
      <trkpt lat="42.325630" lon="1.782547">
        <ele>1228.4</ele>
        <time>2022-07-03T08:28:31Z</time>
      </trkpt>
      <trkpt lat="42.325565" lon="1.782556">
        <ele>1229.2</ele>
        <time>2022-07-03T08:28:35Z</time>
      </trkpt>
      <trkpt lat="42.325512" lon="1.782518">
        <ele>1232.6</ele>
        <time>2022-07-03T08:28:56Z</time>
      </trkpt>
      <trkpt lat="42.325441" lon="1.782539">
        <ele>1233.0</ele>
        <time>2022-07-03T08:28:59Z</time>
      </trkpt>
      <trkpt lat="42.325342" lon="1.782581">
        <ele>1233.6</ele>
        <time>2022-07-03T08:29:02Z</time>
      </trkpt>
      <trkpt lat="42.325277" lon="1.782617">
        <ele>1234.6</ele>
        <time>2022-07-03T08:29:06Z</time>
      </trkpt>
      <trkpt lat="42.325234" lon="1.782680">
        <ele>1235.6</ele>
        <time>2022-07-03T08:29:10Z</time>
      </trkpt>
      <trkpt lat="42.325193" lon="1.782750">
        <ele>1236.4</ele>
        <time>2022-07-03T08:29:14Z</time>
      </trkpt>
      <trkpt lat="42.325162" lon="1.782832">
        <ele>1236.9</ele>
        <time>2022-07-03T08:29:18Z</time>
      </trkpt>
      <trkpt lat="42.325120" lon="1.782886">
        <ele>1237.1</ele>
        <time>2022-07-03T08:29:20Z</time>
      </trkpt>
      <trkpt lat="42.325082" lon="1.782955">
        <ele>1237.8</ele>
        <time>2022-07-03T08:29:24Z</time>
      </trkpt>
      <trkpt lat="42.325037" lon="1.783009">
        <ele>1238.4</ele>
        <time>2022-07-03T08:29:27Z</time>
      </trkpt>
      <trkpt lat="42.324991" lon="1.783056">
        <ele>1239.0</ele>
        <time>2022-07-03T08:29:30Z</time>
      </trkpt>
      <trkpt lat="42.324929" lon="1.783108">
        <ele>1239.6</ele>
        <time>2022-07-03T08:29:32Z</time>
      </trkpt>
      <trkpt lat="42.324876" lon="1.783168">
        <ele>1240.3</ele>
        <time>2022-07-03T08:29:35Z</time>
      </trkpt>
      <trkpt lat="42.324818" lon="1.783219">
        <ele>1241.1</ele>
        <time>2022-07-03T08:29:38Z</time>
      </trkpt>
      <trkpt lat="42.324767" lon="1.783252">
        <ele>1241.6</ele>
        <time>2022-07-03T08:29:40Z</time>
      </trkpt>
      <trkpt lat="42.324692" lon="1.783283">
        <ele>1242.2</ele>
        <time>2022-07-03T08:29:43Z</time>
      </trkpt>
      <trkpt lat="42.324633" lon="1.783271">
        <ele>1242.7</ele>
        <time>2022-07-03T08:29:46Z</time>
      </trkpt>
      <trkpt lat="42.324571" lon="1.783241">
        <ele>1243.2</ele>
        <time>2022-07-03T08:29:50Z</time>
      </trkpt>
      <trkpt lat="42.324527" lon="1.783185">
        <ele>1243.4</ele>
        <time>2022-07-03T08:29:54Z</time>
      </trkpt>
      <trkpt lat="42.324477" lon="1.783132">
        <ele>1244.1</ele>
        <time>2022-07-03T08:29:58Z</time>
      </trkpt>
      <trkpt lat="42.324419" lon="1.783092">
        <ele>1244.6</ele>
        <time>2022-07-03T08:30:02Z</time>
      </trkpt>
      <trkpt lat="42.324360" lon="1.783055">
        <ele>1245.2</ele>
        <time>2022-07-03T08:30:07Z</time>
      </trkpt>
      <trkpt lat="42.324300" lon="1.783020">
        <ele>1245.9</ele>
        <time>2022-07-03T08:30:11Z</time>
      </trkpt>
      <trkpt lat="42.324236" lon="1.782997">
        <ele>1246.4</ele>
        <time>2022-07-03T08:30:15Z</time>
      </trkpt>
      <trkpt lat="42.324168" lon="1.782982">
        <ele>1247.1</ele>
        <time>2022-07-03T08:30:19Z</time>
      </trkpt>
      <trkpt lat="42.324109" lon="1.782956">
        <ele>1247.9</ele>
        <time>2022-07-03T08:30:23Z</time>
      </trkpt>
      <trkpt lat="42.324051" lon="1.782909">
        <ele>1248.7</ele>
        <time>2022-07-03T08:30:27Z</time>
      </trkpt>
      <trkpt lat="42.323993" lon="1.782856">
        <ele>1249.5</ele>
        <time>2022-07-03T08:30:31Z</time>
      </trkpt>
      <trkpt lat="42.323939" lon="1.782810">
        <ele>1250.4</ele>
        <time>2022-07-03T08:30:35Z</time>
      </trkpt>
      <trkpt lat="42.323883" lon="1.782749">
        <ele>1251.2</ele>
        <time>2022-07-03T08:30:39Z</time>
      </trkpt>
      <trkpt lat="42.323834" lon="1.782685">
        <ele>1252.0</ele>
        <time>2022-07-03T08:30:43Z</time>
      </trkpt>
      <trkpt lat="42.323788" lon="1.782622">
        <ele>1252.7</ele>
        <time>2022-07-03T08:30:47Z</time>
      </trkpt>
      <trkpt lat="42.323741" lon="1.782559">
        <ele>1253.5</ele>
        <time>2022-07-03T08:30:51Z</time>
      </trkpt>
      <trkpt lat="42.323699" lon="1.782488">
        <ele>1254.1</ele>
        <time>2022-07-03T08:30:55Z</time>
      </trkpt>
      <trkpt lat="42.323647" lon="1.782426">
        <ele>1255.1</ele>
        <time>2022-07-03T08:30:59Z</time>
      </trkpt>
      <trkpt lat="42.323602" lon="1.782383">
        <ele>1255.7</ele>
        <time>2022-07-03T08:31:02Z</time>
      </trkpt>
      <trkpt lat="42.323544" lon="1.782318">
        <ele>1256.4</ele>
        <time>2022-07-03T08:31:06Z</time>
      </trkpt>
      <trkpt lat="42.323496" lon="1.782268">
        <ele>1256.7</ele>
        <time>2022-07-03T08:31:09Z</time>
      </trkpt>
      <trkpt lat="42.323440" lon="1.782214">
        <ele>1257.1</ele>
        <time>2022-07-03T08:31:12Z</time>
      </trkpt>
      <trkpt lat="42.323380" lon="1.782169">
        <ele>1257.4</ele>
        <time>2022-07-03T08:31:15Z</time>
      </trkpt>
      <trkpt lat="42.323317" lon="1.782125">
        <ele>1257.3</ele>
        <time>2022-07-03T08:31:18Z</time>
      </trkpt>
      <trkpt lat="42.323247" lon="1.782088">
        <ele>1257.5</ele>
        <time>2022-07-03T08:31:21Z</time>
      </trkpt>
      <trkpt lat="42.323175" lon="1.782070">
        <ele>1257.8</ele>
        <time>2022-07-03T08:31:24Z</time>
      </trkpt>
      <trkpt lat="42.323104" lon="1.782062">
        <ele>1257.9</ele>
        <time>2022-07-03T08:31:27Z</time>
      </trkpt>
      <trkpt lat="42.323039" lon="1.782058">
        <ele>1258.2</ele>
        <time>2022-07-03T08:31:30Z</time>
      </trkpt>
      <trkpt lat="42.322966" lon="1.782063">
        <ele>1258.5</ele>
        <time>2022-07-03T08:31:33Z</time>
      </trkpt>
      <trkpt lat="42.322896" lon="1.782071">
        <ele>1258.9</ele>
        <time>2022-07-03T08:31:36Z</time>
      </trkpt>
      <trkpt lat="42.322825" lon="1.782087">
        <ele>1259.0</ele>
        <time>2022-07-03T08:31:39Z</time>
      </trkpt>
      <trkpt lat="42.322757" lon="1.782103">
        <ele>1259.2</ele>
        <time>2022-07-03T08:31:42Z</time>
      </trkpt>
      <trkpt lat="42.322691" lon="1.782122">
        <ele>1259.4</ele>
        <time>2022-07-03T08:31:45Z</time>
      </trkpt>
      <trkpt lat="42.322619" lon="1.782144">
        <ele>1259.5</ele>
        <time>2022-07-03T08:31:48Z</time>
      </trkpt>
      <trkpt lat="42.322553" lon="1.782162">
        <ele>1259.7</ele>
        <time>2022-07-03T08:31:51Z</time>
      </trkpt>
      <trkpt lat="42.322488" lon="1.782176">
        <ele>1260.0</ele>
        <time>2022-07-03T08:31:54Z</time>
      </trkpt>
      <trkpt lat="42.322424" lon="1.782174">
        <ele>1260.1</ele>
        <time>2022-07-03T08:31:57Z</time>
      </trkpt>
      <trkpt lat="42.322351" lon="1.782174">
        <ele>1260.0</ele>
        <time>2022-07-03T08:32:00Z</time>
      </trkpt>
      <trkpt lat="42.322277" lon="1.782154">
        <ele>1260.3</ele>
        <time>2022-07-03T08:32:03Z</time>
      </trkpt>
      <trkpt lat="42.322196" lon="1.782148">
        <ele>1260.5</ele>
        <time>2022-07-03T08:32:06Z</time>
      </trkpt>
      <trkpt lat="42.322142" lon="1.782140">
        <ele>1260.7</ele>
        <time>2022-07-03T08:32:08Z</time>
      </trkpt>
      <trkpt lat="42.322065" lon="1.782123">
        <ele>1260.8</ele>
        <time>2022-07-03T08:32:11Z</time>
      </trkpt>
      <trkpt lat="42.322004" lon="1.782094">
        <ele>1260.8</ele>
        <time>2022-07-03T08:32:13Z</time>
      </trkpt>
      <trkpt lat="42.321950" lon="1.782061">
        <ele>1260.8</ele>
        <time>2022-07-03T08:32:15Z</time>
      </trkpt>
      <trkpt lat="42.321896" lon="1.782012">
        <ele>1260.9</ele>
        <time>2022-07-03T08:32:17Z</time>
      </trkpt>
      <trkpt lat="42.321834" lon="1.781963">
        <ele>1260.9</ele>
        <time>2022-07-03T08:32:19Z</time>
      </trkpt>
      <trkpt lat="42.321780" lon="1.781904">
        <ele>1261.1</ele>
        <time>2022-07-03T08:32:21Z</time>
      </trkpt>
      <trkpt lat="42.321724" lon="1.781873">
        <ele>1261.1</ele>
        <time>2022-07-03T08:32:23Z</time>
      </trkpt>
      <trkpt lat="42.321656" lon="1.781836">
        <ele>1261.1</ele>
        <time>2022-07-03T08:32:25Z</time>
      </trkpt>
      <trkpt lat="42.321582" lon="1.781823">
        <ele>1260.9</ele>
        <time>2022-07-03T08:32:27Z</time>
      </trkpt>
      <trkpt lat="42.321511" lon="1.781824">
        <ele>1260.9</ele>
        <time>2022-07-03T08:32:29Z</time>
      </trkpt>
      <trkpt lat="42.321437" lon="1.781837">
        <ele>1260.8</ele>
        <time>2022-07-03T08:32:31Z</time>
      </trkpt>
      <trkpt lat="42.321365" lon="1.781866">
        <ele>1260.8</ele>
        <time>2022-07-03T08:32:33Z</time>
      </trkpt>
      <trkpt lat="42.321299" lon="1.781899">
        <ele>1260.8</ele>
        <time>2022-07-03T08:32:35Z</time>
      </trkpt>
      <trkpt lat="42.321245" lon="1.781931">
        <ele>1261.1</ele>
        <time>2022-07-03T08:32:37Z</time>
      </trkpt>
      <trkpt lat="42.321186" lon="1.781971">
        <ele>1261.1</ele>
        <time>2022-07-03T08:32:40Z</time>
      </trkpt>
      <trkpt lat="42.321132" lon="1.781996">
        <ele>1261.5</ele>
        <time>2022-07-03T08:32:49Z</time>
      </trkpt>
      <trkpt lat="42.321074" lon="1.782015">
        <ele>1261.6</ele>
        <time>2022-07-03T08:35:55Z</time>
      </trkpt>
      <trkpt lat="42.321015" lon="1.782078">
        <ele>1261.5</ele>
        <time>2022-07-03T08:35:58Z</time>
      </trkpt>
      <trkpt lat="42.320956" lon="1.782144">
        <ele>1261.9</ele>
        <time>2022-07-03T08:36:01Z</time>
      </trkpt>
      <trkpt lat="42.320890" lon="1.782203">
        <ele>1261.9</ele>
        <time>2022-07-03T08:36:04Z</time>
      </trkpt>
      <trkpt lat="42.320845" lon="1.782246">
        <ele>1262.3</ele>
        <time>2022-07-03T08:36:06Z</time>
      </trkpt>
      <trkpt lat="42.320794" lon="1.782281">
        <ele>1262.6</ele>
        <time>2022-07-03T08:36:08Z</time>
      </trkpt>
      <trkpt lat="42.320724" lon="1.782332">
        <ele>1263.1</ele>
        <time>2022-07-03T08:36:11Z</time>
      </trkpt>
      <trkpt lat="42.320659" lon="1.782392">
        <ele>1263.4</ele>
        <time>2022-07-03T08:36:14Z</time>
      </trkpt>
      <trkpt lat="42.320591" lon="1.782451">
        <ele>1264.0</ele>
        <time>2022-07-03T08:36:17Z</time>
      </trkpt>
      <trkpt lat="42.320549" lon="1.782504">
        <ele>1264.1</ele>
        <time>2022-07-03T08:36:19Z</time>
      </trkpt>
      <trkpt lat="42.320506" lon="1.782550">
        <ele>1264.4</ele>
        <time>2022-07-03T08:36:21Z</time>
      </trkpt>
      <trkpt lat="42.320442" lon="1.782608">
        <ele>1264.9</ele>
        <time>2022-07-03T08:36:24Z</time>
      </trkpt>
      <trkpt lat="42.320370" lon="1.782648">
        <ele>1265.4</ele>
        <time>2022-07-03T08:36:27Z</time>
      </trkpt>
      <trkpt lat="42.320302" lon="1.782661">
        <ele>1266.1</ele>
        <time>2022-07-03T08:36:30Z</time>
      </trkpt>
      <trkpt lat="42.320229" lon="1.782644">
        <ele>1266.5</ele>
        <time>2022-07-03T08:36:33Z</time>
      </trkpt>
      <trkpt lat="42.320175" lon="1.782638">
        <ele>1266.8</ele>
        <time>2022-07-03T08:36:35Z</time>
      </trkpt>
      <trkpt lat="42.320098" lon="1.782631">
        <ele>1267.5</ele>
        <time>2022-07-03T08:36:38Z</time>
      </trkpt>
      <trkpt lat="42.320027" lon="1.782616">
        <ele>1268.1</ele>
        <time>2022-07-03T08:36:41Z</time>
      </trkpt>
      <trkpt lat="42.319949" lon="1.782607">
        <ele>1268.6</ele>
        <time>2022-07-03T08:36:44Z</time>
      </trkpt>
      <trkpt lat="42.319874" lon="1.782603">
        <ele>1269.0</ele>
        <time>2022-07-03T08:36:47Z</time>
      </trkpt>
      <trkpt lat="42.319797" lon="1.782597">
        <ele>1269.5</ele>
        <time>2022-07-03T08:36:50Z</time>
      </trkpt>
      <trkpt lat="42.319726" lon="1.782589">
        <ele>1269.9</ele>
        <time>2022-07-03T08:36:53Z</time>
      </trkpt>
      <trkpt lat="42.319654" lon="1.782588">
        <ele>1270.0</ele>
        <time>2022-07-03T08:36:56Z</time>
      </trkpt>
      <trkpt lat="42.319579" lon="1.782578">
        <ele>1270.2</ele>
        <time>2022-07-03T08:36:59Z</time>
      </trkpt>
      <trkpt lat="42.319509" lon="1.782565">
        <ele>1270.8</ele>
        <time>2022-07-03T08:37:02Z</time>
      </trkpt>
      <trkpt lat="42.319437" lon="1.782551">
        <ele>1271.4</ele>
        <time>2022-07-03T08:37:05Z</time>
      </trkpt>
      <trkpt lat="42.319366" lon="1.782537">
        <ele>1271.8</ele>
        <time>2022-07-03T08:37:08Z</time>
      </trkpt>
      <trkpt lat="42.319296" lon="1.782526">
        <ele>1272.1</ele>
        <time>2022-07-03T08:37:11Z</time>
      </trkpt>
      <trkpt lat="42.319226" lon="1.782519">
        <ele>1272.6</ele>
        <time>2022-07-03T08:37:14Z</time>
      </trkpt>
      <trkpt lat="42.319154" lon="1.782509">
        <ele>1273.0</ele>
        <time>2022-07-03T08:37:17Z</time>
      </trkpt>
      <trkpt lat="42.319076" lon="1.782499">
        <ele>1273.2</ele>
        <time>2022-07-03T08:37:20Z</time>
      </trkpt>
      <trkpt lat="42.319009" lon="1.782483">
        <ele>1273.8</ele>
        <time>2022-07-03T08:37:23Z</time>
      </trkpt>
      <trkpt lat="42.318942" lon="1.782480">
        <ele>1274.1</ele>
        <time>2022-07-03T08:37:26Z</time>
      </trkpt>
      <trkpt lat="42.318871" lon="1.782497">
        <ele>1274.6</ele>
        <time>2022-07-03T08:37:29Z</time>
      </trkpt>
      <trkpt lat="42.318808" lon="1.782519">
        <ele>1274.8</ele>
        <time>2022-07-03T08:37:32Z</time>
      </trkpt>
      <trkpt lat="42.318749" lon="1.782537">
        <ele>1275.3</ele>
        <time>2022-07-03T08:37:35Z</time>
      </trkpt>
      <trkpt lat="42.318691" lon="1.782567">
        <ele>1275.7</ele>
        <time>2022-07-03T08:37:38Z</time>
      </trkpt>
      <trkpt lat="42.318632" lon="1.782589">
        <ele>1275.9</ele>
        <time>2022-07-03T08:37:41Z</time>
      </trkpt>
      <trkpt lat="42.318564" lon="1.782627">
        <ele>1276.8</ele>
        <time>2022-07-03T08:37:45Z</time>
      </trkpt>
      <trkpt lat="42.318509" lon="1.782650">
        <ele>1277.2</ele>
        <time>2022-07-03T08:37:48Z</time>
      </trkpt>
      <trkpt lat="42.318455" lon="1.782664">
        <ele>1277.8</ele>
        <time>2022-07-03T08:37:51Z</time>
      </trkpt>
      <trkpt lat="42.318399" lon="1.782676">
        <ele>1278.3</ele>
        <time>2022-07-03T08:37:54Z</time>
      </trkpt>
      <trkpt lat="42.318336" lon="1.782686">
        <ele>1279.0</ele>
        <time>2022-07-03T08:37:57Z</time>
      </trkpt>
      <trkpt lat="42.318262" lon="1.782693">
        <ele>1279.6</ele>
        <time>2022-07-03T08:38:00Z</time>
      </trkpt>
      <trkpt lat="42.318210" lon="1.782722">
        <ele>1280.1</ele>
        <time>2022-07-03T08:38:03Z</time>
      </trkpt>
      <trkpt lat="42.318171" lon="1.782789">
        <ele>1280.7</ele>
        <time>2022-07-03T08:38:06Z</time>
      </trkpt>
      <trkpt lat="42.318139" lon="1.782871">
        <ele>1280.9</ele>
        <time>2022-07-03T08:38:09Z</time>
      </trkpt>
      <trkpt lat="42.318102" lon="1.782942">
        <ele>1281.0</ele>
        <time>2022-07-03T08:38:11Z</time>
      </trkpt>
      <trkpt lat="42.318059" lon="1.782992">
        <ele>1281.2</ele>
        <time>2022-07-03T08:38:13Z</time>
      </trkpt>
      <trkpt lat="42.318003" lon="1.783022">
        <ele>1281.3</ele>
        <time>2022-07-03T08:38:15Z</time>
      </trkpt>
      <trkpt lat="42.317929" lon="1.783029">
        <ele>1281.1</ele>
        <time>2022-07-03T08:38:17Z</time>
      </trkpt>
      <trkpt lat="42.317869" lon="1.783020">
        <ele>1281.8</ele>
        <time>2022-07-03T08:38:19Z</time>
      </trkpt>
      <trkpt lat="42.317813" lon="1.783009">
        <ele>1282.0</ele>
        <time>2022-07-03T08:38:21Z</time>
      </trkpt>
      <trkpt lat="42.317755" lon="1.782999">
        <ele>1282.2</ele>
        <time>2022-07-03T08:38:23Z</time>
      </trkpt>
      <trkpt lat="42.317697" lon="1.782992">
        <ele>1282.5</ele>
        <time>2022-07-03T08:38:25Z</time>
      </trkpt>
      <trkpt lat="42.317618" lon="1.782977">
        <ele>1283.2</ele>
        <time>2022-07-03T08:38:28Z</time>
      </trkpt>
      <trkpt lat="42.317537" lon="1.782961">
        <ele>1283.8</ele>
        <time>2022-07-03T08:38:31Z</time>
      </trkpt>
      <trkpt lat="42.317480" lon="1.782952">
        <ele>1284.2</ele>
        <time>2022-07-03T08:38:33Z</time>
      </trkpt>
      <trkpt lat="42.317425" lon="1.782948">
        <ele>1284.3</ele>
        <time>2022-07-03T08:38:35Z</time>
      </trkpt>
      <trkpt lat="42.317345" lon="1.782937">
        <ele>1284.7</ele>
        <time>2022-07-03T08:38:38Z</time>
      </trkpt>
      <trkpt lat="42.317274" lon="1.782932">
        <ele>1285.2</ele>
        <time>2022-07-03T08:38:41Z</time>
      </trkpt>
      <trkpt lat="42.317210" lon="1.782914">
        <ele>1286.0</ele>
        <time>2022-07-03T08:38:44Z</time>
      </trkpt>
      <trkpt lat="42.317146" lon="1.782905">
        <ele>1286.9</ele>
        <time>2022-07-03T08:38:47Z</time>
      </trkpt>
      <trkpt lat="42.317090" lon="1.782887">
        <ele>1287.6</ele>
        <time>2022-07-03T08:38:50Z</time>
      </trkpt>
      <trkpt lat="42.317030" lon="1.782882">
        <ele>1288.1</ele>
        <time>2022-07-03T08:38:53Z</time>
      </trkpt>
      <trkpt lat="42.316972" lon="1.782876">
        <ele>1288.7</ele>
        <time>2022-07-03T08:38:56Z</time>
      </trkpt>
      <trkpt lat="42.316909" lon="1.782882">
        <ele>1289.3</ele>
        <time>2022-07-03T08:38:59Z</time>
      </trkpt>
      <trkpt lat="42.316846" lon="1.782881">
        <ele>1289.8</ele>
        <time>2022-07-03T08:39:02Z</time>
      </trkpt>
      <trkpt lat="42.316785" lon="1.782888">
        <ele>1290.3</ele>
        <time>2022-07-03T08:39:05Z</time>
      </trkpt>
      <trkpt lat="42.316731" lon="1.782894">
        <ele>1290.8</ele>
        <time>2022-07-03T08:39:08Z</time>
      </trkpt>
      <trkpt lat="42.316676" lon="1.782909">
        <ele>1291.3</ele>
        <time>2022-07-03T08:39:11Z</time>
      </trkpt>
      <trkpt lat="42.316614" lon="1.782928">
        <ele>1291.7</ele>
        <time>2022-07-03T08:39:14Z</time>
      </trkpt>
      <trkpt lat="42.316552" lon="1.782942">
        <ele>1292.0</ele>
        <time>2022-07-03T08:39:17Z</time>
      </trkpt>
      <trkpt lat="42.316493" lon="1.782947">
        <ele>1292.7</ele>
        <time>2022-07-03T08:39:20Z</time>
      </trkpt>
      <trkpt lat="42.316424" lon="1.782945">
        <ele>1293.8</ele>
        <time>2022-07-03T08:39:24Z</time>
      </trkpt>
      <trkpt lat="42.316310" lon="1.782899">
        <ele>1294.0</ele>
        <time>2022-07-03T08:39:30Z</time>
      </trkpt>
      <trkpt lat="42.316250" lon="1.782854">
        <ele>1295.8</ele>
        <time>2022-07-03T08:39:34Z</time>
      </trkpt>
      <trkpt lat="42.316160" lon="1.782748">
        <ele>1297.0</ele>
        <time>2022-07-03T08:39:41Z</time>
      </trkpt>
      <trkpt lat="42.316112" lon="1.782687">
        <ele>1298.0</ele>
        <time>2022-07-03T08:39:45Z</time>
      </trkpt>
      <trkpt lat="42.316060" lon="1.782626">
        <ele>1299.2</ele>
        <time>2022-07-03T08:39:49Z</time>
      </trkpt>
      <trkpt lat="42.316005" lon="1.782591">
        <ele>1299.9</ele>
        <time>2022-07-03T08:39:53Z</time>
      </trkpt>
      <trkpt lat="42.315952" lon="1.782554">
        <ele>1300.4</ele>
        <time>2022-07-03T08:39:57Z</time>
      </trkpt>
      <trkpt lat="42.315892" lon="1.782520">
        <ele>1301.0</ele>
        <time>2022-07-03T08:40:01Z</time>
      </trkpt>
      <trkpt lat="42.315803" lon="1.782496">
        <ele>1301.0</ele>
        <time>2022-07-03T08:40:06Z</time>
      </trkpt>
      <trkpt lat="42.315723" lon="1.782467">
        <ele>1301.0</ele>
        <time>2022-07-03T08:40:10Z</time>
      </trkpt>
      <trkpt lat="42.315659" lon="1.782428">
        <ele>1302.6</ele>
        <time>2022-07-03T08:40:14Z</time>
      </trkpt>
      <trkpt lat="42.315605" lon="1.782417">
        <ele>1302.9</ele>
        <time>2022-07-03T08:40:17Z</time>
      </trkpt>
      <trkpt lat="42.315533" lon="1.782438">
        <ele>1302.0</ele>
        <time>2022-07-03T08:40:22Z</time>
      </trkpt>
      <trkpt lat="42.315451" lon="1.782439">
        <ele>1303.0</ele>
        <time>2022-07-03T08:40:27Z</time>
      </trkpt>
      <trkpt lat="42.315362" lon="1.782401">
        <ele>1303.7</ele>
        <time>2022-07-03T08:40:31Z</time>
      </trkpt>
      <trkpt lat="42.315326" lon="1.782346">
        <ele>1303.0</ele>
        <time>2022-07-03T08:40:33Z</time>
      </trkpt>
      <trkpt lat="42.315299" lon="1.782250">
        <ele>1304.0</ele>
        <time>2022-07-03T08:40:36Z</time>
      </trkpt>
      <trkpt lat="42.315312" lon="1.782179">
        <ele>1304.4</ele>
        <time>2022-07-03T08:40:40Z</time>
      </trkpt>
      <trkpt lat="42.315346" lon="1.782122">
        <ele>1304.6</ele>
        <time>2022-07-03T08:40:43Z</time>
      </trkpt>
      <trkpt lat="42.315404" lon="1.782091">
        <ele>1305.4</ele>
        <time>2022-07-03T08:40:48Z</time>
      </trkpt>
      <trkpt lat="42.315449" lon="1.782049">
        <ele>1305.9</ele>
        <time>2022-07-03T08:40:52Z</time>
      </trkpt>
      <trkpt lat="42.315504" lon="1.781995">
        <ele>1306.1</ele>
        <time>2022-07-03T08:40:57Z</time>
      </trkpt>
      <trkpt lat="42.315576" lon="1.781937">
        <ele>1306.0</ele>
        <time>2022-07-03T08:41:02Z</time>
      </trkpt>
      <trkpt lat="42.315635" lon="1.781898">
        <ele>1307.9</ele>
        <time>2022-07-03T08:41:06Z</time>
      </trkpt>
      <trkpt lat="42.315712" lon="1.781836">
        <ele>1308.0</ele>
        <time>2022-07-03T08:41:12Z</time>
      </trkpt>
      <trkpt lat="42.315767" lon="1.781801">
        <ele>1309.0</ele>
        <time>2022-07-03T08:41:16Z</time>
      </trkpt>
      <trkpt lat="42.315832" lon="1.781763">
        <ele>1310.4</ele>
        <time>2022-07-03T08:41:20Z</time>
      </trkpt>
      <trkpt lat="42.315886" lon="1.781723">
        <ele>1311.0</ele>
        <time>2022-07-03T08:41:24Z</time>
      </trkpt>
      <trkpt lat="42.316002" lon="1.781690">
        <ele>1312.0</ele>
        <time>2022-07-03T08:41:31Z</time>
      </trkpt>
      <trkpt lat="42.316069" lon="1.781688">
        <ele>1313.0</ele>
        <time>2022-07-03T08:41:35Z</time>
      </trkpt>
      <trkpt lat="42.316141" lon="1.781699">
        <ele>1314.0</ele>
        <time>2022-07-03T08:41:39Z</time>
      </trkpt>
      <trkpt lat="42.316226" lon="1.781735">
        <ele>1315.0</ele>
        <time>2022-07-03T08:41:44Z</time>
      </trkpt>
      <trkpt lat="42.316279" lon="1.781745">
        <ele>1315.7</ele>
        <time>2022-07-03T08:41:47Z</time>
      </trkpt>
      <trkpt lat="42.316335" lon="1.781742">
        <ele>1315.9</ele>
        <time>2022-07-03T08:41:50Z</time>
      </trkpt>
      <trkpt lat="42.316390" lon="1.781739">
        <ele>1315.8</ele>
        <time>2022-07-03T08:41:53Z</time>
      </trkpt>
      <trkpt lat="42.316449" lon="1.781730">
        <ele>1316.2</ele>
        <time>2022-07-03T08:41:56Z</time>
      </trkpt>
      <trkpt lat="42.316502" lon="1.781713">
        <ele>1316.9</ele>
        <time>2022-07-03T08:41:59Z</time>
      </trkpt>
      <trkpt lat="42.316555" lon="1.781686">
        <ele>1317.5</ele>
        <time>2022-07-03T08:42:02Z</time>
      </trkpt>
      <trkpt lat="42.316611" lon="1.781660">
        <ele>1317.8</ele>
        <time>2022-07-03T08:42:05Z</time>
      </trkpt>
      <trkpt lat="42.316660" lon="1.781621">
        <ele>1318.2</ele>
        <time>2022-07-03T08:42:08Z</time>
      </trkpt>
      <trkpt lat="42.316702" lon="1.781572">
        <ele>1318.7</ele>
        <time>2022-07-03T08:42:11Z</time>
      </trkpt>
      <trkpt lat="42.316742" lon="1.781520">
        <ele>1319.2</ele>
        <time>2022-07-03T08:42:14Z</time>
      </trkpt>
      <trkpt lat="42.316791" lon="1.781452">
        <ele>1319.8</ele>
        <time>2022-07-03T08:42:18Z</time>
      </trkpt>
      <trkpt lat="42.316824" lon="1.781379">
        <ele>1320.5</ele>
        <time>2022-07-03T08:42:22Z</time>
      </trkpt>
      <trkpt lat="42.316861" lon="1.781312">
        <ele>1321.4</ele>
        <time>2022-07-03T08:42:26Z</time>
      </trkpt>
      <trkpt lat="42.316910" lon="1.781260">
        <ele>1322.0</ele>
        <time>2022-07-03T08:42:30Z</time>
      </trkpt>
      <trkpt lat="42.316970" lon="1.781227">
        <ele>1322.7</ele>
        <time>2022-07-03T08:42:34Z</time>
      </trkpt>
      <trkpt lat="42.317037" lon="1.781255">
        <ele>1323.6</ele>
        <time>2022-07-03T08:42:38Z</time>
      </trkpt>
      <trkpt lat="42.317096" lon="1.781307">
        <ele>1323.8</ele>
        <time>2022-07-03T08:42:42Z</time>
      </trkpt>
      <trkpt lat="42.317145" lon="1.781341">
        <ele>1324.3</ele>
        <time>2022-07-03T08:42:45Z</time>
      </trkpt>
      <trkpt lat="42.317193" lon="1.781373">
        <ele>1324.9</ele>
        <time>2022-07-03T08:42:48Z</time>
      </trkpt>
      <trkpt lat="42.317244" lon="1.781402">
        <ele>1325.5</ele>
        <time>2022-07-03T08:42:51Z</time>
      </trkpt>
      <trkpt lat="42.317312" lon="1.781417">
        <ele>1326.1</ele>
        <time>2022-07-03T08:42:55Z</time>
      </trkpt>
      <trkpt lat="42.317381" lon="1.781398">
        <ele>1326.5</ele>
        <time>2022-07-03T08:42:59Z</time>
      </trkpt>
      <trkpt lat="42.317440" lon="1.781361">
        <ele>1326.8</ele>
        <time>2022-07-03T08:43:03Z</time>
      </trkpt>
      <trkpt lat="42.317469" lon="1.781292">
        <ele>1327.3</ele>
        <time>2022-07-03T08:43:06Z</time>
      </trkpt>
      <trkpt lat="42.317491" lon="1.781200">
        <ele>1328.0</ele>
        <time>2022-07-03T08:43:10Z</time>
      </trkpt>
      <trkpt lat="42.317518" lon="1.781112">
        <ele>1328.5</ele>
        <time>2022-07-03T08:43:14Z</time>
      </trkpt>
      <trkpt lat="42.317555" lon="1.781052">
        <ele>1328.7</ele>
        <time>2022-07-03T08:43:17Z</time>
      </trkpt>
      <trkpt lat="42.317606" lon="1.781023">
        <ele>1329.3</ele>
        <time>2022-07-03T08:43:20Z</time>
      </trkpt>
      <trkpt lat="42.317663" lon="1.781017">
        <ele>1329.8</ele>
        <time>2022-07-03T08:43:23Z</time>
      </trkpt>
      <trkpt lat="42.317721" lon="1.781025">
        <ele>1330.3</ele>
        <time>2022-07-03T08:43:26Z</time>
      </trkpt>
      <trkpt lat="42.317786" lon="1.781031">
        <ele>1330.6</ele>
        <time>2022-07-03T08:43:29Z</time>
      </trkpt>
      <trkpt lat="42.317842" lon="1.781034">
        <ele>1331.1</ele>
        <time>2022-07-03T08:43:32Z</time>
      </trkpt>
      <trkpt lat="42.317899" lon="1.781030">
        <ele>1331.3</ele>
        <time>2022-07-03T08:43:35Z</time>
      </trkpt>
      <trkpt lat="42.317958" lon="1.781023">
        <ele>1331.7</ele>
        <time>2022-07-03T08:43:38Z</time>
      </trkpt>
      <trkpt lat="42.318014" lon="1.781010">
        <ele>1331.9</ele>
        <time>2022-07-03T08:43:41Z</time>
      </trkpt>
      <trkpt lat="42.318074" lon="1.780997">
        <ele>1332.2</ele>
        <time>2022-07-03T08:43:44Z</time>
      </trkpt>
      <trkpt lat="42.318134" lon="1.780986">
        <ele>1332.9</ele>
        <time>2022-07-03T08:43:47Z</time>
      </trkpt>
      <trkpt lat="42.318200" lon="1.780975">
        <ele>1333.5</ele>
        <time>2022-07-03T08:43:50Z</time>
      </trkpt>
      <trkpt lat="42.318259" lon="1.780970">
        <ele>1334.1</ele>
        <time>2022-07-03T08:43:53Z</time>
      </trkpt>
      <trkpt lat="42.318320" lon="1.780972">
        <ele>1334.6</ele>
        <time>2022-07-03T08:43:56Z</time>
      </trkpt>
      <trkpt lat="42.318382" lon="1.780973">
        <ele>1334.9</ele>
        <time>2022-07-03T08:43:59Z</time>
      </trkpt>
      <trkpt lat="42.318436" lon="1.780970">
        <ele>1335.4</ele>
        <time>2022-07-03T08:44:02Z</time>
      </trkpt>
      <trkpt lat="42.318500" lon="1.780961">
        <ele>1336.0</ele>
        <time>2022-07-03T08:44:05Z</time>
      </trkpt>
      <trkpt lat="42.318570" lon="1.780950">
        <ele>1336.4</ele>
        <time>2022-07-03T08:44:08Z</time>
      </trkpt>
      <trkpt lat="42.318630" lon="1.780929">
        <ele>1336.8</ele>
        <time>2022-07-03T08:44:11Z</time>
      </trkpt>
      <trkpt lat="42.318693" lon="1.780908">
        <ele>1337.3</ele>
        <time>2022-07-03T08:44:14Z</time>
      </trkpt>
      <trkpt lat="42.318759" lon="1.780885">
        <ele>1338.0</ele>
        <time>2022-07-03T08:44:17Z</time>
      </trkpt>
      <trkpt lat="42.318816" lon="1.780848">
        <ele>1338.7</ele>
        <time>2022-07-03T08:44:20Z</time>
      </trkpt>
      <trkpt lat="42.318849" lon="1.780779">
        <ele>1339.1</ele>
        <time>2022-07-03T08:44:23Z</time>
      </trkpt>
      <trkpt lat="42.318878" lon="1.780706">
        <ele>1339.7</ele>
        <time>2022-07-03T08:44:26Z</time>
      </trkpt>
      <trkpt lat="42.318898" lon="1.780630">
        <ele>1340.0</ele>
        <time>2022-07-03T08:44:29Z</time>
      </trkpt>
      <trkpt lat="42.318918" lon="1.780551">
        <ele>1340.6</ele>
        <time>2022-07-03T08:44:32Z</time>
      </trkpt>
      <trkpt lat="42.318935" lon="1.780470">
        <ele>1341.4</ele>
        <time>2022-07-03T08:44:35Z</time>
      </trkpt>
      <trkpt lat="42.318932" lon="1.780387">
        <ele>1341.9</ele>
        <time>2022-07-03T08:44:38Z</time>
      </trkpt>
      <trkpt lat="42.318951" lon="1.780309">
        <ele>1342.6</ele>
        <time>2022-07-03T08:44:41Z</time>
      </trkpt>
      <trkpt lat="42.318980" lon="1.780235">
        <ele>1343.3</ele>
        <time>2022-07-03T08:44:44Z</time>
      </trkpt>
      <trkpt lat="42.319019" lon="1.780175">
        <ele>1344.1</ele>
        <time>2022-07-03T08:44:47Z</time>
      </trkpt>
      <trkpt lat="42.319062" lon="1.780128">
        <ele>1345.0</ele>
        <time>2022-07-03T08:44:50Z</time>
      </trkpt>
      <trkpt lat="42.319084" lon="1.780047">
        <ele>1345.9</ele>
        <time>2022-07-03T08:44:54Z</time>
      </trkpt>
      <trkpt lat="42.319064" lon="1.779961">
        <ele>1346.7</ele>
        <time>2022-07-03T08:44:58Z</time>
      </trkpt>
      <trkpt lat="42.319009" lon="1.779911">
        <ele>1347.4</ele>
        <time>2022-07-03T08:45:02Z</time>
      </trkpt>
      <trkpt lat="42.318948" lon="1.779906">
        <ele>1348.5</ele>
        <time>2022-07-03T08:45:06Z</time>
      </trkpt>
      <trkpt lat="42.318898" lon="1.779959">
        <ele>1349.4</ele>
        <time>2022-07-03T08:45:10Z</time>
      </trkpt>
      <trkpt lat="42.318856" lon="1.780023">
        <ele>1350.2</ele>
        <time>2022-07-03T08:45:14Z</time>
      </trkpt>
      <trkpt lat="42.318809" lon="1.780086">
        <ele>1351.3</ele>
        <time>2022-07-03T08:45:18Z</time>
      </trkpt>
      <trkpt lat="42.318758" lon="1.780131">
        <ele>1352.2</ele>
        <time>2022-07-03T08:45:22Z</time>
      </trkpt>
      <trkpt lat="42.318700" lon="1.780157">
        <ele>1352.7</ele>
        <time>2022-07-03T08:45:26Z</time>
      </trkpt>
      <trkpt lat="42.318638" lon="1.780183">
        <ele>1353.3</ele>
        <time>2022-07-03T08:45:30Z</time>
      </trkpt>
      <trkpt lat="42.318579" lon="1.780206">
        <ele>1353.9</ele>
        <time>2022-07-03T08:45:34Z</time>
      </trkpt>
      <trkpt lat="42.318522" lon="1.780220">
        <ele>1354.4</ele>
        <time>2022-07-03T08:45:38Z</time>
      </trkpt>
      <trkpt lat="42.318461" lon="1.780240">
        <ele>1355.3</ele>
        <time>2022-07-03T08:45:42Z</time>
      </trkpt>
      <trkpt lat="42.318396" lon="1.780253">
        <ele>1356.0</ele>
        <time>2022-07-03T08:45:46Z</time>
      </trkpt>
      <trkpt lat="42.318334" lon="1.780265">
        <ele>1356.8</ele>
        <time>2022-07-03T08:45:50Z</time>
      </trkpt>
      <trkpt lat="42.318274" lon="1.780272">
        <ele>1357.9</ele>
        <time>2022-07-03T08:45:54Z</time>
      </trkpt>
      <trkpt lat="42.318211" lon="1.780277">
        <ele>1358.8</ele>
        <time>2022-07-03T08:45:58Z</time>
      </trkpt>
      <trkpt lat="42.318149" lon="1.780289">
        <ele>1359.5</ele>
        <time>2022-07-03T08:46:02Z</time>
      </trkpt>
      <trkpt lat="42.318089" lon="1.780294">
        <ele>1360.3</ele>
        <time>2022-07-03T08:46:06Z</time>
      </trkpt>
      <trkpt lat="42.318031" lon="1.780290">
        <ele>1361.0</ele>
        <time>2022-07-03T08:46:10Z</time>
      </trkpt>
      <trkpt lat="42.317964" lon="1.780265">
        <ele>1361.6</ele>
        <time>2022-07-03T08:46:14Z</time>
      </trkpt>
      <trkpt lat="42.317903" lon="1.780229">
        <ele>1361.9</ele>
        <time>2022-07-03T08:46:18Z</time>
      </trkpt>
      <trkpt lat="42.317854" lon="1.780188">
        <ele>1362.9</ele>
        <time>2022-07-03T08:46:22Z</time>
      </trkpt>
      <trkpt lat="42.317802" lon="1.780140">
        <ele>1363.6</ele>
        <time>2022-07-03T08:46:26Z</time>
      </trkpt>
      <trkpt lat="42.317750" lon="1.780082">
        <ele>1364.4</ele>
        <time>2022-07-03T08:46:30Z</time>
      </trkpt>
      <trkpt lat="42.317700" lon="1.780023">
        <ele>1365.0</ele>
        <time>2022-07-03T08:46:34Z</time>
      </trkpt>
      <trkpt lat="42.317654" lon="1.779964">
        <ele>1366.2</ele>
        <time>2022-07-03T08:46:39Z</time>
      </trkpt>
      <trkpt lat="42.317597" lon="1.779922">
        <ele>1367.1</ele>
        <time>2022-07-03T08:46:44Z</time>
      </trkpt>
      <trkpt lat="42.317529" lon="1.779889">
        <ele>1367.5</ele>
        <time>2022-07-03T08:46:48Z</time>
      </trkpt>
      <trkpt lat="42.317464" lon="1.779871">
        <ele>1368.3</ele>
        <time>2022-07-03T08:46:52Z</time>
      </trkpt>
      <trkpt lat="42.317403" lon="1.779872">
        <ele>1369.1</ele>
        <time>2022-07-03T08:46:56Z</time>
      </trkpt>
      <trkpt lat="42.317334" lon="1.779866">
        <ele>1369.5</ele>
        <time>2022-07-03T08:47:00Z</time>
      </trkpt>
      <trkpt lat="42.317279" lon="1.779859">
        <ele>1370.1</ele>
        <time>2022-07-03T08:47:03Z</time>
      </trkpt>
      <trkpt lat="42.317222" lon="1.779847">
        <ele>1370.6</ele>
        <time>2022-07-03T08:47:06Z</time>
      </trkpt>
      <trkpt lat="42.317165" lon="1.779840">
        <ele>1371.2</ele>
        <time>2022-07-03T08:47:09Z</time>
      </trkpt>
      <trkpt lat="42.317095" lon="1.779826">
        <ele>1371.8</ele>
        <time>2022-07-03T08:47:13Z</time>
      </trkpt>
      <trkpt lat="42.317026" lon="1.779826">
        <ele>1372.6</ele>
        <time>2022-07-03T08:47:17Z</time>
      </trkpt>
      <trkpt lat="42.316970" lon="1.779832">
        <ele>1373.1</ele>
        <time>2022-07-03T08:47:20Z</time>
      </trkpt>
      <trkpt lat="42.316917" lon="1.779842">
        <ele>1373.6</ele>
        <time>2022-07-03T08:47:23Z</time>
      </trkpt>
      <trkpt lat="42.316846" lon="1.779837">
        <ele>1374.4</ele>
        <time>2022-07-03T08:47:27Z</time>
      </trkpt>
      <trkpt lat="42.316787" lon="1.779788">
        <ele>1374.8</ele>
        <time>2022-07-03T08:47:31Z</time>
      </trkpt>
      <trkpt lat="42.316789" lon="1.779691">
        <ele>1375.4</ele>
        <time>2022-07-03T08:47:35Z</time>
      </trkpt>
      <trkpt lat="42.316821" lon="1.779614">
        <ele>1375.9</ele>
        <time>2022-07-03T08:47:39Z</time>
      </trkpt>
      <trkpt lat="42.316863" lon="1.779564">
        <ele>1376.6</ele>
        <time>2022-07-03T08:47:44Z</time>
      </trkpt>
      <trkpt lat="42.316850" lon="1.779639">
        <ele>1376.6</ele>
        <time>2022-07-03T08:48:29Z</time>
      </trkpt>
      <trkpt lat="42.316839" lon="1.779712">
        <ele>1376.5</ele>
        <time>2022-07-03T08:49:06Z</time>
      </trkpt>
      <trkpt lat="42.316856" lon="1.779642">
        <ele>1377.0</ele>
        <time>2022-07-03T08:50:03Z</time>
      </trkpt>
      <trkpt lat="42.316918" lon="1.779635">
        <ele>1377.2</ele>
        <time>2022-07-03T08:50:07Z</time>
      </trkpt>
      <trkpt lat="42.316977" lon="1.779608">
        <ele>1377.8</ele>
        <time>2022-07-03T08:50:11Z</time>
      </trkpt>
      <trkpt lat="42.317037" lon="1.779583">
        <ele>1378.2</ele>
        <time>2022-07-03T08:50:15Z</time>
      </trkpt>
      <trkpt lat="42.317096" lon="1.779560">
        <ele>1378.8</ele>
        <time>2022-07-03T08:50:19Z</time>
      </trkpt>
      <trkpt lat="42.317160" lon="1.779523">
        <ele>1379.4</ele>
        <time>2022-07-03T08:50:23Z</time>
      </trkpt>
      <trkpt lat="42.317218" lon="1.779475">
        <ele>1379.8</ele>
        <time>2022-07-03T08:50:27Z</time>
      </trkpt>
      <trkpt lat="42.317273" lon="1.779448">
        <ele>1380.2</ele>
        <time>2022-07-03T08:50:30Z</time>
      </trkpt>
      <trkpt lat="42.317324" lon="1.779419">
        <ele>1380.4</ele>
        <time>2022-07-03T08:50:33Z</time>
      </trkpt>
      <trkpt lat="42.317385" lon="1.779385">
        <ele>1380.9</ele>
        <time>2022-07-03T08:50:37Z</time>
      </trkpt>
      <trkpt lat="42.317451" lon="1.779353">
        <ele>1381.5</ele>
        <time>2022-07-03T08:50:41Z</time>
      </trkpt>
      <trkpt lat="42.317513" lon="1.779326">
        <ele>1382.1</ele>
        <time>2022-07-03T08:50:45Z</time>
      </trkpt>
      <trkpt lat="42.317579" lon="1.779295">
        <ele>1382.8</ele>
        <time>2022-07-03T08:50:49Z</time>
      </trkpt>
      <trkpt lat="42.317641" lon="1.779270">
        <ele>1383.6</ele>
        <time>2022-07-03T08:50:53Z</time>
      </trkpt>
      <trkpt lat="42.317697" lon="1.779255">
        <ele>1383.8</ele>
        <time>2022-07-03T08:50:56Z</time>
      </trkpt>
      <trkpt lat="42.317761" lon="1.779225">
        <ele>1384.7</ele>
        <time>2022-07-03T08:51:00Z</time>
      </trkpt>
      <trkpt lat="42.317825" lon="1.779192">
        <ele>1385.4</ele>
        <time>2022-07-03T08:51:04Z</time>
      </trkpt>
      <trkpt lat="42.317875" lon="1.779141">
        <ele>1386.3</ele>
        <time>2022-07-03T08:51:08Z</time>
      </trkpt>
      <trkpt lat="42.317919" lon="1.779072">
        <ele>1387.0</ele>
        <time>2022-07-03T08:51:12Z</time>
      </trkpt>
      <trkpt lat="42.317954" lon="1.778994">
        <ele>1387.4</ele>
        <time>2022-07-03T08:51:16Z</time>
      </trkpt>
      <trkpt lat="42.317994" lon="1.778917">
        <ele>1387.8</ele>
        <time>2022-07-03T08:51:20Z</time>
      </trkpt>
      <trkpt lat="42.318032" lon="1.778841">
        <ele>1388.7</ele>
        <time>2022-07-03T08:51:24Z</time>
      </trkpt>
      <trkpt lat="42.318067" lon="1.778768">
        <ele>1389.6</ele>
        <time>2022-07-03T08:51:28Z</time>
      </trkpt>
      <trkpt lat="42.318109" lon="1.778695">
        <ele>1389.9</ele>
        <time>2022-07-03T08:51:32Z</time>
      </trkpt>
      <trkpt lat="42.318149" lon="1.778621">
        <ele>1390.6</ele>
        <time>2022-07-03T08:51:36Z</time>
      </trkpt>
      <trkpt lat="42.318190" lon="1.778552">
        <ele>1391.7</ele>
        <time>2022-07-03T08:51:40Z</time>
      </trkpt>
      <trkpt lat="42.318217" lon="1.778468">
        <ele>1392.4</ele>
        <time>2022-07-03T08:51:44Z</time>
      </trkpt>
      <trkpt lat="42.318252" lon="1.778388">
        <ele>1393.2</ele>
        <time>2022-07-03T08:51:48Z</time>
      </trkpt>
      <trkpt lat="42.318281" lon="1.778324">
        <ele>1393.7</ele>
        <time>2022-07-03T08:51:51Z</time>
      </trkpt>
      <trkpt lat="42.318323" lon="1.778252">
        <ele>1394.4</ele>
        <time>2022-07-03T08:51:55Z</time>
      </trkpt>
      <trkpt lat="42.318374" lon="1.778200">
        <ele>1395.0</ele>
        <time>2022-07-03T08:51:59Z</time>
      </trkpt>
      <trkpt lat="42.318435" lon="1.778198">
        <ele>1395.3</ele>
        <time>2022-07-03T08:52:02Z</time>
      </trkpt>
      <trkpt lat="42.318491" lon="1.778258">
        <ele>1395.6</ele>
        <time>2022-07-03T08:52:05Z</time>
      </trkpt>
      <trkpt lat="42.318545" lon="1.778320">
        <ele>1396.0</ele>
        <time>2022-07-03T08:52:08Z</time>
      </trkpt>
      <trkpt lat="42.318592" lon="1.778372">
        <ele>1396.4</ele>
        <time>2022-07-03T08:52:11Z</time>
      </trkpt>
      <trkpt lat="42.318650" lon="1.778391">
        <ele>1397.0</ele>
        <time>2022-07-03T08:52:14Z</time>
      </trkpt>
      <trkpt lat="42.318702" lon="1.778360">
        <ele>1397.2</ele>
        <time>2022-07-03T08:52:17Z</time>
      </trkpt>
      <trkpt lat="42.318735" lon="1.778299">
        <ele>1397.6</ele>
        <time>2022-07-03T08:52:20Z</time>
      </trkpt>
      <trkpt lat="42.318734" lon="1.778204">
        <ele>1398.2</ele>
        <time>2022-07-03T08:52:24Z</time>
      </trkpt>
      <trkpt lat="42.318697" lon="1.778150">
        <ele>1398.6</ele>
        <time>2022-07-03T08:52:27Z</time>
      </trkpt>
      <trkpt lat="42.318642" lon="1.778105">
        <ele>1399.5</ele>
        <time>2022-07-03T08:52:31Z</time>
      </trkpt>
      <trkpt lat="42.318581" lon="1.778056">
        <ele>1400.3</ele>
        <time>2022-07-03T08:52:35Z</time>
      </trkpt>
      <trkpt lat="42.318537" lon="1.777999">
        <ele>1400.4</ele>
        <time>2022-07-03T08:52:38Z</time>
      </trkpt>
      <trkpt lat="42.318487" lon="1.777954">
        <ele>1401.0</ele>
        <time>2022-07-03T08:52:41Z</time>
      </trkpt>
      <trkpt lat="42.318429" lon="1.777923">
        <ele>1401.2</ele>
        <time>2022-07-03T08:52:44Z</time>
      </trkpt>
      <trkpt lat="42.318373" lon="1.777934">
        <ele>1401.5</ele>
        <time>2022-07-03T08:52:47Z</time>
      </trkpt>
      <trkpt lat="42.318321" lon="1.777979">
        <ele>1402.0</ele>
        <time>2022-07-03T08:52:50Z</time>
      </trkpt>
      <trkpt lat="42.318277" lon="1.778036">
        <ele>1402.7</ele>
        <time>2022-07-03T08:52:53Z</time>
      </trkpt>
      <trkpt lat="42.318246" lon="1.778099">
        <ele>1403.1</ele>
        <time>2022-07-03T08:52:56Z</time>
      </trkpt>
      <trkpt lat="42.318206" lon="1.778161">
        <ele>1403.4</ele>
        <time>2022-07-03T08:52:59Z</time>
      </trkpt>
      <trkpt lat="42.318156" lon="1.778213">
        <ele>1403.5</ele>
        <time>2022-07-03T08:53:02Z</time>
      </trkpt>
      <trkpt lat="42.318099" lon="1.778239">
        <ele>1403.7</ele>
        <time>2022-07-03T08:53:05Z</time>
      </trkpt>
      <trkpt lat="42.318044" lon="1.778267">
        <ele>1404.1</ele>
        <time>2022-07-03T08:53:08Z</time>
      </trkpt>
      <trkpt lat="42.317985" lon="1.778284">
        <ele>1404.6</ele>
        <time>2022-07-03T08:53:11Z</time>
      </trkpt>
      <trkpt lat="42.317922" lon="1.778297">
        <ele>1404.9</ele>
        <time>2022-07-03T08:53:14Z</time>
      </trkpt>
      <trkpt lat="42.317859" lon="1.778311">
        <ele>1405.1</ele>
        <time>2022-07-03T08:53:17Z</time>
      </trkpt>
      <trkpt lat="42.317801" lon="1.778327">
        <ele>1405.7</ele>
        <time>2022-07-03T08:53:20Z</time>
      </trkpt>
      <trkpt lat="42.317736" lon="1.778352">
        <ele>1406.2</ele>
        <time>2022-07-03T08:53:23Z</time>
      </trkpt>
      <trkpt lat="42.317662" lon="1.778376">
        <ele>1406.7</ele>
        <time>2022-07-03T08:53:26Z</time>
      </trkpt>
      <trkpt lat="42.317598" lon="1.778403">
        <ele>1406.9</ele>
        <time>2022-07-03T08:53:29Z</time>
      </trkpt>
      <trkpt lat="42.317533" lon="1.778432">
        <ele>1407.5</ele>
        <time>2022-07-03T08:53:32Z</time>
      </trkpt>
      <trkpt lat="42.317466" lon="1.778464">
        <ele>1407.5</ele>
        <time>2022-07-03T08:53:35Z</time>
      </trkpt>
      <trkpt lat="42.317415" lon="1.778495">
        <ele>1408.0</ele>
        <time>2022-07-03T08:53:37Z</time>
      </trkpt>
      <trkpt lat="42.317347" lon="1.778537">
        <ele>1408.3</ele>
        <time>2022-07-03T08:53:40Z</time>
      </trkpt>
      <trkpt lat="42.317280" lon="1.778571">
        <ele>1408.7</ele>
        <time>2022-07-03T08:53:43Z</time>
      </trkpt>
      <trkpt lat="42.317218" lon="1.778593">
        <ele>1409.1</ele>
        <time>2022-07-03T08:53:46Z</time>
      </trkpt>
      <trkpt lat="42.317149" lon="1.778605">
        <ele>1409.1</ele>
        <time>2022-07-03T08:53:49Z</time>
      </trkpt>
      <trkpt lat="42.317081" lon="1.778633">
        <ele>1409.5</ele>
        <time>2022-07-03T08:53:52Z</time>
      </trkpt>
      <trkpt lat="42.317018" lon="1.778673">
        <ele>1410.1</ele>
        <time>2022-07-03T08:53:55Z</time>
      </trkpt>
      <trkpt lat="42.316947" lon="1.778709">
        <ele>1410.2</ele>
        <time>2022-07-03T08:53:58Z</time>
      </trkpt>
      <trkpt lat="42.316874" lon="1.778743">
        <ele>1410.9</ele>
        <time>2022-07-03T08:54:01Z</time>
      </trkpt>
      <trkpt lat="42.316817" lon="1.778762">
        <ele>1411.4</ele>
        <time>2022-07-03T08:54:04Z</time>
      </trkpt>
      <trkpt lat="42.316747" lon="1.778800">
        <ele>1411.7</ele>
        <time>2022-07-03T08:54:07Z</time>
      </trkpt>
      <trkpt lat="42.316683" lon="1.778826">
        <ele>1412.1</ele>
        <time>2022-07-03T08:54:10Z</time>
      </trkpt>
      <trkpt lat="42.316626" lon="1.778830">
        <ele>1412.6</ele>
        <time>2022-07-03T08:54:13Z</time>
      </trkpt>
      <trkpt lat="42.316568" lon="1.778852">
        <ele>1413.0</ele>
        <time>2022-07-03T08:54:16Z</time>
      </trkpt>
      <trkpt lat="42.316513" lon="1.778897">
        <ele>1413.5</ele>
        <time>2022-07-03T08:54:19Z</time>
      </trkpt>
      <trkpt lat="42.316457" lon="1.778910">
        <ele>1414.0</ele>
        <time>2022-07-03T08:54:22Z</time>
      </trkpt>
      <trkpt lat="42.316393" lon="1.778955">
        <ele>1414.6</ele>
        <time>2022-07-03T08:54:25Z</time>
      </trkpt>
      <trkpt lat="42.316329" lon="1.778991">
        <ele>1415.3</ele>
        <time>2022-07-03T08:54:28Z</time>
      </trkpt>
      <trkpt lat="42.316259" lon="1.779013">
        <ele>1416.0</ele>
        <time>2022-07-03T08:54:31Z</time>
      </trkpt>
      <trkpt lat="42.316205" lon="1.779012">
        <ele>1416.4</ele>
        <time>2022-07-03T08:54:34Z</time>
      </trkpt>
      <trkpt lat="42.316232" lon="1.778910">
        <ele>1417.6</ele>
        <time>2022-07-03T08:54:38Z</time>
      </trkpt>
      <trkpt lat="42.316264" lon="1.778851">
        <ele>1418.3</ele>
        <time>2022-07-03T08:54:40Z</time>
      </trkpt>
      <trkpt lat="42.316334" lon="1.778835">
        <ele>1418.7</ele>
        <time>2022-07-03T08:54:45Z</time>
      </trkpt>
      <trkpt lat="42.316386" lon="1.778814">
        <ele>1419.3</ele>
        <time>2022-07-03T08:54:48Z</time>
      </trkpt>
      <trkpt lat="42.316440" lon="1.778801">
        <ele>1419.9</ele>
        <time>2022-07-03T08:54:51Z</time>
      </trkpt>
      <trkpt lat="42.316492" lon="1.778770">
        <ele>1420.4</ele>
        <time>2022-07-03T08:54:54Z</time>
      </trkpt>
      <trkpt lat="42.316544" lon="1.778751">
        <ele>1421.1</ele>
        <time>2022-07-03T08:54:57Z</time>
      </trkpt>
      <trkpt lat="42.316608" lon="1.778707">
        <ele>1421.5</ele>
        <time>2022-07-03T08:55:02Z</time>
      </trkpt>
      <trkpt lat="42.316669" lon="1.778655">
        <ele>1422.3</ele>
        <time>2022-07-03T08:55:06Z</time>
      </trkpt>
      <trkpt lat="42.316724" lon="1.778601">
        <ele>1423.0</ele>
        <time>2022-07-03T08:55:10Z</time>
      </trkpt>
      <trkpt lat="42.316780" lon="1.778568">
        <ele>1424.0</ele>
        <time>2022-07-03T08:55:14Z</time>
      </trkpt>
      <trkpt lat="42.316844" lon="1.778523">
        <ele>1424.4</ele>
        <time>2022-07-03T08:55:18Z</time>
      </trkpt>
      <trkpt lat="42.316883" lon="1.778470">
        <ele>1425.1</ele>
        <time>2022-07-03T08:55:21Z</time>
      </trkpt>
      <trkpt lat="42.316926" lon="1.778409">
        <ele>1425.7</ele>
        <time>2022-07-03T08:55:24Z</time>
      </trkpt>
      <trkpt lat="42.316969" lon="1.778338">
        <ele>1426.5</ele>
        <time>2022-07-03T08:55:28Z</time>
      </trkpt>
      <trkpt lat="42.317014" lon="1.778289">
        <ele>1427.1</ele>
        <time>2022-07-03T08:55:31Z</time>
      </trkpt>
      <trkpt lat="42.317050" lon="1.778212">
        <ele>1427.5</ele>
        <time>2022-07-03T08:55:35Z</time>
      </trkpt>
      <trkpt lat="42.317079" lon="1.778133">
        <ele>1428.0</ele>
        <time>2022-07-03T08:55:39Z</time>
      </trkpt>
      <trkpt lat="42.317094" lon="1.778056">
        <ele>1428.3</ele>
        <time>2022-07-03T08:55:42Z</time>
      </trkpt>
      <trkpt lat="42.317129" lon="1.777996">
        <ele>1428.4</ele>
        <time>2022-07-03T08:55:45Z</time>
      </trkpt>
      <trkpt lat="42.317171" lon="1.777927">
        <ele>1428.9</ele>
        <time>2022-07-03T08:55:49Z</time>
      </trkpt>
      <trkpt lat="42.317233" lon="1.777890">
        <ele>1429.7</ele>
        <time>2022-07-03T08:55:53Z</time>
      </trkpt>
      <trkpt lat="42.317290" lon="1.777849">
        <ele>1430.6</ele>
        <time>2022-07-03T08:55:57Z</time>
      </trkpt>
      <trkpt lat="42.317350" lon="1.777804">
        <ele>1431.5</ele>
        <time>2022-07-03T08:56:01Z</time>
      </trkpt>
      <trkpt lat="42.317401" lon="1.777759">
        <ele>1431.8</ele>
        <time>2022-07-03T08:56:05Z</time>
      </trkpt>
      <trkpt lat="42.317454" lon="1.777709">
        <ele>1432.1</ele>
        <time>2022-07-03T08:56:08Z</time>
      </trkpt>
      <trkpt lat="42.317495" lon="1.777652">
        <ele>1432.6</ele>
        <time>2022-07-03T08:56:11Z</time>
      </trkpt>
      <trkpt lat="42.317541" lon="1.777593">
        <ele>1433.2</ele>
        <time>2022-07-03T08:56:14Z</time>
      </trkpt>
      <trkpt lat="42.317600" lon="1.777563">
        <ele>1433.4</ele>
        <time>2022-07-03T08:56:17Z</time>
      </trkpt>
      <trkpt lat="42.317640" lon="1.777507">
        <ele>1434.0</ele>
        <time>2022-07-03T08:56:20Z</time>
      </trkpt>
      <trkpt lat="42.317691" lon="1.777460">
        <ele>1433.7</ele>
        <time>2022-07-03T08:56:23Z</time>
      </trkpt>
      <trkpt lat="42.317742" lon="1.777422">
        <ele>1434.0</ele>
        <time>2022-07-03T08:56:26Z</time>
      </trkpt>
      <trkpt lat="42.317791" lon="1.777378">
        <ele>1434.6</ele>
        <time>2022-07-03T08:56:29Z</time>
      </trkpt>
      <trkpt lat="42.317844" lon="1.777334">
        <ele>1435.1</ele>
        <time>2022-07-03T08:56:32Z</time>
      </trkpt>
      <trkpt lat="42.317894" lon="1.777283">
        <ele>1435.4</ele>
        <time>2022-07-03T08:56:35Z</time>
      </trkpt>
      <trkpt lat="42.317955" lon="1.777245">
        <ele>1436.0</ele>
        <time>2022-07-03T08:56:38Z</time>
      </trkpt>
      <trkpt lat="42.318006" lon="1.777196">
        <ele>1436.0</ele>
        <time>2022-07-03T08:56:41Z</time>
      </trkpt>
      <trkpt lat="42.318053" lon="1.777153">
        <ele>1436.6</ele>
        <time>2022-07-03T08:56:44Z</time>
      </trkpt>
      <trkpt lat="42.318094" lon="1.777099">
        <ele>1437.1</ele>
        <time>2022-07-03T08:56:47Z</time>
      </trkpt>
      <trkpt lat="42.318139" lon="1.777042">
        <ele>1437.5</ele>
        <time>2022-07-03T08:56:50Z</time>
      </trkpt>
      <trkpt lat="42.318172" lon="1.776965">
        <ele>1437.9</ele>
        <time>2022-07-03T08:56:53Z</time>
      </trkpt>
      <trkpt lat="42.318217" lon="1.776893">
        <ele>1438.2</ele>
        <time>2022-07-03T08:56:56Z</time>
      </trkpt>
      <trkpt lat="42.318264" lon="1.776834">
        <ele>1438.7</ele>
        <time>2022-07-03T08:56:59Z</time>
      </trkpt>
      <trkpt lat="42.318325" lon="1.776797">
        <ele>1438.7</ele>
        <time>2022-07-03T08:57:02Z</time>
      </trkpt>
      <trkpt lat="42.318395" lon="1.776795">
        <ele>1439.3</ele>
        <time>2022-07-03T08:57:05Z</time>
      </trkpt>
      <trkpt lat="42.318463" lon="1.776777">
        <ele>1439.7</ele>
        <time>2022-07-03T08:57:08Z</time>
      </trkpt>
      <trkpt lat="42.318523" lon="1.776759">
        <ele>1440.0</ele>
        <time>2022-07-03T08:57:11Z</time>
      </trkpt>
      <trkpt lat="42.318589" lon="1.776748">
        <ele>1439.7</ele>
        <time>2022-07-03T08:57:14Z</time>
      </trkpt>
      <trkpt lat="42.318648" lon="1.776750">
        <ele>1440.3</ele>
        <time>2022-07-03T08:57:17Z</time>
      </trkpt>
      <trkpt lat="42.318706" lon="1.776730">
        <ele>1440.7</ele>
        <time>2022-07-03T08:57:20Z</time>
      </trkpt>
      <trkpt lat="42.318769" lon="1.776710">
        <ele>1441.2</ele>
        <time>2022-07-03T08:57:23Z</time>
      </trkpt>
      <trkpt lat="42.318819" lon="1.776662">
        <ele>1441.7</ele>
        <time>2022-07-03T08:57:26Z</time>
      </trkpt>
      <trkpt lat="42.318880" lon="1.776630">
        <ele>1442.2</ele>
        <time>2022-07-03T08:57:29Z</time>
      </trkpt>
      <trkpt lat="42.318935" lon="1.776578">
        <ele>1442.7</ele>
        <time>2022-07-03T08:57:32Z</time>
      </trkpt>
      <trkpt lat="42.318981" lon="1.776521">
        <ele>1443.5</ele>
        <time>2022-07-03T08:57:35Z</time>
      </trkpt>
      <trkpt lat="42.319023" lon="1.776470">
        <ele>1443.8</ele>
        <time>2022-07-03T08:57:38Z</time>
      </trkpt>
      <trkpt lat="42.319077" lon="1.776420">
        <ele>1444.1</ele>
        <time>2022-07-03T08:57:41Z</time>
      </trkpt>
      <trkpt lat="42.319125" lon="1.776371">
        <ele>1444.6</ele>
        <time>2022-07-03T08:57:44Z</time>
      </trkpt>
      <trkpt lat="42.319180" lon="1.776311">
        <ele>1445.0</ele>
        <time>2022-07-03T08:57:47Z</time>
      </trkpt>
      <trkpt lat="42.319216" lon="1.776241">
        <ele>1445.4</ele>
        <time>2022-07-03T08:57:50Z</time>
      </trkpt>
      <trkpt lat="42.319210" lon="1.776166">
        <ele>1446.0</ele>
        <time>2022-07-03T08:57:53Z</time>
      </trkpt>
      <trkpt lat="42.319150" lon="1.776170">
        <ele>1446.8</ele>
        <time>2022-07-03T08:57:58Z</time>
      </trkpt>
      <trkpt lat="42.319122" lon="1.776243">
        <ele>1447.4</ele>
        <time>2022-07-03T08:58:02Z</time>
      </trkpt>
      <trkpt lat="42.319071" lon="1.776307">
        <ele>1448.1</ele>
        <time>2022-07-03T08:58:06Z</time>
      </trkpt>
      <trkpt lat="42.319008" lon="1.776359">
        <ele>1448.3</ele>
        <time>2022-07-03T08:58:10Z</time>
      </trkpt>
      <trkpt lat="42.318952" lon="1.776391">
        <ele>1448.7</ele>
        <time>2022-07-03T08:58:13Z</time>
      </trkpt>
      <trkpt lat="42.318890" lon="1.776410">
        <ele>1449.2</ele>
        <time>2022-07-03T08:58:16Z</time>
      </trkpt>
      <trkpt lat="42.318826" lon="1.776424">
        <ele>1449.6</ele>
        <time>2022-07-03T08:58:19Z</time>
      </trkpt>
      <trkpt lat="42.318764" lon="1.776408">
        <ele>1449.9</ele>
        <time>2022-07-03T08:58:22Z</time>
      </trkpt>
      <trkpt lat="42.318703" lon="1.776397">
        <ele>1449.9</ele>
        <time>2022-07-03T08:58:25Z</time>
      </trkpt>
      <trkpt lat="42.318649" lon="1.776381">
        <ele>1450.5</ele>
        <time>2022-07-03T08:58:28Z</time>
      </trkpt>
      <trkpt lat="42.318596" lon="1.776366">
        <ele>1450.9</ele>
        <time>2022-07-03T08:58:30Z</time>
      </trkpt>
      <trkpt lat="42.318525" lon="1.776366">
        <ele>1451.2</ele>
        <time>2022-07-03T08:58:33Z</time>
      </trkpt>
      <trkpt lat="42.318466" lon="1.776364">
        <ele>1451.6</ele>
        <time>2022-07-03T08:58:36Z</time>
      </trkpt>
      <trkpt lat="42.318407" lon="1.776385">
        <ele>1452.1</ele>
        <time>2022-07-03T08:58:39Z</time>
      </trkpt>
      <trkpt lat="42.318347" lon="1.776409">
        <ele>1452.7</ele>
        <time>2022-07-03T08:58:43Z</time>
      </trkpt>
      <trkpt lat="42.318278" lon="1.776418">
        <ele>1453.6</ele>
        <time>2022-07-03T08:58:47Z</time>
      </trkpt>
      <trkpt lat="42.318218" lon="1.776432">
        <ele>1454.3</ele>
        <time>2022-07-03T08:58:51Z</time>
      </trkpt>
      <trkpt lat="42.318158" lon="1.776438">
        <ele>1455.0</ele>
        <time>2022-07-03T08:58:55Z</time>
      </trkpt>
      <trkpt lat="42.318103" lon="1.776423">
        <ele>1455.5</ele>
        <time>2022-07-03T08:58:58Z</time>
      </trkpt>
      <trkpt lat="42.318044" lon="1.776419">
        <ele>1455.8</ele>
        <time>2022-07-03T08:59:01Z</time>
      </trkpt>
      <trkpt lat="42.318010" lon="1.776362">
        <ele>1456.9</ele>
        <time>2022-07-03T08:59:06Z</time>
      </trkpt>
      <trkpt lat="42.318026" lon="1.776286">
        <ele>1457.6</ele>
        <time>2022-07-03T08:59:10Z</time>
      </trkpt>
      <trkpt lat="42.318073" lon="1.776246">
        <ele>1458.3</ele>
        <time>2022-07-03T08:59:14Z</time>
      </trkpt>
      <trkpt lat="42.318139" lon="1.776245">
        <ele>1459.1</ele>
        <time>2022-07-03T08:59:18Z</time>
      </trkpt>
      <trkpt lat="42.318199" lon="1.776236">
        <ele>1459.8</ele>
        <time>2022-07-03T08:59:22Z</time>
      </trkpt>
      <trkpt lat="42.318250" lon="1.776205">
        <ele>1460.2</ele>
        <time>2022-07-03T08:59:25Z</time>
      </trkpt>
      <trkpt lat="42.318309" lon="1.776177">
        <ele>1460.4</ele>
        <time>2022-07-03T08:59:28Z</time>
      </trkpt>
      <trkpt lat="42.318369" lon="1.776159">
        <ele>1460.5</ele>
        <time>2022-07-03T08:59:31Z</time>
      </trkpt>
      <trkpt lat="42.318419" lon="1.776121">
        <ele>1461.0</ele>
        <time>2022-07-03T08:59:34Z</time>
      </trkpt>
      <trkpt lat="42.318496" lon="1.776104">
        <ele>1461.2</ele>
        <time>2022-07-03T08:59:37Z</time>
      </trkpt>
      <trkpt lat="42.318553" lon="1.776086">
        <ele>1461.6</ele>
        <time>2022-07-03T08:59:40Z</time>
      </trkpt>
      <trkpt lat="42.318615" lon="1.776038">
        <ele>1462.2</ele>
        <time>2022-07-03T08:59:44Z</time>
      </trkpt>
      <trkpt lat="42.318669" lon="1.776005">
        <ele>1462.7</ele>
        <time>2022-07-03T08:59:47Z</time>
      </trkpt>
      <trkpt lat="42.318720" lon="1.775963">
        <ele>1463.1</ele>
        <time>2022-07-03T08:59:50Z</time>
      </trkpt>
      <trkpt lat="42.318774" lon="1.775904">
        <ele>1463.7</ele>
        <time>2022-07-03T08:59:54Z</time>
      </trkpt>
      <trkpt lat="42.318824" lon="1.775857">
        <ele>1464.0</ele>
        <time>2022-07-03T08:59:57Z</time>
      </trkpt>
      <trkpt lat="42.318873" lon="1.775819">
        <ele>1464.6</ele>
        <time>2022-07-03T09:00:00Z</time>
      </trkpt>
      <trkpt lat="42.318915" lon="1.775762">
        <ele>1465.0</ele>
        <time>2022-07-03T09:00:03Z</time>
      </trkpt>
      <trkpt lat="42.318950" lon="1.775699">
        <ele>1465.6</ele>
        <time>2022-07-03T09:00:06Z</time>
      </trkpt>
      <trkpt lat="42.318977" lon="1.775634">
        <ele>1465.9</ele>
        <time>2022-07-03T09:00:09Z</time>
      </trkpt>
      <trkpt lat="42.319003" lon="1.775567">
        <ele>1466.7</ele>
        <time>2022-07-03T09:00:12Z</time>
      </trkpt>
      <trkpt lat="42.319024" lon="1.775477">
        <ele>1467.4</ele>
        <time>2022-07-03T09:00:16Z</time>
      </trkpt>
      <trkpt lat="42.319045" lon="1.775406">
        <ele>1468.1</ele>
        <time>2022-07-03T09:00:19Z</time>
      </trkpt>
      <trkpt lat="42.319069" lon="1.775335">
        <ele>1468.3</ele>
        <time>2022-07-03T09:00:22Z</time>
      </trkpt>
      <trkpt lat="42.319121" lon="1.775313">
        <ele>1468.7</ele>
        <time>2022-07-03T09:00:25Z</time>
      </trkpt>
      <trkpt lat="42.319188" lon="1.775314">
        <ele>1469.6</ele>
        <time>2022-07-03T09:00:29Z</time>
      </trkpt>
      <trkpt lat="42.319259" lon="1.775317">
        <ele>1470.7</ele>
        <time>2022-07-03T09:00:33Z</time>
      </trkpt>
      <trkpt lat="42.319322" lon="1.775328">
        <ele>1471.4</ele>
        <time>2022-07-03T09:00:37Z</time>
      </trkpt>
      <trkpt lat="42.319376" lon="1.775327">
        <ele>1471.6</ele>
        <time>2022-07-03T09:00:40Z</time>
      </trkpt>
      <trkpt lat="42.319440" lon="1.775303">
        <ele>1471.8</ele>
        <time>2022-07-03T09:00:44Z</time>
      </trkpt>
      <trkpt lat="42.319496" lon="1.775297">
        <ele>1472.1</ele>
        <time>2022-07-03T09:00:47Z</time>
      </trkpt>
      <trkpt lat="42.319552" lon="1.775300">
        <ele>1472.4</ele>
        <time>2022-07-03T09:00:50Z</time>
      </trkpt>
      <trkpt lat="42.319609" lon="1.775305">
        <ele>1472.9</ele>
        <time>2022-07-03T09:00:53Z</time>
      </trkpt>
      <trkpt lat="42.319667" lon="1.775321">
        <ele>1473.2</ele>
        <time>2022-07-03T09:00:56Z</time>
      </trkpt>
      <trkpt lat="42.319735" lon="1.775347">
        <ele>1473.7</ele>
        <time>2022-07-03T09:01:00Z</time>
      </trkpt>
      <trkpt lat="42.319787" lon="1.775368">
        <ele>1474.2</ele>
        <time>2022-07-03T09:01:03Z</time>
      </trkpt>
      <trkpt lat="42.319846" lon="1.775384">
        <ele>1474.4</ele>
        <time>2022-07-03T09:01:06Z</time>
      </trkpt>
      <trkpt lat="42.319901" lon="1.775405">
        <ele>1474.8</ele>
        <time>2022-07-03T09:01:09Z</time>
      </trkpt>
      <trkpt lat="42.319972" lon="1.775418">
        <ele>1475.5</ele>
        <time>2022-07-03T09:01:13Z</time>
      </trkpt>
      <trkpt lat="42.320041" lon="1.775416">
        <ele>1476.3</ele>
        <time>2022-07-03T09:01:17Z</time>
      </trkpt>
      <trkpt lat="42.320104" lon="1.775393">
        <ele>1476.8</ele>
        <time>2022-07-03T09:01:21Z</time>
      </trkpt>
      <trkpt lat="42.320153" lon="1.775360">
        <ele>1477.3</ele>
        <time>2022-07-03T09:01:24Z</time>
      </trkpt>
      <trkpt lat="42.320209" lon="1.775301">
        <ele>1478.2</ele>
        <time>2022-07-03T09:01:28Z</time>
      </trkpt>
      <trkpt lat="42.320267" lon="1.775248">
        <ele>1478.5</ele>
        <time>2022-07-03T09:01:32Z</time>
      </trkpt>
      <trkpt lat="42.320321" lon="1.775196">
        <ele>1479.3</ele>
        <time>2022-07-03T09:01:36Z</time>
      </trkpt>
      <trkpt lat="42.320383" lon="1.775146">
        <ele>1480.2</ele>
        <time>2022-07-03T09:01:40Z</time>
      </trkpt>
      <trkpt lat="42.320436" lon="1.775091">
        <ele>1480.8</ele>
        <time>2022-07-03T09:01:44Z</time>
      </trkpt>
      <trkpt lat="42.320481" lon="1.775044">
        <ele>1481.3</ele>
        <time>2022-07-03T09:01:47Z</time>
      </trkpt>
      <trkpt lat="42.320530" lon="1.775009">
        <ele>1481.5</ele>
        <time>2022-07-03T09:01:50Z</time>
      </trkpt>
      <trkpt lat="42.320584" lon="1.774995">
        <ele>1482.2</ele>
        <time>2022-07-03T09:01:53Z</time>
      </trkpt>
      <trkpt lat="42.320654" lon="1.774980">
        <ele>1482.8</ele>
        <time>2022-07-03T09:01:57Z</time>
      </trkpt>
      <trkpt lat="42.320708" lon="1.774968">
        <ele>1483.3</ele>
        <time>2022-07-03T09:02:00Z</time>
      </trkpt>
      <trkpt lat="42.320773" lon="1.774951">
        <ele>1483.8</ele>
        <time>2022-07-03T09:02:04Z</time>
      </trkpt>
      <trkpt lat="42.320824" lon="1.774921">
        <ele>1484.4</ele>
        <time>2022-07-03T09:02:07Z</time>
      </trkpt>
      <trkpt lat="42.320876" lon="1.774882">
        <ele>1485.0</ele>
        <time>2022-07-03T09:02:10Z</time>
      </trkpt>
      <trkpt lat="42.320916" lon="1.774804">
        <ele>1485.9</ele>
        <time>2022-07-03T09:02:14Z</time>
      </trkpt>
      <trkpt lat="42.320952" lon="1.774731">
        <ele>1486.6</ele>
        <time>2022-07-03T09:02:18Z</time>
      </trkpt>
      <trkpt lat="42.320977" lon="1.774660">
        <ele>1487.1</ele>
        <time>2022-07-03T09:02:22Z</time>
      </trkpt>
      <trkpt lat="42.321002" lon="1.774594">
        <ele>1487.5</ele>
        <time>2022-07-03T09:02:25Z</time>
      </trkpt>
      <trkpt lat="42.321033" lon="1.774522">
        <ele>1488.1</ele>
        <time>2022-07-03T09:02:29Z</time>
      </trkpt>
      <trkpt lat="42.321089" lon="1.774495">
        <ele>1488.9</ele>
        <time>2022-07-03T09:02:33Z</time>
      </trkpt>
      <trkpt lat="42.321146" lon="1.774529">
        <ele>1489.2</ele>
        <time>2022-07-03T09:02:37Z</time>
      </trkpt>
      <trkpt lat="42.321206" lon="1.774577">
        <ele>1489.9</ele>
        <time>2022-07-03T09:02:41Z</time>
      </trkpt>
      <trkpt lat="42.321252" lon="1.774616">
        <ele>1490.3</ele>
        <time>2022-07-03T09:02:44Z</time>
      </trkpt>
      <trkpt lat="42.321302" lon="1.774667">
        <ele>1490.5</ele>
        <time>2022-07-03T09:02:47Z</time>
      </trkpt>
      <trkpt lat="42.321353" lon="1.774699">
        <ele>1491.2</ele>
        <time>2022-07-03T09:02:50Z</time>
      </trkpt>
      <trkpt lat="42.321404" lon="1.774727">
        <ele>1491.5</ele>
        <time>2022-07-03T09:02:53Z</time>
      </trkpt>
      <trkpt lat="42.321468" lon="1.774735">
        <ele>1491.7</ele>
        <time>2022-07-03T09:02:57Z</time>
      </trkpt>
      <trkpt lat="42.321524" lon="1.774721">
        <ele>1492.1</ele>
        <time>2022-07-03T09:03:00Z</time>
      </trkpt>
      <trkpt lat="42.321582" lon="1.774708">
        <ele>1492.6</ele>
        <time>2022-07-03T09:03:03Z</time>
      </trkpt>
      <trkpt lat="42.321653" lon="1.774688">
        <ele>1493.3</ele>
        <time>2022-07-03T09:03:07Z</time>
      </trkpt>
      <trkpt lat="42.321709" lon="1.774665">
        <ele>1493.6</ele>
        <time>2022-07-03T09:03:10Z</time>
      </trkpt>
      <trkpt lat="42.321767" lon="1.774648">
        <ele>1493.9</ele>
        <time>2022-07-03T09:03:13Z</time>
      </trkpt>
      <trkpt lat="42.321819" lon="1.774621">
        <ele>1494.6</ele>
        <time>2022-07-03T09:03:16Z</time>
      </trkpt>
      <trkpt lat="42.321866" lon="1.774579">
        <ele>1495.0</ele>
        <time>2022-07-03T09:03:19Z</time>
      </trkpt>
      <trkpt lat="42.321915" lon="1.774541">
        <ele>1495.2</ele>
        <time>2022-07-03T09:03:22Z</time>
      </trkpt>
      <trkpt lat="42.321957" lon="1.774496">
        <ele>1495.5</ele>
        <time>2022-07-03T09:03:25Z</time>
      </trkpt>
      <trkpt lat="42.322018" lon="1.774468">
        <ele>1496.0</ele>
        <time>2022-07-03T09:03:28Z</time>
      </trkpt>
      <trkpt lat="42.322078" lon="1.774430">
        <ele>1496.7</ele>
        <time>2022-07-03T09:03:32Z</time>
      </trkpt>
      <trkpt lat="42.322138" lon="1.774378">
        <ele>1497.5</ele>
        <time>2022-07-03T09:03:36Z</time>
      </trkpt>
      <trkpt lat="42.322192" lon="1.774321">
        <ele>1498.2</ele>
        <time>2022-07-03T09:03:40Z</time>
      </trkpt>
      <trkpt lat="42.322252" lon="1.774288">
        <ele>1498.3</ele>
        <time>2022-07-03T09:03:43Z</time>
      </trkpt>
      <trkpt lat="42.322301" lon="1.774240">
        <ele>1498.7</ele>
        <time>2022-07-03T09:03:46Z</time>
      </trkpt>
      <trkpt lat="42.322347" lon="1.774195">
        <ele>1499.6</ele>
        <time>2022-07-03T09:03:49Z</time>
      </trkpt>
      <trkpt lat="42.322411" lon="1.774155">
        <ele>1500.2</ele>
        <time>2022-07-03T09:03:53Z</time>
      </trkpt>
      <trkpt lat="42.322477" lon="1.774134">
        <ele>1500.7</ele>
        <time>2022-07-03T09:03:57Z</time>
      </trkpt>
      <trkpt lat="42.322541" lon="1.774094">
        <ele>1501.4</ele>
        <time>2022-07-03T09:04:01Z</time>
      </trkpt>
      <trkpt lat="42.322599" lon="1.774079">
        <ele>1501.9</ele>
        <time>2022-07-03T09:04:04Z</time>
      </trkpt>
      <trkpt lat="42.322652" lon="1.774046">
        <ele>1502.0</ele>
        <time>2022-07-03T09:04:07Z</time>
      </trkpt>
      <trkpt lat="42.322712" lon="1.774038">
        <ele>1502.6</ele>
        <time>2022-07-03T09:04:10Z</time>
      </trkpt>
      <trkpt lat="42.322778" lon="1.774033">
        <ele>1503.1</ele>
        <time>2022-07-03T09:04:13Z</time>
      </trkpt>
      <trkpt lat="42.322842" lon="1.774033">
        <ele>1503.7</ele>
        <time>2022-07-03T09:04:16Z</time>
      </trkpt>
      <trkpt lat="42.322904" lon="1.774046">
        <ele>1504.2</ele>
        <time>2022-07-03T09:04:19Z</time>
      </trkpt>
      <trkpt lat="42.322964" lon="1.774049">
        <ele>1504.9</ele>
        <time>2022-07-03T09:04:23Z</time>
      </trkpt>
      <trkpt lat="42.323020" lon="1.774055">
        <ele>1505.3</ele>
        <time>2022-07-03T09:04:26Z</time>
      </trkpt>
      <trkpt lat="42.323081" lon="1.774075">
        <ele>1506.0</ele>
        <time>2022-07-03T09:04:29Z</time>
      </trkpt>
      <trkpt lat="42.323149" lon="1.774089">
        <ele>1506.6</ele>
        <time>2022-07-03T09:04:32Z</time>
      </trkpt>
      <trkpt lat="42.323206" lon="1.774086">
        <ele>1507.1</ele>
        <time>2022-07-03T09:04:35Z</time>
      </trkpt>
      <trkpt lat="42.323261" lon="1.774080">
        <ele>1507.5</ele>
        <time>2022-07-03T09:04:38Z</time>
      </trkpt>
      <trkpt lat="42.323314" lon="1.774092">
        <ele>1508.2</ele>
        <time>2022-07-03T09:04:41Z</time>
      </trkpt>
      <trkpt lat="42.323376" lon="1.774085">
        <ele>1508.9</ele>
        <time>2022-07-03T09:04:45Z</time>
      </trkpt>
      <trkpt lat="42.323434" lon="1.774102">
        <ele>1509.3</ele>
        <time>2022-07-03T09:04:48Z</time>
      </trkpt>
      <trkpt lat="42.323488" lon="1.774099">
        <ele>1509.8</ele>
        <time>2022-07-03T09:04:51Z</time>
      </trkpt>
      <trkpt lat="42.323547" lon="1.774111">
        <ele>1510.6</ele>
        <time>2022-07-03T09:04:54Z</time>
      </trkpt>
      <trkpt lat="42.323607" lon="1.774102">
        <ele>1511.2</ele>
        <time>2022-07-03T09:04:57Z</time>
      </trkpt>
      <trkpt lat="42.323663" lon="1.774099">
        <ele>1511.9</ele>
        <time>2022-07-03T09:05:00Z</time>
      </trkpt>
      <trkpt lat="42.323718" lon="1.774091">
        <ele>1512.4</ele>
        <time>2022-07-03T09:05:03Z</time>
      </trkpt>
      <trkpt lat="42.323784" lon="1.774071">
        <ele>1513.1</ele>
        <time>2022-07-03T09:05:07Z</time>
      </trkpt>
      <trkpt lat="42.323846" lon="1.774057">
        <ele>1513.6</ele>
        <time>2022-07-03T09:05:11Z</time>
      </trkpt>
      <trkpt lat="42.323909" lon="1.774012">
        <ele>1514.5</ele>
        <time>2022-07-03T09:05:15Z</time>
      </trkpt>
      <trkpt lat="42.323972" lon="1.773984">
        <ele>1515.2</ele>
        <time>2022-07-03T09:05:19Z</time>
      </trkpt>
      <trkpt lat="42.324029" lon="1.773956">
        <ele>1515.6</ele>
        <time>2022-07-03T09:05:22Z</time>
      </trkpt>
      <trkpt lat="42.324078" lon="1.773913">
        <ele>1516.2</ele>
        <time>2022-07-03T09:05:25Z</time>
      </trkpt>
      <trkpt lat="42.324135" lon="1.773878">
        <ele>1517.0</ele>
        <time>2022-07-03T09:05:28Z</time>
      </trkpt>
      <trkpt lat="42.324194" lon="1.773860">
        <ele>1517.5</ele>
        <time>2022-07-03T09:05:31Z</time>
      </trkpt>
      <trkpt lat="42.324258" lon="1.773833">
        <ele>1517.9</ele>
        <time>2022-07-03T09:05:35Z</time>
      </trkpt>
      <trkpt lat="42.324324" lon="1.773819">
        <ele>1518.8</ele>
        <time>2022-07-03T09:05:39Z</time>
      </trkpt>
      <trkpt lat="42.324388" lon="1.773786">
        <ele>1519.7</ele>
        <time>2022-07-03T09:05:43Z</time>
      </trkpt>
      <trkpt lat="42.324426" lon="1.773729">
        <ele>1520.1</ele>
        <time>2022-07-03T09:05:46Z</time>
      </trkpt>
      <trkpt lat="42.324443" lon="1.773658">
        <ele>1520.4</ele>
        <time>2022-07-03T09:05:49Z</time>
      </trkpt>
      <trkpt lat="42.324445" lon="1.773573">
        <ele>1520.9</ele>
        <time>2022-07-03T09:05:52Z</time>
      </trkpt>
      <trkpt lat="42.324409" lon="1.773486">
        <ele>1521.1</ele>
        <time>2022-07-03T09:05:56Z</time>
      </trkpt>
      <trkpt lat="42.324366" lon="1.773434">
        <ele>1521.0</ele>
        <time>2022-07-03T09:05:58Z</time>
      </trkpt>
      <trkpt lat="42.324322" lon="1.773370">
        <ele>1521.1</ele>
        <time>2022-07-03T09:06:00Z</time>
      </trkpt>
      <trkpt lat="42.324287" lon="1.773290">
        <ele>1521.0</ele>
        <time>2022-07-03T09:06:02Z</time>
      </trkpt>
      <trkpt lat="42.324259" lon="1.773204">
        <ele>1520.9</ele>
        <time>2022-07-03T09:06:04Z</time>
      </trkpt>
      <trkpt lat="42.324242" lon="1.773124">
        <ele>1521.3</ele>
        <time>2022-07-03T09:06:06Z</time>
      </trkpt>
      <trkpt lat="42.324234" lon="1.773014">
        <ele>1521.7</ele>
        <time>2022-07-03T09:06:09Z</time>
      </trkpt>
      <trkpt lat="42.324223" lon="1.772917">
        <ele>1521.8</ele>
        <time>2022-07-03T09:06:12Z</time>
      </trkpt>
      <trkpt lat="42.324201" lon="1.772820">
        <ele>1522.0</ele>
        <time>2022-07-03T09:06:14Z</time>
      </trkpt>
      <trkpt lat="42.324195" lon="1.772748">
        <ele>1522.2</ele>
        <time>2022-07-03T09:06:19Z</time>
      </trkpt>
      <trkpt lat="42.324155" lon="1.772696">
        <ele>1522.2</ele>
        <time>2022-07-03T09:06:27Z</time>
      </trkpt>
      <trkpt lat="42.324112" lon="1.772652">
        <ele>1522.3</ele>
        <time>2022-07-03T09:09:42Z</time>
      </trkpt>
      <trkpt lat="42.324060" lon="1.772628">
        <ele>1522.2</ele>
        <time>2022-07-03T09:11:18Z</time>
      </trkpt>
      <trkpt lat="42.324115" lon="1.772608">
        <ele>1522.4</ele>
        <time>2022-07-03T09:12:47Z</time>
      </trkpt>
      <trkpt lat="42.324159" lon="1.772547">
        <ele>1522.4</ele>
        <time>2022-07-03T09:12:52Z</time>
      </trkpt>
      <trkpt lat="42.324179" lon="1.772460">
        <ele>1522.5</ele>
        <time>2022-07-03T09:12:56Z</time>
      </trkpt>
      <trkpt lat="42.324186" lon="1.772385">
        <ele>1522.4</ele>
        <time>2022-07-03T09:12:59Z</time>
      </trkpt>
      <trkpt lat="42.324213" lon="1.772315">
        <ele>1522.5</ele>
        <time>2022-07-03T09:13:02Z</time>
      </trkpt>
      <trkpt lat="42.324220" lon="1.772242">
        <ele>1522.4</ele>
        <time>2022-07-03T09:13:04Z</time>
      </trkpt>
      <trkpt lat="42.324221" lon="1.772164">
        <ele>1522.4</ele>
        <time>2022-07-03T09:13:06Z</time>
      </trkpt>
      <trkpt lat="42.324227" lon="1.772058">
        <ele>1522.4</ele>
        <time>2022-07-03T09:13:09Z</time>
      </trkpt>
      <trkpt lat="42.324210" lon="1.771970">
        <ele>1522.5</ele>
        <time>2022-07-03T09:13:11Z</time>
      </trkpt>
      <trkpt lat="42.324185" lon="1.771879">
        <ele>1522.6</ele>
        <time>2022-07-03T09:13:13Z</time>
      </trkpt>
      <trkpt lat="42.324155" lon="1.771801">
        <ele>1522.6</ele>
        <time>2022-07-03T09:13:15Z</time>
      </trkpt>
      <trkpt lat="42.324125" lon="1.771712">
        <ele>1522.5</ele>
        <time>2022-07-03T09:13:18Z</time>
      </trkpt>
      <trkpt lat="42.324085" lon="1.771650">
        <ele>1522.6</ele>
        <time>2022-07-03T09:13:20Z</time>
      </trkpt>
      <trkpt lat="42.324027" lon="1.771566">
        <ele>1522.6</ele>
        <time>2022-07-03T09:13:23Z</time>
      </trkpt>
      <trkpt lat="42.323969" lon="1.771503">
        <ele>1522.4</ele>
        <time>2022-07-03T09:13:25Z</time>
      </trkpt>
      <trkpt lat="42.323909" lon="1.771456">
        <ele>1522.3</ele>
        <time>2022-07-03T09:13:27Z</time>
      </trkpt>
      <trkpt lat="42.323853" lon="1.771422">
        <ele>1522.2</ele>
        <time>2022-07-03T09:13:29Z</time>
      </trkpt>
      <trkpt lat="42.323800" lon="1.771396">
        <ele>1522.1</ele>
        <time>2022-07-03T09:13:31Z</time>
      </trkpt>
      <trkpt lat="42.323747" lon="1.771367">
        <ele>1522.2</ele>
        <time>2022-07-03T09:13:33Z</time>
      </trkpt>
      <trkpt lat="42.323693" lon="1.771321">
        <ele>1521.9</ele>
        <time>2022-07-03T09:13:35Z</time>
      </trkpt>
      <trkpt lat="42.323627" lon="1.771263">
        <ele>1522.0</ele>
        <time>2022-07-03T09:13:37Z</time>
      </trkpt>
      <trkpt lat="42.323545" lon="1.771191">
        <ele>1522.1</ele>
        <time>2022-07-03T09:13:40Z</time>
      </trkpt>
      <trkpt lat="42.323492" lon="1.771123">
        <ele>1522.0</ele>
        <time>2022-07-03T09:13:42Z</time>
      </trkpt>
      <trkpt lat="42.323433" lon="1.771071">
        <ele>1521.8</ele>
        <time>2022-07-03T09:13:44Z</time>
      </trkpt>
      <trkpt lat="42.323360" lon="1.771001">
        <ele>1521.6</ele>
        <time>2022-07-03T09:13:46Z</time>
      </trkpt>
      <trkpt lat="42.323285" lon="1.770962">
        <ele>1521.5</ele>
        <time>2022-07-03T09:13:48Z</time>
      </trkpt>
      <trkpt lat="42.323211" lon="1.770934">
        <ele>1521.3</ele>
        <time>2022-07-03T09:13:50Z</time>
      </trkpt>
      <trkpt lat="42.323123" lon="1.770891">
        <ele>1521.2</ele>
        <time>2022-07-03T09:13:52Z</time>
      </trkpt>
      <trkpt lat="42.323036" lon="1.770842">
        <ele>1521.1</ele>
        <time>2022-07-03T09:13:54Z</time>
      </trkpt>
      <trkpt lat="42.322954" lon="1.770808">
        <ele>1521.0</ele>
        <time>2022-07-03T09:13:56Z</time>
      </trkpt>
      <trkpt lat="42.322860" lon="1.770773">
        <ele>1521.1</ele>
        <time>2022-07-03T09:13:58Z</time>
      </trkpt>
      <trkpt lat="42.322784" lon="1.770761">
        <ele>1521.2</ele>
        <time>2022-07-03T09:14:00Z</time>
      </trkpt>
      <trkpt lat="42.322709" lon="1.770743">
        <ele>1521.1</ele>
        <time>2022-07-03T09:14:02Z</time>
      </trkpt>
      <trkpt lat="42.322623" lon="1.770698">
        <ele>1521.2</ele>
        <time>2022-07-03T09:14:04Z</time>
      </trkpt>
      <trkpt lat="42.322547" lon="1.770659">
        <ele>1521.1</ele>
        <time>2022-07-03T09:14:06Z</time>
      </trkpt>
      <trkpt lat="42.322483" lon="1.770614">
        <ele>1521.0</ele>
        <time>2022-07-03T09:14:08Z</time>
      </trkpt>
      <trkpt lat="42.322401" lon="1.770537">
        <ele>1520.7</ele>
        <time>2022-07-03T09:14:11Z</time>
      </trkpt>
      <trkpt lat="42.322334" lon="1.770500">
        <ele>1520.9</ele>
        <time>2022-07-03T09:14:13Z</time>
      </trkpt>
      <trkpt lat="42.322262" lon="1.770421">
        <ele>1520.9</ele>
        <time>2022-07-03T09:14:15Z</time>
      </trkpt>
      <trkpt lat="42.322192" lon="1.770359">
        <ele>1521.1</ele>
        <time>2022-07-03T09:14:17Z</time>
      </trkpt>
      <trkpt lat="42.322131" lon="1.770320">
        <ele>1520.7</ele>
        <time>2022-07-03T09:14:19Z</time>
      </trkpt>
      <trkpt lat="42.322054" lon="1.770269">
        <ele>1520.6</ele>
        <time>2022-07-03T09:14:21Z</time>
      </trkpt>
      <trkpt lat="42.321980" lon="1.770221">
        <ele>1520.5</ele>
        <time>2022-07-03T09:14:23Z</time>
      </trkpt>
      <trkpt lat="42.321904" lon="1.770182">
        <ele>1520.4</ele>
        <time>2022-07-03T09:14:25Z</time>
      </trkpt>
      <trkpt lat="42.321824" lon="1.770133">
        <ele>1520.0</ele>
        <time>2022-07-03T09:14:27Z</time>
      </trkpt>
      <trkpt lat="42.321753" lon="1.770105">
        <ele>1520.0</ele>
        <time>2022-07-03T09:14:29Z</time>
      </trkpt>
      <trkpt lat="42.321690" lon="1.770078">
        <ele>1519.8</ele>
        <time>2022-07-03T09:14:31Z</time>
      </trkpt>
      <trkpt lat="42.321643" lon="1.770036">
        <ele>1519.7</ele>
        <time>2022-07-03T09:14:33Z</time>
      </trkpt>
      <trkpt lat="42.321586" lon="1.769938">
        <ele>1520.1</ele>
        <time>2022-07-03T09:14:35Z</time>
      </trkpt>
      <trkpt lat="42.321557" lon="1.769832">
        <ele>1519.7</ele>
        <time>2022-07-03T09:14:37Z</time>
      </trkpt>
      <trkpt lat="42.321516" lon="1.769734">
        <ele>1519.5</ele>
        <time>2022-07-03T09:14:39Z</time>
      </trkpt>
      <trkpt lat="42.321483" lon="1.769670">
        <ele>1519.3</ele>
        <time>2022-07-03T09:14:40Z</time>
      </trkpt>
      <trkpt lat="42.321441" lon="1.769607">
        <ele>1519.2</ele>
        <time>2022-07-03T09:14:41Z</time>
      </trkpt>
      <trkpt lat="42.321398" lon="1.769525">
        <ele>1519.0</ele>
        <time>2022-07-03T09:14:42Z</time>
      </trkpt>
      <trkpt lat="42.321331" lon="1.769449">
        <ele>1518.9</ele>
        <time>2022-07-03T09:14:44Z</time>
      </trkpt>
      <trkpt lat="42.321277" lon="1.769395">
        <ele>1518.8</ele>
        <time>2022-07-03T09:14:45Z</time>
      </trkpt>
      <trkpt lat="42.321233" lon="1.769348">
        <ele>1518.8</ele>
        <time>2022-07-03T09:14:46Z</time>
      </trkpt>
      <trkpt lat="42.321160" lon="1.769271">
        <ele>1518.9</ele>
        <time>2022-07-03T09:14:48Z</time>
      </trkpt>
      <trkpt lat="42.321092" lon="1.769226">
        <ele>1518.9</ele>
        <time>2022-07-03T09:14:50Z</time>
      </trkpt>
      <trkpt lat="42.321016" lon="1.769173">
        <ele>1518.8</ele>
        <time>2022-07-03T09:14:52Z</time>
      </trkpt>
      <trkpt lat="42.320941" lon="1.769136">
        <ele>1518.7</ele>
        <time>2022-07-03T09:14:54Z</time>
      </trkpt>
      <trkpt lat="42.320865" lon="1.769122">
        <ele>1518.9</ele>
        <time>2022-07-03T09:14:56Z</time>
      </trkpt>
      <trkpt lat="42.320784" lon="1.769115">
        <ele>1519.3</ele>
        <time>2022-07-03T09:14:58Z</time>
      </trkpt>
      <trkpt lat="42.320710" lon="1.769156">
        <ele>1519.0</ele>
        <time>2022-07-03T09:15:00Z</time>
      </trkpt>
      <trkpt lat="42.320656" lon="1.769132">
        <ele>1519.0</ele>
        <time>2022-07-03T09:15:01Z</time>
      </trkpt>
      <trkpt lat="42.320582" lon="1.769094">
        <ele>1518.9</ele>
        <time>2022-07-03T09:15:03Z</time>
      </trkpt>
      <trkpt lat="42.320499" lon="1.769028">
        <ele>1519.0</ele>
        <time>2022-07-03T09:15:05Z</time>
      </trkpt>
      <trkpt lat="42.320439" lon="1.768932">
        <ele>1519.1</ele>
        <time>2022-07-03T09:15:07Z</time>
      </trkpt>
      <trkpt lat="42.320368" lon="1.768838">
        <ele>1517.9</ele>
        <time>2022-07-03T09:15:09Z</time>
      </trkpt>
      <trkpt lat="42.320308" lon="1.768804">
        <ele>1518.2</ele>
        <time>2022-07-03T09:15:11Z</time>
      </trkpt>
      <trkpt lat="42.320224" lon="1.768770">
        <ele>1518.3</ele>
        <time>2022-07-03T09:15:13Z</time>
      </trkpt>
      <trkpt lat="42.320130" lon="1.768754">
        <ele>1518.4</ele>
        <time>2022-07-03T09:15:15Z</time>
      </trkpt>
      <trkpt lat="42.320033" lon="1.768742">
        <ele>1518.6</ele>
        <time>2022-07-03T09:15:17Z</time>
      </trkpt>
      <trkpt lat="42.319959" lon="1.768759">
        <ele>1518.6</ele>
        <time>2022-07-03T09:15:19Z</time>
      </trkpt>
      <trkpt lat="42.319873" lon="1.768673">
        <ele>1518.7</ele>
        <time>2022-07-03T09:15:21Z</time>
      </trkpt>
      <trkpt lat="42.319800" lon="1.768561">
        <ele>1518.5</ele>
        <time>2022-07-03T09:15:23Z</time>
      </trkpt>
      <trkpt lat="42.319753" lon="1.768438">
        <ele>1518.4</ele>
        <time>2022-07-03T09:15:25Z</time>
      </trkpt>
      <trkpt lat="42.319735" lon="1.768354">
        <ele>1518.2</ele>
        <time>2022-07-03T09:15:26Z</time>
      </trkpt>
      <trkpt lat="42.319740" lon="1.768277">
        <ele>1518.2</ele>
        <time>2022-07-03T09:15:27Z</time>
      </trkpt>
      <trkpt lat="42.319750" lon="1.768196">
        <ele>1517.8</ele>
        <time>2022-07-03T09:15:28Z</time>
      </trkpt>
      <trkpt lat="42.319763" lon="1.768117">
        <ele>1518.1</ele>
        <time>2022-07-03T09:15:29Z</time>
      </trkpt>
      <trkpt lat="42.319845" lon="1.768063">
        <ele>1518.3</ele>
        <time>2022-07-03T09:15:31Z</time>
      </trkpt>
      <trkpt lat="42.319932" lon="1.768007">
        <ele>1518.4</ele>
        <time>2022-07-03T09:15:33Z</time>
      </trkpt>
      <trkpt lat="42.320013" lon="1.767953">
        <ele>1518.2</ele>
        <time>2022-07-03T09:15:35Z</time>
      </trkpt>
      <trkpt lat="42.320093" lon="1.767894">
        <ele>1518.2</ele>
        <time>2022-07-03T09:15:37Z</time>
      </trkpt>
      <trkpt lat="42.320162" lon="1.767838">
        <ele>1518.4</ele>
        <time>2022-07-03T09:15:39Z</time>
      </trkpt>
      <trkpt lat="42.320228" lon="1.767779">
        <ele>1518.5</ele>
        <time>2022-07-03T09:15:41Z</time>
      </trkpt>
      <trkpt lat="42.320279" lon="1.767700">
        <ele>1518.9</ele>
        <time>2022-07-03T09:15:43Z</time>
      </trkpt>
      <trkpt lat="42.320304" lon="1.767603">
        <ele>1518.7</ele>
        <time>2022-07-03T09:15:45Z</time>
      </trkpt>
      <trkpt lat="42.320348" lon="1.767516">
        <ele>1519.0</ele>
        <time>2022-07-03T09:15:47Z</time>
      </trkpt>
      <trkpt lat="42.320389" lon="1.767419">
        <ele>1519.4</ele>
        <time>2022-07-03T09:15:49Z</time>
      </trkpt>
      <trkpt lat="42.320446" lon="1.767351">
        <ele>1519.5</ele>
        <time>2022-07-03T09:15:51Z</time>
      </trkpt>
      <trkpt lat="42.320508" lon="1.767299">
        <ele>1519.5</ele>
        <time>2022-07-03T09:15:53Z</time>
      </trkpt>
      <trkpt lat="42.320549" lon="1.767234">
        <ele>1519.5</ele>
        <time>2022-07-03T09:15:55Z</time>
      </trkpt>
      <trkpt lat="42.320573" lon="1.767151">
        <ele>1519.5</ele>
        <time>2022-07-03T09:15:57Z</time>
      </trkpt>
      <trkpt lat="42.320575" lon="1.767069">
        <ele>1519.7</ele>
        <time>2022-07-03T09:15:59Z</time>
      </trkpt>
      <trkpt lat="42.320545" lon="1.766994">
        <ele>1519.8</ele>
        <time>2022-07-03T09:16:01Z</time>
      </trkpt>
      <trkpt lat="42.320496" lon="1.766944">
        <ele>1520.4</ele>
        <time>2022-07-03T09:16:04Z</time>
      </trkpt>
      <trkpt lat="42.320436" lon="1.766911">
        <ele>1521.0</ele>
        <time>2022-07-03T09:16:08Z</time>
      </trkpt>
      <trkpt lat="42.320382" lon="1.766881">
        <ele>1521.7</ele>
        <time>2022-07-03T09:16:12Z</time>
      </trkpt>
      <trkpt lat="42.320327" lon="1.766852">
        <ele>1522.2</ele>
        <time>2022-07-03T09:16:15Z</time>
      </trkpt>
      <trkpt lat="42.320271" lon="1.766812">
        <ele>1523.0</ele>
        <time>2022-07-03T09:16:19Z</time>
      </trkpt>
      <trkpt lat="42.320220" lon="1.766761">
        <ele>1524.0</ele>
        <time>2022-07-03T09:16:23Z</time>
      </trkpt>
      <trkpt lat="42.320188" lon="1.766691">
        <ele>1524.8</ele>
        <time>2022-07-03T09:16:27Z</time>
      </trkpt>
      <trkpt lat="42.320204" lon="1.766590">
        <ele>1524.8</ele>
        <time>2022-07-03T09:16:30Z</time>
      </trkpt>
      <trkpt lat="42.320213" lon="1.766507">
        <ele>1525.0</ele>
        <time>2022-07-03T09:16:33Z</time>
      </trkpt>
      <trkpt lat="42.320226" lon="1.766422">
        <ele>1525.2</ele>
        <time>2022-07-03T09:16:36Z</time>
      </trkpt>
      <trkpt lat="42.320266" lon="1.766348">
        <ele>1525.5</ele>
        <time>2022-07-03T09:16:40Z</time>
      </trkpt>
      <trkpt lat="42.320316" lon="1.766290">
        <ele>1526.0</ele>
        <time>2022-07-03T09:16:44Z</time>
      </trkpt>
      <trkpt lat="42.320377" lon="1.766242">
        <ele>1526.6</ele>
        <time>2022-07-03T09:16:48Z</time>
      </trkpt>
      <trkpt lat="42.320423" lon="1.766192">
        <ele>1527.4</ele>
        <time>2022-07-03T09:16:52Z</time>
      </trkpt>
      <trkpt lat="42.320477" lon="1.766157">
        <ele>1528.2</ele>
        <time>2022-07-03T09:16:56Z</time>
      </trkpt>
      <trkpt lat="42.320541" lon="1.766120">
        <ele>1529.7</ele>
        <time>2022-07-03T09:17:01Z</time>
      </trkpt>
      <trkpt lat="42.320583" lon="1.766063">
        <ele>1531.0</ele>
        <time>2022-07-03T09:17:05Z</time>
      </trkpt>
      <trkpt lat="42.320635" lon="1.766026">
        <ele>1533.1</ele>
        <time>2022-07-03T09:17:13Z</time>
      </trkpt>
      <trkpt lat="42.320690" lon="1.765992">
        <ele>1534.3</ele>
        <time>2022-07-03T09:17:19Z</time>
      </trkpt>
      <trkpt lat="42.320735" lon="1.765944">
        <ele>1535.6</ele>
        <time>2022-07-03T09:17:26Z</time>
      </trkpt>
      <trkpt lat="42.320796" lon="1.765929">
        <ele>1536.3</ele>
        <time>2022-07-03T09:17:33Z</time>
      </trkpt>
      <trkpt lat="42.320857" lon="1.765905">
        <ele>1537.2</ele>
        <time>2022-07-03T09:17:38Z</time>
      </trkpt>
      <trkpt lat="42.320918" lon="1.765866">
        <ele>1538.3</ele>
        <time>2022-07-03T09:17:43Z</time>
      </trkpt>
      <trkpt lat="42.320975" lon="1.765855">
        <ele>1539.1</ele>
        <time>2022-07-03T09:17:48Z</time>
      </trkpt>
      <trkpt lat="42.321037" lon="1.765836">
        <ele>1539.9</ele>
        <time>2022-07-03T09:17:52Z</time>
      </trkpt>
      <trkpt lat="42.321090" lon="1.765823">
        <ele>1540.6</ele>
        <time>2022-07-03T09:17:55Z</time>
      </trkpt>
      <trkpt lat="42.321147" lon="1.765818">
        <ele>1541.3</ele>
        <time>2022-07-03T09:17:59Z</time>
      </trkpt>
      <trkpt lat="42.321208" lon="1.765811">
        <ele>1542.0</ele>
        <time>2022-07-03T09:18:03Z</time>
      </trkpt>
      <trkpt lat="42.321277" lon="1.765799">
        <ele>1543.0</ele>
        <time>2022-07-03T09:18:08Z</time>
      </trkpt>
      <trkpt lat="42.321334" lon="1.765791">
        <ele>1543.6</ele>
        <time>2022-07-03T09:18:11Z</time>
      </trkpt>
      <trkpt lat="42.321388" lon="1.765769">
        <ele>1544.2</ele>
        <time>2022-07-03T09:18:15Z</time>
      </trkpt>
      <trkpt lat="42.321448" lon="1.765752">
        <ele>1545.2</ele>
        <time>2022-07-03T09:18:19Z</time>
      </trkpt>
      <trkpt lat="42.321527" lon="1.765731">
        <ele>1545.4</ele>
        <time>2022-07-03T09:18:22Z</time>
      </trkpt>
      <trkpt lat="42.321582" lon="1.765696">
        <ele>1545.7</ele>
        <time>2022-07-03T09:18:25Z</time>
      </trkpt>
      <trkpt lat="42.321635" lon="1.765648">
        <ele>1545.8</ele>
        <time>2022-07-03T09:18:29Z</time>
      </trkpt>
      <trkpt lat="42.321692" lon="1.765607">
        <ele>1546.1</ele>
        <time>2022-07-03T09:18:32Z</time>
      </trkpt>
      <trkpt lat="42.321742" lon="1.765562">
        <ele>1546.2</ele>
        <time>2022-07-03T09:18:35Z</time>
      </trkpt>
      <trkpt lat="42.321810" lon="1.765515">
        <ele>1546.9</ele>
        <time>2022-07-03T09:18:38Z</time>
      </trkpt>
      <trkpt lat="42.321865" lon="1.765466">
        <ele>1547.3</ele>
        <time>2022-07-03T09:18:41Z</time>
      </trkpt>
      <trkpt lat="42.321911" lon="1.765420">
        <ele>1547.9</ele>
        <time>2022-07-03T09:18:44Z</time>
      </trkpt>
      <trkpt lat="42.321966" lon="1.765357">
        <ele>1548.7</ele>
        <time>2022-07-03T09:18:48Z</time>
      </trkpt>
      <trkpt lat="42.322021" lon="1.765317">
        <ele>1549.1</ele>
        <time>2022-07-03T09:18:51Z</time>
      </trkpt>
      <trkpt lat="42.322076" lon="1.765277">
        <ele>1549.7</ele>
        <time>2022-07-03T09:18:54Z</time>
      </trkpt>
      <trkpt lat="42.322136" lon="1.765246">
        <ele>1550.1</ele>
        <time>2022-07-03T09:18:57Z</time>
      </trkpt>
      <trkpt lat="42.322187" lon="1.765203">
        <ele>1550.8</ele>
        <time>2022-07-03T09:19:00Z</time>
      </trkpt>
      <trkpt lat="42.322236" lon="1.765153">
        <ele>1551.6</ele>
        <time>2022-07-03T09:19:03Z</time>
      </trkpt>
      <trkpt lat="42.322289" lon="1.765098">
        <ele>1552.3</ele>
        <time>2022-07-03T09:19:06Z</time>
      </trkpt>
      <trkpt lat="42.322356" lon="1.765052">
        <ele>1552.7</ele>
        <time>2022-07-03T09:19:09Z</time>
      </trkpt>
      <trkpt lat="42.322432" lon="1.765012">
        <ele>1552.9</ele>
        <time>2022-07-03T09:19:12Z</time>
      </trkpt>
      <trkpt lat="42.322494" lon="1.764948">
        <ele>1552.8</ele>
        <time>2022-07-03T09:19:15Z</time>
      </trkpt>
      <trkpt lat="42.322551" lon="1.764880">
        <ele>1552.7</ele>
        <time>2022-07-03T09:19:18Z</time>
      </trkpt>
      <trkpt lat="42.322597" lon="1.764823">
        <ele>1552.6</ele>
        <time>2022-07-03T09:19:20Z</time>
      </trkpt>
      <trkpt lat="42.322698" lon="1.764777">
        <ele>1552.2</ele>
        <time>2022-07-03T09:19:22Z</time>
      </trkpt>
      <trkpt lat="42.322740" lon="1.764727">
        <ele>1552.0</ele>
        <time>2022-07-03T09:19:23Z</time>
      </trkpt>
      <trkpt lat="42.322794" lon="1.764683">
        <ele>1552.1</ele>
        <time>2022-07-03T09:19:24Z</time>
      </trkpt>
      <trkpt lat="42.322845" lon="1.764633">
        <ele>1552.1</ele>
        <time>2022-07-03T09:19:25Z</time>
      </trkpt>
      <trkpt lat="42.322892" lon="1.764591">
        <ele>1551.5</ele>
        <time>2022-07-03T09:19:26Z</time>
      </trkpt>
      <trkpt lat="42.322981" lon="1.764541">
        <ele>1550.9</ele>
        <time>2022-07-03T09:19:28Z</time>
      </trkpt>
      <trkpt lat="42.323049" lon="1.764502">
        <ele>1550.5</ele>
        <time>2022-07-03T09:19:30Z</time>
      </trkpt>
      <trkpt lat="42.323115" lon="1.764477">
        <ele>1550.4</ele>
        <time>2022-07-03T09:19:32Z</time>
      </trkpt>
      <trkpt lat="42.323186" lon="1.764444">
        <ele>1550.8</ele>
        <time>2022-07-03T09:19:34Z</time>
      </trkpt>
      <trkpt lat="42.323287" lon="1.764409">
        <ele>1550.5</ele>
        <time>2022-07-03T09:19:36Z</time>
      </trkpt>
      <trkpt lat="42.323386" lon="1.764365">
        <ele>1550.9</ele>
        <time>2022-07-03T09:19:38Z</time>
      </trkpt>
      <trkpt lat="42.323481" lon="1.764301">
        <ele>1551.0</ele>
        <time>2022-07-03T09:19:40Z</time>
      </trkpt>
      <trkpt lat="42.323557" lon="1.764234">
        <ele>1551.0</ele>
        <time>2022-07-03T09:19:42Z</time>
      </trkpt>
      <trkpt lat="42.323600" lon="1.764172">
        <ele>1551.7</ele>
        <time>2022-07-03T09:19:44Z</time>
      </trkpt>
      <trkpt lat="42.323657" lon="1.764140">
        <ele>1552.4</ele>
        <time>2022-07-03T09:19:46Z</time>
      </trkpt>
      <trkpt lat="42.323710" lon="1.764093">
        <ele>1553.3</ele>
        <time>2022-07-03T09:19:49Z</time>
      </trkpt>
      <trkpt lat="42.323768" lon="1.764051">
        <ele>1554.1</ele>
        <time>2022-07-03T09:19:53Z</time>
      </trkpt>
      <trkpt lat="42.323828" lon="1.764017">
        <ele>1554.7</ele>
        <time>2022-07-03T09:19:57Z</time>
      </trkpt>
      <trkpt lat="42.323889" lon="1.763996">
        <ele>1555.5</ele>
        <time>2022-07-03T09:20:01Z</time>
      </trkpt>
      <trkpt lat="42.323957" lon="1.763978">
        <ele>1556.4</ele>
        <time>2022-07-03T09:20:05Z</time>
      </trkpt>
      <trkpt lat="42.324024" lon="1.763964">
        <ele>1557.2</ele>
        <time>2022-07-03T09:20:09Z</time>
      </trkpt>
      <trkpt lat="42.324096" lon="1.763934">
        <ele>1557.7</ele>
        <time>2022-07-03T09:20:13Z</time>
      </trkpt>
      <trkpt lat="42.324156" lon="1.763894">
        <ele>1558.1</ele>
        <time>2022-07-03T09:20:17Z</time>
      </trkpt>
      <trkpt lat="42.324202" lon="1.763854">
        <ele>1558.4</ele>
        <time>2022-07-03T09:20:20Z</time>
      </trkpt>
      <trkpt lat="42.324259" lon="1.763793">
        <ele>1559.0</ele>
        <time>2022-07-03T09:20:24Z</time>
      </trkpt>
      <trkpt lat="42.324301" lon="1.763720">
        <ele>1559.7</ele>
        <time>2022-07-03T09:20:28Z</time>
      </trkpt>
      <trkpt lat="42.324339" lon="1.763667">
        <ele>1560.2</ele>
        <time>2022-07-03T09:20:31Z</time>
      </trkpt>
      <trkpt lat="42.324379" lon="1.763587">
        <ele>1560.6</ele>
        <time>2022-07-03T09:20:35Z</time>
      </trkpt>
      <trkpt lat="42.324397" lon="1.763516">
        <ele>1560.9</ele>
        <time>2022-07-03T09:20:38Z</time>
      </trkpt>
      <trkpt lat="42.324444" lon="1.763475">
        <ele>1561.2</ele>
        <time>2022-07-03T09:20:41Z</time>
      </trkpt>
      <trkpt lat="42.324456" lon="1.763400">
        <ele>1561.7</ele>
        <time>2022-07-03T09:20:44Z</time>
      </trkpt>
      <trkpt lat="42.324482" lon="1.763329">
        <ele>1562.0</ele>
        <time>2022-07-03T09:20:47Z</time>
      </trkpt>
      <trkpt lat="42.324519" lon="1.763262">
        <ele>1562.4</ele>
        <time>2022-07-03T09:20:50Z</time>
      </trkpt>
      <trkpt lat="42.324561" lon="1.763190">
        <ele>1562.9</ele>
        <time>2022-07-03T09:20:53Z</time>
      </trkpt>
      <trkpt lat="42.324590" lon="1.763089">
        <ele>1562.9</ele>
        <time>2022-07-03T09:20:56Z</time>
      </trkpt>
      <trkpt lat="42.324645" lon="1.763019">
        <ele>1563.1</ele>
        <time>2022-07-03T09:20:59Z</time>
      </trkpt>
      <trkpt lat="42.324648" lon="1.762945">
        <ele>1563.0</ele>
        <time>2022-07-03T09:21:11Z</time>
      </trkpt>
      <trkpt lat="42.324592" lon="1.762937">
        <ele>1563.7</ele>
        <time>2022-07-03T09:21:15Z</time>
      </trkpt>
      <trkpt lat="42.324528" lon="1.762939">
        <ele>1564.9</ele>
        <time>2022-07-03T09:21:20Z</time>
      </trkpt>
      <trkpt lat="42.324472" lon="1.762945">
        <ele>1566.1</ele>
        <time>2022-07-03T09:21:26Z</time>
      </trkpt>
      <trkpt lat="42.324411" lon="1.762984">
        <ele>1566.8</ele>
        <time>2022-07-03T09:21:31Z</time>
      </trkpt>
      <trkpt lat="42.324349" lon="1.763016">
        <ele>1567.3</ele>
        <time>2022-07-03T09:21:35Z</time>
      </trkpt>
      <trkpt lat="42.324290" lon="1.763017">
        <ele>1567.6</ele>
        <time>2022-07-03T09:21:38Z</time>
      </trkpt>
      <trkpt lat="42.324225" lon="1.763041">
        <ele>1568.4</ele>
        <time>2022-07-03T09:21:43Z</time>
      </trkpt>
      <trkpt lat="42.324175" lon="1.763078">
        <ele>1569.5</ele>
        <time>2022-07-03T09:21:47Z</time>
      </trkpt>
      <trkpt lat="42.324113" lon="1.763100">
        <ele>1570.7</ele>
        <time>2022-07-03T09:21:52Z</time>
      </trkpt>
      <trkpt lat="42.324053" lon="1.763110">
        <ele>1571.8</ele>
        <time>2022-07-03T09:21:57Z</time>
      </trkpt>
      <trkpt lat="42.323997" lon="1.763150">
        <ele>1573.4</ele>
        <time>2022-07-03T09:22:02Z</time>
      </trkpt>
      <trkpt lat="42.323962" lon="1.763211">
        <ele>1573.8</ele>
        <time>2022-07-03T09:22:05Z</time>
      </trkpt>
      <trkpt lat="42.323889" lon="1.763231">
        <ele>1574.5</ele>
        <time>2022-07-03T09:22:10Z</time>
      </trkpt>
      <trkpt lat="42.323831" lon="1.763224">
        <ele>1574.9</ele>
        <time>2022-07-03T09:22:13Z</time>
      </trkpt>
      <trkpt lat="42.323775" lon="1.763212">
        <ele>1575.8</ele>
        <time>2022-07-03T09:22:17Z</time>
      </trkpt>
      <trkpt lat="42.323721" lon="1.763238">
        <ele>1576.8</ele>
        <time>2022-07-03T09:22:23Z</time>
      </trkpt>
      <trkpt lat="42.323671" lon="1.763270">
        <ele>1578.3</ele>
        <time>2022-07-03T09:22:31Z</time>
      </trkpt>
      <trkpt lat="42.323613" lon="1.763284">
        <ele>1578.8</ele>
        <time>2022-07-03T09:22:39Z</time>
      </trkpt>
      <trkpt lat="42.323557" lon="1.763308">
        <ele>1579.5</ele>
        <time>2022-07-03T09:22:44Z</time>
      </trkpt>
      <trkpt lat="42.323498" lon="1.763342">
        <ele>1580.5</ele>
        <time>2022-07-03T09:22:50Z</time>
      </trkpt>
      <trkpt lat="42.323434" lon="1.763346">
        <ele>1581.9</ele>
        <time>2022-07-03T09:22:58Z</time>
      </trkpt>
      <trkpt lat="42.323387" lon="1.763381">
        <ele>1582.3</ele>
        <time>2022-07-03T09:23:01Z</time>
      </trkpt>
      <trkpt lat="42.323325" lon="1.763410">
        <ele>1583.0</ele>
        <time>2022-07-03T09:23:05Z</time>
      </trkpt>
      <trkpt lat="42.323257" lon="1.763431">
        <ele>1583.6</ele>
        <time>2022-07-03T09:23:09Z</time>
      </trkpt>
      <trkpt lat="42.323193" lon="1.763455">
        <ele>1584.3</ele>
        <time>2022-07-03T09:23:13Z</time>
      </trkpt>
      <trkpt lat="42.323126" lon="1.763460">
        <ele>1585.0</ele>
        <time>2022-07-03T09:23:17Z</time>
      </trkpt>
      <trkpt lat="42.323068" lon="1.763452">
        <ele>1585.9</ele>
        <time>2022-07-03T09:23:21Z</time>
      </trkpt>
      <trkpt lat="42.323002" lon="1.763449">
        <ele>1586.8</ele>
        <time>2022-07-03T09:23:25Z</time>
      </trkpt>
      <trkpt lat="42.322937" lon="1.763443">
        <ele>1587.9</ele>
        <time>2022-07-03T09:23:29Z</time>
      </trkpt>
      <trkpt lat="42.322870" lon="1.763460">
        <ele>1589.1</ele>
        <time>2022-07-03T09:23:33Z</time>
      </trkpt>
      <trkpt lat="42.322815" lon="1.763478">
        <ele>1590.1</ele>
        <time>2022-07-03T09:23:37Z</time>
      </trkpt>
      <trkpt lat="42.322764" lon="1.763508">
        <ele>1591.1</ele>
        <time>2022-07-03T09:23:42Z</time>
      </trkpt>
      <trkpt lat="42.322709" lon="1.763521">
        <ele>1591.6</ele>
        <time>2022-07-03T09:23:45Z</time>
      </trkpt>
      <trkpt lat="42.322648" lon="1.763530">
        <ele>1592.2</ele>
        <time>2022-07-03T09:23:49Z</time>
      </trkpt>
      <trkpt lat="42.322577" lon="1.763544">
        <ele>1593.1</ele>
        <time>2022-07-03T09:23:54Z</time>
      </trkpt>
      <trkpt lat="42.322523" lon="1.763576">
        <ele>1593.7</ele>
        <time>2022-07-03T09:23:58Z</time>
      </trkpt>
      <trkpt lat="42.322471" lon="1.763607">
        <ele>1594.4</ele>
        <time>2022-07-03T09:24:02Z</time>
      </trkpt>
      <trkpt lat="42.322417" lon="1.763639">
        <ele>1595.0</ele>
        <time>2022-07-03T09:24:06Z</time>
      </trkpt>
      <trkpt lat="42.322366" lon="1.763669">
        <ele>1595.9</ele>
        <time>2022-07-03T09:24:10Z</time>
      </trkpt>
      <trkpt lat="42.322302" lon="1.763693">
        <ele>1596.8</ele>
        <time>2022-07-03T09:24:14Z</time>
      </trkpt>
      <trkpt lat="42.322247" lon="1.763725">
        <ele>1597.8</ele>
        <time>2022-07-03T09:24:18Z</time>
      </trkpt>
      <trkpt lat="42.322184" lon="1.763743">
        <ele>1599.0</ele>
        <time>2022-07-03T09:24:23Z</time>
      </trkpt>
      <trkpt lat="42.322126" lon="1.763746">
        <ele>1599.8</ele>
        <time>2022-07-03T09:24:27Z</time>
      </trkpt>
      <trkpt lat="42.322069" lon="1.763757">
        <ele>1601.0</ele>
        <time>2022-07-03T09:24:31Z</time>
      </trkpt>
      <trkpt lat="42.322012" lon="1.763771">
        <ele>1602.2</ele>
        <time>2022-07-03T09:24:36Z</time>
      </trkpt>
      <trkpt lat="42.321952" lon="1.763798">
        <ele>1603.0</ele>
        <time>2022-07-03T09:24:40Z</time>
      </trkpt>
      <trkpt lat="42.321897" lon="1.763804">
        <ele>1604.0</ele>
        <time>2022-07-03T09:24:44Z</time>
      </trkpt>
      <trkpt lat="42.321841" lon="1.763791">
        <ele>1605.3</ele>
        <time>2022-07-03T09:24:52Z</time>
      </trkpt>
      <trkpt lat="42.321794" lon="1.763832">
        <ele>1606.8</ele>
        <time>2022-07-03T09:25:51Z</time>
      </trkpt>
      <trkpt lat="42.321725" lon="1.763829">
        <ele>1607.3</ele>
        <time>2022-07-03T09:26:01Z</time>
      </trkpt>
      <trkpt lat="42.321661" lon="1.763841">
        <ele>1608.4</ele>
        <time>2022-07-03T09:26:05Z</time>
      </trkpt>
      <trkpt lat="42.321598" lon="1.763831">
        <ele>1609.5</ele>
        <time>2022-07-03T09:26:09Z</time>
      </trkpt>
      <trkpt lat="42.321543" lon="1.763828">
        <ele>1611.1</ele>
        <time>2022-07-03T09:26:17Z</time>
      </trkpt>
      <trkpt lat="42.321478" lon="1.763835">
        <ele>1612.0</ele>
        <time>2022-07-03T09:26:27Z</time>
      </trkpt>
      <trkpt lat="42.321420" lon="1.763853">
        <ele>1612.4</ele>
        <time>2022-07-03T09:26:30Z</time>
      </trkpt>
      <trkpt lat="42.321365" lon="1.763863">
        <ele>1612.8</ele>
        <time>2022-07-03T09:26:33Z</time>
      </trkpt>
      <trkpt lat="42.321300" lon="1.763865">
        <ele>1613.2</ele>
        <time>2022-07-03T09:26:37Z</time>
      </trkpt>
      <trkpt lat="42.321235" lon="1.763883">
        <ele>1613.9</ele>
        <time>2022-07-03T09:26:41Z</time>
      </trkpt>
      <trkpt lat="42.321177" lon="1.763902">
        <ele>1614.6</ele>
        <time>2022-07-03T09:26:45Z</time>
      </trkpt>
      <trkpt lat="42.321115" lon="1.763897">
        <ele>1615.4</ele>
        <time>2022-07-03T09:26:49Z</time>
      </trkpt>
      <trkpt lat="42.321056" lon="1.763921">
        <ele>1616.0</ele>
        <time>2022-07-03T09:26:53Z</time>
      </trkpt>
      <trkpt lat="42.320989" lon="1.763942">
        <ele>1616.7</ele>
        <time>2022-07-03T09:26:58Z</time>
      </trkpt>
      <trkpt lat="42.320919" lon="1.763963">
        <ele>1617.5</ele>
        <time>2022-07-03T09:27:02Z</time>
      </trkpt>
      <trkpt lat="42.320863" lon="1.763975">
        <ele>1618.4</ele>
        <time>2022-07-03T09:27:06Z</time>
      </trkpt>
      <trkpt lat="42.320810" lon="1.763994">
        <ele>1618.7</ele>
        <time>2022-07-03T09:27:10Z</time>
      </trkpt>
      <trkpt lat="42.320756" lon="1.764008">
        <ele>1618.7</ele>
        <time>2022-07-03T09:27:14Z</time>
      </trkpt>
      <trkpt lat="42.320702" lon="1.764001">
        <ele>1619.5</ele>
        <time>2022-07-03T09:27:17Z</time>
      </trkpt>
      <trkpt lat="42.320637" lon="1.763990">
        <ele>1620.3</ele>
        <time>2022-07-03T09:27:21Z</time>
      </trkpt>
      <trkpt lat="42.320576" lon="1.763994">
        <ele>1621.1</ele>
        <time>2022-07-03T09:27:25Z</time>
      </trkpt>
      <trkpt lat="42.320502" lon="1.763997">
        <ele>1621.7</ele>
        <time>2022-07-03T09:27:29Z</time>
      </trkpt>
      <trkpt lat="42.320435" lon="1.763993">
        <ele>1622.2</ele>
        <time>2022-07-03T09:27:33Z</time>
      </trkpt>
      <trkpt lat="42.320370" lon="1.763977">
        <ele>1622.6</ele>
        <time>2022-07-03T09:27:37Z</time>
      </trkpt>
      <trkpt lat="42.320314" lon="1.763986">
        <ele>1622.9</ele>
        <time>2022-07-03T09:27:40Z</time>
      </trkpt>
      <trkpt lat="42.320254" lon="1.763991">
        <ele>1623.4</ele>
        <time>2022-07-03T09:27:44Z</time>
      </trkpt>
      <trkpt lat="42.320199" lon="1.763999">
        <ele>1623.8</ele>
        <time>2022-07-03T09:27:47Z</time>
      </trkpt>
      <trkpt lat="42.320135" lon="1.763976">
        <ele>1623.8</ele>
        <time>2022-07-03T09:27:51Z</time>
      </trkpt>
      <trkpt lat="42.320080" lon="1.763969">
        <ele>1625.1</ele>
        <time>2022-07-03T09:27:55Z</time>
      </trkpt>
      <trkpt lat="42.320023" lon="1.763961">
        <ele>1626.1</ele>
        <time>2022-07-03T09:27:59Z</time>
      </trkpt>
      <trkpt lat="42.319955" lon="1.763968">
        <ele>1627.2</ele>
        <time>2022-07-03T09:28:04Z</time>
      </trkpt>
      <trkpt lat="42.319900" lon="1.763970">
        <ele>1627.6</ele>
        <time>2022-07-03T09:28:07Z</time>
      </trkpt>
      <trkpt lat="42.319839" lon="1.763953">
        <ele>1628.3</ele>
        <time>2022-07-03T09:28:11Z</time>
      </trkpt>
      <trkpt lat="42.319779" lon="1.763925">
        <ele>1629.4</ele>
        <time>2022-07-03T09:28:24Z</time>
      </trkpt>
      <trkpt lat="42.319712" lon="1.763932">
        <ele>1629.8</ele>
        <time>2022-07-03T09:28:33Z</time>
      </trkpt>
      <trkpt lat="42.319663" lon="1.763967">
        <ele>1630.1</ele>
        <time>2022-07-03T09:28:37Z</time>
      </trkpt>
      <trkpt lat="42.319608" lon="1.763986">
        <ele>1630.6</ele>
        <time>2022-07-03T09:28:43Z</time>
      </trkpt>
      <trkpt lat="42.319539" lon="1.763957">
        <ele>1630.7</ele>
        <time>2022-07-03T09:28:47Z</time>
      </trkpt>
      <trkpt lat="42.319480" lon="1.763933">
        <ele>1631.2</ele>
        <time>2022-07-03T09:28:50Z</time>
      </trkpt>
      <trkpt lat="42.319425" lon="1.763929">
        <ele>1631.2</ele>
        <time>2022-07-03T09:28:53Z</time>
      </trkpt>
      <trkpt lat="42.319357" lon="1.763910">
        <ele>1631.5</ele>
        <time>2022-07-03T09:28:56Z</time>
      </trkpt>
      <trkpt lat="42.319294" lon="1.763889">
        <ele>1631.6</ele>
        <time>2022-07-03T09:28:59Z</time>
      </trkpt>
      <trkpt lat="42.319228" lon="1.763888">
        <ele>1631.8</ele>
        <time>2022-07-03T09:29:02Z</time>
      </trkpt>
      <trkpt lat="42.319149" lon="1.763898">
        <ele>1631.8</ele>
        <time>2022-07-03T09:29:05Z</time>
      </trkpt>
      <trkpt lat="42.319092" lon="1.763890">
        <ele>1631.5</ele>
        <time>2022-07-03T09:30:34Z</time>
      </trkpt>
      <trkpt lat="42.319029" lon="1.763920">
        <ele>1630.4</ele>
        <time>2022-07-03T09:30:37Z</time>
      </trkpt>
      <trkpt lat="42.318966" lon="1.763940">
        <ele>1630.2</ele>
        <time>2022-07-03T09:30:39Z</time>
      </trkpt>
      <trkpt lat="42.318910" lon="1.763952">
        <ele>1629.8</ele>
        <time>2022-07-03T09:30:41Z</time>
      </trkpt>
      <trkpt lat="42.318825" lon="1.764000">
        <ele>1629.4</ele>
        <time>2022-07-03T09:30:43Z</time>
      </trkpt>
      <trkpt lat="42.318759" lon="1.764021">
        <ele>1629.4</ele>
        <time>2022-07-03T09:30:45Z</time>
      </trkpt>
      <trkpt lat="42.318697" lon="1.764057">
        <ele>1629.5</ele>
        <time>2022-07-03T09:30:47Z</time>
      </trkpt>
      <trkpt lat="42.318642" lon="1.764063">
        <ele>1629.4</ele>
        <time>2022-07-03T09:30:49Z</time>
      </trkpt>
      <trkpt lat="42.318572" lon="1.764048">
        <ele>1629.8</ele>
        <time>2022-07-03T09:30:52Z</time>
      </trkpt>
      <trkpt lat="42.318501" lon="1.764036">
        <ele>1630.1</ele>
        <time>2022-07-03T09:30:55Z</time>
      </trkpt>
      <trkpt lat="42.318433" lon="1.764021">
        <ele>1630.4</ele>
        <time>2022-07-03T09:30:58Z</time>
      </trkpt>
      <trkpt lat="42.318360" lon="1.764017">
        <ele>1630.8</ele>
        <time>2022-07-03T09:31:01Z</time>
      </trkpt>
      <trkpt lat="42.318277" lon="1.763981">
        <ele>1631.1</ele>
        <time>2022-07-03T09:31:04Z</time>
      </trkpt>
      <trkpt lat="42.318203" lon="1.763964">
        <ele>1631.2</ele>
        <time>2022-07-03T09:31:06Z</time>
      </trkpt>
      <trkpt lat="42.318137" lon="1.763955">
        <ele>1630.9</ele>
        <time>2022-07-03T09:31:08Z</time>
      </trkpt>
      <trkpt lat="42.318061" lon="1.763952">
        <ele>1630.8</ele>
        <time>2022-07-03T09:31:10Z</time>
      </trkpt>
      <trkpt lat="42.317998" lon="1.763954">
        <ele>1631.3</ele>
        <time>2022-07-03T09:31:12Z</time>
      </trkpt>
      <trkpt lat="42.317939" lon="1.763946">
        <ele>1631.3</ele>
        <time>2022-07-03T09:31:14Z</time>
      </trkpt>
      <trkpt lat="42.317866" lon="1.763965">
        <ele>1631.4</ele>
        <time>2022-07-03T09:31:16Z</time>
      </trkpt>
      <trkpt lat="42.317794" lon="1.763962">
        <ele>1631.6</ele>
        <time>2022-07-03T09:31:18Z</time>
      </trkpt>
      <trkpt lat="42.317728" lon="1.763967">
        <ele>1631.7</ele>
        <time>2022-07-03T09:31:20Z</time>
      </trkpt>
      <trkpt lat="42.317660" lon="1.763963">
        <ele>1631.9</ele>
        <time>2022-07-03T09:31:22Z</time>
      </trkpt>
      <trkpt lat="42.317603" lon="1.763983">
        <ele>1631.9</ele>
        <time>2022-07-03T09:31:24Z</time>
      </trkpt>
      <trkpt lat="42.317522" lon="1.763974">
        <ele>1633.1</ele>
        <time>2022-07-03T09:31:26Z</time>
      </trkpt>
      <trkpt lat="42.317436" lon="1.763972">
        <ele>1632.5</ele>
        <time>2022-07-03T09:31:28Z</time>
      </trkpt>
      <trkpt lat="42.317360" lon="1.763986">
        <ele>1632.4</ele>
        <time>2022-07-03T09:31:30Z</time>
      </trkpt>
      <trkpt lat="42.317299" lon="1.764011">
        <ele>1631.4</ele>
        <time>2022-07-03T09:31:32Z</time>
      </trkpt>
      <trkpt lat="42.317219" lon="1.764081">
        <ele>1630.5</ele>
        <time>2022-07-03T09:31:35Z</time>
      </trkpt>
      <trkpt lat="42.317120" lon="1.764109">
        <ele>1629.8</ele>
        <time>2022-07-03T09:31:37Z</time>
      </trkpt>
      <trkpt lat="42.317014" lon="1.764128">
        <ele>1627.8</ele>
        <time>2022-07-03T09:31:39Z</time>
      </trkpt>
      <trkpt lat="42.316923" lon="1.764155">
        <ele>1627.4</ele>
        <time>2022-07-03T09:31:41Z</time>
      </trkpt>
      <trkpt lat="42.316825" lon="1.764139">
        <ele>1627.2</ele>
        <time>2022-07-03T09:31:43Z</time>
      </trkpt>
      <trkpt lat="42.316754" lon="1.764156">
        <ele>1625.2</ele>
        <time>2022-07-03T09:31:45Z</time>
      </trkpt>
      <trkpt lat="42.316679" lon="1.764188">
        <ele>1624.3</ele>
        <time>2022-07-03T09:31:47Z</time>
      </trkpt>
      <trkpt lat="42.316599" lon="1.764224">
        <ele>1622.4</ele>
        <time>2022-07-03T09:31:49Z</time>
      </trkpt>
      <trkpt lat="42.316518" lon="1.764263">
        <ele>1622.0</ele>
        <time>2022-07-03T09:31:51Z</time>
      </trkpt>
      <trkpt lat="42.316433" lon="1.764238">
        <ele>1621.1</ele>
        <time>2022-07-03T09:31:53Z</time>
      </trkpt>
      <trkpt lat="42.316371" lon="1.764193">
        <ele>1620.6</ele>
        <time>2022-07-03T09:31:54Z</time>
      </trkpt>
      <trkpt lat="42.316313" lon="1.764178">
        <ele>1620.4</ele>
        <time>2022-07-03T09:31:55Z</time>
      </trkpt>
      <trkpt lat="42.316253" lon="1.764159">
        <ele>1620.3</ele>
        <time>2022-07-03T09:31:56Z</time>
      </trkpt>
      <trkpt lat="42.316186" lon="1.764142">
        <ele>1620.0</ele>
        <time>2022-07-03T09:31:57Z</time>
      </trkpt>
      <trkpt lat="42.316072" lon="1.764164">
        <ele>1619.5</ele>
        <time>2022-07-03T09:31:59Z</time>
      </trkpt>
      <trkpt lat="42.315967" lon="1.764186">
        <ele>1618.5</ele>
        <time>2022-07-03T09:32:01Z</time>
      </trkpt>
      <trkpt lat="42.315875" lon="1.764238">
        <ele>1617.3</ele>
        <time>2022-07-03T09:32:03Z</time>
      </trkpt>
      <trkpt lat="42.315802" lon="1.764271">
        <ele>1616.7</ele>
        <time>2022-07-03T09:32:05Z</time>
      </trkpt>
      <trkpt lat="42.315700" lon="1.764251">
        <ele>1616.5</ele>
        <time>2022-07-03T09:32:06Z</time>
      </trkpt>
      <trkpt lat="42.315612" lon="1.764220">
        <ele>1616.0</ele>
        <time>2022-07-03T09:32:07Z</time>
      </trkpt>
      <trkpt lat="42.315483" lon="1.764169">
        <ele>1615.6</ele>
        <time>2022-07-03T09:32:08Z</time>
      </trkpt>
      <trkpt lat="42.315412" lon="1.764148">
        <ele>1615.6</ele>
        <time>2022-07-03T09:32:09Z</time>
      </trkpt>
      <trkpt lat="42.315351" lon="1.764130">
        <ele>1615.3</ele>
        <time>2022-07-03T09:32:10Z</time>
      </trkpt>
      <trkpt lat="42.315293" lon="1.764114">
        <ele>1615.8</ele>
        <time>2022-07-03T09:32:11Z</time>
      </trkpt>
      <trkpt lat="42.315202" lon="1.764086">
        <ele>1616.2</ele>
        <time>2022-07-03T09:32:13Z</time>
      </trkpt>
      <trkpt lat="42.315142" lon="1.764073">
        <ele>1616.3</ele>
        <time>2022-07-03T09:32:15Z</time>
      </trkpt>
      <trkpt lat="42.315054" lon="1.764052">
        <ele>1616.0</ele>
        <time>2022-07-03T09:32:17Z</time>
      </trkpt>
      <trkpt lat="42.314973" lon="1.764051">
        <ele>1614.8</ele>
        <time>2022-07-03T09:32:19Z</time>
      </trkpt>
      <trkpt lat="42.314914" lon="1.764058">
        <ele>1614.7</ele>
        <time>2022-07-03T09:32:20Z</time>
      </trkpt>
      <trkpt lat="42.314809" lon="1.764120">
        <ele>1614.3</ele>
        <time>2022-07-03T09:32:22Z</time>
      </trkpt>
      <trkpt lat="42.314742" lon="1.764181">
        <ele>1614.3</ele>
        <time>2022-07-03T09:32:24Z</time>
      </trkpt>
      <trkpt lat="42.314659" lon="1.764181">
        <ele>1614.3</ele>
        <time>2022-07-03T09:32:25Z</time>
      </trkpt>
      <trkpt lat="42.314594" lon="1.764186">
        <ele>1614.1</ele>
        <time>2022-07-03T09:32:27Z</time>
      </trkpt>
      <trkpt lat="42.314527" lon="1.764121">
        <ele>1613.7</ele>
        <time>2022-07-03T09:32:30Z</time>
      </trkpt>
      <trkpt lat="42.314486" lon="1.764069">
        <ele>1612.8</ele>
        <time>2022-07-03T09:32:32Z</time>
      </trkpt>
      <trkpt lat="42.314444" lon="1.764005">
        <ele>1613.2</ele>
        <time>2022-07-03T09:32:34Z</time>
      </trkpt>
      <trkpt lat="42.314379" lon="1.763890">
        <ele>1614.0</ele>
        <time>2022-07-03T09:32:37Z</time>
      </trkpt>
      <trkpt lat="42.314339" lon="1.763833">
        <ele>1614.1</ele>
        <time>2022-07-03T09:32:38Z</time>
      </trkpt>
      <trkpt lat="42.314275" lon="1.763749">
        <ele>1614.8</ele>
        <time>2022-07-03T09:32:40Z</time>
      </trkpt>
      <trkpt lat="42.314224" lon="1.763703">
        <ele>1615.6</ele>
        <time>2022-07-03T09:32:43Z</time>
      </trkpt>
      <trkpt lat="42.314191" lon="1.763625">
        <ele>1615.3</ele>
        <time>2022-07-03T09:32:46Z</time>
      </trkpt>
      <trkpt lat="42.314167" lon="1.763537">
        <ele>1613.9</ele>
        <time>2022-07-03T09:32:49Z</time>
      </trkpt>
      <trkpt lat="42.314160" lon="1.763444">
        <ele>1612.6</ele>
        <time>2022-07-03T09:32:51Z</time>
      </trkpt>
      <trkpt lat="42.314128" lon="1.763325">
        <ele>1612.9</ele>
        <time>2022-07-03T09:32:53Z</time>
      </trkpt>
      <trkpt lat="42.314063" lon="1.763203">
        <ele>1613.2</ele>
        <time>2022-07-03T09:32:56Z</time>
      </trkpt>
      <trkpt lat="42.313991" lon="1.763141">
        <ele>1612.0</ele>
        <time>2022-07-03T09:32:59Z</time>
      </trkpt>
      <trkpt lat="42.313952" lon="1.763079">
        <ele>1612.4</ele>
        <time>2022-07-03T09:33:01Z</time>
      </trkpt>
      <trkpt lat="42.313911" lon="1.763016">
        <ele>1612.4</ele>
        <time>2022-07-03T09:33:03Z</time>
      </trkpt>
      <trkpt lat="42.313859" lon="1.762963">
        <ele>1612.7</ele>
        <time>2022-07-03T09:33:05Z</time>
      </trkpt>
      <trkpt lat="42.313820" lon="1.762896">
        <ele>1613.1</ele>
        <time>2022-07-03T09:33:07Z</time>
      </trkpt>
      <trkpt lat="42.313783" lon="1.762833">
        <ele>1613.6</ele>
        <time>2022-07-03T09:33:10Z</time>
      </trkpt>
      <trkpt lat="42.313723" lon="1.762802">
        <ele>1614.1</ele>
        <time>2022-07-03T09:33:13Z</time>
      </trkpt>
      <trkpt lat="42.313646" lon="1.762809">
        <ele>1614.6</ele>
        <time>2022-07-03T09:33:16Z</time>
      </trkpt>
      <trkpt lat="42.313588" lon="1.762813">
        <ele>1614.7</ele>
        <time>2022-07-03T09:33:18Z</time>
      </trkpt>
      <trkpt lat="42.313536" lon="1.762790">
        <ele>1614.8</ele>
        <time>2022-07-03T09:33:24Z</time>
      </trkpt>
      <trkpt lat="42.313469" lon="1.762823">
        <ele>1614.7</ele>
        <time>2022-07-03T09:33:29Z</time>
      </trkpt>
      <trkpt lat="42.313414" lon="1.762848">
        <ele>1614.1</ele>
        <time>2022-07-03T09:33:31Z</time>
      </trkpt>
      <trkpt lat="42.313345" lon="1.762920">
        <ele>1613.5</ele>
        <time>2022-07-03T09:33:33Z</time>
      </trkpt>
      <trkpt lat="42.313273" lon="1.762976">
        <ele>1612.8</ele>
        <time>2022-07-03T09:33:35Z</time>
      </trkpt>
      <trkpt lat="42.313204" lon="1.762991">
        <ele>1612.3</ele>
        <time>2022-07-03T09:33:37Z</time>
      </trkpt>
      <trkpt lat="42.313131" lon="1.763004">
        <ele>1612.5</ele>
        <time>2022-07-03T09:33:39Z</time>
      </trkpt>
      <trkpt lat="42.313058" lon="1.763028">
        <ele>1611.7</ele>
        <time>2022-07-03T09:33:41Z</time>
      </trkpt>
      <trkpt lat="42.312999" lon="1.763041">
        <ele>1611.0</ele>
        <time>2022-07-03T09:33:43Z</time>
      </trkpt>
      <trkpt lat="42.312942" lon="1.763055">
        <ele>1610.7</ele>
        <time>2022-07-03T09:33:45Z</time>
      </trkpt>
      <trkpt lat="42.312869" lon="1.763021">
        <ele>1610.4</ele>
        <time>2022-07-03T09:33:48Z</time>
      </trkpt>
      <trkpt lat="42.312816" lon="1.763005">
        <ele>1610.0</ele>
        <time>2022-07-03T09:33:50Z</time>
      </trkpt>
      <trkpt lat="42.312725" lon="1.762983">
        <ele>1609.9</ele>
        <time>2022-07-03T09:33:52Z</time>
      </trkpt>
      <trkpt lat="42.312639" lon="1.762974">
        <ele>1609.5</ele>
        <time>2022-07-03T09:33:54Z</time>
      </trkpt>
      <trkpt lat="42.312556" lon="1.762976">
        <ele>1609.0</ele>
        <time>2022-07-03T09:33:56Z</time>
      </trkpt>
      <trkpt lat="42.312484" lon="1.762999">
        <ele>1608.9</ele>
        <time>2022-07-03T09:33:58Z</time>
      </trkpt>
      <trkpt lat="42.312446" lon="1.762883">
        <ele>1608.9</ele>
        <time>2022-07-03T09:34:00Z</time>
      </trkpt>
      <trkpt lat="42.312420" lon="1.762798">
        <ele>1608.9</ele>
        <time>2022-07-03T09:34:02Z</time>
      </trkpt>
      <trkpt lat="42.312392" lon="1.762712">
        <ele>1609.4</ele>
        <time>2022-07-03T09:34:05Z</time>
      </trkpt>
      <trkpt lat="42.312347" lon="1.762609">
        <ele>1609.8</ele>
        <time>2022-07-03T09:34:08Z</time>
      </trkpt>
      <trkpt lat="42.312311" lon="1.762543">
        <ele>1610.3</ele>
        <time>2022-07-03T09:34:10Z</time>
      </trkpt>
      <trkpt lat="42.312277" lon="1.762484">
        <ele>1610.8</ele>
        <time>2022-07-03T09:34:12Z</time>
      </trkpt>
      <trkpt lat="42.312230" lon="1.762428">
        <ele>1611.7</ele>
        <time>2022-07-03T09:34:15Z</time>
      </trkpt>
      <trkpt lat="42.312183" lon="1.762386">
        <ele>1612.9</ele>
        <time>2022-07-03T09:34:19Z</time>
      </trkpt>
      <trkpt lat="42.312135" lon="1.762338">
        <ele>1614.0</ele>
        <time>2022-07-03T09:34:23Z</time>
      </trkpt>
      <trkpt lat="42.312082" lon="1.762285">
        <ele>1614.7</ele>
        <time>2022-07-03T09:34:26Z</time>
      </trkpt>
      <trkpt lat="42.312028" lon="1.762277">
        <ele>1615.2</ele>
        <time>2022-07-03T09:34:29Z</time>
      </trkpt>
      <trkpt lat="42.311960" lon="1.762279">
        <ele>1615.1</ele>
        <time>2022-07-03T09:34:32Z</time>
      </trkpt>
      <trkpt lat="42.311897" lon="1.762299">
        <ele>1615.0</ele>
        <time>2022-07-03T09:34:34Z</time>
      </trkpt>
      <trkpt lat="42.311834" lon="1.762322">
        <ele>1614.6</ele>
        <time>2022-07-03T09:34:36Z</time>
      </trkpt>
      <trkpt lat="42.311743" lon="1.762333">
        <ele>1614.4</ele>
        <time>2022-07-03T09:34:38Z</time>
      </trkpt>
      <trkpt lat="42.311651" lon="1.762356">
        <ele>1612.9</ele>
        <time>2022-07-03T09:34:40Z</time>
      </trkpt>
      <trkpt lat="42.311577" lon="1.762365">
        <ele>1612.6</ele>
        <time>2022-07-03T09:34:42Z</time>
      </trkpt>
      <trkpt lat="42.311506" lon="1.762348">
        <ele>1612.4</ele>
        <time>2022-07-03T09:34:44Z</time>
      </trkpt>
      <trkpt lat="42.311445" lon="1.762355">
        <ele>1612.4</ele>
        <time>2022-07-03T09:34:46Z</time>
      </trkpt>
      <trkpt lat="42.311381" lon="1.762335">
        <ele>1612.4</ele>
        <time>2022-07-03T09:34:48Z</time>
      </trkpt>
      <trkpt lat="42.311319" lon="1.762321">
        <ele>1611.8</ele>
        <time>2022-07-03T09:34:50Z</time>
      </trkpt>
      <trkpt lat="42.311256" lon="1.762327">
        <ele>1611.4</ele>
        <time>2022-07-03T09:34:52Z</time>
      </trkpt>
      <trkpt lat="42.311167" lon="1.762352">
        <ele>1609.9</ele>
        <time>2022-07-03T09:34:54Z</time>
      </trkpt>
      <trkpt lat="42.311096" lon="1.762386">
        <ele>1609.2</ele>
        <time>2022-07-03T09:34:56Z</time>
      </trkpt>
      <trkpt lat="42.311036" lon="1.762431">
        <ele>1608.1</ele>
        <time>2022-07-03T09:34:59Z</time>
      </trkpt>
      <trkpt lat="42.310977" lon="1.762384">
        <ele>1607.1</ele>
        <time>2022-07-03T09:35:02Z</time>
      </trkpt>
      <trkpt lat="42.310931" lon="1.762303">
        <ele>1605.5</ele>
        <time>2022-07-03T09:35:05Z</time>
      </trkpt>
      <trkpt lat="42.310868" lon="1.762222">
        <ele>1604.6</ele>
        <time>2022-07-03T09:35:08Z</time>
      </trkpt>
      <trkpt lat="42.310811" lon="1.762149">
        <ele>1602.9</ele>
        <time>2022-07-03T09:35:11Z</time>
      </trkpt>
      <trkpt lat="42.310771" lon="1.762054">
        <ele>1602.5</ele>
        <time>2022-07-03T09:35:12Z</time>
      </trkpt>
      <trkpt lat="42.310740" lon="1.761984">
        <ele>1601.7</ele>
        <time>2022-07-03T09:35:13Z</time>
      </trkpt>
      <trkpt lat="42.310721" lon="1.761911">
        <ele>1600.7</ele>
        <time>2022-07-03T09:35:15Z</time>
      </trkpt>
      <trkpt lat="42.310690" lon="1.761847">
        <ele>1599.7</ele>
        <time>2022-07-03T09:35:19Z</time>
      </trkpt>
      <trkpt lat="42.310655" lon="1.761779">
        <ele>1599.5</ele>
        <time>2022-07-03T09:35:23Z</time>
      </trkpt>
      <trkpt lat="42.310627" lon="1.761702">
        <ele>1599.9</ele>
        <time>2022-07-03T09:35:26Z</time>
      </trkpt>
      <trkpt lat="42.310630" lon="1.761605">
        <ele>1600.7</ele>
        <time>2022-07-03T09:35:36Z</time>
      </trkpt>
      <trkpt lat="42.310627" lon="1.761526">
        <ele>1600.5</ele>
        <time>2022-07-03T09:35:40Z</time>
      </trkpt>
      <trkpt lat="42.310615" lon="1.761450">
        <ele>1600.7</ele>
        <time>2022-07-03T09:35:44Z</time>
      </trkpt>
      <trkpt lat="42.310586" lon="1.761358">
        <ele>1601.1</ele>
        <time>2022-07-03T09:35:47Z</time>
      </trkpt>
      <trkpt lat="42.310603" lon="1.761288">
        <ele>1602.1</ele>
        <time>2022-07-03T09:35:52Z</time>
      </trkpt>
      <trkpt lat="42.310650" lon="1.761230">
        <ele>1602.9</ele>
        <time>2022-07-03T09:36:00Z</time>
      </trkpt>
      <trkpt lat="42.310644" lon="1.761147">
        <ele>1603.3</ele>
        <time>2022-07-03T09:36:05Z</time>
      </trkpt>
      <trkpt lat="42.310667" lon="1.761076">
        <ele>1603.6</ele>
        <time>2022-07-03T09:36:11Z</time>
      </trkpt>
      <trkpt lat="42.310653" lon="1.760998">
        <ele>1604.0</ele>
        <time>2022-07-03T09:36:15Z</time>
      </trkpt>
      <trkpt lat="42.310633" lon="1.760919">
        <ele>1603.8</ele>
        <time>2022-07-03T09:36:22Z</time>
      </trkpt>
      <trkpt lat="42.310633" lon="1.760840">
        <ele>1605.0</ele>
        <time>2022-07-03T09:36:32Z</time>
      </trkpt>
      <trkpt lat="42.310622" lon="1.760756">
        <ele>1605.6</ele>
        <time>2022-07-03T09:36:40Z</time>
      </trkpt>
      <trkpt lat="42.310622" lon="1.760682">
        <ele>1606.2</ele>
        <time>2022-07-03T09:36:47Z</time>
      </trkpt>
      <trkpt lat="42.310614" lon="1.760603">
        <ele>1607.3</ele>
        <time>2022-07-03T09:36:54Z</time>
      </trkpt>
      <trkpt lat="42.310628" lon="1.760532">
        <ele>1607.9</ele>
        <time>2022-07-03T09:36:59Z</time>
      </trkpt>
      <trkpt lat="42.310627" lon="1.760442">
        <ele>1609.9</ele>
        <time>2022-07-03T09:37:07Z</time>
      </trkpt>
      <trkpt lat="42.310616" lon="1.760367">
        <ele>1611.3</ele>
        <time>2022-07-03T09:37:15Z</time>
      </trkpt>
      <trkpt lat="42.310598" lon="1.760292">
        <ele>1612.6</ele>
        <time>2022-07-03T09:37:22Z</time>
      </trkpt>
      <trkpt lat="42.310577" lon="1.760196">
        <ele>1613.2</ele>
        <time>2022-07-03T09:37:26Z</time>
      </trkpt>
      <trkpt lat="42.310575" lon="1.760107">
        <ele>1613.9</ele>
        <time>2022-07-03T09:37:31Z</time>
      </trkpt>
      <trkpt lat="42.310573" lon="1.760034">
        <ele>1614.9</ele>
        <time>2022-07-03T09:37:38Z</time>
      </trkpt>
      <trkpt lat="42.310563" lon="1.759958">
        <ele>1615.8</ele>
        <time>2022-07-03T09:37:45Z</time>
      </trkpt>
      <trkpt lat="42.310531" lon="1.759895">
        <ele>1615.9</ele>
        <time>2022-07-03T09:37:50Z</time>
      </trkpt>
      <trkpt lat="42.310483" lon="1.759839">
        <ele>1616.4</ele>
        <time>2022-07-03T09:37:56Z</time>
      </trkpt>
      <trkpt lat="42.310429" lon="1.759792">
        <ele>1616.7</ele>
        <time>2022-07-03T09:37:59Z</time>
      </trkpt>
      <trkpt lat="42.310357" lon="1.759719">
        <ele>1617.0</ele>
        <time>2022-07-03T09:38:03Z</time>
      </trkpt>
      <trkpt lat="42.310284" lon="1.759701">
        <ele>1616.9</ele>
        <time>2022-07-03T09:38:06Z</time>
      </trkpt>
      <trkpt lat="42.310222" lon="1.759681">
        <ele>1616.7</ele>
        <time>2022-07-03T09:38:08Z</time>
      </trkpt>
      <trkpt lat="42.310167" lon="1.759676">
        <ele>1616.3</ele>
        <time>2022-07-03T09:38:10Z</time>
      </trkpt>
      <trkpt lat="42.310107" lon="1.759677">
        <ele>1616.6</ele>
        <time>2022-07-03T09:38:13Z</time>
      </trkpt>
      <trkpt lat="42.310052" lon="1.759680">
        <ele>1617.1</ele>
        <time>2022-07-03T09:38:17Z</time>
      </trkpt>
      <trkpt lat="42.309987" lon="1.759645">
        <ele>1617.5</ele>
        <time>2022-07-03T09:38:19Z</time>
      </trkpt>
      <trkpt lat="42.309931" lon="1.759627">
        <ele>1617.9</ele>
        <time>2022-07-03T09:38:22Z</time>
      </trkpt>
      <trkpt lat="42.309869" lon="1.759580">
        <ele>1618.5</ele>
        <time>2022-07-03T09:38:26Z</time>
      </trkpt>
      <trkpt lat="42.309820" lon="1.759544">
        <ele>1619.2</ele>
        <time>2022-07-03T09:38:30Z</time>
      </trkpt>
      <trkpt lat="42.309766" lon="1.759491">
        <ele>1620.1</ele>
        <time>2022-07-03T09:38:33Z</time>
      </trkpt>
      <trkpt lat="42.309717" lon="1.759457">
        <ele>1620.6</ele>
        <time>2022-07-03T09:38:35Z</time>
      </trkpt>
      <trkpt lat="42.309654" lon="1.759442">
        <ele>1621.5</ele>
        <time>2022-07-03T09:38:38Z</time>
      </trkpt>
      <trkpt lat="42.309586" lon="1.759435">
        <ele>1622.5</ele>
        <time>2022-07-03T09:38:42Z</time>
      </trkpt>
      <trkpt lat="42.309520" lon="1.759427">
        <ele>1623.5</ele>
        <time>2022-07-03T09:38:46Z</time>
      </trkpt>
      <trkpt lat="42.309452" lon="1.759423">
        <ele>1623.2</ele>
        <time>2022-07-03T09:38:50Z</time>
      </trkpt>
      <trkpt lat="42.309371" lon="1.759437">
        <ele>1622.8</ele>
        <time>2022-07-03T09:38:53Z</time>
      </trkpt>
      <trkpt lat="42.309297" lon="1.759407">
        <ele>1622.9</ele>
        <time>2022-07-03T09:38:56Z</time>
      </trkpt>
      <trkpt lat="42.309230" lon="1.759398">
        <ele>1623.5</ele>
        <time>2022-07-03T09:38:59Z</time>
      </trkpt>
      <trkpt lat="42.309170" lon="1.759366">
        <ele>1624.0</ele>
        <time>2022-07-03T09:39:02Z</time>
      </trkpt>
      <trkpt lat="42.309114" lon="1.759333">
        <ele>1624.6</ele>
        <time>2022-07-03T09:39:06Z</time>
      </trkpt>
      <trkpt lat="42.309069" lon="1.759277">
        <ele>1625.0</ele>
        <time>2022-07-03T09:39:09Z</time>
      </trkpt>
      <trkpt lat="42.309011" lon="1.759231">
        <ele>1624.9</ele>
        <time>2022-07-03T09:39:11Z</time>
      </trkpt>
      <trkpt lat="42.308940" lon="1.759235">
        <ele>1624.8</ele>
        <time>2022-07-03T09:39:13Z</time>
      </trkpt>
      <trkpt lat="42.308868" lon="1.759253">
        <ele>1624.6</ele>
        <time>2022-07-03T09:39:15Z</time>
      </trkpt>
      <trkpt lat="42.308795" lon="1.759275">
        <ele>1624.5</ele>
        <time>2022-07-03T09:39:17Z</time>
      </trkpt>
      <trkpt lat="42.308733" lon="1.759289">
        <ele>1624.3</ele>
        <time>2022-07-03T09:39:19Z</time>
      </trkpt>
      <trkpt lat="42.308682" lon="1.759314">
        <ele>1624.0</ele>
        <time>2022-07-03T09:39:21Z</time>
      </trkpt>
      <trkpt lat="42.308625" lon="1.759352">
        <ele>1623.6</ele>
        <time>2022-07-03T09:39:23Z</time>
      </trkpt>
      <trkpt lat="42.308557" lon="1.759359">
        <ele>1623.0</ele>
        <time>2022-07-03T09:39:26Z</time>
      </trkpt>
      <trkpt lat="42.308498" lon="1.759392">
        <ele>1622.5</ele>
        <time>2022-07-03T09:39:28Z</time>
      </trkpt>
      <trkpt lat="42.308448" lon="1.759424">
        <ele>1621.7</ele>
        <time>2022-07-03T09:39:30Z</time>
      </trkpt>
      <trkpt lat="42.308379" lon="1.759444">
        <ele>1621.5</ele>
        <time>2022-07-03T09:39:32Z</time>
      </trkpt>
      <trkpt lat="42.308332" lon="1.759486">
        <ele>1620.9</ele>
        <time>2022-07-03T09:39:34Z</time>
      </trkpt>
      <trkpt lat="42.308271" lon="1.759529">
        <ele>1619.7</ele>
        <time>2022-07-03T09:39:37Z</time>
      </trkpt>
      <trkpt lat="42.308214" lon="1.759575">
        <ele>1619.0</ele>
        <time>2022-07-03T09:39:41Z</time>
      </trkpt>
      <trkpt lat="42.308138" lon="1.759564">
        <ele>1619.2</ele>
        <time>2022-07-03T09:39:43Z</time>
      </trkpt>
      <trkpt lat="42.308084" lon="1.759552">
        <ele>1618.9</ele>
        <time>2022-07-03T09:39:45Z</time>
      </trkpt>
      <trkpt lat="42.308000" lon="1.759541">
        <ele>1619.0</ele>
        <time>2022-07-03T09:39:48Z</time>
      </trkpt>
      <trkpt lat="42.307940" lon="1.759522">
        <ele>1619.2</ele>
        <time>2022-07-03T09:39:51Z</time>
      </trkpt>
      <trkpt lat="42.307898" lon="1.759452">
        <ele>1618.7</ele>
        <time>2022-07-03T09:39:57Z</time>
      </trkpt>
      <trkpt lat="42.307867" lon="1.759386">
        <ele>1618.0</ele>
        <time>2022-07-03T09:40:00Z</time>
      </trkpt>
      <trkpt lat="42.307817" lon="1.759282">
        <ele>1617.3</ele>
        <time>2022-07-03T09:40:03Z</time>
      </trkpt>
      <trkpt lat="42.307781" lon="1.759224">
        <ele>1616.1</ele>
        <time>2022-07-03T09:40:05Z</time>
      </trkpt>
      <trkpt lat="42.307736" lon="1.759173">
        <ele>1615.4</ele>
        <time>2022-07-03T09:40:07Z</time>
      </trkpt>
      <trkpt lat="42.307699" lon="1.759115">
        <ele>1614.9</ele>
        <time>2022-07-03T09:40:10Z</time>
      </trkpt>
      <trkpt lat="42.307659" lon="1.759060">
        <ele>1614.7</ele>
        <time>2022-07-03T09:40:15Z</time>
      </trkpt>
      <trkpt lat="42.307627" lon="1.758993">
        <ele>1614.6</ele>
        <time>2022-07-03T09:40:17Z</time>
      </trkpt>
      <trkpt lat="42.307606" lon="1.758925">
        <ele>1614.5</ele>
        <time>2022-07-03T09:40:22Z</time>
      </trkpt>
      <trkpt lat="42.307561" lon="1.758884">
        <ele>1614.4</ele>
        <time>2022-07-03T09:40:35Z</time>
      </trkpt>
      <trkpt lat="42.307525" lon="1.758825">
        <ele>1614.3</ele>
        <time>2022-07-03T09:40:54Z</time>
      </trkpt>
      <trkpt lat="42.307461" lon="1.758793">
        <ele>1613.5</ele>
        <time>2022-07-03T09:40:59Z</time>
      </trkpt>
      <trkpt lat="42.307399" lon="1.758822">
        <ele>1612.2</ele>
        <time>2022-07-03T09:41:02Z</time>
      </trkpt>
      <trkpt lat="42.307341" lon="1.758815">
        <ele>1610.2</ele>
        <time>2022-07-03T09:41:06Z</time>
      </trkpt>
      <trkpt lat="42.307286" lon="1.758776">
        <ele>1608.1</ele>
        <time>2022-07-03T09:41:11Z</time>
      </trkpt>
      <trkpt lat="42.307250" lon="1.758720">
        <ele>1607.1</ele>
        <time>2022-07-03T09:41:14Z</time>
      </trkpt>
      <trkpt lat="42.307217" lon="1.758652">
        <ele>1604.8</ele>
        <time>2022-07-03T09:41:17Z</time>
      </trkpt>
      <trkpt lat="42.307171" lon="1.758588">
        <ele>1603.7</ele>
        <time>2022-07-03T09:41:19Z</time>
      </trkpt>
      <trkpt lat="42.307126" lon="1.758533">
        <ele>1603.4</ele>
        <time>2022-07-03T09:41:22Z</time>
      </trkpt>
      <trkpt lat="42.307074" lon="1.758442">
        <ele>1603.3</ele>
        <time>2022-07-03T09:41:25Z</time>
      </trkpt>
      <trkpt lat="42.307024" lon="1.758371">
        <ele>1603.7</ele>
        <time>2022-07-03T09:41:26Z</time>
      </trkpt>
      <trkpt lat="42.306980" lon="1.758303">
        <ele>1604.2</ele>
        <time>2022-07-03T09:41:27Z</time>
      </trkpt>
      <trkpt lat="42.306927" lon="1.758226">
        <ele>1604.5</ele>
        <time>2022-07-03T09:41:29Z</time>
      </trkpt>
      <trkpt lat="42.306888" lon="1.758158">
        <ele>1605.1</ele>
        <time>2022-07-03T09:41:32Z</time>
      </trkpt>
      <trkpt lat="42.306854" lon="1.758094">
        <ele>1606.1</ele>
        <time>2022-07-03T09:41:36Z</time>
      </trkpt>
      <trkpt lat="42.306815" lon="1.758043">
        <ele>1606.9</ele>
        <time>2022-07-03T09:41:42Z</time>
      </trkpt>
      <trkpt lat="42.306765" lon="1.757992">
        <ele>1608.1</ele>
        <time>2022-07-03T09:41:48Z</time>
      </trkpt>
      <trkpt lat="42.306725" lon="1.757935">
        <ele>1609.0</ele>
        <time>2022-07-03T09:41:53Z</time>
      </trkpt>
      <trkpt lat="42.306699" lon="1.757871">
        <ele>1609.9</ele>
        <time>2022-07-03T09:41:59Z</time>
      </trkpt>
      <trkpt lat="42.306654" lon="1.757826">
        <ele>1611.2</ele>
        <time>2022-07-03T09:42:07Z</time>
      </trkpt>
      <trkpt lat="42.306603" lon="1.757778">
        <ele>1612.3</ele>
        <time>2022-07-03T09:42:14Z</time>
      </trkpt>
      <trkpt lat="42.306549" lon="1.757741">
        <ele>1611.1</ele>
        <time>2022-07-03T09:42:24Z</time>
      </trkpt>
      <trkpt lat="42.306477" lon="1.757740">
        <ele>1610.7</ele>
        <time>2022-07-03T09:42:28Z</time>
      </trkpt>
      <trkpt lat="42.306412" lon="1.757746">
        <ele>1609.1</ele>
        <time>2022-07-03T09:42:32Z</time>
      </trkpt>
      <trkpt lat="42.306365" lon="1.757798">
        <ele>1607.9</ele>
        <time>2022-07-03T09:42:35Z</time>
      </trkpt>
      <trkpt lat="42.306259" lon="1.757820">
        <ele>1605.0</ele>
        <time>2022-07-03T09:42:39Z</time>
      </trkpt>
      <trkpt lat="42.306163" lon="1.757825">
        <ele>1604.0</ele>
        <time>2022-07-03T09:42:43Z</time>
      </trkpt>
      <trkpt lat="42.306087" lon="1.757866">
        <ele>1603.0</ele>
        <time>2022-07-03T09:42:47Z</time>
      </trkpt>
      <trkpt lat="42.305999" lon="1.757858">
        <ele>1603.0</ele>
        <time>2022-07-03T09:42:51Z</time>
      </trkpt>
      <trkpt lat="42.305932" lon="1.757843">
        <ele>1602.0</ele>
        <time>2022-07-03T09:42:55Z</time>
      </trkpt>
      <trkpt lat="42.305856" lon="1.757841">
        <ele>1603.0</ele>
        <time>2022-07-03T09:43:03Z</time>
      </trkpt>
      <trkpt lat="42.305799" lon="1.757840">
        <ele>1603.2</ele>
        <time>2022-07-03T09:43:07Z</time>
      </trkpt>
      <trkpt lat="42.305732" lon="1.757815">
        <ele>1602.9</ele>
        <time>2022-07-03T09:43:09Z</time>
      </trkpt>
      <trkpt lat="42.305676" lon="1.757823">
        <ele>1602.0</ele>
        <time>2022-07-03T09:43:12Z</time>
      </trkpt>
      <trkpt lat="42.305618" lon="1.757806">
        <ele>1601.4</ele>
        <time>2022-07-03T09:43:15Z</time>
      </trkpt>
      <trkpt lat="42.305525" lon="1.757769">
        <ele>1600.7</ele>
        <time>2022-07-03T09:43:17Z</time>
      </trkpt>
      <trkpt lat="42.305454" lon="1.757750">
        <ele>1599.9</ele>
        <time>2022-07-03T09:43:20Z</time>
      </trkpt>
      <trkpt lat="42.305389" lon="1.757727">
        <ele>1599.9</ele>
        <time>2022-07-03T09:43:21Z</time>
      </trkpt>
      <trkpt lat="42.305299" lon="1.757704">
        <ele>1599.4</ele>
        <time>2022-07-03T09:43:23Z</time>
      </trkpt>
      <trkpt lat="42.305210" lon="1.757712">
        <ele>1598.4</ele>
        <time>2022-07-03T09:43:25Z</time>
      </trkpt>
      <trkpt lat="42.305140" lon="1.757752">
        <ele>1597.9</ele>
        <time>2022-07-03T09:43:27Z</time>
      </trkpt>
      <trkpt lat="42.305064" lon="1.757755">
        <ele>1597.6</ele>
        <time>2022-07-03T09:43:29Z</time>
      </trkpt>
      <trkpt lat="42.304981" lon="1.757771">
        <ele>1596.8</ele>
        <time>2022-07-03T09:43:32Z</time>
      </trkpt>
      <trkpt lat="42.304906" lon="1.757802">
        <ele>1595.8</ele>
        <time>2022-07-03T09:43:34Z</time>
      </trkpt>
      <trkpt lat="42.304840" lon="1.757839">
        <ele>1594.2</ele>
        <time>2022-07-03T09:43:36Z</time>
      </trkpt>
      <trkpt lat="42.304763" lon="1.757862">
        <ele>1593.2</ele>
        <time>2022-07-03T09:43:38Z</time>
      </trkpt>
      <trkpt lat="42.304692" lon="1.757864">
        <ele>1592.8</ele>
        <time>2022-07-03T09:43:40Z</time>
      </trkpt>
      <trkpt lat="42.304628" lon="1.757881">
        <ele>1592.3</ele>
        <time>2022-07-03T09:43:43Z</time>
      </trkpt>
      <trkpt lat="42.304550" lon="1.757864">
        <ele>1592.1</ele>
        <time>2022-07-03T09:43:45Z</time>
      </trkpt>
      <trkpt lat="42.304490" lon="1.757864">
        <ele>1590.9</ele>
        <time>2022-07-03T09:43:47Z</time>
      </trkpt>
      <trkpt lat="42.304426" lon="1.757876">
        <ele>1590.2</ele>
        <time>2022-07-03T09:43:50Z</time>
      </trkpt>
      <trkpt lat="42.304389" lon="1.757935">
        <ele>1589.5</ele>
        <time>2022-07-03T09:43:52Z</time>
      </trkpt>
      <trkpt lat="42.304333" lon="1.757973">
        <ele>1588.7</ele>
        <time>2022-07-03T09:43:54Z</time>
      </trkpt>
      <trkpt lat="42.304279" lon="1.758010">
        <ele>1588.1</ele>
        <time>2022-07-03T09:43:56Z</time>
      </trkpt>
      <trkpt lat="42.304214" lon="1.758032">
        <ele>1587.4</ele>
        <time>2022-07-03T09:43:59Z</time>
      </trkpt>
      <trkpt lat="42.304161" lon="1.758056">
        <ele>1586.4</ele>
        <time>2022-07-03T09:44:02Z</time>
      </trkpt>
      <trkpt lat="42.304105" lon="1.758066">
        <ele>1585.5</ele>
        <time>2022-07-03T09:44:06Z</time>
      </trkpt>
      <trkpt lat="42.304039" lon="1.758057">
        <ele>1584.2</ele>
        <time>2022-07-03T09:44:25Z</time>
      </trkpt>
      <trkpt lat="42.304001" lon="1.758002">
        <ele>1583.3</ele>
        <time>2022-07-03T09:44:33Z</time>
      </trkpt>
      <trkpt lat="42.304008" lon="1.757918">
        <ele>1582.9</ele>
        <time>2022-07-03T09:44:39Z</time>
      </trkpt>
      <trkpt lat="42.304005" lon="1.757843">
        <ele>1582.1</ele>
        <time>2022-07-03T09:44:45Z</time>
      </trkpt>
      <trkpt lat="42.303988" lon="1.757765">
        <ele>1581.9</ele>
        <time>2022-07-03T09:44:50Z</time>
      </trkpt>
      <trkpt lat="42.303991" lon="1.757690">
        <ele>1582.7</ele>
        <time>2022-07-03T09:44:57Z</time>
      </trkpt>
      <trkpt lat="42.303980" lon="1.757617">
        <ele>1583.3</ele>
        <time>2022-07-03T09:45:17Z</time>
      </trkpt>
      <trkpt lat="42.303950" lon="1.757553">
        <ele>1582.9</ele>
        <time>2022-07-03T09:48:31Z</time>
      </trkpt>
      <trkpt lat="42.303987" lon="1.757440">
        <ele>1582.5</ele>
        <time>2022-07-03T09:48:34Z</time>
      </trkpt>
      <trkpt lat="42.304028" lon="1.757337">
        <ele>1581.7</ele>
        <time>2022-07-03T09:48:36Z</time>
      </trkpt>
      <trkpt lat="42.304059" lon="1.757245">
        <ele>1581.4</ele>
        <time>2022-07-03T09:48:38Z</time>
      </trkpt>
      <trkpt lat="42.304087" lon="1.757164">
        <ele>1581.9</ele>
        <time>2022-07-03T09:48:41Z</time>
      </trkpt>
      <trkpt lat="42.304133" lon="1.757098">
        <ele>1582.5</ele>
        <time>2022-07-03T09:48:45Z</time>
      </trkpt>
      <trkpt lat="42.304172" lon="1.757044">
        <ele>1582.8</ele>
        <time>2022-07-03T09:48:48Z</time>
      </trkpt>
      <trkpt lat="42.304226" lon="1.756992">
        <ele>1583.6</ele>
        <time>2022-07-03T09:48:51Z</time>
      </trkpt>
      <trkpt lat="42.304263" lon="1.756898">
        <ele>1584.7</ele>
        <time>2022-07-03T09:48:55Z</time>
      </trkpt>
      <trkpt lat="42.304291" lon="1.756819">
        <ele>1585.1</ele>
        <time>2022-07-03T09:48:58Z</time>
      </trkpt>
      <trkpt lat="42.304335" lon="1.756755">
        <ele>1585.7</ele>
        <time>2022-07-03T09:49:01Z</time>
      </trkpt>
      <trkpt lat="42.304381" lon="1.756698">
        <ele>1586.1</ele>
        <time>2022-07-03T09:49:04Z</time>
      </trkpt>
      <trkpt lat="42.304422" lon="1.756634">
        <ele>1586.6</ele>
        <time>2022-07-03T09:49:07Z</time>
      </trkpt>
      <trkpt lat="42.304460" lon="1.756580">
        <ele>1587.3</ele>
        <time>2022-07-03T09:49:10Z</time>
      </trkpt>
      <trkpt lat="42.304522" lon="1.756528">
        <ele>1588.2</ele>
        <time>2022-07-03T09:49:14Z</time>
      </trkpt>
      <trkpt lat="42.304566" lon="1.756461">
        <ele>1589.0</ele>
        <time>2022-07-03T09:49:18Z</time>
      </trkpt>
      <trkpt lat="42.304609" lon="1.756398">
        <ele>1590.0</ele>
        <time>2022-07-03T09:49:22Z</time>
      </trkpt>
      <trkpt lat="42.304643" lon="1.756320">
        <ele>1590.7</ele>
        <time>2022-07-03T09:49:26Z</time>
      </trkpt>
      <trkpt lat="42.304636" lon="1.756227">
        <ele>1591.4</ele>
        <time>2022-07-03T09:49:29Z</time>
      </trkpt>
      <trkpt lat="42.304624" lon="1.756154">
        <ele>1592.2</ele>
        <time>2022-07-03T09:49:32Z</time>
      </trkpt>
      <trkpt lat="42.304590" lon="1.756097">
        <ele>1592.7</ele>
        <time>2022-07-03T09:49:35Z</time>
      </trkpt>
      <trkpt lat="42.304535" lon="1.756059">
        <ele>1593.4</ele>
        <time>2022-07-03T09:49:39Z</time>
      </trkpt>
      <trkpt lat="42.304480" lon="1.756019">
        <ele>1594.2</ele>
        <time>2022-07-03T09:49:43Z</time>
      </trkpt>
      <trkpt lat="42.304437" lon="1.755971">
        <ele>1595.0</ele>
        <time>2022-07-03T09:49:47Z</time>
      </trkpt>
      <trkpt lat="42.304387" lon="1.755913">
        <ele>1595.7</ele>
        <time>2022-07-03T09:49:51Z</time>
      </trkpt>
      <trkpt lat="42.304339" lon="1.755855">
        <ele>1596.4</ele>
        <time>2022-07-03T09:49:56Z</time>
      </trkpt>
      <trkpt lat="42.304293" lon="1.755809">
        <ele>1597.1</ele>
        <time>2022-07-03T09:50:01Z</time>
      </trkpt>
      <trkpt lat="42.304241" lon="1.755762">
        <ele>1597.9</ele>
        <time>2022-07-03T09:50:05Z</time>
      </trkpt>
      <trkpt lat="42.304191" lon="1.755715">
        <ele>1598.7</ele>
        <time>2022-07-03T09:50:09Z</time>
      </trkpt>
      <trkpt lat="42.304143" lon="1.755666">
        <ele>1599.3</ele>
        <time>2022-07-03T09:50:13Z</time>
      </trkpt>
      <trkpt lat="42.304100" lon="1.755616">
        <ele>1600.1</ele>
        <time>2022-07-03T09:50:17Z</time>
      </trkpt>
      <trkpt lat="42.304051" lon="1.755536">
        <ele>1601.3</ele>
        <time>2022-07-03T09:50:23Z</time>
      </trkpt>
      <trkpt lat="42.304004" lon="1.755454">
        <ele>1602.3</ele>
        <time>2022-07-03T09:50:27Z</time>
      </trkpt>
      <trkpt lat="42.303969" lon="1.755393">
        <ele>1602.8</ele>
        <time>2022-07-03T09:50:30Z</time>
      </trkpt>
      <trkpt lat="42.303928" lon="1.755341">
        <ele>1603.6</ele>
        <time>2022-07-03T09:50:34Z</time>
      </trkpt>
      <trkpt lat="42.303887" lon="1.755293">
        <ele>1604.5</ele>
        <time>2022-07-03T09:50:39Z</time>
      </trkpt>
      <trkpt lat="42.303842" lon="1.755238">
        <ele>1605.5</ele>
        <time>2022-07-03T09:50:44Z</time>
      </trkpt>
      <trkpt lat="42.303788" lon="1.755162">
        <ele>1606.2</ele>
        <time>2022-07-03T09:50:48Z</time>
      </trkpt>
      <trkpt lat="42.303739" lon="1.755105">
        <ele>1607.1</ele>
        <time>2022-07-03T09:50:52Z</time>
      </trkpt>
      <trkpt lat="42.303682" lon="1.755058">
        <ele>1607.7</ele>
        <time>2022-07-03T09:50:56Z</time>
      </trkpt>
      <trkpt lat="42.303628" lon="1.755022">
        <ele>1608.5</ele>
        <time>2022-07-03T09:51:00Z</time>
      </trkpt>
      <trkpt lat="42.303562" lon="1.754986">
        <ele>1609.0</ele>
        <time>2022-07-03T09:51:04Z</time>
      </trkpt>
      <trkpt lat="42.303495" lon="1.754958">
        <ele>1609.7</ele>
        <time>2022-07-03T09:51:08Z</time>
      </trkpt>
      <trkpt lat="42.303441" lon="1.754927">
        <ele>1610.2</ele>
        <time>2022-07-03T09:51:11Z</time>
      </trkpt>
      <trkpt lat="42.303387" lon="1.754898">
        <ele>1611.0</ele>
        <time>2022-07-03T09:51:15Z</time>
      </trkpt>
      <trkpt lat="42.303333" lon="1.754873">
        <ele>1611.5</ele>
        <time>2022-07-03T09:51:18Z</time>
      </trkpt>
      <trkpt lat="42.303267" lon="1.754847">
        <ele>1612.2</ele>
        <time>2022-07-03T09:51:22Z</time>
      </trkpt>
      <trkpt lat="42.303201" lon="1.754859">
        <ele>1613.2</ele>
        <time>2022-07-03T09:51:27Z</time>
      </trkpt>
      <trkpt lat="42.303143" lon="1.754835">
        <ele>1614.1</ele>
        <time>2022-07-03T09:51:31Z</time>
      </trkpt>
      <trkpt lat="42.303080" lon="1.754819">
        <ele>1615.0</ele>
        <time>2022-07-03T09:51:35Z</time>
      </trkpt>
      <trkpt lat="42.303026" lon="1.754818">
        <ele>1615.5</ele>
        <time>2022-07-03T09:51:38Z</time>
      </trkpt>
      <trkpt lat="42.302963" lon="1.754828">
        <ele>1616.2</ele>
        <time>2022-07-03T09:51:42Z</time>
      </trkpt>
      <trkpt lat="42.302899" lon="1.754839">
        <ele>1617.1</ele>
        <time>2022-07-03T09:51:46Z</time>
      </trkpt>
      <trkpt lat="42.302840" lon="1.754857">
        <ele>1617.7</ele>
        <time>2022-07-03T09:51:49Z</time>
      </trkpt>
      <trkpt lat="42.302765" lon="1.754877">
        <ele>1618.1</ele>
        <time>2022-07-03T09:51:52Z</time>
      </trkpt>
      <trkpt lat="42.302702" lon="1.754871">
        <ele>1618.0</ele>
        <time>2022-07-03T09:51:54Z</time>
      </trkpt>
      <trkpt lat="42.302625" lon="1.754842">
        <ele>1618.3</ele>
        <time>2022-07-03T09:51:57Z</time>
      </trkpt>
      <trkpt lat="42.302560" lon="1.754791">
        <ele>1618.5</ele>
        <time>2022-07-03T09:52:00Z</time>
      </trkpt>
      <trkpt lat="42.302513" lon="1.754749">
        <ele>1618.6</ele>
        <time>2022-07-03T09:52:02Z</time>
      </trkpt>
      <trkpt lat="42.302469" lon="1.754695">
        <ele>1618.5</ele>
        <time>2022-07-03T09:52:04Z</time>
      </trkpt>
      <trkpt lat="42.302438" lon="1.754633">
        <ele>1618.4</ele>
        <time>2022-07-03T09:52:06Z</time>
      </trkpt>
      <trkpt lat="42.302422" lon="1.754544">
        <ele>1618.4</ele>
        <time>2022-07-03T09:52:08Z</time>
      </trkpt>
      <trkpt lat="42.302432" lon="1.754454">
        <ele>1618.2</ele>
        <time>2022-07-03T09:52:11Z</time>
      </trkpt>
      <trkpt lat="42.302497" lon="1.754420">
        <ele>1618.6</ele>
        <time>2022-07-03T09:52:15Z</time>
      </trkpt>
      <trkpt lat="42.302563" lon="1.754382">
        <ele>1619.1</ele>
        <time>2022-07-03T09:52:19Z</time>
      </trkpt>
      <trkpt lat="42.302619" lon="1.754342">
        <ele>1619.7</ele>
        <time>2022-07-03T09:52:22Z</time>
      </trkpt>
      <trkpt lat="42.302674" lon="1.754293">
        <ele>1620.5</ele>
        <time>2022-07-03T09:52:25Z</time>
      </trkpt>
      <trkpt lat="42.302719" lon="1.754244">
        <ele>1621.2</ele>
        <time>2022-07-03T09:52:28Z</time>
      </trkpt>
      <trkpt lat="42.302766" lon="1.754168">
        <ele>1621.6</ele>
        <time>2022-07-03T09:52:31Z</time>
      </trkpt>
      <trkpt lat="42.302801" lon="1.754088">
        <ele>1622.0</ele>
        <time>2022-07-03T09:52:34Z</time>
      </trkpt>
      <trkpt lat="42.302838" lon="1.754028">
        <ele>1622.3</ele>
        <time>2022-07-03T09:52:37Z</time>
      </trkpt>
      <trkpt lat="42.302873" lon="1.753971">
        <ele>1622.8</ele>
        <time>2022-07-03T09:52:40Z</time>
      </trkpt>
      <trkpt lat="42.302920" lon="1.753910">
        <ele>1623.3</ele>
        <time>2022-07-03T09:52:44Z</time>
      </trkpt>
      <trkpt lat="42.302959" lon="1.753859">
        <ele>1624.1</ele>
        <time>2022-07-03T09:52:48Z</time>
      </trkpt>
      <trkpt lat="42.302983" lon="1.753770">
        <ele>1624.7</ele>
        <time>2022-07-03T09:52:52Z</time>
      </trkpt>
      <trkpt lat="42.302984" lon="1.753687">
        <ele>1625.5</ele>
        <time>2022-07-03T09:52:56Z</time>
      </trkpt>
      <trkpt lat="42.302952" lon="1.753608">
        <ele>1626.5</ele>
        <time>2022-07-03T09:53:00Z</time>
      </trkpt>
      <trkpt lat="42.302917" lon="1.753551">
        <ele>1627.6</ele>
        <time>2022-07-03T09:53:04Z</time>
      </trkpt>
      <trkpt lat="42.302877" lon="1.753498">
        <ele>1628.5</ele>
        <time>2022-07-03T09:53:09Z</time>
      </trkpt>
      <trkpt lat="42.302829" lon="1.753437">
        <ele>1629.5</ele>
        <time>2022-07-03T09:53:14Z</time>
      </trkpt>
      <trkpt lat="42.302781" lon="1.753381">
        <ele>1630.3</ele>
        <time>2022-07-03T09:53:19Z</time>
      </trkpt>
      <trkpt lat="42.302717" lon="1.753343">
        <ele>1631.5</ele>
        <time>2022-07-03T09:53:25Z</time>
      </trkpt>
      <trkpt lat="42.302671" lon="1.753294">
        <ele>1632.4</ele>
        <time>2022-07-03T09:53:30Z</time>
      </trkpt>
      <trkpt lat="42.302616" lon="1.753236">
        <ele>1633.0</ele>
        <time>2022-07-03T09:53:34Z</time>
      </trkpt>
      <trkpt lat="42.302563" lon="1.753212">
        <ele>1633.8</ele>
        <time>2022-07-03T09:53:38Z</time>
      </trkpt>
      <trkpt lat="42.302496" lon="1.753183">
        <ele>1634.7</ele>
        <time>2022-07-03T09:53:42Z</time>
      </trkpt>
      <trkpt lat="42.302433" lon="1.753166">
        <ele>1635.2</ele>
        <time>2022-07-03T09:53:46Z</time>
      </trkpt>
      <trkpt lat="42.302373" lon="1.753125">
        <ele>1635.4</ele>
        <time>2022-07-03T09:53:49Z</time>
      </trkpt>
      <trkpt lat="42.302326" lon="1.753067">
        <ele>1635.9</ele>
        <time>2022-07-03T09:53:52Z</time>
      </trkpt>
      <trkpt lat="42.302290" lon="1.752995">
        <ele>1636.7</ele>
        <time>2022-07-03T09:53:56Z</time>
      </trkpt>
      <trkpt lat="42.302254" lon="1.752931">
        <ele>1637.2</ele>
        <time>2022-07-03T09:53:59Z</time>
      </trkpt>
      <trkpt lat="42.302200" lon="1.752858">
        <ele>1637.7</ele>
        <time>2022-07-03T09:54:03Z</time>
      </trkpt>
      <trkpt lat="42.302143" lon="1.752810">
        <ele>1637.8</ele>
        <time>2022-07-03T09:54:06Z</time>
      </trkpt>
      <trkpt lat="42.302075" lon="1.752772">
        <ele>1638.3</ele>
        <time>2022-07-03T09:54:09Z</time>
      </trkpt>
      <trkpt lat="42.302019" lon="1.752718">
        <ele>1638.6</ele>
        <time>2022-07-03T09:54:12Z</time>
      </trkpt>
      <trkpt lat="42.301961" lon="1.752677">
        <ele>1638.8</ele>
        <time>2022-07-03T09:54:14Z</time>
      </trkpt>
      <trkpt lat="42.301894" lon="1.752629">
        <ele>1639.4</ele>
        <time>2022-07-03T09:54:17Z</time>
      </trkpt>
      <trkpt lat="42.301834" lon="1.752595">
        <ele>1639.2</ele>
        <time>2022-07-03T09:54:20Z</time>
      </trkpt>
      <trkpt lat="42.301764" lon="1.752541">
        <ele>1639.7</ele>
        <time>2022-07-03T09:54:23Z</time>
      </trkpt>
      <trkpt lat="42.301708" lon="1.752514">
        <ele>1640.3</ele>
        <time>2022-07-03T09:54:26Z</time>
      </trkpt>
      <trkpt lat="42.301653" lon="1.752488">
        <ele>1640.9</ele>
        <time>2022-07-03T09:54:30Z</time>
      </trkpt>
      <trkpt lat="42.301600" lon="1.752433">
        <ele>1641.4</ele>
        <time>2022-07-03T09:54:34Z</time>
      </trkpt>
      <trkpt lat="42.301552" lon="1.752370">
        <ele>1642.1</ele>
        <time>2022-07-03T09:54:37Z</time>
      </trkpt>
      <trkpt lat="42.301520" lon="1.752302">
        <ele>1642.8</ele>
        <time>2022-07-03T09:54:40Z</time>
      </trkpt>
      <trkpt lat="42.301475" lon="1.752231">
        <ele>1643.5</ele>
        <time>2022-07-03T09:54:43Z</time>
      </trkpt>
      <trkpt lat="42.301428" lon="1.752153">
        <ele>1643.8</ele>
        <time>2022-07-03T09:54:46Z</time>
      </trkpt>
      <trkpt lat="42.301397" lon="1.752091">
        <ele>1644.5</ele>
        <time>2022-07-03T09:54:49Z</time>
      </trkpt>
      <trkpt lat="42.301390" lon="1.752006">
        <ele>1645.2</ele>
        <time>2022-07-03T09:54:53Z</time>
      </trkpt>
      <trkpt lat="42.301378" lon="1.751914">
        <ele>1645.7</ele>
        <time>2022-07-03T09:54:57Z</time>
      </trkpt>
      <trkpt lat="42.301383" lon="1.751826">
        <ele>1646.2</ele>
        <time>2022-07-03T09:55:01Z</time>
      </trkpt>
      <trkpt lat="42.301392" lon="1.751750">
        <ele>1647.0</ele>
        <time>2022-07-03T09:55:05Z</time>
      </trkpt>
      <trkpt lat="42.301395" lon="1.751664">
        <ele>1647.9</ele>
        <time>2022-07-03T09:55:09Z</time>
      </trkpt>
      <trkpt lat="42.301412" lon="1.751586">
        <ele>1648.6</ele>
        <time>2022-07-03T09:55:13Z</time>
      </trkpt>
      <trkpt lat="42.301426" lon="1.751504">
        <ele>1649.3</ele>
        <time>2022-07-03T09:55:17Z</time>
      </trkpt>
      <trkpt lat="42.301442" lon="1.751425">
        <ele>1650.1</ele>
        <time>2022-07-03T09:55:21Z</time>
      </trkpt>
      <trkpt lat="42.301459" lon="1.751348">
        <ele>1650.7</ele>
        <time>2022-07-03T09:55:25Z</time>
      </trkpt>
      <trkpt lat="42.301473" lon="1.751263">
        <ele>1651.3</ele>
        <time>2022-07-03T09:55:29Z</time>
      </trkpt>
      <trkpt lat="42.301513" lon="1.751195">
        <ele>1651.9</ele>
        <time>2022-07-03T09:55:33Z</time>
      </trkpt>
      <trkpt lat="42.301551" lon="1.751139">
        <ele>1652.3</ele>
        <time>2022-07-03T09:55:36Z</time>
      </trkpt>
      <trkpt lat="42.301590" lon="1.751082">
        <ele>1652.5</ele>
        <time>2022-07-03T09:55:39Z</time>
      </trkpt>
      <trkpt lat="42.301644" lon="1.751024">
        <ele>1653.0</ele>
        <time>2022-07-03T09:55:43Z</time>
      </trkpt>
      <trkpt lat="42.301695" lon="1.750983">
        <ele>1653.2</ele>
        <time>2022-07-03T09:55:47Z</time>
      </trkpt>
      <trkpt lat="42.301738" lon="1.750920">
        <ele>1654.0</ele>
        <time>2022-07-03T09:55:51Z</time>
      </trkpt>
      <trkpt lat="42.301788" lon="1.750878">
        <ele>1654.9</ele>
        <time>2022-07-03T09:55:55Z</time>
      </trkpt>
      <trkpt lat="42.301833" lon="1.750823">
        <ele>1655.6</ele>
        <time>2022-07-03T09:55:59Z</time>
      </trkpt>
      <trkpt lat="42.301880" lon="1.750769">
        <ele>1656.5</ele>
        <time>2022-07-03T09:56:03Z</time>
      </trkpt>
      <trkpt lat="42.301919" lon="1.750696">
        <ele>1657.2</ele>
        <time>2022-07-03T09:56:08Z</time>
      </trkpt>
      <trkpt lat="42.301939" lon="1.750613">
        <ele>1657.8</ele>
        <time>2022-07-03T09:56:13Z</time>
      </trkpt>
      <trkpt lat="42.301957" lon="1.750538">
        <ele>1658.5</ele>
        <time>2022-07-03T09:56:18Z</time>
      </trkpt>
      <trkpt lat="42.301973" lon="1.750452">
        <ele>1659.2</ele>
        <time>2022-07-03T09:56:22Z</time>
      </trkpt>
      <trkpt lat="42.302000" lon="1.750367">
        <ele>1659.8</ele>
        <time>2022-07-03T09:56:26Z</time>
      </trkpt>
      <trkpt lat="42.302043" lon="1.750309">
        <ele>1660.6</ele>
        <time>2022-07-03T09:56:30Z</time>
      </trkpt>
      <trkpt lat="42.302101" lon="1.750305">
        <ele>1661.1</ele>
        <time>2022-07-03T09:56:34Z</time>
      </trkpt>
      <trkpt lat="42.302163" lon="1.750311">
        <ele>1661.6</ele>
        <time>2022-07-03T09:56:38Z</time>
      </trkpt>
      <trkpt lat="42.302212" lon="1.750342">
        <ele>1661.8</ele>
        <time>2022-07-03T09:56:42Z</time>
      </trkpt>
      <trkpt lat="42.302265" lon="1.750384">
        <ele>1662.5</ele>
        <time>2022-07-03T09:56:46Z</time>
      </trkpt>
      <trkpt lat="42.302310" lon="1.750439">
        <ele>1663.1</ele>
        <time>2022-07-03T09:56:50Z</time>
      </trkpt>
      <trkpt lat="42.302364" lon="1.750489">
        <ele>1663.8</ele>
        <time>2022-07-03T09:56:55Z</time>
      </trkpt>
      <trkpt lat="42.302420" lon="1.750543">
        <ele>1664.7</ele>
        <time>2022-07-03T09:57:00Z</time>
      </trkpt>
      <trkpt lat="42.302479" lon="1.750577">
        <ele>1665.5</ele>
        <time>2022-07-03T09:57:04Z</time>
      </trkpt>
      <trkpt lat="42.302547" lon="1.750578">
        <ele>1666.5</ele>
        <time>2022-07-03T09:57:09Z</time>
      </trkpt>
      <trkpt lat="42.302613" lon="1.750560">
        <ele>1667.4</ele>
        <time>2022-07-03T09:57:13Z</time>
      </trkpt>
      <trkpt lat="42.302662" lon="1.750502">
        <ele>1667.7</ele>
        <time>2022-07-03T09:57:17Z</time>
      </trkpt>
      <trkpt lat="42.302693" lon="1.750436">
        <ele>1668.5</ele>
        <time>2022-07-03T09:57:21Z</time>
      </trkpt>
      <trkpt lat="42.302735" lon="1.750362">
        <ele>1669.0</ele>
        <time>2022-07-03T09:57:25Z</time>
      </trkpt>
      <trkpt lat="42.302792" lon="1.750325">
        <ele>1669.9</ele>
        <time>2022-07-03T09:57:29Z</time>
      </trkpt>
      <trkpt lat="42.302827" lon="1.750244">
        <ele>1670.4</ele>
        <time>2022-07-03T09:57:33Z</time>
      </trkpt>
      <trkpt lat="42.302873" lon="1.750171">
        <ele>1670.9</ele>
        <time>2022-07-03T09:57:38Z</time>
      </trkpt>
      <trkpt lat="42.302906" lon="1.750102">
        <ele>1671.6</ele>
        <time>2022-07-03T09:57:42Z</time>
      </trkpt>
      <trkpt lat="42.302939" lon="1.750021">
        <ele>1672.2</ele>
        <time>2022-07-03T09:57:46Z</time>
      </trkpt>
      <trkpt lat="42.302971" lon="1.749960">
        <ele>1672.4</ele>
        <time>2022-07-03T09:57:49Z</time>
      </trkpt>
      <trkpt lat="42.303024" lon="1.749902">
        <ele>1673.1</ele>
        <time>2022-07-03T09:57:53Z</time>
      </trkpt>
      <trkpt lat="42.303076" lon="1.749871">
        <ele>1673.7</ele>
        <time>2022-07-03T09:57:57Z</time>
      </trkpt>
      <trkpt lat="42.303130" lon="1.749816">
        <ele>1674.2</ele>
        <time>2022-07-03T09:58:01Z</time>
      </trkpt>
      <trkpt lat="42.303157" lon="1.749740">
        <ele>1674.6</ele>
        <time>2022-07-03T09:58:04Z</time>
      </trkpt>
      <trkpt lat="42.303174" lon="1.749666">
        <ele>1674.9</ele>
        <time>2022-07-03T09:58:07Z</time>
      </trkpt>
      <trkpt lat="42.303204" lon="1.749590">
        <ele>1675.8</ele>
        <time>2022-07-03T09:58:11Z</time>
      </trkpt>
      <trkpt lat="42.303209" lon="1.749515">
        <ele>1676.3</ele>
        <time>2022-07-03T09:58:14Z</time>
      </trkpt>
      <trkpt lat="42.303218" lon="1.749439">
        <ele>1676.5</ele>
        <time>2022-07-03T09:58:17Z</time>
      </trkpt>
      <trkpt lat="42.303224" lon="1.749354">
        <ele>1676.7</ele>
        <time>2022-07-03T09:58:20Z</time>
      </trkpt>
      <trkpt lat="42.303250" lon="1.749266">
        <ele>1677.5</ele>
        <time>2022-07-03T09:58:24Z</time>
      </trkpt>
      <trkpt lat="42.303277" lon="1.749190">
        <ele>1677.9</ele>
        <time>2022-07-03T09:58:28Z</time>
      </trkpt>
      <trkpt lat="42.303309" lon="1.749128">
        <ele>1678.4</ele>
        <time>2022-07-03T09:58:32Z</time>
      </trkpt>
      <trkpt lat="42.303350" lon="1.749072">
        <ele>1679.4</ele>
        <time>2022-07-03T09:58:36Z</time>
      </trkpt>
      <trkpt lat="42.303361" lon="1.748990">
        <ele>1680.3</ele>
        <time>2022-07-03T09:58:40Z</time>
      </trkpt>
      <trkpt lat="42.303389" lon="1.748911">
        <ele>1681.1</ele>
        <time>2022-07-03T09:58:45Z</time>
      </trkpt>
      <trkpt lat="42.303421" lon="1.748843">
        <ele>1681.7</ele>
        <time>2022-07-03T09:58:49Z</time>
      </trkpt>
      <trkpt lat="42.303447" lon="1.748774">
        <ele>1682.1</ele>
        <time>2022-07-03T09:58:52Z</time>
      </trkpt>
      <trkpt lat="42.303496" lon="1.748728">
        <ele>1683.0</ele>
        <time>2022-07-03T09:58:56Z</time>
      </trkpt>
      <trkpt lat="42.303552" lon="1.748743">
        <ele>1683.7</ele>
        <time>2022-07-03T09:59:00Z</time>
      </trkpt>
      <trkpt lat="42.303589" lon="1.748813">
        <ele>1684.4</ele>
        <time>2022-07-03T09:59:04Z</time>
      </trkpt>
      <trkpt lat="42.303612" lon="1.748898">
        <ele>1685.1</ele>
        <time>2022-07-03T09:59:08Z</time>
      </trkpt>
      <trkpt lat="42.303630" lon="1.748976">
        <ele>1685.6</ele>
        <time>2022-07-03T09:59:12Z</time>
      </trkpt>
      <trkpt lat="42.303660" lon="1.749052">
        <ele>1686.3</ele>
        <time>2022-07-03T09:59:16Z</time>
      </trkpt>
      <trkpt lat="42.303693" lon="1.749127">
        <ele>1687.0</ele>
        <time>2022-07-03T09:59:20Z</time>
      </trkpt>
      <trkpt lat="42.303730" lon="1.749206">
        <ele>1687.6</ele>
        <time>2022-07-03T09:59:24Z</time>
      </trkpt>
      <trkpt lat="42.303769" lon="1.749277">
        <ele>1688.0</ele>
        <time>2022-07-03T09:59:28Z</time>
      </trkpt>
      <trkpt lat="42.303802" lon="1.749350">
        <ele>1688.5</ele>
        <time>2022-07-03T09:59:32Z</time>
      </trkpt>
      <trkpt lat="42.303830" lon="1.749435">
        <ele>1688.6</ele>
        <time>2022-07-03T09:59:35Z</time>
      </trkpt>
      <trkpt lat="42.303852" lon="1.749517">
        <ele>1688.9</ele>
        <time>2022-07-03T09:59:38Z</time>
      </trkpt>
      <trkpt lat="42.303865" lon="1.749594">
        <ele>1690.0</ele>
        <time>2022-07-03T09:59:43Z</time>
      </trkpt>
      <trkpt lat="42.303876" lon="1.749688">
        <ele>1690.2</ele>
        <time>2022-07-03T09:59:47Z</time>
      </trkpt>
      <trkpt lat="42.303880" lon="1.749762">
        <ele>1690.9</ele>
        <time>2022-07-03T09:59:50Z</time>
      </trkpt>
      <trkpt lat="42.303882" lon="1.749852">
        <ele>1691.4</ele>
        <time>2022-07-03T09:59:54Z</time>
      </trkpt>
      <trkpt lat="42.303889" lon="1.749941">
        <ele>1692.2</ele>
        <time>2022-07-03T09:59:58Z</time>
      </trkpt>
      <trkpt lat="42.303897" lon="1.750018">
        <ele>1692.6</ele>
        <time>2022-07-03T10:00:01Z</time>
      </trkpt>
      <trkpt lat="42.303910" lon="1.750095">
        <ele>1693.1</ele>
        <time>2022-07-03T10:00:04Z</time>
      </trkpt>
      <trkpt lat="42.303924" lon="1.750171">
        <ele>1693.6</ele>
        <time>2022-07-03T10:00:07Z</time>
      </trkpt>
      <trkpt lat="42.303948" lon="1.750244">
        <ele>1694.2</ele>
        <time>2022-07-03T10:00:10Z</time>
      </trkpt>
      <trkpt lat="42.303966" lon="1.750315">
        <ele>1694.9</ele>
        <time>2022-07-03T10:00:13Z</time>
      </trkpt>
      <trkpt lat="42.303987" lon="1.750407">
        <ele>1695.4</ele>
        <time>2022-07-03T10:00:17Z</time>
      </trkpt>
      <trkpt lat="42.304005" lon="1.750479">
        <ele>1696.0</ele>
        <time>2022-07-03T10:00:20Z</time>
      </trkpt>
      <trkpt lat="42.304025" lon="1.750565">
        <ele>1696.7</ele>
        <time>2022-07-03T10:00:24Z</time>
      </trkpt>
      <trkpt lat="42.304055" lon="1.750645">
        <ele>1697.4</ele>
        <time>2022-07-03T10:00:28Z</time>
      </trkpt>
      <trkpt lat="42.304103" lon="1.750702">
        <ele>1697.9</ele>
        <time>2022-07-03T10:00:32Z</time>
      </trkpt>
      <trkpt lat="42.304143" lon="1.750772">
        <ele>1698.5</ele>
        <time>2022-07-03T10:00:36Z</time>
      </trkpt>
      <trkpt lat="42.304183" lon="1.750842">
        <ele>1699.1</ele>
        <time>2022-07-03T10:00:40Z</time>
      </trkpt>
      <trkpt lat="42.304218" lon="1.750918">
        <ele>1700.1</ele>
        <time>2022-07-03T10:00:44Z</time>
      </trkpt>
      <trkpt lat="42.304255" lon="1.750983">
        <ele>1701.1</ele>
        <time>2022-07-03T10:00:48Z</time>
      </trkpt>
      <trkpt lat="42.304309" lon="1.751041">
        <ele>1702.0</ele>
        <time>2022-07-03T10:00:52Z</time>
      </trkpt>
      <trkpt lat="42.304368" lon="1.751075">
        <ele>1702.5</ele>
        <time>2022-07-03T10:00:56Z</time>
      </trkpt>
      <trkpt lat="42.304435" lon="1.751125">
        <ele>1703.4</ele>
        <time>2022-07-03T10:01:01Z</time>
      </trkpt>
      <trkpt lat="42.304485" lon="1.751156">
        <ele>1704.1</ele>
        <time>2022-07-03T10:01:05Z</time>
      </trkpt>
      <trkpt lat="42.304544" lon="1.751180">
        <ele>1704.9</ele>
        <time>2022-07-03T10:01:09Z</time>
      </trkpt>
      <trkpt lat="42.304605" lon="1.751207">
        <ele>1705.5</ele>
        <time>2022-07-03T10:01:13Z</time>
      </trkpt>
      <trkpt lat="42.304670" lon="1.751230">
        <ele>1706.4</ele>
        <time>2022-07-03T10:01:17Z</time>
      </trkpt>
      <trkpt lat="42.304735" lon="1.751257">
        <ele>1706.0</ele>
        <time>2022-07-03T10:01:21Z</time>
      </trkpt>
      <trkpt lat="42.304790" lon="1.751282">
        <ele>1707.7</ele>
        <time>2022-07-03T10:01:25Z</time>
      </trkpt>
      <trkpt lat="42.304847" lon="1.751318">
        <ele>1708.3</ele>
        <time>2022-07-03T10:01:29Z</time>
      </trkpt>
      <trkpt lat="42.304912" lon="1.751351">
        <ele>1708.8</ele>
        <time>2022-07-03T10:01:33Z</time>
      </trkpt>
      <trkpt lat="42.304974" lon="1.751392">
        <ele>1709.4</ele>
        <time>2022-07-03T10:01:37Z</time>
      </trkpt>
      <trkpt lat="42.305017" lon="1.751440">
        <ele>1709.9</ele>
        <time>2022-07-03T10:01:40Z</time>
      </trkpt>
      <trkpt lat="42.305067" lon="1.751482">
        <ele>1710.8</ele>
        <time>2022-07-03T10:01:44Z</time>
      </trkpt>
      <trkpt lat="42.305105" lon="1.751535">
        <ele>1711.3</ele>
        <time>2022-07-03T10:01:47Z</time>
      </trkpt>
      <trkpt lat="42.305136" lon="1.751596">
        <ele>1711.9</ele>
        <time>2022-07-03T10:01:50Z</time>
      </trkpt>
      <trkpt lat="42.305177" lon="1.751666">
        <ele>1712.4</ele>
        <time>2022-07-03T10:01:53Z</time>
      </trkpt>
      <trkpt lat="42.305224" lon="1.751741">
        <ele>1713.1</ele>
        <time>2022-07-03T10:01:57Z</time>
      </trkpt>
      <trkpt lat="42.305269" lon="1.751813">
        <ele>1713.6</ele>
        <time>2022-07-03T10:02:01Z</time>
      </trkpt>
      <trkpt lat="42.305317" lon="1.751882">
        <ele>1714.2</ele>
        <time>2022-07-03T10:02:05Z</time>
      </trkpt>
      <trkpt lat="42.305352" lon="1.751953">
        <ele>1714.9</ele>
        <time>2022-07-03T10:02:09Z</time>
      </trkpt>
      <trkpt lat="42.305406" lon="1.752007">
        <ele>1715.4</ele>
        <time>2022-07-03T10:02:13Z</time>
      </trkpt>
      <trkpt lat="42.305467" lon="1.752053">
        <ele>1715.9</ele>
        <time>2022-07-03T10:02:17Z</time>
      </trkpt>
      <trkpt lat="42.305530" lon="1.752095">
        <ele>1716.4</ele>
        <time>2022-07-03T10:02:21Z</time>
      </trkpt>
      <trkpt lat="42.305587" lon="1.752117">
        <ele>1716.6</ele>
        <time>2022-07-03T10:02:24Z</time>
      </trkpt>
      <trkpt lat="42.305655" lon="1.752132">
        <ele>1716.7</ele>
        <time>2022-07-03T10:02:28Z</time>
      </trkpt>
      <trkpt lat="42.305712" lon="1.752157">
        <ele>1716.6</ele>
        <time>2022-07-03T10:02:31Z</time>
      </trkpt>
      <trkpt lat="42.305781" lon="1.752176">
        <ele>1716.9</ele>
        <time>2022-07-03T10:02:34Z</time>
      </trkpt>
      <trkpt lat="42.305830" lon="1.752133">
        <ele>1717.1</ele>
        <time>2022-07-03T10:02:37Z</time>
      </trkpt>
      <trkpt lat="42.305855" lon="1.752066">
        <ele>1717.5</ele>
        <time>2022-07-03T10:02:40Z</time>
      </trkpt>
      <trkpt lat="42.305869" lon="1.751985">
        <ele>1717.9</ele>
        <time>2022-07-03T10:02:44Z</time>
      </trkpt>
      <trkpt lat="42.305895" lon="1.751900">
        <ele>1718.0</ele>
        <time>2022-07-03T10:02:47Z</time>
      </trkpt>
      <trkpt lat="42.305912" lon="1.751824">
        <ele>1717.7</ele>
        <time>2022-07-03T10:02:49Z</time>
      </trkpt>
      <trkpt lat="42.305934" lon="1.751748">
        <ele>1717.7</ele>
        <time>2022-07-03T10:02:51Z</time>
      </trkpt>
      <trkpt lat="42.305955" lon="1.751667">
        <ele>1717.3</ele>
        <time>2022-07-03T10:02:53Z</time>
      </trkpt>
      <trkpt lat="42.305985" lon="1.751573">
        <ele>1717.1</ele>
        <time>2022-07-03T10:02:55Z</time>
      </trkpt>
      <trkpt lat="42.306015" lon="1.751480">
        <ele>1717.2</ele>
        <time>2022-07-03T10:02:57Z</time>
      </trkpt>
      <trkpt lat="42.306044" lon="1.751379">
        <ele>1717.0</ele>
        <time>2022-07-03T10:02:59Z</time>
      </trkpt>
      <trkpt lat="42.306074" lon="1.751269">
        <ele>1715.7</ele>
        <time>2022-07-03T10:03:01Z</time>
      </trkpt>
      <trkpt lat="42.306110" lon="1.751171">
        <ele>1716.1</ele>
        <time>2022-07-03T10:03:03Z</time>
      </trkpt>
      <trkpt lat="42.306149" lon="1.751067">
        <ele>1716.3</ele>
        <time>2022-07-03T10:03:05Z</time>
      </trkpt>
      <trkpt lat="42.306180" lon="1.750955">
        <ele>1715.5</ele>
        <time>2022-07-03T10:03:07Z</time>
      </trkpt>
      <trkpt lat="42.306207" lon="1.750834">
        <ele>1714.7</ele>
        <time>2022-07-03T10:03:09Z</time>
      </trkpt>
      <trkpt lat="42.306224" lon="1.750715">
        <ele>1714.0</ele>
        <time>2022-07-03T10:03:11Z</time>
      </trkpt>
      <trkpt lat="42.306220" lon="1.750636">
        <ele>1713.7</ele>
        <time>2022-07-03T10:03:12Z</time>
      </trkpt>
      <trkpt lat="42.306216" lon="1.750506">
        <ele>1713.1</ele>
        <time>2022-07-03T10:03:14Z</time>
      </trkpt>
      <trkpt lat="42.306215" lon="1.750420">
        <ele>1712.8</ele>
        <time>2022-07-03T10:03:15Z</time>
      </trkpt>
      <trkpt lat="42.306214" lon="1.750287">
        <ele>1712.6</ele>
        <time>2022-07-03T10:03:17Z</time>
      </trkpt>
      <trkpt lat="42.306216" lon="1.750172">
        <ele>1712.6</ele>
        <time>2022-07-03T10:03:19Z</time>
      </trkpt>
      <trkpt lat="42.306225" lon="1.750076">
        <ele>1712.4</ele>
        <time>2022-07-03T10:03:21Z</time>
      </trkpt>
      <trkpt lat="42.306222" lon="1.749993">
        <ele>1712.4</ele>
        <time>2022-07-03T10:03:22Z</time>
      </trkpt>
      <trkpt lat="42.306218" lon="1.749920">
        <ele>1712.5</ele>
        <time>2022-07-03T10:03:23Z</time>
      </trkpt>
      <trkpt lat="42.306208" lon="1.749826">
        <ele>1712.2</ele>
        <time>2022-07-03T10:03:24Z</time>
      </trkpt>
      <trkpt lat="42.306190" lon="1.749694">
        <ele>1712.3</ele>
        <time>2022-07-03T10:03:26Z</time>
      </trkpt>
      <trkpt lat="42.306167" lon="1.749623">
        <ele>1712.0</ele>
        <time>2022-07-03T10:03:28Z</time>
      </trkpt>
      <trkpt lat="42.306146" lon="1.749552">
        <ele>1710.7</ele>
        <time>2022-07-03T10:03:35Z</time>
      </trkpt>
      <trkpt lat="42.306148" lon="1.749479">
        <ele>1710.2</ele>
        <time>2022-07-03T10:04:05Z</time>
      </trkpt>
      <trkpt lat="42.306183" lon="1.749414">
        <ele>1710.5</ele>
        <time>2022-07-03T10:04:17Z</time>
      </trkpt>
      <trkpt lat="42.306234" lon="1.749440">
        <ele>1710.5</ele>
        <time>2022-07-03T10:04:21Z</time>
      </trkpt>
      <trkpt lat="42.306218" lon="1.749358">
        <ele>1710.6</ele>
        <time>2022-07-03T10:04:30Z</time>
      </trkpt>
      <trkpt lat="42.306189" lon="1.749290">
        <ele>1710.5</ele>
        <time>2022-07-03T10:04:34Z</time>
      </trkpt>
      <trkpt lat="42.306171" lon="1.749203">
        <ele>1709.9</ele>
        <time>2022-07-03T10:04:39Z</time>
      </trkpt>
      <trkpt lat="42.306147" lon="1.749118">
        <ele>1709.6</ele>
        <time>2022-07-03T10:04:44Z</time>
      </trkpt>
      <trkpt lat="42.306129" lon="1.749049">
        <ele>1709.4</ele>
        <time>2022-07-03T10:04:50Z</time>
      </trkpt>
      <trkpt lat="42.306171" lon="1.749000">
        <ele>1708.0</ele>
        <time>2022-07-03T10:14:01Z</time>
      </trkpt>
      <trkpt lat="42.306116" lon="1.748985">
        <ele>1708.2</ele>
        <time>2022-07-03T10:14:39Z</time>
      </trkpt>
      <trkpt lat="42.306139" lon="1.749052">
        <ele>1708.4</ele>
        <time>2022-07-03T10:17:52Z</time>
      </trkpt>
      <trkpt lat="42.306185" lon="1.749093">
        <ele>1708.4</ele>
        <time>2022-07-03T10:18:06Z</time>
      </trkpt>
      <trkpt lat="42.306246" lon="1.749122">
        <ele>1708.0</ele>
        <time>2022-07-03T10:18:10Z</time>
      </trkpt>
      <trkpt lat="42.306286" lon="1.749176">
        <ele>1707.6</ele>
        <time>2022-07-03T10:18:12Z</time>
      </trkpt>
      <trkpt lat="42.306330" lon="1.749239">
        <ele>1707.2</ele>
        <time>2022-07-03T10:18:15Z</time>
      </trkpt>
      <trkpt lat="42.306390" lon="1.749316">
        <ele>1707.2</ele>
        <time>2022-07-03T10:18:18Z</time>
      </trkpt>
      <trkpt lat="42.306424" lon="1.749395">
        <ele>1706.6</ele>
        <time>2022-07-03T10:18:20Z</time>
      </trkpt>
      <trkpt lat="42.306462" lon="1.749470">
        <ele>1706.1</ele>
        <time>2022-07-03T10:18:23Z</time>
      </trkpt>
      <trkpt lat="42.306505" lon="1.749541">
        <ele>1705.7</ele>
        <time>2022-07-03T10:18:27Z</time>
      </trkpt>
      <trkpt lat="42.306562" lon="1.749591">
        <ele>1706.2</ele>
        <time>2022-07-03T10:18:31Z</time>
      </trkpt>
      <trkpt lat="42.306628" lon="1.749620">
        <ele>1706.2</ele>
        <time>2022-07-03T10:18:35Z</time>
      </trkpt>
      <trkpt lat="42.306681" lon="1.749657">
        <ele>1707.0</ele>
        <time>2022-07-03T10:18:38Z</time>
      </trkpt>
      <trkpt lat="42.306729" lon="1.749698">
        <ele>1709.1</ele>
        <time>2022-07-03T10:18:55Z</time>
      </trkpt>
      <trkpt lat="42.306784" lon="1.749695">
        <ele>1710.7</ele>
        <time>2022-07-03T10:19:10Z</time>
      </trkpt>
      <trkpt lat="42.306836" lon="1.749717">
        <ele>1710.9</ele>
        <time>2022-07-03T10:19:17Z</time>
      </trkpt>
      <trkpt lat="42.306891" lon="1.749744">
        <ele>1711.3</ele>
        <time>2022-07-03T10:19:22Z</time>
      </trkpt>
      <trkpt lat="42.306939" lon="1.749809">
        <ele>1712.1</ele>
        <time>2022-07-03T10:19:27Z</time>
      </trkpt>
      <trkpt lat="42.306989" lon="1.749852">
        <ele>1712.8</ele>
        <time>2022-07-03T10:19:30Z</time>
      </trkpt>
      <trkpt lat="42.307058" lon="1.749889">
        <ele>1713.3</ele>
        <time>2022-07-03T10:19:33Z</time>
      </trkpt>
      <trkpt lat="42.307105" lon="1.749928">
        <ele>1713.5</ele>
        <time>2022-07-03T10:19:36Z</time>
      </trkpt>
      <trkpt lat="42.307179" lon="1.749964">
        <ele>1713.8</ele>
        <time>2022-07-03T10:19:39Z</time>
      </trkpt>
      <trkpt lat="42.307232" lon="1.750007">
        <ele>1713.9</ele>
        <time>2022-07-03T10:19:50Z</time>
      </trkpt>
      <trkpt lat="42.307273" lon="1.750069">
        <ele>1713.5</ele>
        <time>2022-07-03T10:19:56Z</time>
      </trkpt>
      <trkpt lat="42.307327" lon="1.750117">
        <ele>1712.7</ele>
        <time>2022-07-03T10:20:00Z</time>
      </trkpt>
      <trkpt lat="42.307370" lon="1.750207">
        <ele>1711.8</ele>
        <time>2022-07-03T10:20:04Z</time>
      </trkpt>
      <trkpt lat="42.307415" lon="1.750269">
        <ele>1711.1</ele>
        <time>2022-07-03T10:20:07Z</time>
      </trkpt>
      <trkpt lat="42.307470" lon="1.750332">
        <ele>1710.6</ele>
        <time>2022-07-03T10:20:11Z</time>
      </trkpt>
      <trkpt lat="42.307515" lon="1.750401">
        <ele>1710.8</ele>
        <time>2022-07-03T10:20:14Z</time>
      </trkpt>
      <trkpt lat="42.307578" lon="1.750439">
        <ele>1710.9</ele>
        <time>2022-07-03T10:20:16Z</time>
      </trkpt>
      <trkpt lat="42.307638" lon="1.750453">
        <ele>1711.0</ele>
        <time>2022-07-03T10:20:20Z</time>
      </trkpt>
      <trkpt lat="42.307709" lon="1.750488">
        <ele>1710.8</ele>
        <time>2022-07-03T10:20:23Z</time>
      </trkpt>
      <trkpt lat="42.307775" lon="1.750507">
        <ele>1710.8</ele>
        <time>2022-07-03T10:20:27Z</time>
      </trkpt>
      <trkpt lat="42.307831" lon="1.750507">
        <ele>1712.0</ele>
        <time>2022-07-03T10:20:31Z</time>
      </trkpt>
      <trkpt lat="42.307887" lon="1.750526">
        <ele>1712.9</ele>
        <time>2022-07-03T10:20:35Z</time>
      </trkpt>
      <trkpt lat="42.307946" lon="1.750486">
        <ele>1713.5</ele>
        <time>2022-07-03T10:20:41Z</time>
      </trkpt>
      <trkpt lat="42.308004" lon="1.750478">
        <ele>1712.9</ele>
        <time>2022-07-03T10:20:54Z</time>
      </trkpt>
      <trkpt lat="42.308057" lon="1.750459">
        <ele>1712.7</ele>
        <time>2022-07-03T10:21:00Z</time>
      </trkpt>
      <trkpt lat="42.308132" lon="1.750438">
        <ele>1712.8</ele>
        <time>2022-07-03T10:21:06Z</time>
      </trkpt>
      <trkpt lat="42.308187" lon="1.750451">
        <ele>1713.0</ele>
        <time>2022-07-03T10:21:08Z</time>
      </trkpt>
      <trkpt lat="42.308259" lon="1.750439">
        <ele>1713.1</ele>
        <time>2022-07-03T10:21:11Z</time>
      </trkpt>
      <trkpt lat="42.308312" lon="1.750402">
        <ele>1712.6</ele>
        <time>2022-07-03T10:21:14Z</time>
      </trkpt>
      <trkpt lat="42.308384" lon="1.750363">
        <ele>1712.3</ele>
        <time>2022-07-03T10:21:18Z</time>
      </trkpt>
      <trkpt lat="42.308450" lon="1.750345">
        <ele>1712.2</ele>
        <time>2022-07-03T10:21:20Z</time>
      </trkpt>
      <trkpt lat="42.308525" lon="1.750315">
        <ele>1712.2</ele>
        <time>2022-07-03T10:21:22Z</time>
      </trkpt>
      <trkpt lat="42.308592" lon="1.750313">
        <ele>1712.3</ele>
        <time>2022-07-03T10:21:24Z</time>
      </trkpt>
      <trkpt lat="42.308647" lon="1.750318">
        <ele>1712.8</ele>
        <time>2022-07-03T10:21:27Z</time>
      </trkpt>
      <trkpt lat="42.308716" lon="1.750346">
        <ele>1713.5</ele>
        <time>2022-07-03T10:21:31Z</time>
      </trkpt>
      <trkpt lat="42.308770" lon="1.750354">
        <ele>1714.6</ele>
        <time>2022-07-03T10:21:35Z</time>
      </trkpt>
      <trkpt lat="42.308824" lon="1.750391">
        <ele>1715.5</ele>
        <time>2022-07-03T10:21:40Z</time>
      </trkpt>
      <trkpt lat="42.308877" lon="1.750405">
        <ele>1717.0</ele>
        <time>2022-07-03T10:21:49Z</time>
      </trkpt>
      <trkpt lat="42.308918" lon="1.750335">
        <ele>1717.0</ele>
        <time>2022-07-03T10:21:54Z</time>
      </trkpt>
      <trkpt lat="42.308977" lon="1.750278">
        <ele>1716.4</ele>
        <time>2022-07-03T10:21:58Z</time>
      </trkpt>
      <trkpt lat="42.309020" lon="1.750212">
        <ele>1715.7</ele>
        <time>2022-07-03T10:22:00Z</time>
      </trkpt>
      <trkpt lat="42.309050" lon="1.750151">
        <ele>1715.2</ele>
        <time>2022-07-03T10:22:02Z</time>
      </trkpt>
      <trkpt lat="42.309088" lon="1.750086">
        <ele>1714.8</ele>
        <time>2022-07-03T10:22:04Z</time>
      </trkpt>
      <trkpt lat="42.309148" lon="1.750027">
        <ele>1713.2</ele>
        <time>2022-07-03T10:22:07Z</time>
      </trkpt>
      <trkpt lat="42.309198" lon="1.749958">
        <ele>1712.2</ele>
        <time>2022-07-03T10:22:10Z</time>
      </trkpt>
      <trkpt lat="42.309226" lon="1.749893">
        <ele>1710.6</ele>
        <time>2022-07-03T10:22:15Z</time>
      </trkpt>
      <trkpt lat="42.309277" lon="1.749856">
        <ele>1708.7</ele>
        <time>2022-07-03T10:22:22Z</time>
      </trkpt>
      <trkpt lat="42.309338" lon="1.749864">
        <ele>1707.6</ele>
        <time>2022-07-03T10:22:25Z</time>
      </trkpt>
      <trkpt lat="42.309407" lon="1.749865">
        <ele>1706.8</ele>
        <time>2022-07-03T10:22:27Z</time>
      </trkpt>
      <trkpt lat="42.309472" lon="1.749861">
        <ele>1706.4</ele>
        <time>2022-07-03T10:22:29Z</time>
      </trkpt>
      <trkpt lat="42.309535" lon="1.749871">
        <ele>1705.8</ele>
        <time>2022-07-03T10:22:32Z</time>
      </trkpt>
      <trkpt lat="42.309591" lon="1.749857">
        <ele>1705.2</ele>
        <time>2022-07-03T10:22:34Z</time>
      </trkpt>
      <trkpt lat="42.309652" lon="1.749855">
        <ele>1705.1</ele>
        <time>2022-07-03T10:22:36Z</time>
      </trkpt>
      <trkpt lat="42.309722" lon="1.749849">
        <ele>1704.8</ele>
        <time>2022-07-03T10:22:38Z</time>
      </trkpt>
      <trkpt lat="42.309776" lon="1.749835">
        <ele>1704.3</ele>
        <time>2022-07-03T10:22:39Z</time>
      </trkpt>
      <trkpt lat="42.309830" lon="1.749787">
        <ele>1703.2</ele>
        <time>2022-07-03T10:22:42Z</time>
      </trkpt>
      <trkpt lat="42.309881" lon="1.749756">
        <ele>1702.1</ele>
        <time>2022-07-03T10:22:46Z</time>
      </trkpt>
      <trkpt lat="42.309916" lon="1.749686">
        <ele>1700.8</ele>
        <time>2022-07-03T10:22:49Z</time>
      </trkpt>
      <trkpt lat="42.309963" lon="1.749633">
        <ele>1699.9</ele>
        <time>2022-07-03T10:22:51Z</time>
      </trkpt>
      <trkpt lat="42.310023" lon="1.749573">
        <ele>1699.1</ele>
        <time>2022-07-03T10:22:55Z</time>
      </trkpt>
      <trkpt lat="42.310093" lon="1.749520">
        <ele>1699.1</ele>
        <time>2022-07-03T10:22:59Z</time>
      </trkpt>
      <trkpt lat="42.310154" lon="1.749499">
        <ele>1698.9</ele>
        <time>2022-07-03T10:23:00Z</time>
      </trkpt>
      <trkpt lat="42.310244" lon="1.749465">
        <ele>1698.4</ele>
        <time>2022-07-03T10:23:02Z</time>
      </trkpt>
      <trkpt lat="42.310323" lon="1.749430">
        <ele>1698.5</ele>
        <time>2022-07-03T10:23:04Z</time>
      </trkpt>
      <trkpt lat="42.310394" lon="1.749443">
        <ele>1697.8</ele>
        <time>2022-07-03T10:23:06Z</time>
      </trkpt>
      <trkpt lat="42.310448" lon="1.749429">
        <ele>1697.7</ele>
        <time>2022-07-03T10:23:08Z</time>
      </trkpt>
      <trkpt lat="42.310514" lon="1.749419">
        <ele>1697.6</ele>
        <time>2022-07-03T10:23:11Z</time>
      </trkpt>
      <trkpt lat="42.310582" lon="1.749418">
        <ele>1698.1</ele>
        <time>2022-07-03T10:23:14Z</time>
      </trkpt>
      <trkpt lat="42.310655" lon="1.749460">
        <ele>1698.8</ele>
        <time>2022-07-03T10:23:17Z</time>
      </trkpt>
      <trkpt lat="42.310714" lon="1.749487">
        <ele>1699.8</ele>
        <time>2022-07-03T10:23:19Z</time>
      </trkpt>
      <trkpt lat="42.310766" lon="1.749515">
        <ele>1700.2</ele>
        <time>2022-07-03T10:23:21Z</time>
      </trkpt>
      <trkpt lat="42.310821" lon="1.749534">
        <ele>1701.2</ele>
        <time>2022-07-03T10:23:25Z</time>
      </trkpt>
      <trkpt lat="42.310882" lon="1.749545">
        <ele>1702.3</ele>
        <time>2022-07-03T10:23:29Z</time>
      </trkpt>
      <trkpt lat="42.310946" lon="1.749571">
        <ele>1703.2</ele>
        <time>2022-07-03T10:23:32Z</time>
      </trkpt>
      <trkpt lat="42.311005" lon="1.749570">
        <ele>1704.1</ele>
        <time>2022-07-03T10:23:35Z</time>
      </trkpt>
      <trkpt lat="42.311076" lon="1.749544">
        <ele>1704.3</ele>
        <time>2022-07-03T10:23:38Z</time>
      </trkpt>
      <trkpt lat="42.311112" lon="1.749471">
        <ele>1704.3</ele>
        <time>2022-07-03T10:23:41Z</time>
      </trkpt>
      <trkpt lat="42.311139" lon="1.749389">
        <ele>1704.3</ele>
        <time>2022-07-03T10:23:44Z</time>
      </trkpt>
      <trkpt lat="42.311135" lon="1.749288">
        <ele>1703.7</ele>
        <time>2022-07-03T10:23:46Z</time>
      </trkpt>
      <trkpt lat="42.311157" lon="1.749217">
        <ele>1703.3</ele>
        <time>2022-07-03T10:23:49Z</time>
      </trkpt>
      <trkpt lat="42.311170" lon="1.749141">
        <ele>1703.0</ele>
        <time>2022-07-03T10:23:52Z</time>
      </trkpt>
      <trkpt lat="42.311190" lon="1.749057">
        <ele>1701.6</ele>
        <time>2022-07-03T10:23:56Z</time>
      </trkpt>
      <trkpt lat="42.311239" lon="1.749025">
        <ele>1700.9</ele>
        <time>2022-07-03T10:23:59Z</time>
      </trkpt>
      <trkpt lat="42.311287" lon="1.748990">
        <ele>1699.5</ele>
        <time>2022-07-03T10:24:02Z</time>
      </trkpt>
      <trkpt lat="42.311329" lon="1.748922">
        <ele>1697.7</ele>
        <time>2022-07-03T10:24:05Z</time>
      </trkpt>
      <trkpt lat="42.311390" lon="1.748880">
        <ele>1696.7</ele>
        <time>2022-07-03T10:24:07Z</time>
      </trkpt>
      <trkpt lat="42.311448" lon="1.748871">
        <ele>1695.8</ele>
        <time>2022-07-03T10:24:09Z</time>
      </trkpt>
      <trkpt lat="42.311536" lon="1.748835">
        <ele>1695.0</ele>
        <time>2022-07-03T10:24:11Z</time>
      </trkpt>
      <trkpt lat="42.311608" lon="1.748775">
        <ele>1694.2</ele>
        <time>2022-07-03T10:24:14Z</time>
      </trkpt>
      <trkpt lat="42.311670" lon="1.748767">
        <ele>1693.6</ele>
        <time>2022-07-03T10:24:18Z</time>
      </trkpt>
      <trkpt lat="42.311737" lon="1.748792">
        <ele>1693.3</ele>
        <time>2022-07-03T10:24:21Z</time>
      </trkpt>
      <trkpt lat="42.311797" lon="1.748832">
        <ele>1693.1</ele>
        <time>2022-07-03T10:24:23Z</time>
      </trkpt>
      <trkpt lat="42.311848" lon="1.748880">
        <ele>1693.3</ele>
        <time>2022-07-03T10:24:25Z</time>
      </trkpt>
      <trkpt lat="42.311919" lon="1.748907">
        <ele>1693.9</ele>
        <time>2022-07-03T10:24:28Z</time>
      </trkpt>
      <trkpt lat="42.311976" lon="1.748907">
        <ele>1694.3</ele>
        <time>2022-07-03T10:24:33Z</time>
      </trkpt>
      <trkpt lat="42.312045" lon="1.748915">
        <ele>1693.5</ele>
        <time>2022-07-03T10:24:38Z</time>
      </trkpt>
      <trkpt lat="42.312105" lon="1.748911">
        <ele>1692.5</ele>
        <time>2022-07-03T10:24:41Z</time>
      </trkpt>
      <trkpt lat="42.312157" lon="1.748876">
        <ele>1691.9</ele>
        <time>2022-07-03T10:24:43Z</time>
      </trkpt>
      <trkpt lat="42.312209" lon="1.748848">
        <ele>1691.5</ele>
        <time>2022-07-03T10:24:46Z</time>
      </trkpt>
      <trkpt lat="42.312266" lon="1.748841">
        <ele>1691.6</ele>
        <time>2022-07-03T10:24:55Z</time>
      </trkpt>
      <trkpt lat="42.312318" lon="1.748867">
        <ele>1691.2</ele>
        <time>2022-07-03T10:25:03Z</time>
      </trkpt>
      <trkpt lat="42.312361" lon="1.748911">
        <ele>1691.1</ele>
        <time>2022-07-03T10:25:05Z</time>
      </trkpt>
      <trkpt lat="42.312409" lon="1.748975">
        <ele>1690.8</ele>
        <time>2022-07-03T10:25:07Z</time>
      </trkpt>
      <trkpt lat="42.312465" lon="1.749037">
        <ele>1690.5</ele>
        <time>2022-07-03T10:25:09Z</time>
      </trkpt>
      <trkpt lat="42.312523" lon="1.749099">
        <ele>1691.0</ele>
        <time>2022-07-03T10:25:11Z</time>
      </trkpt>
      <trkpt lat="42.312570" lon="1.749151">
        <ele>1689.9</ele>
        <time>2022-07-03T10:25:13Z</time>
      </trkpt>
      <trkpt lat="42.312624" lon="1.749214">
        <ele>1689.3</ele>
        <time>2022-07-03T10:25:15Z</time>
      </trkpt>
      <trkpt lat="42.312687" lon="1.749222">
        <ele>1688.9</ele>
        <time>2022-07-03T10:25:17Z</time>
      </trkpt>
      <trkpt lat="42.312744" lon="1.749237">
        <ele>1689.0</ele>
        <time>2022-07-03T10:25:20Z</time>
      </trkpt>
      <trkpt lat="42.312808" lon="1.749232">
        <ele>1689.0</ele>
        <time>2022-07-03T10:25:23Z</time>
      </trkpt>
      <trkpt lat="42.312881" lon="1.749238">
        <ele>1688.9</ele>
        <time>2022-07-03T10:25:26Z</time>
      </trkpt>
      <trkpt lat="42.312944" lon="1.749252">
        <ele>1688.3</ele>
        <time>2022-07-03T10:25:28Z</time>
      </trkpt>
      <trkpt lat="42.313009" lon="1.749259">
        <ele>1688.2</ele>
        <time>2022-07-03T10:25:30Z</time>
      </trkpt>
      <trkpt lat="42.313069" lon="1.749296">
        <ele>1687.7</ele>
        <time>2022-07-03T10:25:32Z</time>
      </trkpt>
      <trkpt lat="42.313124" lon="1.749331">
        <ele>1687.2</ele>
        <time>2022-07-03T10:25:34Z</time>
      </trkpt>
      <trkpt lat="42.313200" lon="1.749372">
        <ele>1686.6</ele>
        <time>2022-07-03T10:25:36Z</time>
      </trkpt>
      <trkpt lat="42.313243" lon="1.749419">
        <ele>1686.0</ele>
        <time>2022-07-03T10:25:37Z</time>
      </trkpt>
      <trkpt lat="42.313289" lon="1.749458">
        <ele>1685.5</ele>
        <time>2022-07-03T10:25:38Z</time>
      </trkpt>
      <trkpt lat="42.313358" lon="1.749501">
        <ele>1684.7</ele>
        <time>2022-07-03T10:25:40Z</time>
      </trkpt>
      <trkpt lat="42.313404" lon="1.749553">
        <ele>1684.7</ele>
        <time>2022-07-03T10:25:42Z</time>
      </trkpt>
      <trkpt lat="42.313444" lon="1.749604">
        <ele>1684.5</ele>
        <time>2022-07-03T10:25:44Z</time>
      </trkpt>
      <trkpt lat="42.313494" lon="1.749650">
        <ele>1684.5</ele>
        <time>2022-07-03T10:25:46Z</time>
      </trkpt>
      <trkpt lat="42.313546" lon="1.749721">
        <ele>1684.7</ele>
        <time>2022-07-03T10:25:48Z</time>
      </trkpt>
      <trkpt lat="42.313618" lon="1.749776">
        <ele>1684.3</ele>
        <time>2022-07-03T10:25:50Z</time>
      </trkpt>
      <trkpt lat="42.313713" lon="1.749835">
        <ele>1684.1</ele>
        <time>2022-07-03T10:25:52Z</time>
      </trkpt>
      <trkpt lat="42.313806" lon="1.749891">
        <ele>1683.7</ele>
        <time>2022-07-03T10:25:54Z</time>
      </trkpt>
      <trkpt lat="42.313897" lon="1.749936">
        <ele>1684.2</ele>
        <time>2022-07-03T10:25:56Z</time>
      </trkpt>
      <trkpt lat="42.313961" lon="1.749991">
        <ele>1684.7</ele>
        <time>2022-07-03T10:25:58Z</time>
      </trkpt>
      <trkpt lat="42.314028" lon="1.750074">
        <ele>1684.7</ele>
        <time>2022-07-03T10:26:00Z</time>
      </trkpt>
      <trkpt lat="42.314074" lon="1.750136">
        <ele>1685.3</ele>
        <time>2022-07-03T10:26:02Z</time>
      </trkpt>
      <trkpt lat="42.314125" lon="1.750194">
        <ele>1685.2</ele>
        <time>2022-07-03T10:26:09Z</time>
      </trkpt>
      <trkpt lat="42.314155" lon="1.750257">
        <ele>1685.2</ele>
        <time>2022-07-03T10:26:32Z</time>
      </trkpt>
      <trkpt lat="42.314206" lon="1.750230">
        <ele>1685.2</ele>
        <time>2022-07-03T10:27:05Z</time>
      </trkpt>
      <trkpt lat="42.314261" lon="1.750207">
        <ele>1682.1</ele>
        <time>2022-07-03T10:27:26Z</time>
      </trkpt>
      <trkpt lat="42.314283" lon="1.750110">
        <ele>1680.5</ele>
        <time>2022-07-03T10:27:32Z</time>
      </trkpt>
      <trkpt lat="42.314327" lon="1.750063">
        <ele>1679.3</ele>
        <time>2022-07-03T10:27:38Z</time>
      </trkpt>
      <trkpt lat="42.314359" lon="1.749974">
        <ele>1678.8</ele>
        <time>2022-07-03T10:27:42Z</time>
      </trkpt>
      <trkpt lat="42.314397" lon="1.749900">
        <ele>1677.6</ele>
        <time>2022-07-03T10:27:45Z</time>
      </trkpt>
      <trkpt lat="42.314423" lon="1.749806">
        <ele>1676.5</ele>
        <time>2022-07-03T10:27:47Z</time>
      </trkpt>
      <trkpt lat="42.314443" lon="1.749735">
        <ele>1675.2</ele>
        <time>2022-07-03T10:27:49Z</time>
      </trkpt>
      <trkpt lat="42.314494" lon="1.749668">
        <ele>1673.8</ele>
        <time>2022-07-03T10:27:51Z</time>
      </trkpt>
      <trkpt lat="42.314538" lon="1.749597">
        <ele>1672.2</ele>
        <time>2022-07-03T10:27:53Z</time>
      </trkpt>
      <trkpt lat="42.314556" lon="1.749518">
        <ele>1671.0</ele>
        <time>2022-07-03T10:27:55Z</time>
      </trkpt>
      <trkpt lat="42.314571" lon="1.749445">
        <ele>1669.7</ele>
        <time>2022-07-03T10:27:57Z</time>
      </trkpt>
      <trkpt lat="42.314580" lon="1.749372">
        <ele>1668.5</ele>
        <time>2022-07-03T10:27:59Z</time>
      </trkpt>
      <trkpt lat="42.314608" lon="1.749306">
        <ele>1667.3</ele>
        <time>2022-07-03T10:28:01Z</time>
      </trkpt>
      <trkpt lat="42.314628" lon="1.749226">
        <ele>1666.2</ele>
        <time>2022-07-03T10:28:03Z</time>
      </trkpt>
      <trkpt lat="42.314639" lon="1.749153">
        <ele>1665.2</ele>
        <time>2022-07-03T10:28:05Z</time>
      </trkpt>
      <trkpt lat="42.314648" lon="1.749068">
        <ele>1664.2</ele>
        <time>2022-07-03T10:28:07Z</time>
      </trkpt>
      <trkpt lat="42.314679" lon="1.748992">
        <ele>1663.1</ele>
        <time>2022-07-03T10:28:09Z</time>
      </trkpt>
      <trkpt lat="42.314711" lon="1.748892">
        <ele>1661.4</ele>
        <time>2022-07-03T10:28:12Z</time>
      </trkpt>
      <trkpt lat="42.314736" lon="1.748816">
        <ele>1659.4</ele>
        <time>2022-07-03T10:28:14Z</time>
      </trkpt>
      <trkpt lat="42.314763" lon="1.748736">
        <ele>1658.7</ele>
        <time>2022-07-03T10:28:17Z</time>
      </trkpt>
      <trkpt lat="42.314818" lon="1.748677">
        <ele>1657.0</ele>
        <time>2022-07-03T10:28:20Z</time>
      </trkpt>
      <trkpt lat="42.314914" lon="1.748655">
        <ele>1655.1</ele>
        <time>2022-07-03T10:28:24Z</time>
      </trkpt>
      <trkpt lat="42.314946" lon="1.748569">
        <ele>1653.8</ele>
        <time>2022-07-03T10:28:27Z</time>
      </trkpt>
      <trkpt lat="42.315018" lon="1.748483">
        <ele>1652.6</ele>
        <time>2022-07-03T10:28:29Z</time>
      </trkpt>
      <trkpt lat="42.315056" lon="1.748402">
        <ele>1651.8</ele>
        <time>2022-07-03T10:28:31Z</time>
      </trkpt>
      <trkpt lat="42.315083" lon="1.748337">
        <ele>1651.1</ele>
        <time>2022-07-03T10:28:33Z</time>
      </trkpt>
      <trkpt lat="42.315163" lon="1.748265">
        <ele>1649.7</ele>
        <time>2022-07-03T10:28:36Z</time>
      </trkpt>
      <trkpt lat="42.315228" lon="1.748243">
        <ele>1648.9</ele>
        <time>2022-07-03T10:28:38Z</time>
      </trkpt>
      <trkpt lat="42.315295" lon="1.748196">
        <ele>1648.8</ele>
        <time>2022-07-03T10:28:39Z</time>
      </trkpt>
      <trkpt lat="42.315371" lon="1.748195">
        <ele>1648.7</ele>
        <time>2022-07-03T10:28:40Z</time>
      </trkpt>
      <trkpt lat="42.315426" lon="1.748182">
        <ele>1648.6</ele>
        <time>2022-07-03T10:28:41Z</time>
      </trkpt>
      <trkpt lat="42.315507" lon="1.748159">
        <ele>1647.9</ele>
        <time>2022-07-03T10:28:43Z</time>
      </trkpt>
      <trkpt lat="42.315572" lon="1.748166">
        <ele>1646.9</ele>
        <time>2022-07-03T10:28:46Z</time>
      </trkpt>
      <trkpt lat="42.315627" lon="1.748209">
        <ele>1646.2</ele>
        <time>2022-07-03T10:28:48Z</time>
      </trkpt>
      <trkpt lat="42.315697" lon="1.748265">
        <ele>1645.4</ele>
        <time>2022-07-03T10:28:50Z</time>
      </trkpt>
      <trkpt lat="42.315769" lon="1.748309">
        <ele>1644.6</ele>
        <time>2022-07-03T10:28:52Z</time>
      </trkpt>
      <trkpt lat="42.315837" lon="1.748332">
        <ele>1643.9</ele>
        <time>2022-07-03T10:28:54Z</time>
      </trkpt>
      <trkpt lat="42.315914" lon="1.748363">
        <ele>1643.4</ele>
        <time>2022-07-03T10:28:56Z</time>
      </trkpt>
      <trkpt lat="42.315987" lon="1.748379">
        <ele>1642.7</ele>
        <time>2022-07-03T10:28:58Z</time>
      </trkpt>
      <trkpt lat="42.316064" lon="1.748432">
        <ele>1642.5</ele>
        <time>2022-07-03T10:29:00Z</time>
      </trkpt>
      <trkpt lat="42.316121" lon="1.748469">
        <ele>1641.7</ele>
        <time>2022-07-03T10:29:02Z</time>
      </trkpt>
      <trkpt lat="42.316190" lon="1.748506">
        <ele>1641.2</ele>
        <time>2022-07-03T10:29:04Z</time>
      </trkpt>
      <trkpt lat="42.316245" lon="1.748529">
        <ele>1641.0</ele>
        <time>2022-07-03T10:29:06Z</time>
      </trkpt>
      <trkpt lat="42.316314" lon="1.748553">
        <ele>1640.8</ele>
        <time>2022-07-03T10:29:08Z</time>
      </trkpt>
      <trkpt lat="42.316385" lon="1.748593">
        <ele>1640.5</ele>
        <time>2022-07-03T10:29:10Z</time>
      </trkpt>
      <trkpt lat="42.316445" lon="1.748620">
        <ele>1640.3</ele>
        <time>2022-07-03T10:29:11Z</time>
      </trkpt>
      <trkpt lat="42.316496" lon="1.748644">
        <ele>1639.5</ele>
        <time>2022-07-03T10:29:12Z</time>
      </trkpt>
      <trkpt lat="42.316578" lon="1.748684">
        <ele>1638.4</ele>
        <time>2022-07-03T10:29:14Z</time>
      </trkpt>
      <trkpt lat="42.316637" lon="1.748723">
        <ele>1637.8</ele>
        <time>2022-07-03T10:29:16Z</time>
      </trkpt>
      <trkpt lat="42.316695" lon="1.748766">
        <ele>1636.9</ele>
        <time>2022-07-03T10:29:18Z</time>
      </trkpt>
      <trkpt lat="42.316755" lon="1.748797">
        <ele>1636.4</ele>
        <time>2022-07-03T10:29:20Z</time>
      </trkpt>
      <trkpt lat="42.316836" lon="1.748825">
        <ele>1635.5</ele>
        <time>2022-07-03T10:29:23Z</time>
      </trkpt>
      <trkpt lat="42.316912" lon="1.748838">
        <ele>1634.5</ele>
        <time>2022-07-03T10:29:25Z</time>
      </trkpt>
      <trkpt lat="42.316973" lon="1.748865">
        <ele>1632.9</ele>
        <time>2022-07-03T10:29:27Z</time>
      </trkpt>
      <trkpt lat="42.317032" lon="1.748883">
        <ele>1631.8</ele>
        <time>2022-07-03T10:29:29Z</time>
      </trkpt>
      <trkpt lat="42.317107" lon="1.748904">
        <ele>1630.1</ele>
        <time>2022-07-03T10:29:32Z</time>
      </trkpt>
      <trkpt lat="42.317169" lon="1.748920">
        <ele>1628.9</ele>
        <time>2022-07-03T10:29:34Z</time>
      </trkpt>
      <trkpt lat="42.317223" lon="1.748903">
        <ele>1628.0</ele>
        <time>2022-07-03T10:29:37Z</time>
      </trkpt>
      <trkpt lat="42.317299" lon="1.748872">
        <ele>1627.0</ele>
        <time>2022-07-03T10:29:40Z</time>
      </trkpt>
      <trkpt lat="42.317357" lon="1.748854">
        <ele>1626.1</ele>
        <time>2022-07-03T10:29:42Z</time>
      </trkpt>
      <trkpt lat="42.317436" lon="1.748806">
        <ele>1624.6</ele>
        <time>2022-07-03T10:29:45Z</time>
      </trkpt>
      <trkpt lat="42.317484" lon="1.748768">
        <ele>1623.5</ele>
        <time>2022-07-03T10:29:47Z</time>
      </trkpt>
      <trkpt lat="42.317561" lon="1.748728">
        <ele>1622.1</ele>
        <time>2022-07-03T10:29:49Z</time>
      </trkpt>
      <trkpt lat="42.317610" lon="1.748688">
        <ele>1621.0</ele>
        <time>2022-07-03T10:29:51Z</time>
      </trkpt>
      <trkpt lat="42.317656" lon="1.748598">
        <ele>1620.0</ele>
        <time>2022-07-03T10:29:53Z</time>
      </trkpt>
      <trkpt lat="42.317717" lon="1.748546">
        <ele>1619.0</ele>
        <time>2022-07-03T10:29:55Z</time>
      </trkpt>
      <trkpt lat="42.317769" lon="1.748475">
        <ele>1616.7</ele>
        <time>2022-07-03T10:29:58Z</time>
      </trkpt>
      <trkpt lat="42.317837" lon="1.748450">
        <ele>1614.6</ele>
        <time>2022-07-03T10:30:01Z</time>
      </trkpt>
      <trkpt lat="42.317909" lon="1.748424">
        <ele>1613.2</ele>
        <time>2022-07-03T10:30:03Z</time>
      </trkpt>
      <trkpt lat="42.317997" lon="1.748415">
        <ele>1611.3</ele>
        <time>2022-07-03T10:30:06Z</time>
      </trkpt>
      <trkpt lat="42.318055" lon="1.748431">
        <ele>1609.0</ele>
        <time>2022-07-03T10:30:10Z</time>
      </trkpt>
      <trkpt lat="42.318115" lon="1.748421">
        <ele>1606.9</ele>
        <time>2022-07-03T10:30:19Z</time>
      </trkpt>
      <trkpt lat="42.318182" lon="1.748458">
        <ele>1606.2</ele>
        <time>2022-07-03T10:30:26Z</time>
      </trkpt>
      <trkpt lat="42.318236" lon="1.748505">
        <ele>1605.6</ele>
        <time>2022-07-03T10:30:30Z</time>
      </trkpt>
      <trkpt lat="42.318296" lon="1.748540">
        <ele>1604.7</ele>
        <time>2022-07-03T10:30:34Z</time>
      </trkpt>
      <trkpt lat="42.318349" lon="1.748584">
        <ele>1603.9</ele>
        <time>2022-07-03T10:30:37Z</time>
      </trkpt>
      <trkpt lat="42.318401" lon="1.748630">
        <ele>1603.2</ele>
        <time>2022-07-03T10:30:40Z</time>
      </trkpt>
      <trkpt lat="42.318459" lon="1.748668">
        <ele>1602.2</ele>
        <time>2022-07-03T10:30:43Z</time>
      </trkpt>
      <trkpt lat="42.318507" lon="1.748716">
        <ele>1600.8</ele>
        <time>2022-07-03T10:30:46Z</time>
      </trkpt>
      <trkpt lat="42.318551" lon="1.748762">
        <ele>1600.3</ele>
        <time>2022-07-03T10:30:48Z</time>
      </trkpt>
      <trkpt lat="42.318603" lon="1.748810">
        <ele>1599.8</ele>
        <time>2022-07-03T10:30:50Z</time>
      </trkpt>
      <trkpt lat="42.318682" lon="1.748875">
        <ele>1597.0</ele>
        <time>2022-07-03T10:30:53Z</time>
      </trkpt>
      <trkpt lat="42.318751" lon="1.748931">
        <ele>1596.9</ele>
        <time>2022-07-03T10:30:56Z</time>
      </trkpt>
      <trkpt lat="42.318819" lon="1.748964">
        <ele>1595.8</ele>
        <time>2022-07-03T10:30:58Z</time>
      </trkpt>
      <trkpt lat="42.318884" lon="1.748984">
        <ele>1595.3</ele>
        <time>2022-07-03T10:31:00Z</time>
      </trkpt>
      <trkpt lat="42.318945" lon="1.749005">
        <ele>1595.1</ele>
        <time>2022-07-03T10:31:02Z</time>
      </trkpt>
      <trkpt lat="42.319001" lon="1.749033">
        <ele>1594.4</ele>
        <time>2022-07-03T10:31:04Z</time>
      </trkpt>
      <trkpt lat="42.319057" lon="1.749069">
        <ele>1592.4</ele>
        <time>2022-07-03T10:31:06Z</time>
      </trkpt>
      <trkpt lat="42.319112" lon="1.749105">
        <ele>1591.6</ele>
        <time>2022-07-03T10:31:09Z</time>
      </trkpt>
      <trkpt lat="42.319156" lon="1.749163">
        <ele>1590.9</ele>
        <time>2022-07-03T10:31:12Z</time>
      </trkpt>
      <trkpt lat="42.319185" lon="1.749226">
        <ele>1590.6</ele>
        <time>2022-07-03T10:31:14Z</time>
      </trkpt>
      <trkpt lat="42.319232" lon="1.749296">
        <ele>1590.1</ele>
        <time>2022-07-03T10:31:16Z</time>
      </trkpt>
      <trkpt lat="42.319271" lon="1.749373">
        <ele>1589.2</ele>
        <time>2022-07-03T10:31:18Z</time>
      </trkpt>
      <trkpt lat="42.319319" lon="1.749453">
        <ele>1588.1</ele>
        <time>2022-07-03T10:31:21Z</time>
      </trkpt>
      <trkpt lat="42.319363" lon="1.749504">
        <ele>1587.0</ele>
        <time>2022-07-03T10:31:23Z</time>
      </trkpt>
      <trkpt lat="42.319403" lon="1.749559">
        <ele>1586.3</ele>
        <time>2022-07-03T10:31:25Z</time>
      </trkpt>
      <trkpt lat="42.319438" lon="1.749624">
        <ele>1585.7</ele>
        <time>2022-07-03T10:31:27Z</time>
      </trkpt>
      <trkpt lat="42.319483" lon="1.749673">
        <ele>1583.0</ele>
        <time>2022-07-03T10:31:31Z</time>
      </trkpt>
      <trkpt lat="42.319511" lon="1.749741">
        <ele>1580.9</ele>
        <time>2022-07-03T10:31:37Z</time>
      </trkpt>
      <trkpt lat="42.319565" lon="1.749752">
        <ele>1580.5</ele>
        <time>2022-07-03T10:31:40Z</time>
      </trkpt>
      <trkpt lat="42.319620" lon="1.749750">
        <ele>1580.0</ele>
        <time>2022-07-03T10:31:46Z</time>
      </trkpt>
      <trkpt lat="42.319675" lon="1.749754">
        <ele>1580.1</ele>
        <time>2022-07-03T10:31:54Z</time>
      </trkpt>
      <trkpt lat="42.319729" lon="1.749772">
        <ele>1580.6</ele>
        <time>2022-07-03T10:31:58Z</time>
      </trkpt>
      <trkpt lat="42.319779" lon="1.749875">
        <ele>1580.9</ele>
        <time>2022-07-03T10:32:01Z</time>
      </trkpt>
      <trkpt lat="42.319834" lon="1.749949">
        <ele>1580.7</ele>
        <time>2022-07-03T10:32:03Z</time>
      </trkpt>
      <trkpt lat="42.319878" lon="1.750032">
        <ele>1580.8</ele>
        <time>2022-07-03T10:32:05Z</time>
      </trkpt>
      <trkpt lat="42.319936" lon="1.750119">
        <ele>1579.9</ele>
        <time>2022-07-03T10:32:07Z</time>
      </trkpt>
      <trkpt lat="42.319998" lon="1.750185">
        <ele>1579.1</ele>
        <time>2022-07-03T10:32:09Z</time>
      </trkpt>
      <trkpt lat="42.320092" lon="1.750235">
        <ele>1578.2</ele>
        <time>2022-07-03T10:32:11Z</time>
      </trkpt>
      <trkpt lat="42.320172" lon="1.750267">
        <ele>1576.7</ele>
        <time>2022-07-03T10:32:13Z</time>
      </trkpt>
      <trkpt lat="42.320256" lon="1.750294">
        <ele>1575.6</ele>
        <time>2022-07-03T10:32:15Z</time>
      </trkpt>
      <trkpt lat="42.320335" lon="1.750308">
        <ele>1574.9</ele>
        <time>2022-07-03T10:32:17Z</time>
      </trkpt>
      <trkpt lat="42.320406" lon="1.750285">
        <ele>1572.9</ele>
        <time>2022-07-03T10:32:19Z</time>
      </trkpt>
      <trkpt lat="42.320484" lon="1.750252">
        <ele>1572.4</ele>
        <time>2022-07-03T10:32:21Z</time>
      </trkpt>
      <trkpt lat="42.320551" lon="1.750243">
        <ele>1571.3</ele>
        <time>2022-07-03T10:32:23Z</time>
      </trkpt>
      <trkpt lat="42.320634" lon="1.750214">
        <ele>1569.8</ele>
        <time>2022-07-03T10:32:26Z</time>
      </trkpt>
      <trkpt lat="42.320688" lon="1.750164">
        <ele>1569.2</ele>
        <time>2022-07-03T10:32:27Z</time>
      </trkpt>
      <trkpt lat="42.320758" lon="1.750143">
        <ele>1567.8</ele>
        <time>2022-07-03T10:32:28Z</time>
      </trkpt>
      <trkpt lat="42.320812" lon="1.750126">
        <ele>1567.3</ele>
        <time>2022-07-03T10:32:29Z</time>
      </trkpt>
      <trkpt lat="42.320924" lon="1.750094">
        <ele>1566.1</ele>
        <time>2022-07-03T10:32:31Z</time>
      </trkpt>
      <trkpt lat="42.321001" lon="1.750072">
        <ele>1565.3</ele>
        <time>2022-07-03T10:32:32Z</time>
      </trkpt>
      <trkpt lat="42.321073" lon="1.750054">
        <ele>1564.6</ele>
        <time>2022-07-03T10:32:33Z</time>
      </trkpt>
      <trkpt lat="42.321142" lon="1.750034">
        <ele>1564.2</ele>
        <time>2022-07-03T10:32:34Z</time>
      </trkpt>
      <trkpt lat="42.321210" lon="1.750020">
        <ele>1563.7</ele>
        <time>2022-07-03T10:32:35Z</time>
      </trkpt>
      <trkpt lat="42.321275" lon="1.750015">
        <ele>1562.4</ele>
        <time>2022-07-03T10:32:36Z</time>
      </trkpt>
      <trkpt lat="42.321331" lon="1.750007">
        <ele>1562.5</ele>
        <time>2022-07-03T10:32:37Z</time>
      </trkpt>
      <trkpt lat="42.321403" lon="1.750016">
        <ele>1562.1</ele>
        <time>2022-07-03T10:32:38Z</time>
      </trkpt>
      <trkpt lat="42.321459" lon="1.750021">
        <ele>1561.7</ele>
        <time>2022-07-03T10:32:39Z</time>
      </trkpt>
      <trkpt lat="42.321558" lon="1.750056">
        <ele>1561.1</ele>
        <time>2022-07-03T10:32:41Z</time>
      </trkpt>
      <trkpt lat="42.321609" lon="1.750096">
        <ele>1561.3</ele>
        <time>2022-07-03T10:32:42Z</time>
      </trkpt>
      <trkpt lat="42.321657" lon="1.750202">
        <ele>1560.8</ele>
        <time>2022-07-03T10:32:44Z</time>
      </trkpt>
      <trkpt lat="42.321703" lon="1.750320">
        <ele>1559.4</ele>
        <time>2022-07-03T10:32:46Z</time>
      </trkpt>
      <trkpt lat="42.321745" lon="1.750389">
        <ele>1558.7</ele>
        <time>2022-07-03T10:32:48Z</time>
      </trkpt>
      <trkpt lat="42.321803" lon="1.750397">
        <ele>1558.5</ele>
        <time>2022-07-03T10:32:49Z</time>
      </trkpt>
      <trkpt lat="42.321867" lon="1.750408">
        <ele>1558.1</ele>
        <time>2022-07-03T10:32:51Z</time>
      </trkpt>
      <trkpt lat="42.321949" lon="1.750417">
        <ele>1557.2</ele>
        <time>2022-07-03T10:32:53Z</time>
      </trkpt>
      <trkpt lat="42.322028" lon="1.750430">
        <ele>1556.6</ele>
        <time>2022-07-03T10:32:55Z</time>
      </trkpt>
      <trkpt lat="42.322108" lon="1.750422">
        <ele>1555.9</ele>
        <time>2022-07-03T10:32:57Z</time>
      </trkpt>
      <trkpt lat="42.322174" lon="1.750364">
        <ele>1553.9</ele>
        <time>2022-07-03T10:33:00Z</time>
      </trkpt>
      <trkpt lat="42.322231" lon="1.750339">
        <ele>1552.8</ele>
        <time>2022-07-03T10:33:02Z</time>
      </trkpt>
      <trkpt lat="42.322300" lon="1.750319">
        <ele>1551.9</ele>
        <time>2022-07-03T10:33:04Z</time>
      </trkpt>
      <trkpt lat="42.322355" lon="1.750311">
        <ele>1550.9</ele>
        <time>2022-07-03T10:33:06Z</time>
      </trkpt>
      <trkpt lat="42.322484" lon="1.750293">
        <ele>1549.8</ele>
        <time>2022-07-03T10:33:08Z</time>
      </trkpt>
      <trkpt lat="42.322537" lon="1.750273">
        <ele>1549.3</ele>
        <time>2022-07-03T10:33:09Z</time>
      </trkpt>
      <trkpt lat="42.322634" lon="1.750241">
        <ele>1548.0</ele>
        <time>2022-07-03T10:33:11Z</time>
      </trkpt>
      <trkpt lat="42.322697" lon="1.750201">
        <ele>1547.0</ele>
        <time>2022-07-03T10:33:13Z</time>
      </trkpt>
      <trkpt lat="42.322759" lon="1.750159">
        <ele>1546.5</ele>
        <time>2022-07-03T10:33:15Z</time>
      </trkpt>
      <trkpt lat="42.322817" lon="1.750106">
        <ele>1546.0</ele>
        <time>2022-07-03T10:33:17Z</time>
      </trkpt>
      <trkpt lat="42.322877" lon="1.750027">
        <ele>1544.3</ele>
        <time>2022-07-03T10:33:20Z</time>
      </trkpt>
      <trkpt lat="42.322936" lon="1.749984">
        <ele>1542.9</ele>
        <time>2022-07-03T10:33:22Z</time>
      </trkpt>
      <trkpt lat="42.322988" lon="1.749954">
        <ele>1542.2</ele>
        <time>2022-07-03T10:33:23Z</time>
      </trkpt>
      <trkpt lat="42.323031" lon="1.749901">
        <ele>1539.8</ele>
        <time>2022-07-03T10:33:25Z</time>
      </trkpt>
      <trkpt lat="42.323102" lon="1.749844">
        <ele>1538.9</ele>
        <time>2022-07-03T10:33:27Z</time>
      </trkpt>
      <trkpt lat="42.323172" lon="1.749793">
        <ele>1537.9</ele>
        <time>2022-07-03T10:33:29Z</time>
      </trkpt>
      <trkpt lat="42.323233" lon="1.749772">
        <ele>1536.5</ele>
        <time>2022-07-03T10:33:31Z</time>
      </trkpt>
      <trkpt lat="42.323360" lon="1.749756">
        <ele>1534.7</ele>
        <time>2022-07-03T10:33:33Z</time>
      </trkpt>
      <trkpt lat="42.323443" lon="1.749739">
        <ele>1533.1</ele>
        <time>2022-07-03T10:33:35Z</time>
      </trkpt>
      <trkpt lat="42.323526" lon="1.749711">
        <ele>1531.3</ele>
        <time>2022-07-03T10:33:37Z</time>
      </trkpt>
      <trkpt lat="42.323588" lon="1.749672">
        <ele>1529.8</ele>
        <time>2022-07-03T10:33:39Z</time>
      </trkpt>
      <trkpt lat="42.323682" lon="1.749629">
        <ele>1528.4</ele>
        <time>2022-07-03T10:33:41Z</time>
      </trkpt>
      <trkpt lat="42.323740" lon="1.749580">
        <ele>1526.7</ele>
        <time>2022-07-03T10:33:43Z</time>
      </trkpt>
      <trkpt lat="42.323827" lon="1.749556">
        <ele>1526.2</ele>
        <time>2022-07-03T10:33:45Z</time>
      </trkpt>
      <trkpt lat="42.323897" lon="1.749454">
        <ele>1524.4</ele>
        <time>2022-07-03T10:33:47Z</time>
      </trkpt>
      <trkpt lat="42.323943" lon="1.749407">
        <ele>1523.3</ele>
        <time>2022-07-03T10:33:48Z</time>
      </trkpt>
      <trkpt lat="42.323992" lon="1.749360">
        <ele>1522.5</ele>
        <time>2022-07-03T10:33:49Z</time>
      </trkpt>
      <trkpt lat="42.324068" lon="1.749323">
        <ele>1521.0</ele>
        <time>2022-07-03T10:33:51Z</time>
      </trkpt>
      <trkpt lat="42.324160" lon="1.749337">
        <ele>1519.8</ele>
        <time>2022-07-03T10:33:53Z</time>
      </trkpt>
      <trkpt lat="42.324252" lon="1.749331">
        <ele>1518.7</ele>
        <time>2022-07-03T10:33:55Z</time>
      </trkpt>
      <trkpt lat="42.324348" lon="1.749324">
        <ele>1518.0</ele>
        <time>2022-07-03T10:33:57Z</time>
      </trkpt>
      <trkpt lat="42.324407" lon="1.749321">
        <ele>1517.7</ele>
        <time>2022-07-03T10:33:58Z</time>
      </trkpt>
      <trkpt lat="42.324485" lon="1.749321">
        <ele>1517.6</ele>
        <time>2022-07-03T10:34:00Z</time>
      </trkpt>
      <trkpt lat="42.324551" lon="1.749332">
        <ele>1517.5</ele>
        <time>2022-07-03T10:34:02Z</time>
      </trkpt>
      <trkpt lat="42.324610" lon="1.749324">
        <ele>1517.7</ele>
        <time>2022-07-03T10:34:04Z</time>
      </trkpt>
      <trkpt lat="42.324665" lon="1.749327">
        <ele>1518.0</ele>
        <time>2022-07-03T10:34:06Z</time>
      </trkpt>
      <trkpt lat="42.324722" lon="1.749334">
        <ele>1518.0</ele>
        <time>2022-07-03T10:34:08Z</time>
      </trkpt>
      <trkpt lat="42.324777" lon="1.749319">
        <ele>1518.3</ele>
        <time>2022-07-03T10:34:11Z</time>
      </trkpt>
      <trkpt lat="42.324855" lon="1.749360">
        <ele>1518.7</ele>
        <time>2022-07-03T10:34:13Z</time>
      </trkpt>
      <trkpt lat="42.324929" lon="1.749379">
        <ele>1519.2</ele>
        <time>2022-07-03T10:34:15Z</time>
      </trkpt>
      <trkpt lat="42.324992" lon="1.749354">
        <ele>1519.2</ele>
        <time>2022-07-03T10:34:18Z</time>
      </trkpt>
      <trkpt lat="42.325046" lon="1.749343">
        <ele>1519.2</ele>
        <time>2022-07-03T10:34:21Z</time>
      </trkpt>
      <trkpt lat="42.325107" lon="1.749314">
        <ele>1519.4</ele>
        <time>2022-07-03T10:34:25Z</time>
      </trkpt>
      <trkpt lat="42.325163" lon="1.749290">
        <ele>1519.7</ele>
        <time>2022-07-03T10:34:29Z</time>
      </trkpt>
      <trkpt lat="42.325229" lon="1.749296">
        <ele>1519.7</ele>
        <time>2022-07-03T10:34:33Z</time>
      </trkpt>
      <trkpt lat="42.325290" lon="1.749276">
        <ele>1519.4</ele>
        <time>2022-07-03T10:34:36Z</time>
      </trkpt>
      <trkpt lat="42.325370" lon="1.749271">
        <ele>1519.2</ele>
        <time>2022-07-03T10:34:40Z</time>
      </trkpt>
      <trkpt lat="42.325424" lon="1.749286">
        <ele>1519.1</ele>
        <time>2022-07-03T10:34:42Z</time>
      </trkpt>
      <trkpt lat="42.325476" lon="1.749310">
        <ele>1518.5</ele>
        <time>2022-07-03T10:34:44Z</time>
      </trkpt>
      <trkpt lat="42.325547" lon="1.749333">
        <ele>1517.8</ele>
        <time>2022-07-03T10:34:47Z</time>
      </trkpt>
      <trkpt lat="42.325620" lon="1.749375">
        <ele>1517.5</ele>
        <time>2022-07-03T10:34:50Z</time>
      </trkpt>
      <trkpt lat="42.325690" lon="1.749387">
        <ele>1517.1</ele>
        <time>2022-07-03T10:34:53Z</time>
      </trkpt>
      <trkpt lat="42.325734" lon="1.749431">
        <ele>1516.7</ele>
        <time>2022-07-03T10:34:57Z</time>
      </trkpt>
      <trkpt lat="42.325793" lon="1.749445">
        <ele>1516.7</ele>
        <time>2022-07-03T10:35:02Z</time>
      </trkpt>
      <trkpt lat="42.325849" lon="1.749492">
        <ele>1516.8</ele>
        <time>2022-07-03T10:35:11Z</time>
      </trkpt>
      <trkpt lat="42.325902" lon="1.749530">
        <ele>1516.3</ele>
        <time>2022-07-03T10:35:13Z</time>
      </trkpt>
      <trkpt lat="42.325960" lon="1.749565">
        <ele>1515.8</ele>
        <time>2022-07-03T10:35:15Z</time>
      </trkpt>
      <trkpt lat="42.326069" lon="1.749595">
        <ele>1514.0</ele>
        <time>2022-07-03T10:35:18Z</time>
      </trkpt>
      <trkpt lat="42.326177" lon="1.749656">
        <ele>1514.1</ele>
        <time>2022-07-03T10:35:21Z</time>
      </trkpt>
      <trkpt lat="42.326251" lon="1.749704">
        <ele>1513.8</ele>
        <time>2022-07-03T10:35:23Z</time>
      </trkpt>
      <trkpt lat="42.326317" lon="1.749761">
        <ele>1512.8</ele>
        <time>2022-07-03T10:35:25Z</time>
      </trkpt>
      <trkpt lat="42.326363" lon="1.749820">
        <ele>1512.3</ele>
        <time>2022-07-03T10:35:27Z</time>
      </trkpt>
      <trkpt lat="42.326406" lon="1.749866">
        <ele>1512.6</ele>
        <time>2022-07-03T10:35:29Z</time>
      </trkpt>
      <trkpt lat="42.326450" lon="1.749914">
        <ele>1512.9</ele>
        <time>2022-07-03T10:35:32Z</time>
      </trkpt>
      <trkpt lat="42.326488" lon="1.749977">
        <ele>1512.7</ele>
        <time>2022-07-03T10:35:35Z</time>
      </trkpt>
      <trkpt lat="42.326562" lon="1.749992">
        <ele>1512.6</ele>
        <time>2022-07-03T10:35:38Z</time>
      </trkpt>
      <trkpt lat="42.326659" lon="1.750023">
        <ele>1512.0</ele>
        <time>2022-07-03T10:35:41Z</time>
      </trkpt>
      <trkpt lat="42.326718" lon="1.750040">
        <ele>1511.6</ele>
        <time>2022-07-03T10:35:43Z</time>
      </trkpt>
      <trkpt lat="42.326786" lon="1.750044">
        <ele>1511.8</ele>
        <time>2022-07-03T10:35:45Z</time>
      </trkpt>
      <trkpt lat="42.326859" lon="1.750050">
        <ele>1511.6</ele>
        <time>2022-07-03T10:35:47Z</time>
      </trkpt>
      <trkpt lat="42.326928" lon="1.750031">
        <ele>1511.5</ele>
        <time>2022-07-03T10:35:49Z</time>
      </trkpt>
      <trkpt lat="42.326989" lon="1.750004">
        <ele>1511.0</ele>
        <time>2022-07-03T10:35:51Z</time>
      </trkpt>
      <trkpt lat="42.327044" lon="1.749968">
        <ele>1510.5</ele>
        <time>2022-07-03T10:35:53Z</time>
      </trkpt>
      <trkpt lat="42.327107" lon="1.749903">
        <ele>1510.0</ele>
        <time>2022-07-03T10:35:55Z</time>
      </trkpt>
      <trkpt lat="42.327146" lon="1.749848">
        <ele>1509.2</ele>
        <time>2022-07-03T10:35:57Z</time>
      </trkpt>
      <trkpt lat="42.327202" lon="1.749812">
        <ele>1509.0</ele>
        <time>2022-07-03T10:35:59Z</time>
      </trkpt>
      <trkpt lat="42.327244" lon="1.749754">
        <ele>1508.8</ele>
        <time>2022-07-03T10:36:02Z</time>
      </trkpt>
      <trkpt lat="42.327311" lon="1.749707">
        <ele>1508.0</ele>
        <time>2022-07-03T10:36:05Z</time>
      </trkpt>
      <trkpt lat="42.327399" lon="1.749710">
        <ele>1506.5</ele>
        <time>2022-07-03T10:36:08Z</time>
      </trkpt>
      <trkpt lat="42.327487" lon="1.749748">
        <ele>1505.8</ele>
        <time>2022-07-03T10:36:11Z</time>
      </trkpt>
      <trkpt lat="42.327610" lon="1.749779">
        <ele>1505.7</ele>
        <time>2022-07-03T10:36:13Z</time>
      </trkpt>
      <trkpt lat="42.327692" lon="1.749811">
        <ele>1505.2</ele>
        <time>2022-07-03T10:36:15Z</time>
      </trkpt>
      <trkpt lat="42.327759" lon="1.749858">
        <ele>1504.4</ele>
        <time>2022-07-03T10:36:17Z</time>
      </trkpt>
      <trkpt lat="42.327820" lon="1.749904">
        <ele>1503.3</ele>
        <time>2022-07-03T10:36:19Z</time>
      </trkpt>
      <trkpt lat="42.327882" lon="1.749954">
        <ele>1502.7</ele>
        <time>2022-07-03T10:36:21Z</time>
      </trkpt>
      <trkpt lat="42.327957" lon="1.750029">
        <ele>1502.1</ele>
        <time>2022-07-03T10:36:23Z</time>
      </trkpt>
      <trkpt lat="42.328045" lon="1.750125">
        <ele>1500.8</ele>
        <time>2022-07-03T10:36:25Z</time>
      </trkpt>
      <trkpt lat="42.328125" lon="1.750231">
        <ele>1499.0</ele>
        <time>2022-07-03T10:36:27Z</time>
      </trkpt>
      <trkpt lat="42.328225" lon="1.750402">
        <ele>1498.4</ele>
        <time>2022-07-03T10:36:30Z</time>
      </trkpt>
      <trkpt lat="42.328262" lon="1.750456">
        <ele>1498.2</ele>
        <time>2022-07-03T10:36:31Z</time>
      </trkpt>
      <trkpt lat="42.328335" lon="1.750514">
        <ele>1498.0</ele>
        <time>2022-07-03T10:36:33Z</time>
      </trkpt>
      <trkpt lat="42.328393" lon="1.750545">
        <ele>1496.6</ele>
        <time>2022-07-03T10:36:35Z</time>
      </trkpt>
      <trkpt lat="42.328452" lon="1.750584">
        <ele>1495.7</ele>
        <time>2022-07-03T10:36:38Z</time>
      </trkpt>
      <trkpt lat="42.328512" lon="1.750610">
        <ele>1494.4</ele>
        <time>2022-07-03T10:36:41Z</time>
      </trkpt>
      <trkpt lat="42.328566" lon="1.750576">
        <ele>1493.0</ele>
        <time>2022-07-03T10:36:44Z</time>
      </trkpt>
      <trkpt lat="42.328636" lon="1.750556">
        <ele>1490.8</ele>
        <time>2022-07-03T10:36:47Z</time>
      </trkpt>
      <trkpt lat="42.328699" lon="1.750542">
        <ele>1489.8</ele>
        <time>2022-07-03T10:36:49Z</time>
      </trkpt>
      <trkpt lat="42.328773" lon="1.750502">
        <ele>1488.6</ele>
        <time>2022-07-03T10:36:52Z</time>
      </trkpt>
      <trkpt lat="42.328835" lon="1.750469">
        <ele>1487.1</ele>
        <time>2022-07-03T10:36:55Z</time>
      </trkpt>
      <trkpt lat="42.328925" lon="1.750457">
        <ele>1486.2</ele>
        <time>2022-07-03T10:36:57Z</time>
      </trkpt>
      <trkpt lat="42.328985" lon="1.750444">
        <ele>1485.6</ele>
        <time>2022-07-03T10:36:58Z</time>
      </trkpt>
      <trkpt lat="42.329043" lon="1.750420">
        <ele>1484.4</ele>
        <time>2022-07-03T10:37:00Z</time>
      </trkpt>
      <trkpt lat="42.329100" lon="1.750399">
        <ele>1483.5</ele>
        <time>2022-07-03T10:37:02Z</time>
      </trkpt>
      <trkpt lat="42.329167" lon="1.750383">
        <ele>1482.0</ele>
        <time>2022-07-03T10:37:05Z</time>
      </trkpt>
      <trkpt lat="42.329227" lon="1.750318">
        <ele>1480.2</ele>
        <time>2022-07-03T10:37:10Z</time>
      </trkpt>
      <trkpt lat="42.329280" lon="1.750287">
        <ele>1478.5</ele>
        <time>2022-07-03T10:37:16Z</time>
      </trkpt>
      <trkpt lat="42.329330" lon="1.750233">
        <ele>1476.7</ele>
        <time>2022-07-03T10:37:23Z</time>
      </trkpt>
      <trkpt lat="42.329393" lon="1.750201">
        <ele>1475.8</ele>
        <time>2022-07-03T10:37:27Z</time>
      </trkpt>
      <trkpt lat="42.329430" lon="1.750144">
        <ele>1474.4</ele>
        <time>2022-07-03T10:37:33Z</time>
      </trkpt>
      <trkpt lat="42.329467" lon="1.750084">
        <ele>1474.1</ele>
        <time>2022-07-03T10:37:36Z</time>
      </trkpt>
      <trkpt lat="42.329517" lon="1.750014">
        <ele>1473.3</ele>
        <time>2022-07-03T10:37:39Z</time>
      </trkpt>
      <trkpt lat="42.329562" lon="1.749929">
        <ele>1472.4</ele>
        <time>2022-07-03T10:37:41Z</time>
      </trkpt>
      <trkpt lat="42.329599" lon="1.749852">
        <ele>1471.2</ele>
        <time>2022-07-03T10:37:43Z</time>
      </trkpt>
      <trkpt lat="42.329637" lon="1.749775">
        <ele>1470.3</ele>
        <time>2022-07-03T10:37:45Z</time>
      </trkpt>
      <trkpt lat="42.329664" lon="1.749689">
        <ele>1469.8</ele>
        <time>2022-07-03T10:37:47Z</time>
      </trkpt>
      <trkpt lat="42.329708" lon="1.749594">
        <ele>1467.9</ele>
        <time>2022-07-03T10:37:49Z</time>
      </trkpt>
      <trkpt lat="42.329740" lon="1.749533">
        <ele>1467.4</ele>
        <time>2022-07-03T10:37:51Z</time>
      </trkpt>
      <trkpt lat="42.329790" lon="1.749435">
        <ele>1466.1</ele>
        <time>2022-07-03T10:37:54Z</time>
      </trkpt>
      <trkpt lat="42.329826" lon="1.749377">
        <ele>1465.3</ele>
        <time>2022-07-03T10:37:56Z</time>
      </trkpt>
      <trkpt lat="42.329827" lon="1.749301">
        <ele>1464.6</ele>
        <time>2022-07-03T10:37:58Z</time>
      </trkpt>
      <trkpt lat="42.329873" lon="1.749260">
        <ele>1463.8</ele>
        <time>2022-07-03T10:38:00Z</time>
      </trkpt>
      <trkpt lat="42.329927" lon="1.749230">
        <ele>1463.1</ele>
        <time>2022-07-03T10:38:02Z</time>
      </trkpt>
      <trkpt lat="42.329984" lon="1.749197">
        <ele>1462.1</ele>
        <time>2022-07-03T10:38:06Z</time>
      </trkpt>
      <trkpt lat="42.330038" lon="1.749218">
        <ele>1460.6</ele>
        <time>2022-07-03T10:38:13Z</time>
      </trkpt>
      <trkpt lat="42.330094" lon="1.749215">
        <ele>1460.2</ele>
        <time>2022-07-03T10:38:19Z</time>
      </trkpt>
      <trkpt lat="42.330148" lon="1.749229">
        <ele>1460.3</ele>
        <time>2022-07-03T10:38:49Z</time>
      </trkpt>
      <trkpt lat="42.330201" lon="1.749263">
        <ele>1459.9</ele>
        <time>2022-07-03T10:39:08Z</time>
      </trkpt>
      <trkpt lat="42.330223" lon="1.749341">
        <ele>1459.7</ele>
        <time>2022-07-03T10:39:10Z</time>
      </trkpt>
      <trkpt lat="42.330262" lon="1.749395">
        <ele>1459.2</ele>
        <time>2022-07-03T10:39:12Z</time>
      </trkpt>
      <trkpt lat="42.330315" lon="1.749431">
        <ele>1458.8</ele>
        <time>2022-07-03T10:39:14Z</time>
      </trkpt>
      <trkpt lat="42.330364" lon="1.749461">
        <ele>1457.9</ele>
        <time>2022-07-03T10:39:16Z</time>
      </trkpt>
      <trkpt lat="42.330433" lon="1.749479">
        <ele>1456.6</ele>
        <time>2022-07-03T10:39:18Z</time>
      </trkpt>
      <trkpt lat="42.330501" lon="1.749520">
        <ele>1455.6</ele>
        <time>2022-07-03T10:39:20Z</time>
      </trkpt>
      <trkpt lat="42.330536" lon="1.749580">
        <ele>1454.0</ele>
        <time>2022-07-03T10:39:22Z</time>
      </trkpt>
      <trkpt lat="42.330561" lon="1.749644">
        <ele>1451.8</ele>
        <time>2022-07-03T10:39:29Z</time>
      </trkpt>
      <trkpt lat="42.330615" lon="1.749657">
        <ele>1450.0</ele>
        <time>2022-07-03T10:39:40Z</time>
      </trkpt>
      <trkpt lat="42.330665" lon="1.749695">
        <ele>1449.1</ele>
        <time>2022-07-03T10:39:44Z</time>
      </trkpt>
      <trkpt lat="42.330746" lon="1.749707">
        <ele>1447.6</ele>
        <time>2022-07-03T10:39:47Z</time>
      </trkpt>
      <trkpt lat="42.330830" lon="1.749723">
        <ele>1447.2</ele>
        <time>2022-07-03T10:39:49Z</time>
      </trkpt>
      <trkpt lat="42.330896" lon="1.749741">
        <ele>1446.6</ele>
        <time>2022-07-03T10:39:51Z</time>
      </trkpt>
      <trkpt lat="42.330951" lon="1.749752">
        <ele>1446.0</ele>
        <time>2022-07-03T10:39:54Z</time>
      </trkpt>
      <trkpt lat="42.331004" lon="1.749768">
        <ele>1444.4</ele>
        <time>2022-07-03T10:40:01Z</time>
      </trkpt>
      <trkpt lat="42.331070" lon="1.749760">
        <ele>1443.4</ele>
        <time>2022-07-03T10:40:07Z</time>
      </trkpt>
      <trkpt lat="42.331126" lon="1.749805">
        <ele>1442.0</ele>
        <time>2022-07-03T10:40:12Z</time>
      </trkpt>
      <trkpt lat="42.331185" lon="1.749789">
        <ele>1440.0</ele>
        <time>2022-07-03T10:40:20Z</time>
      </trkpt>
      <trkpt lat="42.331263" lon="1.749743">
        <ele>1439.6</ele>
        <time>2022-07-03T10:40:23Z</time>
      </trkpt>
      <trkpt lat="42.331307" lon="1.749689">
        <ele>1439.1</ele>
        <time>2022-07-03T10:40:24Z</time>
      </trkpt>
      <trkpt lat="42.331360" lon="1.749636">
        <ele>1438.4</ele>
        <time>2022-07-03T10:40:25Z</time>
      </trkpt>
      <trkpt lat="42.331422" lon="1.749545">
        <ele>1437.1</ele>
        <time>2022-07-03T10:40:27Z</time>
      </trkpt>
      <trkpt lat="42.331470" lon="1.749503">
        <ele>1436.0</ele>
        <time>2022-07-03T10:40:29Z</time>
      </trkpt>
      <trkpt lat="42.331532" lon="1.749474">
        <ele>1435.4</ele>
        <time>2022-07-03T10:40:32Z</time>
      </trkpt>
      <trkpt lat="42.331603" lon="1.749442">
        <ele>1435.6</ele>
        <time>2022-07-03T10:40:35Z</time>
      </trkpt>
      <trkpt lat="42.331679" lon="1.749436">
        <ele>1435.9</ele>
        <time>2022-07-03T10:40:38Z</time>
      </trkpt>
      <trkpt lat="42.331736" lon="1.749445">
        <ele>1436.0</ele>
        <time>2022-07-03T10:40:40Z</time>
      </trkpt>
      <trkpt lat="42.331833" lon="1.749454">
        <ele>1435.9</ele>
        <time>2022-07-03T10:40:43Z</time>
      </trkpt>
      <trkpt lat="42.331901" lon="1.749474">
        <ele>1435.7</ele>
        <time>2022-07-03T10:40:45Z</time>
      </trkpt>
      <trkpt lat="42.331961" lon="1.749479">
        <ele>1435.8</ele>
        <time>2022-07-03T10:40:49Z</time>
      </trkpt>
      <trkpt lat="42.332028" lon="1.749500">
        <ele>1436.1</ele>
        <time>2022-07-03T10:40:53Z</time>
      </trkpt>
      <trkpt lat="42.332091" lon="1.749567">
        <ele>1436.5</ele>
        <time>2022-07-03T10:40:58Z</time>
      </trkpt>
      <trkpt lat="42.332137" lon="1.749653">
        <ele>1435.6</ele>
        <time>2022-07-03T10:41:02Z</time>
      </trkpt>
      <trkpt lat="42.332209" lon="1.749691">
        <ele>1435.1</ele>
        <time>2022-07-03T10:41:05Z</time>
      </trkpt>
      <trkpt lat="42.332269" lon="1.749691">
        <ele>1434.2</ele>
        <time>2022-07-03T10:41:07Z</time>
      </trkpt>
      <trkpt lat="42.332350" lon="1.749696">
        <ele>1433.6</ele>
        <time>2022-07-03T10:41:10Z</time>
      </trkpt>
      <trkpt lat="42.332428" lon="1.749701">
        <ele>1434.0</ele>
        <time>2022-07-03T10:41:13Z</time>
      </trkpt>
      <trkpt lat="42.332513" lon="1.749698">
        <ele>1434.0</ele>
        <time>2022-07-03T10:41:17Z</time>
      </trkpt>
      <trkpt lat="42.332577" lon="1.749687">
        <ele>1434.6</ele>
        <time>2022-07-03T10:41:20Z</time>
      </trkpt>
      <trkpt lat="42.332638" lon="1.749667">
        <ele>1434.9</ele>
        <time>2022-07-03T10:41:23Z</time>
      </trkpt>
      <trkpt lat="42.332690" lon="1.749651">
        <ele>1435.3</ele>
        <time>2022-07-03T10:41:26Z</time>
      </trkpt>
      <trkpt lat="42.332751" lon="1.749622">
        <ele>1435.0</ele>
        <time>2022-07-03T10:41:29Z</time>
      </trkpt>
      <trkpt lat="42.332800" lon="1.749586">
        <ele>1436.1</ele>
        <time>2022-07-03T10:41:32Z</time>
      </trkpt>
      <trkpt lat="42.332849" lon="1.749550">
        <ele>1436.5</ele>
        <time>2022-07-03T10:41:35Z</time>
      </trkpt>
      <trkpt lat="42.332911" lon="1.749533">
        <ele>1436.9</ele>
        <time>2022-07-03T10:41:38Z</time>
      </trkpt>
      <trkpt lat="42.332966" lon="1.749527">
        <ele>1437.5</ele>
        <time>2022-07-03T10:41:45Z</time>
      </trkpt>
      <trkpt lat="42.333023" lon="1.749520">
        <ele>1438.0</ele>
        <time>2022-07-03T10:41:53Z</time>
      </trkpt>
      <trkpt lat="42.333102" lon="1.749551">
        <ele>1438.5</ele>
        <time>2022-07-03T10:42:00Z</time>
      </trkpt>
      <trkpt lat="42.333187" lon="1.749568">
        <ele>1438.0</ele>
        <time>2022-07-03T10:42:04Z</time>
      </trkpt>
      <trkpt lat="42.333241" lon="1.749616">
        <ele>1437.7</ele>
        <time>2022-07-03T10:42:08Z</time>
      </trkpt>
      <trkpt lat="42.333260" lon="1.749685">
        <ele>1437.2</ele>
        <time>2022-07-03T10:42:10Z</time>
      </trkpt>
      <trkpt lat="42.333271" lon="1.749760">
        <ele>1436.0</ele>
        <time>2022-07-03T10:42:12Z</time>
      </trkpt>
      <trkpt lat="42.333287" lon="1.749855">
        <ele>1434.9</ele>
        <time>2022-07-03T10:42:14Z</time>
      </trkpt>
      <trkpt lat="42.333301" lon="1.749940">
        <ele>1434.5</ele>
        <time>2022-07-03T10:42:16Z</time>
      </trkpt>
      <trkpt lat="42.333321" lon="1.750013">
        <ele>1431.8</ele>
        <time>2022-07-03T10:42:23Z</time>
      </trkpt>
      <trkpt lat="42.333353" lon="1.750084">
        <ele>1429.6</ele>
        <time>2022-07-03T10:42:33Z</time>
      </trkpt>
      <trkpt lat="42.333377" lon="1.750156">
        <ele>1428.6</ele>
        <time>2022-07-03T10:42:40Z</time>
      </trkpt>
      <trkpt lat="42.333415" lon="1.750245">
        <ele>1426.4</ele>
        <time>2022-07-03T10:42:52Z</time>
      </trkpt>
      <trkpt lat="42.333447" lon="1.750309">
        <ele>1424.8</ele>
        <time>2022-07-03T10:42:57Z</time>
      </trkpt>
      <trkpt lat="42.333450" lon="1.750389">
        <ele>1422.8</ele>
        <time>2022-07-03T10:43:03Z</time>
      </trkpt>
      <trkpt lat="42.333470" lon="1.750457">
        <ele>1421.8</ele>
        <time>2022-07-03T10:43:09Z</time>
      </trkpt>
      <trkpt lat="42.333510" lon="1.750514">
        <ele>1420.2</ele>
        <time>2022-07-03T10:43:16Z</time>
      </trkpt>
      <trkpt lat="42.333566" lon="1.750495">
        <ele>1419.3</ele>
        <time>2022-07-03T10:43:21Z</time>
      </trkpt>
      <trkpt lat="42.333613" lon="1.750534">
        <ele>1416.9</ele>
        <time>2022-07-03T10:43:34Z</time>
      </trkpt>
      <trkpt lat="42.333666" lon="1.750549">
        <ele>1414.6</ele>
        <time>2022-07-03T10:43:45Z</time>
      </trkpt>
      <trkpt lat="42.333724" lon="1.750587">
        <ele>1412.3</ele>
        <time>2022-07-03T10:43:53Z</time>
      </trkpt>
      <trkpt lat="42.333784" lon="1.750601">
        <ele>1410.0</ele>
        <time>2022-07-03T10:44:01Z</time>
      </trkpt>
      <trkpt lat="42.333846" lon="1.750627">
        <ele>1409.6</ele>
        <time>2022-07-03T10:44:04Z</time>
      </trkpt>
      <trkpt lat="42.333907" lon="1.750659">
        <ele>1409.0</ele>
        <time>2022-07-03T10:44:06Z</time>
      </trkpt>
      <trkpt lat="42.333961" lon="1.750710">
        <ele>1408.1</ele>
        <time>2022-07-03T10:44:08Z</time>
      </trkpt>
      <trkpt lat="42.334003" lon="1.750766">
        <ele>1407.0</ele>
        <time>2022-07-03T10:44:10Z</time>
      </trkpt>
      <trkpt lat="42.334044" lon="1.750871">
        <ele>1405.4</ele>
        <time>2022-07-03T10:44:13Z</time>
      </trkpt>
      <trkpt lat="42.334072" lon="1.750936">
        <ele>1404.6</ele>
        <time>2022-07-03T10:44:15Z</time>
      </trkpt>
      <trkpt lat="42.334117" lon="1.751009">
        <ele>1403.8</ele>
        <time>2022-07-03T10:44:17Z</time>
      </trkpt>
      <trkpt lat="42.334179" lon="1.751056">
        <ele>1402.7</ele>
        <time>2022-07-03T10:44:19Z</time>
      </trkpt>
      <trkpt lat="42.334247" lon="1.751068">
        <ele>1401.4</ele>
        <time>2022-07-03T10:44:21Z</time>
      </trkpt>
      <trkpt lat="42.334307" lon="1.751064">
        <ele>1401.3</ele>
        <time>2022-07-03T10:44:23Z</time>
      </trkpt>
      <trkpt lat="42.334376" lon="1.751068">
        <ele>1400.0</ele>
        <time>2022-07-03T10:44:26Z</time>
      </trkpt>
      <trkpt lat="42.334446" lon="1.751096">
        <ele>1401.2</ele>
        <time>2022-07-03T10:44:29Z</time>
      </trkpt>
      <trkpt lat="42.334510" lon="1.751119">
        <ele>1400.8</ele>
        <time>2022-07-03T10:44:32Z</time>
      </trkpt>
      <trkpt lat="42.334566" lon="1.751136">
        <ele>1401.3</ele>
        <time>2022-07-03T10:44:35Z</time>
      </trkpt>
      <trkpt lat="42.334630" lon="1.751158">
        <ele>1402.1</ele>
        <time>2022-07-03T10:44:39Z</time>
      </trkpt>
      <trkpt lat="42.334695" lon="1.751190">
        <ele>1403.0</ele>
        <time>2022-07-03T10:44:43Z</time>
      </trkpt>
      <trkpt lat="42.334760" lon="1.751208">
        <ele>1403.4</ele>
        <time>2022-07-03T10:44:46Z</time>
      </trkpt>
      <trkpt lat="42.334867" lon="1.751231">
        <ele>1404.0</ele>
        <time>2022-07-03T10:44:52Z</time>
      </trkpt>
      <trkpt lat="42.334921" lon="1.751194">
        <ele>1405.1</ele>
        <time>2022-07-03T10:44:56Z</time>
      </trkpt>
      <trkpt lat="42.334967" lon="1.751136">
        <ele>1406.1</ele>
        <time>2022-07-03T10:45:01Z</time>
      </trkpt>
      <trkpt lat="42.334999" lon="1.751073">
        <ele>1407.0</ele>
        <time>2022-07-03T10:45:05Z</time>
      </trkpt>
      <trkpt lat="42.335027" lon="1.751004">
        <ele>1407.6</ele>
        <time>2022-07-03T10:45:09Z</time>
      </trkpt>
      <trkpt lat="42.335052" lon="1.750931">
        <ele>1408.1</ele>
        <time>2022-07-03T10:45:13Z</time>
      </trkpt>
      <trkpt lat="42.335081" lon="1.750845">
        <ele>1408.8</ele>
        <time>2022-07-03T10:45:17Z</time>
      </trkpt>
      <trkpt lat="42.335111" lon="1.750755">
        <ele>1408.8</ele>
        <time>2022-07-03T10:45:21Z</time>
      </trkpt>
      <trkpt lat="42.335150" lon="1.750683">
        <ele>1409.2</ele>
        <time>2022-07-03T10:45:24Z</time>
      </trkpt>
      <trkpt lat="42.335191" lon="1.750610">
        <ele>1408.9</ele>
        <time>2022-07-03T10:45:27Z</time>
      </trkpt>
      <trkpt lat="42.335238" lon="1.750530">
        <ele>1408.8</ele>
        <time>2022-07-03T10:45:30Z</time>
      </trkpt>
      <trkpt lat="42.335293" lon="1.750512">
        <ele>1408.4</ele>
        <time>2022-07-03T10:45:32Z</time>
      </trkpt>
      <trkpt lat="42.335354" lon="1.750495">
        <ele>1407.0</ele>
        <time>2022-07-03T10:45:37Z</time>
      </trkpt>
      <trkpt lat="42.335388" lon="1.750424">
        <ele>1405.9</ele>
        <time>2022-07-03T10:45:41Z</time>
      </trkpt>
      <trkpt lat="42.335414" lon="1.750334">
        <ele>1404.1</ele>
        <time>2022-07-03T10:45:46Z</time>
      </trkpt>
      <trkpt lat="42.335447" lon="1.750257">
        <ele>1403.2</ele>
        <time>2022-07-03T10:45:49Z</time>
      </trkpt>
      <trkpt lat="42.335474" lon="1.750181">
        <ele>1402.8</ele>
        <time>2022-07-03T10:45:52Z</time>
      </trkpt>
      <trkpt lat="42.335496" lon="1.750102">
        <ele>1401.5</ele>
        <time>2022-07-03T10:45:55Z</time>
      </trkpt>
      <trkpt lat="42.335516" lon="1.750001">
        <ele>1400.3</ele>
        <time>2022-07-03T10:45:58Z</time>
      </trkpt>
      <trkpt lat="42.335539" lon="1.749913">
        <ele>1398.5</ele>
        <time>2022-07-03T10:46:02Z</time>
      </trkpt>
      <trkpt lat="42.335561" lon="1.749811">
        <ele>1397.2</ele>
        <time>2022-07-03T10:46:05Z</time>
      </trkpt>
      <trkpt lat="42.335618" lon="1.749742">
        <ele>1396.0</ele>
        <time>2022-07-03T10:46:07Z</time>
      </trkpt>
      <trkpt lat="42.335655" lon="1.749641">
        <ele>1393.5</ele>
        <time>2022-07-03T10:46:10Z</time>
      </trkpt>
      <trkpt lat="42.335675" lon="1.749571">
        <ele>1392.1</ele>
        <time>2022-07-03T10:46:12Z</time>
      </trkpt>
      <trkpt lat="42.335677" lon="1.749459">
        <ele>1390.8</ele>
        <time>2022-07-03T10:46:14Z</time>
      </trkpt>
      <trkpt lat="42.335707" lon="1.749369">
        <ele>1389.0</ele>
        <time>2022-07-03T10:46:16Z</time>
      </trkpt>
      <trkpt lat="42.335740" lon="1.749288">
        <ele>1387.6</ele>
        <time>2022-07-03T10:46:18Z</time>
      </trkpt>
      <trkpt lat="42.335764" lon="1.749206">
        <ele>1386.3</ele>
        <time>2022-07-03T10:46:20Z</time>
      </trkpt>
      <trkpt lat="42.335790" lon="1.749116">
        <ele>1384.9</ele>
        <time>2022-07-03T10:46:22Z</time>
      </trkpt>
      <trkpt lat="42.335800" lon="1.749029">
        <ele>1383.6</ele>
        <time>2022-07-03T10:46:24Z</time>
      </trkpt>
      <trkpt lat="42.335847" lon="1.748951">
        <ele>1381.8</ele>
        <time>2022-07-03T10:46:26Z</time>
      </trkpt>
      <trkpt lat="42.335881" lon="1.748860">
        <ele>1380.5</ele>
        <time>2022-07-03T10:46:28Z</time>
      </trkpt>
      <trkpt lat="42.335910" lon="1.748783">
        <ele>1379.1</ele>
        <time>2022-07-03T10:46:30Z</time>
      </trkpt>
      <trkpt lat="42.335920" lon="1.748692">
        <ele>1378.2</ele>
        <time>2022-07-03T10:46:32Z</time>
      </trkpt>
      <trkpt lat="42.335956" lon="1.748629">
        <ele>1377.3</ele>
        <time>2022-07-03T10:46:34Z</time>
      </trkpt>
      <trkpt lat="42.335968" lon="1.748516">
        <ele>1375.1</ele>
        <time>2022-07-03T10:46:37Z</time>
      </trkpt>
      <trkpt lat="42.336029" lon="1.748460">
        <ele>1373.8</ele>
        <time>2022-07-03T10:46:39Z</time>
      </trkpt>
      <trkpt lat="42.336063" lon="1.748395">
        <ele>1372.6</ele>
        <time>2022-07-03T10:46:41Z</time>
      </trkpt>
      <trkpt lat="42.336107" lon="1.748337">
        <ele>1371.9</ele>
        <time>2022-07-03T10:46:43Z</time>
      </trkpt>
      <trkpt lat="42.336174" lon="1.748268">
        <ele>1369.6</ele>
        <time>2022-07-03T10:46:46Z</time>
      </trkpt>
      <trkpt lat="42.336194" lon="1.748186">
        <ele>1368.3</ele>
        <time>2022-07-03T10:46:48Z</time>
      </trkpt>
      <trkpt lat="42.336225" lon="1.748113">
        <ele>1366.5</ele>
        <time>2022-07-03T10:46:51Z</time>
      </trkpt>
      <trkpt lat="42.336250" lon="1.748016">
        <ele>1364.9</ele>
        <time>2022-07-03T10:46:54Z</time>
      </trkpt>
      <trkpt lat="42.336335" lon="1.748023">
        <ele>1360.6</ele>
        <time>2022-07-03T10:47:03Z</time>
      </trkpt>
      <trkpt lat="42.336403" lon="1.748019">
        <ele>1359.3</ele>
        <time>2022-07-03T10:47:07Z</time>
      </trkpt>
      <trkpt lat="42.336460" lon="1.748005">
        <ele>1357.5</ele>
        <time>2022-07-03T10:47:13Z</time>
      </trkpt>
      <trkpt lat="42.336521" lon="1.748007">
        <ele>1356.2</ele>
        <time>2022-07-03T10:47:21Z</time>
      </trkpt>
      <trkpt lat="42.336567" lon="1.747968">
        <ele>1353.7</ele>
        <time>2022-07-03T10:48:22Z</time>
      </trkpt>
      <trkpt lat="42.336625" lon="1.747998">
        <ele>1353.0</ele>
        <time>2022-07-03T10:49:16Z</time>
      </trkpt>
      <trkpt lat="42.336581" lon="1.748056">
        <ele>1353.9</ele>
        <time>2022-07-03T10:49:37Z</time>
      </trkpt>
      <trkpt lat="42.336637" lon="1.748096">
        <ele>1353.9</ele>
        <time>2022-07-03T10:49:55Z</time>
      </trkpt>
      <trkpt lat="42.336693" lon="1.748075">
        <ele>1352.4</ele>
        <time>2022-07-03T10:50:11Z</time>
      </trkpt>
      <trkpt lat="42.336725" lon="1.748134">
        <ele>1348.7</ele>
        <time>2022-07-03T10:50:26Z</time>
      </trkpt>
      <trkpt lat="42.336799" lon="1.748144">
        <ele>1346.2</ele>
        <time>2022-07-03T10:50:36Z</time>
      </trkpt>
      <trkpt lat="42.336854" lon="1.748133">
        <ele>1344.7</ele>
        <time>2022-07-03T10:50:44Z</time>
      </trkpt>
      <trkpt lat="42.336917" lon="1.748148">
        <ele>1343.6</ele>
        <time>2022-07-03T10:50:56Z</time>
      </trkpt>
      <trkpt lat="42.337014" lon="1.748163">
        <ele>1342.2</ele>
        <time>2022-07-03T10:51:07Z</time>
      </trkpt>
      <trkpt lat="42.337074" lon="1.748169">
        <ele>1340.7</ele>
        <time>2022-07-03T10:51:12Z</time>
      </trkpt>
      <trkpt lat="42.337133" lon="1.748206">
        <ele>1339.0</ele>
        <time>2022-07-03T10:51:17Z</time>
      </trkpt>
      <trkpt lat="42.337225" lon="1.748210">
        <ele>1338.4</ele>
        <time>2022-07-03T10:51:19Z</time>
      </trkpt>
      <trkpt lat="42.337277" lon="1.748246">
        <ele>1337.8</ele>
        <time>2022-07-03T10:51:21Z</time>
      </trkpt>
      <trkpt lat="42.337320" lon="1.748290">
        <ele>1337.2</ele>
        <time>2022-07-03T10:51:23Z</time>
      </trkpt>
      <trkpt lat="42.337367" lon="1.748351">
        <ele>1335.9</ele>
        <time>2022-07-03T10:51:26Z</time>
      </trkpt>
      <trkpt lat="42.337417" lon="1.748384">
        <ele>1334.6</ele>
        <time>2022-07-03T10:51:29Z</time>
      </trkpt>
      <trkpt lat="42.337479" lon="1.748449">
        <ele>1333.4</ele>
        <time>2022-07-03T10:51:33Z</time>
      </trkpt>
      <trkpt lat="42.337513" lon="1.748520">
        <ele>1332.7</ele>
        <time>2022-07-03T10:51:35Z</time>
      </trkpt>
      <trkpt lat="42.337557" lon="1.748589">
        <ele>1332.2</ele>
        <time>2022-07-03T10:51:38Z</time>
      </trkpt>
      <trkpt lat="42.337602" lon="1.748643">
        <ele>1331.1</ele>
        <time>2022-07-03T10:51:42Z</time>
      </trkpt>
      <trkpt lat="42.337651" lon="1.748689">
        <ele>1330.3</ele>
        <time>2022-07-03T10:51:45Z</time>
      </trkpt>
      <trkpt lat="42.337699" lon="1.748723">
        <ele>1329.8</ele>
        <time>2022-07-03T10:51:47Z</time>
      </trkpt>
      <trkpt lat="42.337746" lon="1.748774">
        <ele>1329.5</ele>
        <time>2022-07-03T10:51:50Z</time>
      </trkpt>
      <trkpt lat="42.337786" lon="1.748829">
        <ele>1328.1</ele>
        <time>2022-07-03T10:51:55Z</time>
      </trkpt>
      <trkpt lat="42.337843" lon="1.748885">
        <ele>1327.7</ele>
        <time>2022-07-03T10:51:58Z</time>
      </trkpt>
      <trkpt lat="42.337899" lon="1.748929">
        <ele>1327.5</ele>
        <time>2022-07-03T10:52:00Z</time>
      </trkpt>
      <trkpt lat="42.337957" lon="1.748980">
        <ele>1327.0</ele>
        <time>2022-07-03T10:52:02Z</time>
      </trkpt>
      <trkpt lat="42.338016" lon="1.749014">
        <ele>1326.3</ele>
        <time>2022-07-03T10:52:04Z</time>
      </trkpt>
      <trkpt lat="42.338072" lon="1.749064">
        <ele>1325.4</ele>
        <time>2022-07-03T10:52:07Z</time>
      </trkpt>
      <trkpt lat="42.338142" lon="1.749119">
        <ele>1324.2</ele>
        <time>2022-07-03T10:52:10Z</time>
      </trkpt>
      <trkpt lat="42.338182" lon="1.749169">
        <ele>1323.1</ele>
        <time>2022-07-03T10:52:12Z</time>
      </trkpt>
      <trkpt lat="42.338252" lon="1.749223">
        <ele>1321.0</ele>
        <time>2022-07-03T10:52:14Z</time>
      </trkpt>
      <trkpt lat="42.338298" lon="1.749311">
        <ele>1320.1</ele>
        <time>2022-07-03T10:52:16Z</time>
      </trkpt>
      <trkpt lat="42.338337" lon="1.749366">
        <ele>1319.1</ele>
        <time>2022-07-03T10:52:18Z</time>
      </trkpt>
      <trkpt lat="42.338384" lon="1.749405">
        <ele>1318.2</ele>
        <time>2022-07-03T10:52:21Z</time>
      </trkpt>
      <trkpt lat="42.338433" lon="1.749438">
        <ele>1316.8</ele>
        <time>2022-07-03T10:52:25Z</time>
      </trkpt>
      <trkpt lat="42.338492" lon="1.749443">
        <ele>1314.7</ele>
        <time>2022-07-03T10:52:31Z</time>
      </trkpt>
      <trkpt lat="42.338534" lon="1.749499">
        <ele>1313.8</ele>
        <time>2022-07-03T10:52:33Z</time>
      </trkpt>
      <trkpt lat="42.338583" lon="1.749582">
        <ele>1312.4</ele>
        <time>2022-07-03T10:52:36Z</time>
      </trkpt>
      <trkpt lat="42.338622" lon="1.749643">
        <ele>1311.7</ele>
        <time>2022-07-03T10:52:38Z</time>
      </trkpt>
      <trkpt lat="42.338654" lon="1.749703">
        <ele>1310.3</ele>
        <time>2022-07-03T10:52:40Z</time>
      </trkpt>
      <trkpt lat="42.338676" lon="1.749780">
        <ele>1308.5</ele>
        <time>2022-07-03T10:52:43Z</time>
      </trkpt>
      <trkpt lat="42.338707" lon="1.749863">
        <ele>1307.0</ele>
        <time>2022-07-03T10:52:46Z</time>
      </trkpt>
      <trkpt lat="42.338740" lon="1.749933">
        <ele>1306.1</ele>
        <time>2022-07-03T10:52:48Z</time>
      </trkpt>
      <trkpt lat="42.338761" lon="1.750005">
        <ele>1305.1</ele>
        <time>2022-07-03T10:52:50Z</time>
      </trkpt>
      <trkpt lat="42.338765" lon="1.750087">
        <ele>1303.9</ele>
        <time>2022-07-03T10:52:52Z</time>
      </trkpt>
      <trkpt lat="42.338773" lon="1.750173">
        <ele>1302.4</ele>
        <time>2022-07-03T10:52:54Z</time>
      </trkpt>
      <trkpt lat="42.338780" lon="1.750286">
        <ele>1300.8</ele>
        <time>2022-07-03T10:52:57Z</time>
      </trkpt>
      <trkpt lat="42.338801" lon="1.750378">
        <ele>1299.1</ele>
        <time>2022-07-03T10:53:00Z</time>
      </trkpt>
      <trkpt lat="42.338829" lon="1.750475">
        <ele>1296.8</ele>
        <time>2022-07-03T10:53:03Z</time>
      </trkpt>
      <trkpt lat="42.338856" lon="1.750559">
        <ele>1295.3</ele>
        <time>2022-07-03T10:53:06Z</time>
      </trkpt>
      <trkpt lat="42.338883" lon="1.750634">
        <ele>1294.6</ele>
        <time>2022-07-03T10:53:08Z</time>
      </trkpt>
      <trkpt lat="42.338911" lon="1.750697">
        <ele>1293.8</ele>
        <time>2022-07-03T10:53:10Z</time>
      </trkpt>
      <trkpt lat="42.338952" lon="1.750749">
        <ele>1292.7</ele>
        <time>2022-07-03T10:53:12Z</time>
      </trkpt>
      <trkpt lat="42.339009" lon="1.750816">
        <ele>1291.5</ele>
        <time>2022-07-03T10:53:15Z</time>
      </trkpt>
      <trkpt lat="42.339083" lon="1.750898">
        <ele>1289.0</ele>
        <time>2022-07-03T10:53:18Z</time>
      </trkpt>
      <trkpt lat="42.339153" lon="1.751003">
        <ele>1286.0</ele>
        <time>2022-07-03T10:53:22Z</time>
      </trkpt>
      <trkpt lat="42.339186" lon="1.751078">
        <ele>1286.0</ele>
        <time>2022-07-03T10:53:25Z</time>
      </trkpt>
      <trkpt lat="42.339218" lon="1.751148">
        <ele>1284.0</ele>
        <time>2022-07-03T10:53:27Z</time>
      </trkpt>
      <trkpt lat="42.339300" lon="1.751319">
        <ele>1283.0</ele>
        <time>2022-07-03T10:53:31Z</time>
      </trkpt>
      <trkpt lat="42.339354" lon="1.751440">
        <ele>1282.7</ele>
        <time>2022-07-03T10:53:34Z</time>
      </trkpt>
      <trkpt lat="42.339376" lon="1.751511">
        <ele>1281.0</ele>
        <time>2022-07-03T10:53:36Z</time>
      </trkpt>
      <trkpt lat="42.339406" lon="1.751635">
        <ele>1280.0</ele>
        <time>2022-07-03T10:53:39Z</time>
      </trkpt>
      <trkpt lat="42.339415" lon="1.751712">
        <ele>1279.1</ele>
        <time>2022-07-03T10:53:41Z</time>
      </trkpt>
      <trkpt lat="42.339429" lon="1.751795">
        <ele>1277.9</ele>
        <time>2022-07-03T10:53:43Z</time>
      </trkpt>
      <trkpt lat="42.339428" lon="1.751901">
        <ele>1276.5</ele>
        <time>2022-07-03T10:53:46Z</time>
      </trkpt>
      <trkpt lat="42.339424" lon="1.751989">
        <ele>1274.9</ele>
        <time>2022-07-03T10:53:50Z</time>
      </trkpt>
      <trkpt lat="42.339427" lon="1.752062">
        <ele>1273.1</ele>
        <time>2022-07-03T10:53:55Z</time>
      </trkpt>
      <trkpt lat="42.339454" lon="1.752144">
        <ele>1271.7</ele>
        <time>2022-07-03T10:53:59Z</time>
      </trkpt>
      <trkpt lat="42.339501" lon="1.752245">
        <ele>1270.7</ele>
        <time>2022-07-03T10:54:02Z</time>
      </trkpt>
      <trkpt lat="42.339541" lon="1.752327">
        <ele>1269.6</ele>
        <time>2022-07-03T10:54:04Z</time>
      </trkpt>
      <trkpt lat="42.339579" lon="1.752411">
        <ele>1268.5</ele>
        <time>2022-07-03T10:54:06Z</time>
      </trkpt>
      <trkpt lat="42.339606" lon="1.752488">
        <ele>1267.6</ele>
        <time>2022-07-03T10:54:08Z</time>
      </trkpt>
      <trkpt lat="42.339631" lon="1.752573">
        <ele>1266.7</ele>
        <time>2022-07-03T10:54:10Z</time>
      </trkpt>
      <trkpt lat="42.339660" lon="1.752659">
        <ele>1265.9</ele>
        <time>2022-07-03T10:54:12Z</time>
      </trkpt>
      <trkpt lat="42.339690" lon="1.752730">
        <ele>1264.8</ele>
        <time>2022-07-03T10:54:14Z</time>
      </trkpt>
      <trkpt lat="42.339701" lon="1.752822">
        <ele>1264.4</ele>
        <time>2022-07-03T10:54:16Z</time>
      </trkpt>
      <trkpt lat="42.339704" lon="1.752935">
        <ele>1263.7</ele>
        <time>2022-07-03T10:54:18Z</time>
      </trkpt>
      <trkpt lat="42.339710" lon="1.753043">
        <ele>1263.2</ele>
        <time>2022-07-03T10:54:20Z</time>
      </trkpt>
      <trkpt lat="42.339735" lon="1.753161">
        <ele>1262.3</ele>
        <time>2022-07-03T10:54:22Z</time>
      </trkpt>
      <trkpt lat="42.339753" lon="1.753273">
        <ele>1260.7</ele>
        <time>2022-07-03T10:54:24Z</time>
      </trkpt>
      <trkpt lat="42.339785" lon="1.753354">
        <ele>1260.0</ele>
        <time>2022-07-03T10:54:26Z</time>
      </trkpt>
      <trkpt lat="42.339829" lon="1.753415">
        <ele>1259.3</ele>
        <time>2022-07-03T10:54:28Z</time>
      </trkpt>
      <trkpt lat="42.339872" lon="1.753503">
        <ele>1258.1</ele>
        <time>2022-07-03T10:54:31Z</time>
      </trkpt>
      <trkpt lat="42.339926" lon="1.753546">
        <ele>1256.7</ele>
        <time>2022-07-03T10:54:34Z</time>
      </trkpt>
      <trkpt lat="42.339974" lon="1.753605">
        <ele>1254.9</ele>
        <time>2022-07-03T10:54:37Z</time>
      </trkpt>
      <trkpt lat="42.340032" lon="1.753658">
        <ele>1253.1</ele>
        <time>2022-07-03T10:54:40Z</time>
      </trkpt>
      <trkpt lat="42.340075" lon="1.753711">
        <ele>1252.2</ele>
        <time>2022-07-03T10:54:42Z</time>
      </trkpt>
      <trkpt lat="42.340128" lon="1.753746">
        <ele>1251.2</ele>
        <time>2022-07-03T10:54:44Z</time>
      </trkpt>
      <trkpt lat="42.340198" lon="1.753795">
        <ele>1250.6</ele>
        <time>2022-07-03T10:54:47Z</time>
      </trkpt>
      <trkpt lat="42.340259" lon="1.753832">
        <ele>1250.3</ele>
        <time>2022-07-03T10:54:49Z</time>
      </trkpt>
      <trkpt lat="42.340328" lon="1.753863">
        <ele>1249.6</ele>
        <time>2022-07-03T10:54:51Z</time>
      </trkpt>
      <trkpt lat="42.340406" lon="1.753920">
        <ele>1249.1</ele>
        <time>2022-07-03T10:54:53Z</time>
      </trkpt>
      <trkpt lat="42.340442" lon="1.753981">
        <ele>1248.2</ele>
        <time>2022-07-03T10:54:59Z</time>
      </trkpt>
      <trkpt lat="42.340495" lon="1.754033">
        <ele>1247.9</ele>
        <time>2022-07-03T10:55:03Z</time>
      </trkpt>
      <trkpt lat="42.340547" lon="1.754072">
        <ele>1247.9</ele>
        <time>2022-07-03T10:55:10Z</time>
      </trkpt>
      <trkpt lat="42.340625" lon="1.754114">
        <ele>1247.9</ele>
        <time>2022-07-03T10:55:13Z</time>
      </trkpt>
      <trkpt lat="42.340673" lon="1.754152">
        <ele>1247.3</ele>
        <time>2022-07-03T10:55:22Z</time>
      </trkpt>
      <trkpt lat="42.340734" lon="1.754192">
        <ele>1247.5</ele>
        <time>2022-07-03T10:56:14Z</time>
      </trkpt>
      <trkpt lat="42.340800" lon="1.754194">
        <ele>1247.8</ele>
        <time>2022-07-03T10:56:17Z</time>
      </trkpt>
      <trkpt lat="42.340875" lon="1.754182">
        <ele>1247.6</ele>
        <time>2022-07-03T10:56:20Z</time>
      </trkpt>
      <trkpt lat="42.340941" lon="1.754170">
        <ele>1247.6</ele>
        <time>2022-07-03T10:56:23Z</time>
      </trkpt>
      <trkpt lat="42.341002" lon="1.754153">
        <ele>1247.7</ele>
        <time>2022-07-03T10:56:26Z</time>
      </trkpt>
      <trkpt lat="42.341083" lon="1.754135">
        <ele>1247.0</ele>
        <time>2022-07-03T10:56:30Z</time>
      </trkpt>
      <trkpt lat="42.341140" lon="1.754125">
        <ele>1248.4</ele>
        <time>2022-07-03T10:56:33Z</time>
      </trkpt>
      <trkpt lat="42.341266" lon="1.754094">
        <ele>1248.0</ele>
        <time>2022-07-03T10:56:40Z</time>
      </trkpt>
      <trkpt lat="42.341375" lon="1.754117">
        <ele>1248.9</ele>
        <time>2022-07-03T10:56:45Z</time>
      </trkpt>
      <trkpt lat="42.341430" lon="1.754112">
        <ele>1249.2</ele>
        <time>2022-07-03T10:56:47Z</time>
      </trkpt>
      <trkpt lat="42.341502" lon="1.754122">
        <ele>1249.1</ele>
        <time>2022-07-03T10:56:50Z</time>
      </trkpt>
      <trkpt lat="42.341574" lon="1.754139">
        <ele>1249.3</ele>
        <time>2022-07-03T10:56:53Z</time>
      </trkpt>
      <trkpt lat="42.341629" lon="1.754198">
        <ele>1249.2</ele>
        <time>2022-07-03T10:56:56Z</time>
      </trkpt>
      <trkpt lat="42.341677" lon="1.754242">
        <ele>1248.9</ele>
        <time>2022-07-03T10:56:58Z</time>
      </trkpt>
      <trkpt lat="42.341730" lon="1.754329">
        <ele>1248.7</ele>
        <time>2022-07-03T10:57:01Z</time>
      </trkpt>
      <trkpt lat="42.341779" lon="1.754417">
        <ele>1248.5</ele>
        <time>2022-07-03T10:57:03Z</time>
      </trkpt>
      <trkpt lat="42.341828" lon="1.754481">
        <ele>1248.1</ele>
        <time>2022-07-03T10:57:05Z</time>
      </trkpt>
      <trkpt lat="42.341873" lon="1.754552">
        <ele>1247.7</ele>
        <time>2022-07-03T10:57:07Z</time>
      </trkpt>
      <trkpt lat="42.341900" lon="1.754617">
        <ele>1247.5</ele>
        <time>2022-07-03T10:57:09Z</time>
      </trkpt>
      <trkpt lat="42.341938" lon="1.754699">
        <ele>1246.7</ele>
        <time>2022-07-03T10:57:12Z</time>
      </trkpt>
      <trkpt lat="42.341971" lon="1.754768">
        <ele>1245.3</ele>
        <time>2022-07-03T10:57:17Z</time>
      </trkpt>
      <trkpt lat="42.342050" lon="1.754807">
        <ele>1243.2</ele>
        <time>2022-07-03T10:57:21Z</time>
      </trkpt>
      <trkpt lat="42.342116" lon="1.754836">
        <ele>1242.2</ele>
        <time>2022-07-03T10:57:23Z</time>
      </trkpt>
      <trkpt lat="42.342184" lon="1.754880">
        <ele>1241.3</ele>
        <time>2022-07-03T10:57:26Z</time>
      </trkpt>
      <trkpt lat="42.342258" lon="1.754901">
        <ele>1239.4</ele>
        <time>2022-07-03T10:57:29Z</time>
      </trkpt>
      <trkpt lat="42.342325" lon="1.754937">
        <ele>1238.6</ele>
        <time>2022-07-03T10:57:31Z</time>
      </trkpt>
      <trkpt lat="42.342401" lon="1.754957">
        <ele>1237.7</ele>
        <time>2022-07-03T10:57:33Z</time>
      </trkpt>
      <trkpt lat="42.342462" lon="1.754976">
        <ele>1237.3</ele>
        <time>2022-07-03T10:57:35Z</time>
      </trkpt>
      <trkpt lat="42.342526" lon="1.754992">
        <ele>1236.6</ele>
        <time>2022-07-03T10:57:37Z</time>
      </trkpt>
      <trkpt lat="42.342588" lon="1.755013">
        <ele>1235.5</ele>
        <time>2022-07-03T10:57:39Z</time>
      </trkpt>
      <trkpt lat="42.342673" lon="1.755032">
        <ele>1235.1</ele>
        <time>2022-07-03T10:57:41Z</time>
      </trkpt>
      <trkpt lat="42.342756" lon="1.755048">
        <ele>1234.4</ele>
        <time>2022-07-03T10:57:43Z</time>
      </trkpt>
      <trkpt lat="42.342812" lon="1.755064">
        <ele>1233.8</ele>
        <time>2022-07-03T10:57:44Z</time>
      </trkpt>
      <trkpt lat="42.342919" lon="1.755089">
        <ele>1233.6</ele>
        <time>2022-07-03T10:57:46Z</time>
      </trkpt>
      <trkpt lat="42.343026" lon="1.755115">
        <ele>1233.1</ele>
        <time>2022-07-03T10:57:48Z</time>
      </trkpt>
      <trkpt lat="42.343084" lon="1.755130">
        <ele>1232.9</ele>
        <time>2022-07-03T10:57:49Z</time>
      </trkpt>
      <trkpt lat="42.343180" lon="1.755145">
        <ele>1232.5</ele>
        <time>2022-07-03T10:57:51Z</time>
      </trkpt>
      <trkpt lat="42.343270" lon="1.755146">
        <ele>1232.2</ele>
        <time>2022-07-03T10:57:53Z</time>
      </trkpt>
      <trkpt lat="42.343358" lon="1.755136">
        <ele>1232.0</ele>
        <time>2022-07-03T10:57:55Z</time>
      </trkpt>
      <trkpt lat="42.343437" lon="1.755135">
        <ele>1231.5</ele>
        <time>2022-07-03T10:57:57Z</time>
      </trkpt>
      <trkpt lat="42.343504" lon="1.755121">
        <ele>1231.1</ele>
        <time>2022-07-03T10:57:59Z</time>
      </trkpt>
      <trkpt lat="42.343561" lon="1.755078">
        <ele>1230.8</ele>
        <time>2022-07-03T10:58:01Z</time>
      </trkpt>
      <trkpt lat="42.343637" lon="1.755043">
        <ele>1230.4</ele>
        <time>2022-07-03T10:58:03Z</time>
      </trkpt>
      <trkpt lat="42.343690" lon="1.755026">
        <ele>1230.1</ele>
        <time>2022-07-03T10:58:05Z</time>
      </trkpt>
      <trkpt lat="42.343760" lon="1.754998">
        <ele>1229.6</ele>
        <time>2022-07-03T10:58:08Z</time>
      </trkpt>
      <trkpt lat="42.343818" lon="1.754965">
        <ele>1229.3</ele>
        <time>2022-07-03T10:58:10Z</time>
      </trkpt>
      <trkpt lat="42.343874" lon="1.754936">
        <ele>1228.6</ele>
        <time>2022-07-03T10:58:12Z</time>
      </trkpt>
      <trkpt lat="42.343927" lon="1.754910">
        <ele>1228.4</ele>
        <time>2022-07-03T10:58:14Z</time>
      </trkpt>
      <trkpt lat="42.343987" lon="1.754878">
        <ele>1228.1</ele>
        <time>2022-07-03T10:58:16Z</time>
      </trkpt>
      <trkpt lat="42.344052" lon="1.754846">
        <ele>1227.5</ele>
        <time>2022-07-03T10:58:18Z</time>
      </trkpt>
      <trkpt lat="42.344124" lon="1.754807">
        <ele>1227.3</ele>
        <time>2022-07-03T10:58:20Z</time>
      </trkpt>
      <trkpt lat="42.344203" lon="1.754766">
        <ele>1226.1</ele>
        <time>2022-07-03T10:58:22Z</time>
      </trkpt>
      <trkpt lat="42.344289" lon="1.754745">
        <ele>1226.1</ele>
        <time>2022-07-03T10:58:24Z</time>
      </trkpt>
      <trkpt lat="42.344378" lon="1.754725">
        <ele>1225.5</ele>
        <time>2022-07-03T10:58:26Z</time>
      </trkpt>
      <trkpt lat="42.344469" lon="1.754700">
        <ele>1226.6</ele>
        <time>2022-07-03T10:58:28Z</time>
      </trkpt>
      <trkpt lat="42.344551" lon="1.754696">
        <ele>1225.5</ele>
        <time>2022-07-03T10:58:30Z</time>
      </trkpt>
      <trkpt lat="42.344627" lon="1.754704">
        <ele>1225.0</ele>
        <time>2022-07-03T10:58:32Z</time>
      </trkpt>
      <trkpt lat="42.344712" lon="1.754713">
        <ele>1224.5</ele>
        <time>2022-07-03T10:58:34Z</time>
      </trkpt>
      <trkpt lat="42.344801" lon="1.754721">
        <ele>1224.7</ele>
        <time>2022-07-03T10:58:36Z</time>
      </trkpt>
      <trkpt lat="42.344886" lon="1.754732">
        <ele>1224.4</ele>
        <time>2022-07-03T10:58:38Z</time>
      </trkpt>
      <trkpt lat="42.344982" lon="1.754719">
        <ele>1223.4</ele>
        <time>2022-07-03T10:58:40Z</time>
      </trkpt>
      <trkpt lat="42.345067" lon="1.754699">
        <ele>1223.2</ele>
        <time>2022-07-03T10:58:42Z</time>
      </trkpt>
      <trkpt lat="42.345131" lon="1.754701">
        <ele>1222.9</ele>
        <time>2022-07-03T10:58:44Z</time>
      </trkpt>
      <trkpt lat="42.345199" lon="1.754707">
        <ele>1222.1</ele>
        <time>2022-07-03T10:58:47Z</time>
      </trkpt>
      <trkpt lat="42.345264" lon="1.754676">
        <ele>1221.5</ele>
        <time>2022-07-03T10:58:51Z</time>
      </trkpt>
      <trkpt lat="42.345323" lon="1.754659">
        <ele>1221.2</ele>
        <time>2022-07-03T10:58:53Z</time>
      </trkpt>
      <trkpt lat="42.345399" lon="1.754654">
        <ele>1222.9</ele>
        <time>2022-07-03T10:58:55Z</time>
      </trkpt>
      <trkpt lat="42.345480" lon="1.754629">
        <ele>1221.8</ele>
        <time>2022-07-03T10:58:57Z</time>
      </trkpt>
      <trkpt lat="42.345566" lon="1.754581">
        <ele>1221.2</ele>
        <time>2022-07-03T10:58:59Z</time>
      </trkpt>
      <trkpt lat="42.345648" lon="1.754525">
        <ele>1220.6</ele>
        <time>2022-07-03T10:59:01Z</time>
      </trkpt>
      <trkpt lat="42.345740" lon="1.754475">
        <ele>1219.1</ele>
        <time>2022-07-03T10:59:03Z</time>
      </trkpt>
      <trkpt lat="42.345794" lon="1.754489">
        <ele>1219.0</ele>
        <time>2022-07-03T10:59:04Z</time>
      </trkpt>
      <trkpt lat="42.345849" lon="1.754512">
        <ele>1218.4</ele>
        <time>2022-07-03T10:59:05Z</time>
      </trkpt>
      <trkpt lat="42.345916" lon="1.754529">
        <ele>1218.3</ele>
        <time>2022-07-03T10:59:06Z</time>
      </trkpt>
      <trkpt lat="42.345983" lon="1.754533">
        <ele>1217.6</ele>
        <time>2022-07-03T10:59:07Z</time>
      </trkpt>
      <trkpt lat="42.346042" lon="1.754516">
        <ele>1216.9</ele>
        <time>2022-07-03T10:59:08Z</time>
      </trkpt>
      <trkpt lat="42.346099" lon="1.754509">
        <ele>1216.5</ele>
        <time>2022-07-03T10:59:09Z</time>
      </trkpt>
      <trkpt lat="42.346153" lon="1.754534">
        <ele>1216.3</ele>
        <time>2022-07-03T10:59:10Z</time>
      </trkpt>
      <trkpt lat="42.346197" lon="1.754591">
        <ele>1216.2</ele>
        <time>2022-07-03T10:59:11Z</time>
      </trkpt>
      <trkpt lat="42.346225" lon="1.754665">
        <ele>1215.5</ele>
        <time>2022-07-03T10:59:12Z</time>
      </trkpt>
      <trkpt lat="42.346243" lon="1.754742">
        <ele>1215.4</ele>
        <time>2022-07-03T10:59:13Z</time>
      </trkpt>
      <trkpt lat="42.346262" lon="1.754817">
        <ele>1215.1</ele>
        <time>2022-07-03T10:59:14Z</time>
      </trkpt>
      <trkpt lat="42.346282" lon="1.754890">
        <ele>1213.9</ele>
        <time>2022-07-03T10:59:15Z</time>
      </trkpt>
      <trkpt lat="42.346306" lon="1.754959">
        <ele>1214.0</ele>
        <time>2022-07-03T10:59:16Z</time>
      </trkpt>
      <trkpt lat="42.346329" lon="1.755027">
        <ele>1214.0</ele>
        <time>2022-07-03T10:59:17Z</time>
      </trkpt>
      <trkpt lat="42.346370" lon="1.755144">
        <ele>1214.1</ele>
        <time>2022-07-03T10:59:19Z</time>
      </trkpt>
      <trkpt lat="42.346414" lon="1.755220">
        <ele>1214.5</ele>
        <time>2022-07-03T10:59:21Z</time>
      </trkpt>
      <trkpt lat="42.346454" lon="1.755276">
        <ele>1215.2</ele>
        <time>2022-07-03T10:59:23Z</time>
      </trkpt>
      <trkpt lat="42.346516" lon="1.755329">
        <ele>1215.7</ele>
        <time>2022-07-03T10:59:26Z</time>
      </trkpt>
      <trkpt lat="42.346574" lon="1.755396">
        <ele>1216.0</ele>
        <time>2022-07-03T10:59:29Z</time>
      </trkpt>
      <trkpt lat="42.346547" lon="1.755469">
        <ele>1216.9</ele>
        <time>2022-07-03T10:59:32Z</time>
      </trkpt>
      <trkpt lat="42.346497" lon="1.755515">
        <ele>1217.2</ele>
        <time>2022-07-03T10:59:35Z</time>
      </trkpt>
      <trkpt lat="42.346438" lon="1.755554">
        <ele>1218.5</ele>
        <time>2022-07-03T10:59:38Z</time>
      </trkpt>
      <trkpt lat="42.346378" lon="1.755593">
        <ele>1219.2</ele>
        <time>2022-07-03T10:59:41Z</time>
      </trkpt>
      <trkpt lat="42.346286" lon="1.755675">
        <ele>1219.5</ele>
        <time>2022-07-03T10:59:46Z</time>
      </trkpt>
      <trkpt lat="42.346222" lon="1.755709">
        <ele>1219.0</ele>
        <time>2022-07-03T10:59:49Z</time>
      </trkpt>
      <trkpt lat="42.346138" lon="1.755761">
        <ele>1220.0</ele>
        <time>2022-07-03T10:59:53Z</time>
      </trkpt>
      <trkpt lat="42.346076" lon="1.755804">
        <ele>1220.7</ele>
        <time>2022-07-03T10:59:56Z</time>
      </trkpt>
      <trkpt lat="42.345985" lon="1.755837">
        <ele>1221.0</ele>
        <time>2022-07-03T11:00:00Z</time>
      </trkpt>
      <trkpt lat="42.345917" lon="1.755853">
        <ele>1221.8</ele>
        <time>2022-07-03T11:00:03Z</time>
      </trkpt>
      <trkpt lat="42.345809" lon="1.755964">
        <ele>1222.0</ele>
        <time>2022-07-03T11:00:09Z</time>
      </trkpt>
      <trkpt lat="42.345780" lon="1.756054">
        <ele>1222.4</ele>
        <time>2022-07-03T11:00:12Z</time>
      </trkpt>
      <trkpt lat="42.345700" lon="1.756121">
        <ele>1222.0</ele>
        <time>2022-07-03T11:00:16Z</time>
      </trkpt>
      <trkpt lat="42.345622" lon="1.756186">
        <ele>1223.0</ele>
        <time>2022-07-03T11:00:20Z</time>
      </trkpt>
      <trkpt lat="42.345565" lon="1.756268">
        <ele>1224.0</ele>
        <time>2022-07-03T11:00:24Z</time>
      </trkpt>
      <trkpt lat="42.345546" lon="1.756343">
        <ele>1224.5</ele>
        <time>2022-07-03T11:00:27Z</time>
      </trkpt>
      <trkpt lat="42.345531" lon="1.756418">
        <ele>1224.9</ele>
        <time>2022-07-03T11:00:30Z</time>
      </trkpt>
      <trkpt lat="42.345503" lon="1.756494">
        <ele>1225.1</ele>
        <time>2022-07-03T11:00:34Z</time>
      </trkpt>
      <trkpt lat="42.345478" lon="1.756575">
        <ele>1225.5</ele>
        <time>2022-07-03T11:00:39Z</time>
      </trkpt>
      <trkpt lat="42.345454" lon="1.756662">
        <ele>1225.9</ele>
        <time>2022-07-03T11:00:43Z</time>
      </trkpt>
      <trkpt lat="42.345441" lon="1.756743">
        <ele>1225.9</ele>
        <time>2022-07-03T11:00:46Z</time>
      </trkpt>
      <trkpt lat="42.345445" lon="1.756835">
        <ele>1226.0</ele>
        <time>2022-07-03T11:00:50Z</time>
      </trkpt>
      <trkpt lat="42.345435" lon="1.756913">
        <ele>1226.1</ele>
        <time>2022-07-03T11:00:54Z</time>
      </trkpt>
      <trkpt lat="42.345425" lon="1.756993">
        <ele>1225.9</ele>
        <time>2022-07-03T11:00:57Z</time>
      </trkpt>
      <trkpt lat="42.345414" lon="1.757087">
        <ele>1226.3</ele>
        <time>2022-07-03T11:01:01Z</time>
      </trkpt>
      <trkpt lat="42.345407" lon="1.757188">
        <ele>1226.3</ele>
        <time>2022-07-03T11:01:05Z</time>
      </trkpt>
      <trkpt lat="42.345403" lon="1.757294">
        <ele>1226.5</ele>
        <time>2022-07-03T11:01:08Z</time>
      </trkpt>
      <trkpt lat="42.345395" lon="1.757374">
        <ele>1226.4</ele>
        <time>2022-07-03T11:01:10Z</time>
      </trkpt>
      <trkpt lat="42.345381" lon="1.757466">
        <ele>1226.2</ele>
        <time>2022-07-03T11:01:12Z</time>
      </trkpt>
      <trkpt lat="42.345363" lon="1.757553">
        <ele>1226.6</ele>
        <time>2022-07-03T11:01:14Z</time>
      </trkpt>
      <trkpt lat="42.345343" lon="1.757645">
        <ele>1225.9</ele>
        <time>2022-07-03T11:01:16Z</time>
      </trkpt>
      <trkpt lat="42.345327" lon="1.757732">
        <ele>1225.7</ele>
        <time>2022-07-03T11:01:18Z</time>
      </trkpt>
      <trkpt lat="42.345317" lon="1.757805">
        <ele>1225.3</ele>
        <time>2022-07-03T11:01:20Z</time>
      </trkpt>
      <trkpt lat="42.345296" lon="1.757895">
        <ele>1224.5</ele>
        <time>2022-07-03T11:01:23Z</time>
      </trkpt>
      <trkpt lat="42.345210" lon="1.757945">
        <ele>1222.0</ele>
        <time>2022-07-03T11:01:26Z</time>
      </trkpt>
      <trkpt lat="42.345064" lon="1.757952">
        <ele>1222.0</ele>
        <time>2022-07-03T11:01:30Z</time>
      </trkpt>
      <trkpt lat="42.344974" lon="1.757926">
        <ele>1222.7</ele>
        <time>2022-07-03T11:01:33Z</time>
      </trkpt>
      <trkpt lat="42.344916" lon="1.757909">
        <ele>1222.8</ele>
        <time>2022-07-03T11:01:35Z</time>
      </trkpt>
      <trkpt lat="42.344850" lon="1.757908">
        <ele>1222.8</ele>
        <time>2022-07-03T11:01:37Z</time>
      </trkpt>
      <trkpt lat="42.344783" lon="1.757899">
        <ele>1223.1</ele>
        <time>2022-07-03T11:01:39Z</time>
      </trkpt>
      <trkpt lat="42.344715" lon="1.757891">
        <ele>1222.7</ele>
        <time>2022-07-03T11:01:41Z</time>
      </trkpt>
      <trkpt lat="42.344651" lon="1.757874">
        <ele>1222.7</ele>
        <time>2022-07-03T11:01:43Z</time>
      </trkpt>
      <trkpt lat="42.344584" lon="1.757860">
        <ele>1222.6</ele>
        <time>2022-07-03T11:01:45Z</time>
      </trkpt>
      <trkpt lat="42.344515" lon="1.757844">
        <ele>1222.4</ele>
        <time>2022-07-03T11:01:47Z</time>
      </trkpt>
      <trkpt lat="42.344445" lon="1.757827">
        <ele>1222.7</ele>
        <time>2022-07-03T11:01:49Z</time>
      </trkpt>
      <trkpt lat="42.344379" lon="1.757806">
        <ele>1222.6</ele>
        <time>2022-07-03T11:01:51Z</time>
      </trkpt>
      <trkpt lat="42.344318" lon="1.757790">
        <ele>1222.5</ele>
        <time>2022-07-03T11:01:53Z</time>
      </trkpt>
      <trkpt lat="42.344261" lon="1.757779">
        <ele>1222.5</ele>
        <time>2022-07-03T11:01:55Z</time>
      </trkpt>
      <trkpt lat="42.344196" lon="1.757775">
        <ele>1222.0</ele>
        <time>2022-07-03T11:01:59Z</time>
      </trkpt>
      <trkpt lat="42.344133" lon="1.757800">
        <ele>1222.1</ele>
        <time>2022-07-03T11:02:04Z</time>
      </trkpt>
      <trkpt lat="42.344076" lon="1.757830">
        <ele>1221.4</ele>
        <time>2022-07-03T11:02:07Z</time>
      </trkpt>
      <trkpt lat="42.344006" lon="1.757841">
        <ele>1220.1</ele>
        <time>2022-07-03T11:02:12Z</time>
      </trkpt>
      <trkpt lat="42.343935" lon="1.757859">
        <ele>1218.0</ele>
        <time>2022-07-03T11:02:19Z</time>
      </trkpt>
      <trkpt lat="42.340439" lon="1.757653">
        <ele>1173.9</ele>
        <time>2022-07-03T11:07:22Z</time>
      </trkpt>
      <trkpt lat="42.340443" lon="1.757654">
        <ele>1173.9</ele>
        <time>2022-07-03T11:07:23Z</time>
      </trkpt>
      <trkpt lat="42.340496" lon="1.757668">
        <ele>1173.4</ele>
        <time>2022-07-03T11:07:37Z</time>
      </trkpt>
      <trkpt lat="42.340540" lon="1.757728">
        <ele>1173.5</ele>
        <time>2022-07-03T11:07:40Z</time>
      </trkpt>
      <trkpt lat="42.340580" lon="1.757783">
        <ele>1173.7</ele>
        <time>2022-07-03T11:07:42Z</time>
      </trkpt>
      <trkpt lat="42.340631" lon="1.757852">
        <ele>1173.2</ele>
        <time>2022-07-03T11:07:44Z</time>
      </trkpt>
      <trkpt lat="42.340681" lon="1.757928">
        <ele>1172.8</ele>
        <time>2022-07-03T11:07:46Z</time>
      </trkpt>
      <trkpt lat="42.340745" lon="1.758021">
        <ele>1172.2</ele>
        <time>2022-07-03T11:07:48Z</time>
      </trkpt>
      <trkpt lat="42.340811" lon="1.758106">
        <ele>1171.8</ele>
        <time>2022-07-03T11:07:50Z</time>
      </trkpt>
      <trkpt lat="42.340879" lon="1.758194">
        <ele>1170.5</ele>
        <time>2022-07-03T11:07:52Z</time>
      </trkpt>
      <trkpt lat="42.340939" lon="1.758268">
        <ele>1170.5</ele>
        <time>2022-07-03T11:07:54Z</time>
      </trkpt>
      <trkpt lat="42.341001" lon="1.758317">
        <ele>1168.1</ele>
        <time>2022-07-03T11:07:55Z</time>
      </trkpt>
      <trkpt lat="42.341058" lon="1.758360">
        <ele>1167.9</ele>
        <time>2022-07-03T11:07:56Z</time>
      </trkpt>
      <trkpt lat="42.341113" lon="1.758400">
        <ele>1167.7</ele>
        <time>2022-07-03T11:07:57Z</time>
      </trkpt>
      <trkpt lat="42.341170" lon="1.758441">
        <ele>1166.9</ele>
        <time>2022-07-03T11:07:58Z</time>
      </trkpt>
      <trkpt lat="42.341224" lon="1.758483">
        <ele>1166.8</ele>
        <time>2022-07-03T11:07:59Z</time>
      </trkpt>
      <trkpt lat="42.341269" lon="1.758524">
        <ele>1165.3</ele>
        <time>2022-07-03T11:08:00Z</time>
      </trkpt>
      <trkpt lat="42.341371" lon="1.758617">
        <ele>1165.2</ele>
        <time>2022-07-03T11:08:02Z</time>
      </trkpt>
      <trkpt lat="42.341429" lon="1.758673">
        <ele>1164.8</ele>
        <time>2022-07-03T11:08:03Z</time>
      </trkpt>
      <trkpt lat="42.341470" lon="1.758733">
        <ele>1164.0</ele>
        <time>2022-07-03T11:08:04Z</time>
      </trkpt>
      <trkpt lat="42.341503" lon="1.758792">
        <ele>1163.9</ele>
        <time>2022-07-03T11:08:05Z</time>
      </trkpt>
      <trkpt lat="42.341565" lon="1.758908">
        <ele>1163.0</ele>
        <time>2022-07-03T11:08:07Z</time>
      </trkpt>
      <trkpt lat="42.341631" lon="1.759017">
        <ele>1162.3</ele>
        <time>2022-07-03T11:08:09Z</time>
      </trkpt>
      <trkpt lat="42.341678" lon="1.759064">
        <ele>1161.3</ele>
        <time>2022-07-03T11:08:10Z</time>
      </trkpt>
      <trkpt lat="42.341763" lon="1.759139">
        <ele>1159.8</ele>
        <time>2022-07-03T11:08:12Z</time>
      </trkpt>
      <trkpt lat="42.341845" lon="1.759221">
        <ele>1158.0</ele>
        <time>2022-07-03T11:08:14Z</time>
      </trkpt>
      <trkpt lat="42.341959" lon="1.759339">
        <ele>1156.5</ele>
        <time>2022-07-03T11:08:17Z</time>
      </trkpt>
      <trkpt lat="42.342038" lon="1.759423">
        <ele>1155.1</ele>
        <time>2022-07-03T11:08:19Z</time>
      </trkpt>
      <trkpt lat="42.342104" lon="1.759515">
        <ele>1154.4</ele>
        <time>2022-07-03T11:08:21Z</time>
      </trkpt>
      <trkpt lat="42.342160" lon="1.759649">
        <ele>1153.5</ele>
        <time>2022-07-03T11:08:23Z</time>
      </trkpt>
      <trkpt lat="42.342174" lon="1.759731">
        <ele>1151.6</ele>
        <time>2022-07-03T11:08:24Z</time>
      </trkpt>
      <trkpt lat="42.342194" lon="1.759816">
        <ele>1150.5</ele>
        <time>2022-07-03T11:08:25Z</time>
      </trkpt>
      <trkpt lat="42.342224" lon="1.759905">
        <ele>1150.7</ele>
        <time>2022-07-03T11:08:26Z</time>
      </trkpt>
      <trkpt lat="42.342258" lon="1.759996">
        <ele>1149.4</ele>
        <time>2022-07-03T11:08:27Z</time>
      </trkpt>
      <trkpt lat="42.342302" lon="1.760086">
        <ele>1149.1</ele>
        <time>2022-07-03T11:08:28Z</time>
      </trkpt>
      <trkpt lat="42.342354" lon="1.760171">
        <ele>1148.5</ele>
        <time>2022-07-03T11:08:29Z</time>
      </trkpt>
      <trkpt lat="42.342401" lon="1.760223">
        <ele>1148.4</ele>
        <time>2022-07-03T11:08:30Z</time>
      </trkpt>
      <trkpt lat="42.342473" lon="1.760280">
        <ele>1148.6</ele>
        <time>2022-07-03T11:08:31Z</time>
      </trkpt>
      <trkpt lat="42.342530" lon="1.760327">
        <ele>1149.0</ele>
        <time>2022-07-03T11:08:32Z</time>
      </trkpt>
      <trkpt lat="42.342601" lon="1.760368">
        <ele>1147.7</ele>
        <time>2022-07-03T11:08:33Z</time>
      </trkpt>
      <trkpt lat="42.342691" lon="1.760422">
        <ele>1147.1</ele>
        <time>2022-07-03T11:08:34Z</time>
      </trkpt>
      <trkpt lat="42.342769" lon="1.760456">
        <ele>1146.2</ele>
        <time>2022-07-03T11:08:35Z</time>
      </trkpt>
      <trkpt lat="42.342870" lon="1.760498">
        <ele>1144.0</ele>
        <time>2022-07-03T11:08:37Z</time>
      </trkpt>
      <trkpt lat="42.343078" lon="1.760571">
        <ele>1142.7</ele>
        <time>2022-07-03T11:08:40Z</time>
      </trkpt>
      <trkpt lat="42.343161" lon="1.760596">
        <ele>1143.0</ele>
        <time>2022-07-03T11:08:41Z</time>
      </trkpt>
      <trkpt lat="42.343236" lon="1.760609">
        <ele>1142.6</ele>
        <time>2022-07-03T11:08:42Z</time>
      </trkpt>
      <trkpt lat="42.343317" lon="1.760626">
        <ele>1142.2</ele>
        <time>2022-07-03T11:08:43Z</time>
      </trkpt>
      <trkpt lat="42.343415" lon="1.760666">
        <ele>1141.7</ele>
        <time>2022-07-03T11:08:44Z</time>
      </trkpt>
      <trkpt lat="42.343517" lon="1.760709">
        <ele>1140.8</ele>
        <time>2022-07-03T11:08:45Z</time>
      </trkpt>
      <trkpt lat="42.343628" lon="1.760742">
        <ele>1140.5</ele>
        <time>2022-07-03T11:08:46Z</time>
      </trkpt>
      <trkpt lat="42.343733" lon="1.760771">
        <ele>1140.7</ele>
        <time>2022-07-03T11:08:47Z</time>
      </trkpt>
      <trkpt lat="42.344110" lon="1.760890">
        <ele>1138.0</ele>
        <time>2022-07-03T11:08:51Z</time>
      </trkpt>
      <trkpt lat="42.344327" lon="1.760928">
        <ele>1135.9</ele>
        <time>2022-07-03T11:08:54Z</time>
      </trkpt>
      <trkpt lat="42.344407" lon="1.760937">
        <ele>1135.0</ele>
        <time>2022-07-03T11:08:55Z</time>
      </trkpt>
      <trkpt lat="42.344491" lon="1.760955">
        <ele>1134.6</ele>
        <time>2022-07-03T11:08:56Z</time>
      </trkpt>
      <trkpt lat="42.344560" lon="1.760967">
        <ele>1135.0</ele>
        <time>2022-07-03T11:08:57Z</time>
      </trkpt>
      <trkpt lat="42.344676" lon="1.761040">
        <ele>1133.4</ele>
        <time>2022-07-03T11:08:59Z</time>
      </trkpt>
      <trkpt lat="42.344767" lon="1.761104">
        <ele>1132.7</ele>
        <time>2022-07-03T11:09:01Z</time>
      </trkpt>
      <trkpt lat="42.344845" lon="1.761125">
        <ele>1132.2</ele>
        <time>2022-07-03T11:09:02Z</time>
      </trkpt>
      <trkpt lat="42.344916" lon="1.761123">
        <ele>1132.1</ele>
        <time>2022-07-03T11:09:03Z</time>
      </trkpt>
      <trkpt lat="42.345008" lon="1.761126">
        <ele>1131.6</ele>
        <time>2022-07-03T11:09:04Z</time>
      </trkpt>
      <trkpt lat="42.345134" lon="1.761129">
        <ele>1131.1</ele>
        <time>2022-07-03T11:09:05Z</time>
      </trkpt>
      <trkpt lat="42.345789" lon="1.761255">
        <ele>1129.0</ele>
        <time>2022-07-03T11:09:10Z</time>
      </trkpt>
      <trkpt lat="42.346221" lon="1.761290">
        <ele>1127.1</ele>
        <time>2022-07-03T11:09:15Z</time>
      </trkpt>
      <trkpt lat="42.346302" lon="1.761305">
        <ele>1126.1</ele>
        <time>2022-07-03T11:09:16Z</time>
      </trkpt>
      <trkpt lat="42.346379" lon="1.761330">
        <ele>1125.5</ele>
        <time>2022-07-03T11:09:17Z</time>
      </trkpt>
      <trkpt lat="42.346454" lon="1.761356">
        <ele>1125.5</ele>
        <time>2022-07-03T11:09:18Z</time>
      </trkpt>
      <trkpt lat="42.346531" lon="1.761384">
        <ele>1125.2</ele>
        <time>2022-07-03T11:09:19Z</time>
      </trkpt>
      <trkpt lat="42.346593" lon="1.761410">
        <ele>1124.8</ele>
        <time>2022-07-03T11:09:20Z</time>
      </trkpt>
      <trkpt lat="42.346808" lon="1.761575">
        <ele>1123.0</ele>
        <time>2022-07-03T11:09:23Z</time>
      </trkpt>
      <trkpt lat="42.346924" lon="1.761751">
        <ele>1123.0</ele>
        <time>2022-07-03T11:09:26Z</time>
      </trkpt>
      <trkpt lat="42.346969" lon="1.761817">
        <ele>1122.3</ele>
        <time>2022-07-03T11:09:27Z</time>
      </trkpt>
      <trkpt lat="42.347028" lon="1.761855">
        <ele>1122.4</ele>
        <time>2022-07-03T11:09:28Z</time>
      </trkpt>
      <trkpt lat="42.347161" lon="1.761847">
        <ele>1121.1</ele>
        <time>2022-07-03T11:09:30Z</time>
      </trkpt>
      <trkpt lat="42.347227" lon="1.761840">
        <ele>1121.5</ele>
        <time>2022-07-03T11:09:31Z</time>
      </trkpt>
      <trkpt lat="42.347307" lon="1.761832">
        <ele>1121.1</ele>
        <time>2022-07-03T11:09:32Z</time>
      </trkpt>
      <trkpt lat="42.347388" lon="1.761823">
        <ele>1120.4</ele>
        <time>2022-07-03T11:09:33Z</time>
      </trkpt>
      <trkpt lat="42.347465" lon="1.761817">
        <ele>1119.8</ele>
        <time>2022-07-03T11:09:34Z</time>
      </trkpt>
      <trkpt lat="42.347546" lon="1.761822">
        <ele>1119.8</ele>
        <time>2022-07-03T11:09:35Z</time>
      </trkpt>
      <trkpt lat="42.347630" lon="1.761827">
        <ele>1119.2</ele>
        <time>2022-07-03T11:09:36Z</time>
      </trkpt>
      <trkpt lat="42.347721" lon="1.761836">
        <ele>1118.3</ele>
        <time>2022-07-03T11:09:37Z</time>
      </trkpt>
      <trkpt lat="42.347810" lon="1.761849">
        <ele>1117.4</ele>
        <time>2022-07-03T11:09:38Z</time>
      </trkpt>
      <trkpt lat="42.347890" lon="1.761859">
        <ele>1116.8</ele>
        <time>2022-07-03T11:09:39Z</time>
      </trkpt>
      <trkpt lat="42.347991" lon="1.761878">
        <ele>1116.5</ele>
        <time>2022-07-03T11:09:40Z</time>
      </trkpt>
      <trkpt lat="42.348067" lon="1.761897">
        <ele>1116.1</ele>
        <time>2022-07-03T11:09:41Z</time>
      </trkpt>
      <trkpt lat="42.348141" lon="1.761907">
        <ele>1115.6</ele>
        <time>2022-07-03T11:09:42Z</time>
      </trkpt>
      <trkpt lat="42.348218" lon="1.761909">
        <ele>1115.0</ele>
        <time>2022-07-03T11:09:43Z</time>
      </trkpt>
      <trkpt lat="42.348292" lon="1.761903">
        <ele>1114.7</ele>
        <time>2022-07-03T11:09:44Z</time>
      </trkpt>
      <trkpt lat="42.348374" lon="1.761893">
        <ele>1114.4</ele>
        <time>2022-07-03T11:09:45Z</time>
      </trkpt>
      <trkpt lat="42.348444" lon="1.761872">
        <ele>1114.4</ele>
        <time>2022-07-03T11:09:46Z</time>
      </trkpt>
      <trkpt lat="42.348524" lon="1.761854">
        <ele>1114.7</ele>
        <time>2022-07-03T11:09:47Z</time>
      </trkpt>
      <trkpt lat="42.348603" lon="1.761839">
        <ele>1115.0</ele>
        <time>2022-07-03T11:09:48Z</time>
      </trkpt>
      <trkpt lat="42.348679" lon="1.761821">
        <ele>1115.9</ele>
        <time>2022-07-03T11:09:49Z</time>
      </trkpt>
      <trkpt lat="42.348748" lon="1.761802">
        <ele>1114.7</ele>
        <time>2022-07-03T11:09:50Z</time>
      </trkpt>
      <trkpt lat="42.348817" lon="1.761782">
        <ele>1114.6</ele>
        <time>2022-07-03T11:09:51Z</time>
      </trkpt>
      <trkpt lat="42.348883" lon="1.761762">
        <ele>1114.1</ele>
        <time>2022-07-03T11:09:52Z</time>
      </trkpt>
      <trkpt lat="42.348949" lon="1.761754">
        <ele>1113.9</ele>
        <time>2022-07-03T11:09:53Z</time>
      </trkpt>
      <trkpt lat="42.349017" lon="1.761741">
        <ele>1113.8</ele>
        <time>2022-07-03T11:09:54Z</time>
      </trkpt>
      <trkpt lat="42.349086" lon="1.761729">
        <ele>1113.1</ele>
        <time>2022-07-03T11:09:55Z</time>
      </trkpt>
      <trkpt lat="42.349160" lon="1.761719">
        <ele>1111.6</ele>
        <time>2022-07-03T11:09:56Z</time>
      </trkpt>
      <trkpt lat="42.349233" lon="1.761716">
        <ele>1111.2</ele>
        <time>2022-07-03T11:09:57Z</time>
      </trkpt>
      <trkpt lat="42.349306" lon="1.761715">
        <ele>1111.8</ele>
        <time>2022-07-03T11:09:58Z</time>
      </trkpt>
      <trkpt lat="42.349381" lon="1.761710">
        <ele>1110.8</ele>
        <time>2022-07-03T11:09:59Z</time>
      </trkpt>
      <trkpt lat="42.349456" lon="1.761707">
        <ele>1110.0</ele>
        <time>2022-07-03T11:10:00Z</time>
      </trkpt>
      <trkpt lat="42.349534" lon="1.761702">
        <ele>1108.8</ele>
        <time>2022-07-03T11:10:01Z</time>
      </trkpt>
      <trkpt lat="42.349608" lon="1.761696">
        <ele>1108.6</ele>
        <time>2022-07-03T11:10:02Z</time>
      </trkpt>
      <trkpt lat="42.349684" lon="1.761691">
        <ele>1107.1</ele>
        <time>2022-07-03T11:10:03Z</time>
      </trkpt>
      <trkpt lat="42.349764" lon="1.761689">
        <ele>1107.5</ele>
        <time>2022-07-03T11:10:04Z</time>
      </trkpt>
      <trkpt lat="42.349842" lon="1.761688">
        <ele>1108.2</ele>
        <time>2022-07-03T11:10:05Z</time>
      </trkpt>
      <trkpt lat="42.349918" lon="1.761683">
        <ele>1108.7</ele>
        <time>2022-07-03T11:10:06Z</time>
      </trkpt>
      <trkpt lat="42.350001" lon="1.761683">
        <ele>1108.9</ele>
        <time>2022-07-03T11:10:07Z</time>
      </trkpt>
      <trkpt lat="42.350084" lon="1.761686">
        <ele>1108.8</ele>
        <time>2022-07-03T11:10:08Z</time>
      </trkpt>
      <trkpt lat="42.350167" lon="1.761689">
        <ele>1108.8</ele>
        <time>2022-07-03T11:10:09Z</time>
      </trkpt>
      <trkpt lat="42.350242" lon="1.761692">
        <ele>1108.6</ele>
        <time>2022-07-03T11:10:10Z</time>
      </trkpt>
      <trkpt lat="42.350315" lon="1.761697">
        <ele>1108.5</ele>
        <time>2022-07-03T11:10:11Z</time>
      </trkpt>
      <trkpt lat="42.350381" lon="1.761703">
        <ele>1108.1</ele>
        <time>2022-07-03T11:10:12Z</time>
      </trkpt>
      <trkpt lat="42.350435" lon="1.761713">
        <ele>1107.5</ele>
        <time>2022-07-03T11:10:13Z</time>
      </trkpt>
      <trkpt lat="42.350519" lon="1.761727">
        <ele>1106.7</ele>
        <time>2022-07-03T11:10:15Z</time>
      </trkpt>
      <trkpt lat="42.350593" lon="1.761772">
        <ele>1105.1</ele>
        <time>2022-07-03T11:10:17Z</time>
      </trkpt>
      <trkpt lat="42.350673" lon="1.761854">
        <ele>1104.3</ele>
        <time>2022-07-03T11:10:19Z</time>
      </trkpt>
      <trkpt lat="42.350740" lon="1.761963">
        <ele>1103.8</ele>
        <time>2022-07-03T11:10:21Z</time>
      </trkpt>
      <trkpt lat="42.350748" lon="1.762090">
        <ele>1103.4</ele>
        <time>2022-07-03T11:10:23Z</time>
      </trkpt>
      <trkpt lat="42.350760" lon="1.762185">
        <ele>1102.6</ele>
        <time>2022-07-03T11:10:25Z</time>
      </trkpt>
      <trkpt lat="42.350781" lon="1.762266">
        <ele>1102.2</ele>
        <time>2022-07-03T11:10:27Z</time>
      </trkpt>
      <trkpt lat="42.350819" lon="1.762328">
        <ele>1102.1</ele>
        <time>2022-07-03T11:10:29Z</time>
      </trkpt>
      <trkpt lat="42.350884" lon="1.762367">
        <ele>1101.5</ele>
        <time>2022-07-03T11:10:31Z</time>
      </trkpt>
      <trkpt lat="42.350956" lon="1.762392">
        <ele>1100.8</ele>
        <time>2022-07-03T11:10:33Z</time>
      </trkpt>
      <trkpt lat="42.351035" lon="1.762413">
        <ele>1100.3</ele>
        <time>2022-07-03T11:10:35Z</time>
      </trkpt>
      <trkpt lat="42.351127" lon="1.762429">
        <ele>1100.2</ele>
        <time>2022-07-03T11:10:37Z</time>
      </trkpt>
      <trkpt lat="42.351222" lon="1.762412">
        <ele>1099.9</ele>
        <time>2022-07-03T11:10:39Z</time>
      </trkpt>
      <trkpt lat="42.351322" lon="1.762386">
        <ele>1099.6</ele>
        <time>2022-07-03T11:10:41Z</time>
      </trkpt>
      <trkpt lat="42.351426" lon="1.762377">
        <ele>1098.7</ele>
        <time>2022-07-03T11:10:43Z</time>
      </trkpt>
      <trkpt lat="42.351532" lon="1.762366">
        <ele>1099.0</ele>
        <time>2022-07-03T11:10:45Z</time>
      </trkpt>
      <trkpt lat="42.351599" lon="1.762373">
        <ele>1099.3</ele>
        <time>2022-07-03T11:10:46Z</time>
      </trkpt>
      <trkpt lat="42.351661" lon="1.762380">
        <ele>1099.5</ele>
        <time>2022-07-03T11:10:47Z</time>
      </trkpt>
      <trkpt lat="42.351723" lon="1.762376">
        <ele>1099.2</ele>
        <time>2022-07-03T11:10:48Z</time>
      </trkpt>
      <trkpt lat="42.351787" lon="1.762369">
        <ele>1099.1</ele>
        <time>2022-07-03T11:10:49Z</time>
      </trkpt>
      <trkpt lat="42.351850" lon="1.762354">
        <ele>1098.6</ele>
        <time>2022-07-03T11:10:50Z</time>
      </trkpt>
      <trkpt lat="42.351915" lon="1.762338">
        <ele>1098.1</ele>
        <time>2022-07-03T11:10:51Z</time>
      </trkpt>
      <trkpt lat="42.351982" lon="1.762324">
        <ele>1097.8</ele>
        <time>2022-07-03T11:10:52Z</time>
      </trkpt>
      <trkpt lat="42.352049" lon="1.762308">
        <ele>1097.3</ele>
        <time>2022-07-03T11:10:53Z</time>
      </trkpt>
      <trkpt lat="42.352116" lon="1.762292">
        <ele>1097.1</ele>
        <time>2022-07-03T11:10:54Z</time>
      </trkpt>
      <trkpt lat="42.352190" lon="1.762280">
        <ele>1097.0</ele>
        <time>2022-07-03T11:10:55Z</time>
      </trkpt>
      <trkpt lat="42.352260" lon="1.762269">
        <ele>1096.6</ele>
        <time>2022-07-03T11:10:56Z</time>
      </trkpt>
      <trkpt lat="42.352325" lon="1.762261">
        <ele>1096.5</ele>
        <time>2022-07-03T11:10:57Z</time>
      </trkpt>
      <trkpt lat="42.352388" lon="1.762258">
        <ele>1096.0</ele>
        <time>2022-07-03T11:10:58Z</time>
      </trkpt>
      <trkpt lat="42.352486" lon="1.762260">
        <ele>1095.0</ele>
        <time>2022-07-03T11:11:00Z</time>
      </trkpt>
      <trkpt lat="42.352618" lon="1.762287">
        <ele>1095.0</ele>
        <time>2022-07-03T11:11:03Z</time>
      </trkpt>
      <trkpt lat="42.352687" lon="1.762341">
        <ele>1094.5</ele>
        <time>2022-07-03T11:11:05Z</time>
      </trkpt>
      <trkpt lat="42.352714" lon="1.762444">
        <ele>1093.7</ele>
        <time>2022-07-03T11:11:07Z</time>
      </trkpt>
      <trkpt lat="42.352717" lon="1.762544">
        <ele>1092.2</ele>
        <time>2022-07-03T11:11:09Z</time>
      </trkpt>
      <trkpt lat="42.352709" lon="1.762648">
        <ele>1091.1</ele>
        <time>2022-07-03T11:11:11Z</time>
      </trkpt>
      <trkpt lat="42.352691" lon="1.762746">
        <ele>1091.3</ele>
        <time>2022-07-03T11:11:13Z</time>
      </trkpt>
      <trkpt lat="42.352683" lon="1.762834">
        <ele>1091.7</ele>
        <time>2022-07-03T11:11:15Z</time>
      </trkpt>
      <trkpt lat="42.352684" lon="1.762925">
        <ele>1092.2</ele>
        <time>2022-07-03T11:11:17Z</time>
      </trkpt>
      <trkpt lat="42.352694" lon="1.763030">
        <ele>1091.5</ele>
        <time>2022-07-03T11:11:19Z</time>
      </trkpt>
      <trkpt lat="42.352720" lon="1.763140">
        <ele>1091.8</ele>
        <time>2022-07-03T11:11:21Z</time>
      </trkpt>
      <trkpt lat="42.352787" lon="1.763214">
        <ele>1092.1</ele>
        <time>2022-07-03T11:11:23Z</time>
      </trkpt>
      <trkpt lat="42.352867" lon="1.763257">
        <ele>1092.4</ele>
        <time>2022-07-03T11:11:25Z</time>
      </trkpt>
      <trkpt lat="42.352934" lon="1.763289">
        <ele>1092.9</ele>
        <time>2022-07-03T11:11:27Z</time>
      </trkpt>
      <trkpt lat="42.353002" lon="1.763314">
        <ele>1093.0</ele>
        <time>2022-07-03T11:11:29Z</time>
      </trkpt>
      <trkpt lat="42.353058" lon="1.763347">
        <ele>1093.4</ele>
        <time>2022-07-03T11:11:31Z</time>
      </trkpt>
      <trkpt lat="42.353104" lon="1.763388">
        <ele>1094.0</ele>
        <time>2022-07-03T11:11:33Z</time>
      </trkpt>
      <trkpt lat="42.353151" lon="1.763432">
        <ele>1094.1</ele>
        <time>2022-07-03T11:11:35Z</time>
      </trkpt>
      <trkpt lat="42.353204" lon="1.763469">
        <ele>1094.2</ele>
        <time>2022-07-03T11:11:37Z</time>
      </trkpt>
      <trkpt lat="42.353252" lon="1.763510">
        <ele>1094.5</ele>
        <time>2022-07-03T11:11:39Z</time>
      </trkpt>
      <trkpt lat="42.353295" lon="1.763554">
        <ele>1094.9</ele>
        <time>2022-07-03T11:11:41Z</time>
      </trkpt>
      <trkpt lat="42.353360" lon="1.763622">
        <ele>1094.8</ele>
        <time>2022-07-03T11:11:44Z</time>
      </trkpt>
      <trkpt lat="42.353402" lon="1.763673">
        <ele>1095.4</ele>
        <time>2022-07-03T11:11:46Z</time>
      </trkpt>
      <trkpt lat="42.353445" lon="1.763750">
        <ele>1096.4</ele>
        <time>2022-07-03T11:11:49Z</time>
      </trkpt>
      <trkpt lat="42.353483" lon="1.763811">
        <ele>1097.5</ele>
        <time>2022-07-03T11:11:52Z</time>
      </trkpt>
      <trkpt lat="42.353543" lon="1.763863">
        <ele>1098.4</ele>
        <time>2022-07-03T11:11:55Z</time>
      </trkpt>
      <trkpt lat="42.353597" lon="1.763911">
        <ele>1099.2</ele>
        <time>2022-07-03T11:11:58Z</time>
      </trkpt>
      <trkpt lat="42.353637" lon="1.763972">
        <ele>1100.1</ele>
        <time>2022-07-03T11:12:01Z</time>
      </trkpt>
      <trkpt lat="42.353690" lon="1.764040">
        <ele>1100.0</ele>
        <time>2022-07-03T11:12:05Z</time>
      </trkpt>
      <trkpt lat="42.353735" lon="1.764099">
        <ele>1101.8</ele>
        <time>2022-07-03T11:12:08Z</time>
      </trkpt>
      <trkpt lat="42.353785" lon="1.764147">
        <ele>1102.4</ele>
        <time>2022-07-03T11:12:11Z</time>
      </trkpt>
      <trkpt lat="42.353832" lon="1.764216">
        <ele>1102.8</ele>
        <time>2022-07-03T11:12:14Z</time>
      </trkpt>
      <trkpt lat="42.353890" lon="1.764290">
        <ele>1103.3</ele>
        <time>2022-07-03T11:12:17Z</time>
      </trkpt>
      <trkpt lat="42.353937" lon="1.764337">
        <ele>1103.4</ele>
        <time>2022-07-03T11:12:19Z</time>
      </trkpt>
      <trkpt lat="42.353984" lon="1.764390">
        <ele>1103.5</ele>
        <time>2022-07-03T11:12:21Z</time>
      </trkpt>
      <trkpt lat="42.354037" lon="1.764439">
        <ele>1103.7</ele>
        <time>2022-07-03T11:12:23Z</time>
      </trkpt>
      <trkpt lat="42.354095" lon="1.764486">
        <ele>1103.8</ele>
        <time>2022-07-03T11:12:25Z</time>
      </trkpt>
      <trkpt lat="42.354141" lon="1.764548">
        <ele>1104.1</ele>
        <time>2022-07-03T11:12:27Z</time>
      </trkpt>
      <trkpt lat="42.354170" lon="1.764629">
        <ele>1104.1</ele>
        <time>2022-07-03T11:12:29Z</time>
      </trkpt>
      <trkpt lat="42.354192" lon="1.764715">
        <ele>1104.3</ele>
        <time>2022-07-03T11:12:31Z</time>
      </trkpt>
      <trkpt lat="42.354185" lon="1.764794">
        <ele>1105.0</ele>
        <time>2022-07-03T11:12:33Z</time>
      </trkpt>
      <trkpt lat="42.354215" lon="1.764882">
        <ele>1105.1</ele>
        <time>2022-07-03T11:12:36Z</time>
      </trkpt>
      <trkpt lat="42.354267" lon="1.764933">
        <ele>1105.7</ele>
        <time>2022-07-03T11:12:38Z</time>
      </trkpt>
      <trkpt lat="42.354328" lon="1.764975">
        <ele>1105.3</ele>
        <time>2022-07-03T11:12:40Z</time>
      </trkpt>
      <trkpt lat="42.354392" lon="1.765022">
        <ele>1104.9</ele>
        <time>2022-07-03T11:12:42Z</time>
      </trkpt>
      <trkpt lat="42.354462" lon="1.765075">
        <ele>1104.8</ele>
        <time>2022-07-03T11:12:44Z</time>
      </trkpt>
      <trkpt lat="42.354537" lon="1.765133">
        <ele>1104.3</ele>
        <time>2022-07-03T11:12:46Z</time>
      </trkpt>
      <trkpt lat="42.354625" lon="1.765200">
        <ele>1105.7</ele>
        <time>2022-07-03T11:12:48Z</time>
      </trkpt>
      <trkpt lat="42.354718" lon="1.765267">
        <ele>1104.8</ele>
        <time>2022-07-03T11:12:50Z</time>
      </trkpt>
      <trkpt lat="42.354765" lon="1.765302">
        <ele>1104.6</ele>
        <time>2022-07-03T11:12:51Z</time>
      </trkpt>
      <trkpt lat="42.354860" lon="1.765368">
        <ele>1104.4</ele>
        <time>2022-07-03T11:12:53Z</time>
      </trkpt>
      <trkpt lat="42.354909" lon="1.765402">
        <ele>1104.3</ele>
        <time>2022-07-03T11:12:54Z</time>
      </trkpt>
      <trkpt lat="42.354960" lon="1.765436">
        <ele>1103.7</ele>
        <time>2022-07-03T11:12:55Z</time>
      </trkpt>
      <trkpt lat="42.355010" lon="1.765471">
        <ele>1103.5</ele>
        <time>2022-07-03T11:12:56Z</time>
      </trkpt>
      <trkpt lat="42.355062" lon="1.765505">
        <ele>1103.0</ele>
        <time>2022-07-03T11:12:57Z</time>
      </trkpt>
      <trkpt lat="42.355115" lon="1.765536">
        <ele>1102.5</ele>
        <time>2022-07-03T11:12:58Z</time>
      </trkpt>
      <trkpt lat="42.355169" lon="1.765570">
        <ele>1102.3</ele>
        <time>2022-07-03T11:12:59Z</time>
      </trkpt>
      <trkpt lat="42.355225" lon="1.765602">
        <ele>1103.3</ele>
        <time>2022-07-03T11:13:00Z</time>
      </trkpt>
      <trkpt lat="42.355281" lon="1.765641">
        <ele>1103.2</ele>
        <time>2022-07-03T11:13:01Z</time>
      </trkpt>
      <trkpt lat="42.355336" lon="1.765683">
        <ele>1103.6</ele>
        <time>2022-07-03T11:13:02Z</time>
      </trkpt>
      <trkpt lat="42.355392" lon="1.765725">
        <ele>1103.5</ele>
        <time>2022-07-03T11:13:03Z</time>
      </trkpt>
      <trkpt lat="42.355445" lon="1.765759">
        <ele>1102.6</ele>
        <time>2022-07-03T11:13:04Z</time>
      </trkpt>
      <trkpt lat="42.355498" lon="1.765794">
        <ele>1102.3</ele>
        <time>2022-07-03T11:13:05Z</time>
      </trkpt>
      <trkpt lat="42.355551" lon="1.765832">
        <ele>1102.3</ele>
        <time>2022-07-03T11:13:06Z</time>
      </trkpt>
      <trkpt lat="42.355599" lon="1.765875">
        <ele>1102.1</ele>
        <time>2022-07-03T11:13:07Z</time>
      </trkpt>
      <trkpt lat="42.355646" lon="1.765918">
        <ele>1099.7</ele>
        <time>2022-07-03T11:13:08Z</time>
      </trkpt>
      <trkpt lat="42.355693" lon="1.765959">
        <ele>1099.5</ele>
        <time>2022-07-03T11:13:09Z</time>
      </trkpt>
      <trkpt lat="42.355738" lon="1.766001">
        <ele>1099.1</ele>
        <time>2022-07-03T11:13:10Z</time>
      </trkpt>
      <trkpt lat="42.355830" lon="1.766078">
        <ele>1099.2</ele>
        <time>2022-07-03T11:13:12Z</time>
      </trkpt>
      <trkpt lat="42.355876" lon="1.766117">
        <ele>1099.4</ele>
        <time>2022-07-03T11:13:13Z</time>
      </trkpt>
      <trkpt lat="42.355925" lon="1.766151">
        <ele>1099.6</ele>
        <time>2022-07-03T11:13:14Z</time>
      </trkpt>
      <trkpt lat="42.355976" lon="1.766188">
        <ele>1099.7</ele>
        <time>2022-07-03T11:13:15Z</time>
      </trkpt>
      <trkpt lat="42.356027" lon="1.766222">
        <ele>1099.2</ele>
        <time>2022-07-03T11:13:16Z</time>
      </trkpt>
      <trkpt lat="42.356080" lon="1.766257">
        <ele>1099.0</ele>
        <time>2022-07-03T11:13:17Z</time>
      </trkpt>
      <trkpt lat="42.356134" lon="1.766292">
        <ele>1098.8</ele>
        <time>2022-07-03T11:13:18Z</time>
      </trkpt>
      <trkpt lat="42.356186" lon="1.766327">
        <ele>1098.5</ele>
        <time>2022-07-03T11:13:19Z</time>
      </trkpt>
      <trkpt lat="42.356237" lon="1.766361">
        <ele>1098.5</ele>
        <time>2022-07-03T11:13:20Z</time>
      </trkpt>
      <trkpt lat="42.356329" lon="1.766417">
        <ele>1098.2</ele>
        <time>2022-07-03T11:13:22Z</time>
      </trkpt>
      <trkpt lat="42.356413" lon="1.766469">
        <ele>1098.8</ele>
        <time>2022-07-03T11:13:24Z</time>
      </trkpt>
      <trkpt lat="42.356495" lon="1.766525">
        <ele>1098.0</ele>
        <time>2022-07-03T11:13:26Z</time>
      </trkpt>
      <trkpt lat="42.356574" lon="1.766593">
        <ele>1097.7</ele>
        <time>2022-07-03T11:13:28Z</time>
      </trkpt>
      <trkpt lat="42.356649" lon="1.766690">
        <ele>1097.5</ele>
        <time>2022-07-03T11:13:30Z</time>
      </trkpt>
      <trkpt lat="42.356727" lon="1.766790">
        <ele>1096.0</ele>
        <time>2022-07-03T11:13:32Z</time>
      </trkpt>
      <trkpt lat="42.356835" lon="1.766880">
        <ele>1095.4</ele>
        <time>2022-07-03T11:13:35Z</time>
      </trkpt>
      <trkpt lat="42.356911" lon="1.766913">
        <ele>1095.1</ele>
        <time>2022-07-03T11:13:37Z</time>
      </trkpt>
      <trkpt lat="42.356997" lon="1.766946">
        <ele>1095.4</ele>
        <time>2022-07-03T11:13:39Z</time>
      </trkpt>
      <trkpt lat="42.357095" lon="1.767006">
        <ele>1095.4</ele>
        <time>2022-07-03T11:13:41Z</time>
      </trkpt>
      <trkpt lat="42.357141" lon="1.767046">
        <ele>1095.8</ele>
        <time>2022-07-03T11:13:42Z</time>
      </trkpt>
      <trkpt lat="42.357228" lon="1.767122">
        <ele>1095.5</ele>
        <time>2022-07-03T11:13:44Z</time>
      </trkpt>
      <trkpt lat="42.357322" lon="1.767182">
        <ele>1094.9</ele>
        <time>2022-07-03T11:13:46Z</time>
      </trkpt>
      <trkpt lat="42.357421" lon="1.767234">
        <ele>1094.6</ele>
        <time>2022-07-03T11:13:48Z</time>
      </trkpt>
      <trkpt lat="42.357473" lon="1.767264">
        <ele>1094.4</ele>
        <time>2022-07-03T11:13:49Z</time>
      </trkpt>
      <trkpt lat="42.357524" lon="1.767295">
        <ele>1094.2</ele>
        <time>2022-07-03T11:13:50Z</time>
      </trkpt>
      <trkpt lat="42.357578" lon="1.767326">
        <ele>1093.9</ele>
        <time>2022-07-03T11:13:51Z</time>
      </trkpt>
      <trkpt lat="42.357631" lon="1.767357">
        <ele>1093.7</ele>
        <time>2022-07-03T11:13:52Z</time>
      </trkpt>
      <trkpt lat="42.357684" lon="1.767389">
        <ele>1093.6</ele>
        <time>2022-07-03T11:13:53Z</time>
      </trkpt>
      <trkpt lat="42.357741" lon="1.767418">
        <ele>1093.5</ele>
        <time>2022-07-03T11:13:54Z</time>
      </trkpt>
      <trkpt lat="42.357798" lon="1.767447">
        <ele>1093.5</ele>
        <time>2022-07-03T11:13:55Z</time>
      </trkpt>
      <trkpt lat="42.357856" lon="1.767478">
        <ele>1092.7</ele>
        <time>2022-07-03T11:13:56Z</time>
      </trkpt>
      <trkpt lat="42.357913" lon="1.767512">
        <ele>1092.8</ele>
        <time>2022-07-03T11:13:57Z</time>
      </trkpt>
      <trkpt lat="42.357969" lon="1.767552">
        <ele>1092.6</ele>
        <time>2022-07-03T11:13:58Z</time>
      </trkpt>
      <trkpt lat="42.358027" lon="1.767599">
        <ele>1092.6</ele>
        <time>2022-07-03T11:13:59Z</time>
      </trkpt>
      <trkpt lat="42.358086" lon="1.767650">
        <ele>1092.2</ele>
        <time>2022-07-03T11:14:00Z</time>
      </trkpt>
      <trkpt lat="42.358144" lon="1.767702">
        <ele>1092.4</ele>
        <time>2022-07-03T11:14:01Z</time>
      </trkpt>
      <trkpt lat="42.358203" lon="1.767756">
        <ele>1092.5</ele>
        <time>2022-07-03T11:14:02Z</time>
      </trkpt>
      <trkpt lat="42.358262" lon="1.767810">
        <ele>1092.7</ele>
        <time>2022-07-03T11:14:03Z</time>
      </trkpt>
      <trkpt lat="42.358323" lon="1.767866">
        <ele>1092.1</ele>
        <time>2022-07-03T11:14:04Z</time>
      </trkpt>
      <trkpt lat="42.358389" lon="1.767917">
        <ele>1092.1</ele>
        <time>2022-07-03T11:14:05Z</time>
      </trkpt>
      <trkpt lat="42.358452" lon="1.767968">
        <ele>1092.7</ele>
        <time>2022-07-03T11:14:06Z</time>
      </trkpt>
      <trkpt lat="42.358514" lon="1.768026">
        <ele>1093.7</ele>
        <time>2022-07-03T11:14:07Z</time>
      </trkpt>
      <trkpt lat="42.358577" lon="1.768080">
        <ele>1092.6</ele>
        <time>2022-07-03T11:14:08Z</time>
      </trkpt>
      <trkpt lat="42.358642" lon="1.768130">
        <ele>1091.8</ele>
        <time>2022-07-03T11:14:09Z</time>
      </trkpt>
      <trkpt lat="42.358708" lon="1.768179">
        <ele>1091.6</ele>
        <time>2022-07-03T11:14:10Z</time>
      </trkpt>
      <trkpt lat="42.358774" lon="1.768227">
        <ele>1091.8</ele>
        <time>2022-07-03T11:14:11Z</time>
      </trkpt>
      <trkpt lat="42.358842" lon="1.768273">
        <ele>1091.0</ele>
        <time>2022-07-03T11:14:12Z</time>
      </trkpt>
      <trkpt lat="42.358910" lon="1.768320">
        <ele>1090.6</ele>
        <time>2022-07-03T11:14:13Z</time>
      </trkpt>
      <trkpt lat="42.358978" lon="1.768367">
        <ele>1090.2</ele>
        <time>2022-07-03T11:14:14Z</time>
      </trkpt>
      <trkpt lat="42.359046" lon="1.768415">
        <ele>1090.2</ele>
        <time>2022-07-03T11:14:15Z</time>
      </trkpt>
      <trkpt lat="42.359116" lon="1.768461">
        <ele>1089.3</ele>
        <time>2022-07-03T11:14:16Z</time>
      </trkpt>
      <trkpt lat="42.359190" lon="1.768505">
        <ele>1088.9</ele>
        <time>2022-07-03T11:14:17Z</time>
      </trkpt>
      <trkpt lat="42.359264" lon="1.768549">
        <ele>1088.7</ele>
        <time>2022-07-03T11:14:18Z</time>
      </trkpt>
      <trkpt lat="42.359338" lon="1.768593">
        <ele>1088.4</ele>
        <time>2022-07-03T11:14:19Z</time>
      </trkpt>
      <trkpt lat="42.359414" lon="1.768637">
        <ele>1087.7</ele>
        <time>2022-07-03T11:14:20Z</time>
      </trkpt>
      <trkpt lat="42.359490" lon="1.768680">
        <ele>1087.1</ele>
        <time>2022-07-03T11:14:21Z</time>
      </trkpt>
      <trkpt lat="42.359566" lon="1.768727">
        <ele>1086.5</ele>
        <time>2022-07-03T11:14:22Z</time>
      </trkpt>
      <trkpt lat="42.359701" lon="1.768836">
        <ele>1086.0</ele>
        <time>2022-07-03T11:14:24Z</time>
      </trkpt>
      <trkpt lat="42.359858" lon="1.769019">
        <ele>1085.4</ele>
        <time>2022-07-03T11:14:27Z</time>
      </trkpt>
      <trkpt lat="42.359884" lon="1.769085">
        <ele>1085.4</ele>
        <time>2022-07-03T11:14:28Z</time>
      </trkpt>
      <trkpt lat="42.359906" lon="1.769156">
        <ele>1085.4</ele>
        <time>2022-07-03T11:14:29Z</time>
      </trkpt>
      <trkpt lat="42.359905" lon="1.769231">
        <ele>1084.7</ele>
        <time>2022-07-03T11:14:30Z</time>
      </trkpt>
      <trkpt lat="42.359890" lon="1.769367">
        <ele>1083.7</ele>
        <time>2022-07-03T11:14:32Z</time>
      </trkpt>
      <trkpt lat="42.359944" lon="1.769457">
        <ele>1083.3</ele>
        <time>2022-07-03T11:14:34Z</time>
      </trkpt>
      <trkpt lat="42.360023" lon="1.769522">
        <ele>1081.7</ele>
        <time>2022-07-03T11:14:36Z</time>
      </trkpt>
      <trkpt lat="42.360098" lon="1.769592">
        <ele>1079.6</ele>
        <time>2022-07-03T11:14:38Z</time>
      </trkpt>
      <trkpt lat="42.360169" lon="1.769661">
        <ele>1078.2</ele>
        <time>2022-07-03T11:14:40Z</time>
      </trkpt>
      <trkpt lat="42.360223" lon="1.769748">
        <ele>1076.1</ele>
        <time>2022-07-03T11:14:42Z</time>
      </trkpt>
      <trkpt lat="42.360194" lon="1.769848">
        <ele>1075.7</ele>
        <time>2022-07-03T11:14:44Z</time>
      </trkpt>
      <trkpt lat="42.360133" lon="1.769926">
        <ele>1074.8</ele>
        <time>2022-07-03T11:14:46Z</time>
      </trkpt>
      <trkpt lat="42.360074" lon="1.769985">
        <ele>1073.3</ele>
        <time>2022-07-03T11:14:48Z</time>
      </trkpt>
      <trkpt lat="42.360035" lon="1.770045">
        <ele>1072.2</ele>
        <time>2022-07-03T11:14:50Z</time>
      </trkpt>
      <trkpt lat="42.360038" lon="1.770139">
        <ele>1071.7</ele>
        <time>2022-07-03T11:14:52Z</time>
      </trkpt>
      <trkpt lat="42.360085" lon="1.770251">
        <ele>1070.0</ele>
        <time>2022-07-03T11:14:54Z</time>
      </trkpt>
      <trkpt lat="42.360123" lon="1.770314">
        <ele>1070.1</ele>
        <time>2022-07-03T11:14:55Z</time>
      </trkpt>
      <trkpt lat="42.360169" lon="1.770379">
        <ele>1068.7</ele>
        <time>2022-07-03T11:14:56Z</time>
      </trkpt>
      <trkpt lat="42.360221" lon="1.770447">
        <ele>1068.7</ele>
        <time>2022-07-03T11:14:57Z</time>
      </trkpt>
      <trkpt lat="42.360267" lon="1.770517">
        <ele>1068.9</ele>
        <time>2022-07-03T11:14:58Z</time>
      </trkpt>
      <trkpt lat="42.360313" lon="1.770585">
        <ele>1068.9</ele>
        <time>2022-07-03T11:14:59Z</time>
      </trkpt>
      <trkpt lat="42.360365" lon="1.770648">
        <ele>1068.3</ele>
        <time>2022-07-03T11:15:00Z</time>
      </trkpt>
      <trkpt lat="42.360415" lon="1.770717">
        <ele>1067.8</ele>
        <time>2022-07-03T11:15:01Z</time>
      </trkpt>
      <trkpt lat="42.360461" lon="1.770791">
        <ele>1066.8</ele>
        <time>2022-07-03T11:15:02Z</time>
      </trkpt>
      <trkpt lat="42.360506" lon="1.770864">
        <ele>1066.2</ele>
        <time>2022-07-03T11:15:03Z</time>
      </trkpt>
      <trkpt lat="42.360551" lon="1.770939">
        <ele>1065.6</ele>
        <time>2022-07-03T11:15:04Z</time>
      </trkpt>
      <trkpt lat="42.360594" lon="1.771010">
        <ele>1064.7</ele>
        <time>2022-07-03T11:15:05Z</time>
      </trkpt>
      <trkpt lat="42.360637" lon="1.771070">
        <ele>1063.7</ele>
        <time>2022-07-03T11:15:06Z</time>
      </trkpt>
      <trkpt lat="42.360675" lon="1.771129">
        <ele>1062.9</ele>
        <time>2022-07-03T11:15:07Z</time>
      </trkpt>
      <trkpt lat="42.360733" lon="1.771247">
        <ele>1061.5</ele>
        <time>2022-07-03T11:15:09Z</time>
      </trkpt>
      <trkpt lat="42.360766" lon="1.771308">
        <ele>1059.6</ele>
        <time>2022-07-03T11:15:10Z</time>
      </trkpt>
      <trkpt lat="42.360804" lon="1.771362">
        <ele>1059.1</ele>
        <time>2022-07-03T11:15:11Z</time>
      </trkpt>
      <trkpt lat="42.360848" lon="1.771417">
        <ele>1059.1</ele>
        <time>2022-07-03T11:15:12Z</time>
      </trkpt>
      <trkpt lat="42.360901" lon="1.771467">
        <ele>1057.9</ele>
        <time>2022-07-03T11:15:13Z</time>
      </trkpt>
      <trkpt lat="42.360960" lon="1.771512">
        <ele>1056.8</ele>
        <time>2022-07-03T11:15:14Z</time>
      </trkpt>
      <trkpt lat="42.361028" lon="1.771552">
        <ele>1056.4</ele>
        <time>2022-07-03T11:15:15Z</time>
      </trkpt>
      <trkpt lat="42.361087" lon="1.771585">
        <ele>1056.5</ele>
        <time>2022-07-03T11:15:16Z</time>
      </trkpt>
      <trkpt lat="42.361141" lon="1.771611">
        <ele>1056.3</ele>
        <time>2022-07-03T11:15:17Z</time>
      </trkpt>
      <trkpt lat="42.361205" lon="1.771624">
        <ele>1056.1</ele>
        <time>2022-07-03T11:15:18Z</time>
      </trkpt>
      <trkpt lat="42.361269" lon="1.771611">
        <ele>1056.0</ele>
        <time>2022-07-03T11:15:19Z</time>
      </trkpt>
      <trkpt lat="42.361335" lon="1.771579">
        <ele>1055.8</ele>
        <time>2022-07-03T11:15:20Z</time>
      </trkpt>
      <trkpt lat="42.361398" lon="1.771536">
        <ele>1055.5</ele>
        <time>2022-07-03T11:15:21Z</time>
      </trkpt>
      <trkpt lat="42.361467" lon="1.771495">
        <ele>1055.0</ele>
        <time>2022-07-03T11:15:22Z</time>
      </trkpt>
      <trkpt lat="42.361538" lon="1.771469">
        <ele>1054.7</ele>
        <time>2022-07-03T11:15:23Z</time>
      </trkpt>
      <trkpt lat="42.361609" lon="1.771454">
        <ele>1054.9</ele>
        <time>2022-07-03T11:15:24Z</time>
      </trkpt>
      <trkpt lat="42.361679" lon="1.771454">
        <ele>1054.2</ele>
        <time>2022-07-03T11:15:25Z</time>
      </trkpt>
      <trkpt lat="42.361736" lon="1.771483">
        <ele>1054.1</ele>
        <time>2022-07-03T11:15:26Z</time>
      </trkpt>
      <trkpt lat="42.361785" lon="1.771516">
        <ele>1051.8</ele>
        <time>2022-07-03T11:15:27Z</time>
      </trkpt>
      <trkpt lat="42.361831" lon="1.771645">
        <ele>1051.6</ele>
        <time>2022-07-03T11:15:29Z</time>
      </trkpt>
      <trkpt lat="42.361848" lon="1.771715">
        <ele>1051.8</ele>
        <time>2022-07-03T11:15:30Z</time>
      </trkpt>
      <trkpt lat="42.361877" lon="1.771852">
        <ele>1052.7</ele>
        <time>2022-07-03T11:15:32Z</time>
      </trkpt>
      <trkpt lat="42.361913" lon="1.771983">
        <ele>1052.9</ele>
        <time>2022-07-03T11:15:34Z</time>
      </trkpt>
      <trkpt lat="42.361959" lon="1.772114">
        <ele>1053.5</ele>
        <time>2022-07-03T11:15:36Z</time>
      </trkpt>
      <trkpt lat="42.361982" lon="1.772180">
        <ele>1053.5</ele>
        <time>2022-07-03T11:15:37Z</time>
      </trkpt>
      <trkpt lat="42.362021" lon="1.772313">
        <ele>1053.4</ele>
        <time>2022-07-03T11:15:39Z</time>
      </trkpt>
      <trkpt lat="42.362053" lon="1.772442">
        <ele>1053.2</ele>
        <time>2022-07-03T11:15:41Z</time>
      </trkpt>
      <trkpt lat="42.362077" lon="1.772566">
        <ele>1053.5</ele>
        <time>2022-07-03T11:15:43Z</time>
      </trkpt>
      <trkpt lat="42.362102" lon="1.772680">
        <ele>1054.5</ele>
        <time>2022-07-03T11:15:45Z</time>
      </trkpt>
      <trkpt lat="42.362127" lon="1.772796">
        <ele>1054.4</ele>
        <time>2022-07-03T11:15:47Z</time>
      </trkpt>
      <trkpt lat="42.362145" lon="1.772910">
        <ele>1054.2</ele>
        <time>2022-07-03T11:15:49Z</time>
      </trkpt>
      <trkpt lat="42.362219" lon="1.772940">
        <ele>1053.0</ele>
        <time>2022-07-03T11:15:51Z</time>
      </trkpt>
      <trkpt lat="42.362304" lon="1.772929">
        <ele>1053.1</ele>
        <time>2022-07-03T11:15:53Z</time>
      </trkpt>
      <trkpt lat="42.362385" lon="1.772929">
        <ele>1053.4</ele>
        <time>2022-07-03T11:15:55Z</time>
      </trkpt>
      <trkpt lat="42.362457" lon="1.772927">
        <ele>1053.7</ele>
        <time>2022-07-03T11:15:57Z</time>
      </trkpt>
      <trkpt lat="42.362527" lon="1.772942">
        <ele>1054.0</ele>
        <time>2022-07-03T11:15:59Z</time>
      </trkpt>
      <trkpt lat="42.362600" lon="1.772955">
        <ele>1054.2</ele>
        <time>2022-07-03T11:16:01Z</time>
      </trkpt>
      <trkpt lat="42.362683" lon="1.772970">
        <ele>1054.5</ele>
        <time>2022-07-03T11:16:04Z</time>
      </trkpt>
      <trkpt lat="42.362737" lon="1.773000">
        <ele>1054.7</ele>
        <time>2022-07-03T11:16:06Z</time>
      </trkpt>
      <trkpt lat="42.362777" lon="1.773051">
        <ele>1054.4</ele>
        <time>2022-07-03T11:16:08Z</time>
      </trkpt>
      <trkpt lat="42.362808" lon="1.773119">
        <ele>1055.3</ele>
        <time>2022-07-03T11:16:10Z</time>
      </trkpt>
      <trkpt lat="42.362828" lon="1.773190">
        <ele>1055.9</ele>
        <time>2022-07-03T11:16:12Z</time>
      </trkpt>
      <trkpt lat="42.362840" lon="1.773265">
        <ele>1056.3</ele>
        <time>2022-07-03T11:16:14Z</time>
      </trkpt>
      <trkpt lat="42.362856" lon="1.773337">
        <ele>1056.9</ele>
        <time>2022-07-03T11:16:16Z</time>
      </trkpt>
      <trkpt lat="42.362886" lon="1.773438">
        <ele>1057.3</ele>
        <time>2022-07-03T11:16:19Z</time>
      </trkpt>
      <trkpt lat="42.362914" lon="1.773539">
        <ele>1058.1</ele>
        <time>2022-07-03T11:16:22Z</time>
      </trkpt>
      <trkpt lat="42.362947" lon="1.773638">
        <ele>1058.7</ele>
        <time>2022-07-03T11:16:25Z</time>
      </trkpt>
      <trkpt lat="42.362966" lon="1.773708">
        <ele>1058.7</ele>
        <time>2022-07-03T11:16:27Z</time>
      </trkpt>
      <trkpt lat="42.362989" lon="1.773775">
        <ele>1058.8</ele>
        <time>2022-07-03T11:16:29Z</time>
      </trkpt>
      <trkpt lat="42.363018" lon="1.773872">
        <ele>1059.6</ele>
        <time>2022-07-03T11:16:32Z</time>
      </trkpt>
      <trkpt lat="42.363052" lon="1.773959">
        <ele>1060.5</ele>
        <time>2022-07-03T11:16:35Z</time>
      </trkpt>
      <trkpt lat="42.363088" lon="1.774052">
        <ele>1061.0</ele>
        <time>2022-07-03T11:16:38Z</time>
      </trkpt>
      <trkpt lat="42.363125" lon="1.774141">
        <ele>1061.8</ele>
        <time>2022-07-03T11:16:41Z</time>
      </trkpt>
      <trkpt lat="42.363157" lon="1.774237">
        <ele>1062.2</ele>
        <time>2022-07-03T11:16:44Z</time>
      </trkpt>
      <trkpt lat="42.363188" lon="1.774338">
        <ele>1062.4</ele>
        <time>2022-07-03T11:16:47Z</time>
      </trkpt>
      <trkpt lat="42.363215" lon="1.774437">
        <ele>1063.0</ele>
        <time>2022-07-03T11:16:50Z</time>
      </trkpt>
      <trkpt lat="42.363242" lon="1.774536">
        <ele>1063.2</ele>
        <time>2022-07-03T11:16:53Z</time>
      </trkpt>
      <trkpt lat="42.363275" lon="1.774636">
        <ele>1063.8</ele>
        <time>2022-07-03T11:16:56Z</time>
      </trkpt>
      <trkpt lat="42.363300" lon="1.774703">
        <ele>1063.9</ele>
        <time>2022-07-03T11:16:58Z</time>
      </trkpt>
      <trkpt lat="42.363326" lon="1.774772">
        <ele>1064.1</ele>
        <time>2022-07-03T11:17:00Z</time>
      </trkpt>
      <trkpt lat="42.363355" lon="1.774836">
        <ele>1064.5</ele>
        <time>2022-07-03T11:17:02Z</time>
      </trkpt>
      <trkpt lat="42.363387" lon="1.774898">
        <ele>1064.7</ele>
        <time>2022-07-03T11:17:04Z</time>
      </trkpt>
      <trkpt lat="42.363420" lon="1.774957">
        <ele>1064.6</ele>
        <time>2022-07-03T11:17:06Z</time>
      </trkpt>
      <trkpt lat="42.363471" lon="1.775040">
        <ele>1065.0</ele>
        <time>2022-07-03T11:17:09Z</time>
      </trkpt>
      <trkpt lat="42.363520" lon="1.775126">
        <ele>1065.0</ele>
        <time>2022-07-03T11:17:12Z</time>
      </trkpt>
      <trkpt lat="42.363570" lon="1.775204">
        <ele>1065.4</ele>
        <time>2022-07-03T11:17:15Z</time>
      </trkpt>
      <trkpt lat="42.363623" lon="1.775277">
        <ele>1066.0</ele>
        <time>2022-07-03T11:17:18Z</time>
      </trkpt>
      <trkpt lat="42.363680" lon="1.775351">
        <ele>1066.9</ele>
        <time>2022-07-03T11:17:21Z</time>
      </trkpt>
      <trkpt lat="42.363720" lon="1.775402">
        <ele>1066.4</ele>
        <time>2022-07-03T11:17:23Z</time>
      </trkpt>
      <trkpt lat="42.363759" lon="1.775453">
        <ele>1066.4</ele>
        <time>2022-07-03T11:17:25Z</time>
      </trkpt>
      <trkpt lat="42.363801" lon="1.775513">
        <ele>1067.2</ele>
        <time>2022-07-03T11:17:27Z</time>
      </trkpt>
      <trkpt lat="42.363833" lon="1.775587">
        <ele>1067.5</ele>
        <time>2022-07-03T11:17:29Z</time>
      </trkpt>
      <trkpt lat="42.363876" lon="1.775654">
        <ele>1067.8</ele>
        <time>2022-07-03T11:17:31Z</time>
      </trkpt>
      <trkpt lat="42.363927" lon="1.775722">
        <ele>1067.4</ele>
        <time>2022-07-03T11:17:33Z</time>
      </trkpt>
      <trkpt lat="42.363978" lon="1.775788">
        <ele>1067.5</ele>
        <time>2022-07-03T11:17:35Z</time>
      </trkpt>
      <trkpt lat="42.364025" lon="1.775860">
        <ele>1067.6</ele>
        <time>2022-07-03T11:17:37Z</time>
      </trkpt>
      <trkpt lat="42.364071" lon="1.775932">
        <ele>1068.0</ele>
        <time>2022-07-03T11:17:39Z</time>
      </trkpt>
      <trkpt lat="42.364121" lon="1.776002">
        <ele>1068.3</ele>
        <time>2022-07-03T11:17:41Z</time>
      </trkpt>
      <trkpt lat="42.364173" lon="1.776089">
        <ele>1068.7</ele>
        <time>2022-07-03T11:17:43Z</time>
      </trkpt>
      <trkpt lat="42.364233" lon="1.776166">
        <ele>1068.7</ele>
        <time>2022-07-03T11:17:45Z</time>
      </trkpt>
      <trkpt lat="42.364289" lon="1.776222">
        <ele>1068.9</ele>
        <time>2022-07-03T11:17:47Z</time>
      </trkpt>
      <trkpt lat="42.364338" lon="1.776290">
        <ele>1069.2</ele>
        <time>2022-07-03T11:17:49Z</time>
      </trkpt>
      <trkpt lat="42.364397" lon="1.776355">
        <ele>1069.3</ele>
        <time>2022-07-03T11:17:51Z</time>
      </trkpt>
      <trkpt lat="42.364457" lon="1.776425">
        <ele>1069.4</ele>
        <time>2022-07-03T11:17:53Z</time>
      </trkpt>
      <trkpt lat="42.364514" lon="1.776490">
        <ele>1069.5</ele>
        <time>2022-07-03T11:17:55Z</time>
      </trkpt>
      <trkpt lat="42.364568" lon="1.776553">
        <ele>1069.5</ele>
        <time>2022-07-03T11:17:57Z</time>
      </trkpt>
      <trkpt lat="42.364610" lon="1.776627">
        <ele>1069.5</ele>
        <time>2022-07-03T11:17:59Z</time>
      </trkpt>
      <trkpt lat="42.364656" lon="1.776697">
        <ele>1069.5</ele>
        <time>2022-07-03T11:18:01Z</time>
      </trkpt>
      <trkpt lat="42.364710" lon="1.776770">
        <ele>1069.6</ele>
        <time>2022-07-03T11:18:03Z</time>
      </trkpt>
      <trkpt lat="42.364787" lon="1.776820">
        <ele>1069.6</ele>
        <time>2022-07-03T11:18:05Z</time>
      </trkpt>
      <trkpt lat="42.364875" lon="1.776820">
        <ele>1069.6</ele>
        <time>2022-07-03T11:18:07Z</time>
      </trkpt>
      <trkpt lat="42.364964" lon="1.776791">
        <ele>1069.5</ele>
        <time>2022-07-03T11:18:09Z</time>
      </trkpt>
      <trkpt lat="42.365045" lon="1.776749">
        <ele>1069.4</ele>
        <time>2022-07-03T11:18:11Z</time>
      </trkpt>
      <trkpt lat="42.365124" lon="1.776709">
        <ele>1069.3</ele>
        <time>2022-07-03T11:18:13Z</time>
      </trkpt>
      <trkpt lat="42.365185" lon="1.776668">
        <ele>1069.4</ele>
        <time>2022-07-03T11:18:15Z</time>
      </trkpt>
      <trkpt lat="42.365234" lon="1.776636">
        <ele>1069.4</ele>
        <time>2022-07-03T11:18:17Z</time>
      </trkpt>
      <trkpt lat="42.365159" lon="1.776660">
        <ele>1069.6</ele>
        <time>2022-07-03T11:18:26Z</time>
      </trkpt>
      <trkpt lat="42.365094" lon="1.776692">
        <ele>1069.7</ele>
        <time>2022-07-03T11:18:28Z</time>
      </trkpt>
      <trkpt lat="42.365027" lon="1.776731">
        <ele>1069.7</ele>
        <time>2022-07-03T11:18:30Z</time>
      </trkpt>
      <trkpt lat="42.364966" lon="1.776769">
        <ele>1069.7</ele>
        <time>2022-07-03T11:18:32Z</time>
      </trkpt>
      <trkpt lat="42.364901" lon="1.776788">
        <ele>1069.8</ele>
        <time>2022-07-03T11:18:34Z</time>
      </trkpt>
      <trkpt lat="42.364836" lon="1.776803">
        <ele>1069.8</ele>
        <time>2022-07-03T11:18:36Z</time>
      </trkpt>
      <trkpt lat="42.364776" lon="1.776839">
        <ele>1069.6</ele>
        <time>2022-07-03T11:18:38Z</time>
      </trkpt>
      <trkpt lat="42.364729" lon="1.776922">
        <ele>1069.5</ele>
        <time>2022-07-03T11:18:40Z</time>
      </trkpt>
      <trkpt lat="42.364712" lon="1.777014">
        <ele>1069.3</ele>
        <time>2022-07-03T11:18:42Z</time>
      </trkpt>
      <trkpt lat="42.364692" lon="1.777131">
        <ele>1069.6</ele>
        <time>2022-07-03T11:18:44Z</time>
      </trkpt>
      <trkpt lat="42.364675" lon="1.777252">
        <ele>1069.6</ele>
        <time>2022-07-03T11:18:46Z</time>
      </trkpt>
      <trkpt lat="42.364664" lon="1.777366">
        <ele>1069.7</ele>
        <time>2022-07-03T11:18:48Z</time>
      </trkpt>
      <trkpt lat="42.364656" lon="1.777480">
        <ele>1069.8</ele>
        <time>2022-07-03T11:18:50Z</time>
      </trkpt>
      <trkpt lat="42.364649" lon="1.777594">
        <ele>1069.9</ele>
        <time>2022-07-03T11:18:52Z</time>
      </trkpt>
      <trkpt lat="42.364640" lon="1.777703">
        <ele>1070.1</ele>
        <time>2022-07-03T11:18:54Z</time>
      </trkpt>
      <trkpt lat="42.364628" lon="1.777812">
        <ele>1070.3</ele>
        <time>2022-07-03T11:18:56Z</time>
      </trkpt>
      <trkpt lat="42.364619" lon="1.777920">
        <ele>1070.3</ele>
        <time>2022-07-03T11:18:58Z</time>
      </trkpt>
      <trkpt lat="42.364624" lon="1.778015">
        <ele>1070.5</ele>
        <time>2022-07-03T11:19:00Z</time>
      </trkpt>
      <trkpt lat="42.364635" lon="1.778099">
        <ele>1070.8</ele>
        <time>2022-07-03T11:19:02Z</time>
      </trkpt>
      <trkpt lat="42.364644" lon="1.778202">
        <ele>1071.1</ele>
        <time>2022-07-03T11:19:04Z</time>
      </trkpt>
      <trkpt lat="42.364652" lon="1.778294">
        <ele>1071.5</ele>
        <time>2022-07-03T11:19:06Z</time>
      </trkpt>
      <trkpt lat="42.364655" lon="1.778392">
        <ele>1071.7</ele>
        <time>2022-07-03T11:19:08Z</time>
      </trkpt>
      <trkpt lat="42.364650" lon="1.778486">
        <ele>1072.0</ele>
        <time>2022-07-03T11:19:10Z</time>
      </trkpt>
      <trkpt lat="42.364640" lon="1.778579">
        <ele>1072.3</ele>
        <time>2022-07-03T11:19:12Z</time>
      </trkpt>
      <trkpt lat="42.364620" lon="1.778672">
        <ele>1072.6</ele>
        <time>2022-07-03T11:19:14Z</time>
      </trkpt>
      <trkpt lat="42.364586" lon="1.778765">
        <ele>1072.9</ele>
        <time>2022-07-03T11:19:16Z</time>
      </trkpt>
      <trkpt lat="42.364535" lon="1.778831">
        <ele>1073.1</ele>
        <time>2022-07-03T11:19:18Z</time>
      </trkpt>
      <trkpt lat="42.364477" lon="1.778889">
        <ele>1073.3</ele>
        <time>2022-07-03T11:19:20Z</time>
      </trkpt>
      <trkpt lat="42.364418" lon="1.778943">
        <ele>1073.4</ele>
        <time>2022-07-03T11:19:22Z</time>
      </trkpt>
      <trkpt lat="42.364362" lon="1.779003">
        <ele>1073.6</ele>
        <time>2022-07-03T11:19:24Z</time>
      </trkpt>
      <trkpt lat="42.364302" lon="1.779066">
        <ele>1073.7</ele>
        <time>2022-07-03T11:19:26Z</time>
      </trkpt>
      <trkpt lat="42.364245" lon="1.779137">
        <ele>1073.8</ele>
        <time>2022-07-03T11:19:28Z</time>
      </trkpt>
      <trkpt lat="42.364190" lon="1.779212">
        <ele>1074.0</ele>
        <time>2022-07-03T11:19:30Z</time>
      </trkpt>
      <trkpt lat="42.364137" lon="1.779286">
        <ele>1074.1</ele>
        <time>2022-07-03T11:19:32Z</time>
      </trkpt>
      <trkpt lat="42.364088" lon="1.779367">
        <ele>1074.3</ele>
        <time>2022-07-03T11:19:34Z</time>
      </trkpt>
      <trkpt lat="42.364035" lon="1.779466">
        <ele>1074.5</ele>
        <time>2022-07-03T11:19:36Z</time>
      </trkpt>
      <trkpt lat="42.363986" lon="1.779540">
        <ele>1074.5</ele>
        <time>2022-07-03T11:19:38Z</time>
      </trkpt>
      <trkpt lat="42.363928" lon="1.779607">
        <ele>1074.6</ele>
        <time>2022-07-03T11:19:40Z</time>
      </trkpt>
      <trkpt lat="42.363874" lon="1.779669">
        <ele>1074.6</ele>
        <time>2022-07-03T11:19:42Z</time>
      </trkpt>
      <trkpt lat="42.363819" lon="1.779736">
        <ele>1074.7</ele>
        <time>2022-07-03T11:19:44Z</time>
      </trkpt>
      <trkpt lat="42.363763" lon="1.779810">
        <ele>1075.0</ele>
        <time>2022-07-03T11:19:46Z</time>
      </trkpt>
      <trkpt lat="42.363710" lon="1.779878">
        <ele>1075.1</ele>
        <time>2022-07-03T11:19:48Z</time>
      </trkpt>
      <trkpt lat="42.363650" lon="1.779942">
        <ele>1075.2</ele>
        <time>2022-07-03T11:19:50Z</time>
      </trkpt>
      <trkpt lat="42.363591" lon="1.780011">
        <ele>1075.5</ele>
        <time>2022-07-03T11:19:52Z</time>
      </trkpt>
      <trkpt lat="42.363539" lon="1.780067">
        <ele>1075.8</ele>
        <time>2022-07-03T11:19:54Z</time>
      </trkpt>
      <trkpt lat="42.363492" lon="1.780129">
        <ele>1076.1</ele>
        <time>2022-07-03T11:19:56Z</time>
      </trkpt>
      <trkpt lat="42.363444" lon="1.780192">
        <ele>1076.3</ele>
        <time>2022-07-03T11:19:58Z</time>
      </trkpt>
      <trkpt lat="42.363390" lon="1.780255">
        <ele>1076.4</ele>
        <time>2022-07-03T11:20:00Z</time>
      </trkpt>
      <trkpt lat="42.363332" lon="1.780314">
        <ele>1076.6</ele>
        <time>2022-07-03T11:20:02Z</time>
      </trkpt>
      <trkpt lat="42.363283" lon="1.780378">
        <ele>1076.8</ele>
        <time>2022-07-03T11:20:04Z</time>
      </trkpt>
      <trkpt lat="42.363244" lon="1.780436">
        <ele>1076.9</ele>
        <time>2022-07-03T11:20:06Z</time>
      </trkpt>
      <trkpt lat="42.363239" lon="1.780511">
        <ele>1077.3</ele>
        <time>2022-07-03T11:20:09Z</time>
      </trkpt>
      <trkpt lat="42.363278" lon="1.780563">
        <ele>1077.5</ele>
        <time>2022-07-03T11:20:44Z</time>
      </trkpt>
      <trkpt lat="42.363222" lon="1.780609">
        <ele>1077.3</ele>
        <time>2022-07-03T11:24:30Z</time>
      </trkpt>
      <trkpt lat="42.363157" lon="1.780666">
        <ele>1077.6</ele>
        <time>2022-07-03T11:24:33Z</time>
      </trkpt>
      <trkpt lat="42.363115" lon="1.780728">
        <ele>1077.8</ele>
        <time>2022-07-03T11:24:36Z</time>
      </trkpt>
      <trkpt lat="42.363128" lon="1.780814">
        <ele>1077.9</ele>
        <time>2022-07-03T11:24:41Z</time>
      </trkpt>
      <trkpt lat="42.363148" lon="1.780891">
        <ele>1078.1</ele>
        <time>2022-07-03T11:24:44Z</time>
      </trkpt>
      <trkpt lat="42.363145" lon="1.780975">
        <ele>1078.0</ele>
        <time>2022-07-03T11:24:47Z</time>
      </trkpt>
      <trkpt lat="42.363149" lon="1.781050">
        <ele>1077.7</ele>
        <time>2022-07-03T11:24:51Z</time>
      </trkpt>
      <trkpt lat="42.363128" lon="1.781159">
        <ele>1077.7</ele>
        <time>2022-07-03T11:24:56Z</time>
      </trkpt>
      <trkpt lat="42.363179" lon="1.781233">
        <ele>1077.7</ele>
        <time>2022-07-03T11:24:59Z</time>
      </trkpt>
      <trkpt lat="42.363254" lon="1.781225">
        <ele>1077.6</ele>
        <time>2022-07-03T11:25:02Z</time>
      </trkpt>
      <trkpt lat="42.363312" lon="1.781249">
        <ele>1077.6</ele>
        <time>2022-07-03T11:25:04Z</time>
      </trkpt>
      <trkpt lat="42.363334" lon="1.781322">
        <ele>1078.9</ele>
        <time>2022-07-03T11:25:06Z</time>
      </trkpt>
      <trkpt lat="42.363355" lon="1.781390">
        <ele>1078.0</ele>
        <time>2022-07-03T11:25:08Z</time>
      </trkpt>
      <trkpt lat="42.363388" lon="1.781521">
        <ele>1077.4</ele>
        <time>2022-07-03T11:25:10Z</time>
      </trkpt>
      <trkpt lat="42.363425" lon="1.781578">
        <ele>1076.1</ele>
        <time>2022-07-03T11:25:11Z</time>
      </trkpt>
      <trkpt lat="42.363474" lon="1.781623">
        <ele>1075.8</ele>
        <time>2022-07-03T11:25:12Z</time>
      </trkpt>
      <trkpt lat="42.363501" lon="1.781700">
        <ele>1075.7</ele>
        <time>2022-07-03T11:25:13Z</time>
      </trkpt>
      <trkpt lat="42.363522" lon="1.781774">
        <ele>1075.6</ele>
        <time>2022-07-03T11:25:14Z</time>
      </trkpt>
      <trkpt lat="42.363606" lon="1.781884">
        <ele>1074.0</ele>
        <time>2022-07-03T11:25:16Z</time>
      </trkpt>
      <trkpt lat="42.363726" lon="1.782041">
        <ele>1075.0</ele>
        <time>2022-07-03T11:25:19Z</time>
      </trkpt>
      <trkpt lat="42.363804" lon="1.782138">
        <ele>1074.9</ele>
        <time>2022-07-03T11:25:21Z</time>
      </trkpt>
      <trkpt lat="42.363848" lon="1.782195">
        <ele>1074.9</ele>
        <time>2022-07-03T11:25:22Z</time>
      </trkpt>
      <trkpt lat="42.363887" lon="1.782260">
        <ele>1074.9</ele>
        <time>2022-07-03T11:25:23Z</time>
      </trkpt>
      <trkpt lat="42.363923" lon="1.782327">
        <ele>1074.2</ele>
        <time>2022-07-03T11:25:24Z</time>
      </trkpt>
      <trkpt lat="42.363968" lon="1.782394">
        <ele>1074.3</ele>
        <time>2022-07-03T11:25:25Z</time>
      </trkpt>
      <trkpt lat="42.364004" lon="1.782459">
        <ele>1074.2</ele>
        <time>2022-07-03T11:25:26Z</time>
      </trkpt>
      <trkpt lat="42.364043" lon="1.782527">
        <ele>1073.8</ele>
        <time>2022-07-03T11:25:27Z</time>
      </trkpt>
      <trkpt lat="42.364083" lon="1.782597">
        <ele>1073.4</ele>
        <time>2022-07-03T11:25:28Z</time>
      </trkpt>
      <trkpt lat="42.364122" lon="1.782666">
        <ele>1072.9</ele>
        <time>2022-07-03T11:25:29Z</time>
      </trkpt>
      <trkpt lat="42.364162" lon="1.782733">
        <ele>1073.2</ele>
        <time>2022-07-03T11:25:30Z</time>
      </trkpt>
      <trkpt lat="42.364197" lon="1.782802">
        <ele>1072.5</ele>
        <time>2022-07-03T11:25:31Z</time>
      </trkpt>
      <trkpt lat="42.364231" lon="1.782873">
        <ele>1072.0</ele>
        <time>2022-07-03T11:25:32Z</time>
      </trkpt>
      <trkpt lat="42.364260" lon="1.782947">
        <ele>1072.1</ele>
        <time>2022-07-03T11:25:33Z</time>
      </trkpt>
      <trkpt lat="42.364293" lon="1.783032">
        <ele>1071.5</ele>
        <time>2022-07-03T11:25:34Z</time>
      </trkpt>
      <trkpt lat="42.364323" lon="1.783110">
        <ele>1071.1</ele>
        <time>2022-07-03T11:25:35Z</time>
      </trkpt>
      <trkpt lat="42.364359" lon="1.783192">
        <ele>1070.8</ele>
        <time>2022-07-03T11:25:36Z</time>
      </trkpt>
      <trkpt lat="42.364393" lon="1.783270">
        <ele>1070.8</ele>
        <time>2022-07-03T11:25:37Z</time>
      </trkpt>
      <trkpt lat="42.364430" lon="1.783353">
        <ele>1069.8</ele>
        <time>2022-07-03T11:25:38Z</time>
      </trkpt>
      <trkpt lat="42.364473" lon="1.783431">
        <ele>1069.9</ele>
        <time>2022-07-03T11:25:39Z</time>
      </trkpt>
      <trkpt lat="42.364503" lon="1.783510">
        <ele>1069.9</ele>
        <time>2022-07-03T11:25:40Z</time>
      </trkpt>
      <trkpt lat="42.364530" lon="1.783593">
        <ele>1069.6</ele>
        <time>2022-07-03T11:25:41Z</time>
      </trkpt>
      <trkpt lat="42.364557" lon="1.783677">
        <ele>1069.7</ele>
        <time>2022-07-03T11:25:42Z</time>
      </trkpt>
      <trkpt lat="42.364588" lon="1.783757">
        <ele>1069.5</ele>
        <time>2022-07-03T11:25:43Z</time>
      </trkpt>
      <trkpt lat="42.364624" lon="1.783836">
        <ele>1068.7</ele>
        <time>2022-07-03T11:25:44Z</time>
      </trkpt>
      <trkpt lat="42.364659" lon="1.783917">
        <ele>1068.2</ele>
        <time>2022-07-03T11:25:45Z</time>
      </trkpt>
      <trkpt lat="42.364689" lon="1.784002">
        <ele>1067.9</ele>
        <time>2022-07-03T11:25:46Z</time>
      </trkpt>
      <trkpt lat="42.364720" lon="1.784080">
        <ele>1067.8</ele>
        <time>2022-07-03T11:25:47Z</time>
      </trkpt>
      <trkpt lat="42.364755" lon="1.784156">
        <ele>1067.2</ele>
        <time>2022-07-03T11:25:48Z</time>
      </trkpt>
      <trkpt lat="42.364794" lon="1.784234">
        <ele>1068.3</ele>
        <time>2022-07-03T11:25:49Z</time>
      </trkpt>
      <trkpt lat="42.364836" lon="1.784313">
        <ele>1067.3</ele>
        <time>2022-07-03T11:25:50Z</time>
      </trkpt>
      <trkpt lat="42.364877" lon="1.784389">
        <ele>1066.8</ele>
        <time>2022-07-03T11:25:51Z</time>
      </trkpt>
      <trkpt lat="42.364922" lon="1.784455">
        <ele>1067.2</ele>
        <time>2022-07-03T11:25:52Z</time>
      </trkpt>
      <trkpt lat="42.364977" lon="1.784504">
        <ele>1067.0</ele>
        <time>2022-07-03T11:25:53Z</time>
      </trkpt>
      <trkpt lat="42.365034" lon="1.784539">
        <ele>1066.1</ele>
        <time>2022-07-03T11:25:54Z</time>
      </trkpt>
      <trkpt lat="42.365097" lon="1.784579">
        <ele>1065.5</ele>
        <time>2022-07-03T11:25:55Z</time>
      </trkpt>
      <trkpt lat="42.365167" lon="1.784605">
        <ele>1065.6</ele>
        <time>2022-07-03T11:25:56Z</time>
      </trkpt>
      <trkpt lat="42.365233" lon="1.784635">
        <ele>1064.7</ele>
        <time>2022-07-03T11:25:57Z</time>
      </trkpt>
      <trkpt lat="42.365292" lon="1.784671">
        <ele>1064.1</ele>
        <time>2022-07-03T11:25:58Z</time>
      </trkpt>
      <trkpt lat="42.365344" lon="1.784720">
        <ele>1063.3</ele>
        <time>2022-07-03T11:25:59Z</time>
      </trkpt>
      <trkpt lat="42.365386" lon="1.784777">
        <ele>1063.2</ele>
        <time>2022-07-03T11:26:00Z</time>
      </trkpt>
      <trkpt lat="42.365426" lon="1.784835">
        <ele>1062.9</ele>
        <time>2022-07-03T11:26:01Z</time>
      </trkpt>
      <trkpt lat="42.365479" lon="1.784933">
        <ele>1062.5</ele>
        <time>2022-07-03T11:26:03Z</time>
      </trkpt>
      <trkpt lat="42.365548" lon="1.785038">
        <ele>1061.7</ele>
        <time>2022-07-03T11:26:05Z</time>
      </trkpt>
      <trkpt lat="42.365586" lon="1.785092">
        <ele>1061.2</ele>
        <time>2022-07-03T11:26:06Z</time>
      </trkpt>
      <trkpt lat="42.365624" lon="1.785146">
        <ele>1061.1</ele>
        <time>2022-07-03T11:26:07Z</time>
      </trkpt>
      <trkpt lat="42.365661" lon="1.785202">
        <ele>1060.5</ele>
        <time>2022-07-03T11:26:08Z</time>
      </trkpt>
      <trkpt lat="42.365726" lon="1.785316">
        <ele>1060.0</ele>
        <time>2022-07-03T11:26:10Z</time>
      </trkpt>
      <trkpt lat="42.365755" lon="1.785379">
        <ele>1059.9</ele>
        <time>2022-07-03T11:26:11Z</time>
      </trkpt>
      <trkpt lat="42.365784" lon="1.785443">
        <ele>1059.9</ele>
        <time>2022-07-03T11:26:12Z</time>
      </trkpt>
      <trkpt lat="42.365835" lon="1.785568">
        <ele>1059.2</ele>
        <time>2022-07-03T11:26:14Z</time>
      </trkpt>
      <trkpt lat="42.365896" lon="1.785692">
        <ele>1057.5</ele>
        <time>2022-07-03T11:26:16Z</time>
      </trkpt>
      <trkpt lat="42.365933" lon="1.785752">
        <ele>1056.1</ele>
        <time>2022-07-03T11:26:17Z</time>
      </trkpt>
      <trkpt lat="42.365968" lon="1.785820">
        <ele>1055.9</ele>
        <time>2022-07-03T11:26:18Z</time>
      </trkpt>
      <trkpt lat="42.366003" lon="1.785891">
        <ele>1055.1</ele>
        <time>2022-07-03T11:26:19Z</time>
      </trkpt>
      <trkpt lat="42.366039" lon="1.785964">
        <ele>1055.4</ele>
        <time>2022-07-03T11:26:20Z</time>
      </trkpt>
      <trkpt lat="42.366069" lon="1.786039">
        <ele>1055.4</ele>
        <time>2022-07-03T11:26:21Z</time>
      </trkpt>
      <trkpt lat="42.366099" lon="1.786110">
        <ele>1055.2</ele>
        <time>2022-07-03T11:26:22Z</time>
      </trkpt>
      <trkpt lat="42.366146" lon="1.786161">
        <ele>1054.2</ele>
        <time>2022-07-03T11:26:23Z</time>
      </trkpt>
      <trkpt lat="42.366198" lon="1.786187">
        <ele>1054.0</ele>
        <time>2022-07-03T11:26:24Z</time>
      </trkpt>
      <trkpt lat="42.366307" lon="1.786207">
        <ele>1052.8</ele>
        <time>2022-07-03T11:26:26Z</time>
      </trkpt>
      <trkpt lat="42.366361" lon="1.786225">
        <ele>1052.9</ele>
        <time>2022-07-03T11:26:27Z</time>
      </trkpt>
      <trkpt lat="42.366432" lon="1.786316">
        <ele>1052.5</ele>
        <time>2022-07-03T11:26:29Z</time>
      </trkpt>
      <trkpt lat="42.366459" lon="1.786381">
        <ele>1052.9</ele>
        <time>2022-07-03T11:26:30Z</time>
      </trkpt>
      <trkpt lat="42.366491" lon="1.786443">
        <ele>1052.7</ele>
        <time>2022-07-03T11:26:31Z</time>
      </trkpt>
      <trkpt lat="42.366533" lon="1.786494">
        <ele>1052.4</ele>
        <time>2022-07-03T11:26:32Z</time>
      </trkpt>
      <trkpt lat="42.366623" lon="1.786552">
        <ele>1052.1</ele>
        <time>2022-07-03T11:26:34Z</time>
      </trkpt>
      <trkpt lat="42.366696" lon="1.786587">
        <ele>1051.7</ele>
        <time>2022-07-03T11:26:36Z</time>
      </trkpt>
      <trkpt lat="42.366791" lon="1.786622">
        <ele>1051.6</ele>
        <time>2022-07-03T11:26:38Z</time>
      </trkpt>
      <trkpt lat="42.366893" lon="1.786645">
        <ele>1051.7</ele>
        <time>2022-07-03T11:26:40Z</time>
      </trkpt>
      <trkpt lat="42.366986" lon="1.786645">
        <ele>1051.7</ele>
        <time>2022-07-03T11:26:42Z</time>
      </trkpt>
      <trkpt lat="42.367043" lon="1.786672">
        <ele>1051.4</ele>
        <time>2022-07-03T11:26:45Z</time>
      </trkpt>
      <trkpt lat="42.367033" lon="1.786791">
        <ele>1051.2</ele>
        <time>2022-07-03T11:26:48Z</time>
      </trkpt>
      <trkpt lat="42.367022" lon="1.786913">
        <ele>1051.0</ele>
        <time>2022-07-03T11:26:50Z</time>
      </trkpt>
      <trkpt lat="42.367017" lon="1.787066">
        <ele>1050.5</ele>
        <time>2022-07-03T11:26:52Z</time>
      </trkpt>
      <trkpt lat="42.367018" lon="1.787154">
        <ele>1050.2</ele>
        <time>2022-07-03T11:26:53Z</time>
      </trkpt>
      <trkpt lat="42.367017" lon="1.787244">
        <ele>1049.6</ele>
        <time>2022-07-03T11:26:54Z</time>
      </trkpt>
      <trkpt lat="42.367015" lon="1.787317">
        <ele>1049.6</ele>
        <time>2022-07-03T11:26:55Z</time>
      </trkpt>
      <trkpt lat="42.367004" lon="1.787440">
        <ele>1049.9</ele>
        <time>2022-07-03T11:26:57Z</time>
      </trkpt>
      <trkpt lat="42.367000" lon="1.787551">
        <ele>1049.9</ele>
        <time>2022-07-03T11:26:59Z</time>
      </trkpt>
      <trkpt lat="42.366990" lon="1.787646">
        <ele>1049.9</ele>
        <time>2022-07-03T11:27:01Z</time>
      </trkpt>
      <trkpt lat="42.366989" lon="1.787729">
        <ele>1050.1</ele>
        <time>2022-07-03T11:27:03Z</time>
      </trkpt>
      <trkpt lat="42.367003" lon="1.787813">
        <ele>1050.7</ele>
        <time>2022-07-03T11:27:05Z</time>
      </trkpt>
      <trkpt lat="42.367038" lon="1.787904">
        <ele>1050.8</ele>
        <time>2022-07-03T11:27:07Z</time>
      </trkpt>
      <trkpt lat="42.367065" lon="1.788006">
        <ele>1050.9</ele>
        <time>2022-07-03T11:27:09Z</time>
      </trkpt>
      <trkpt lat="42.367090" lon="1.788115">
        <ele>1051.1</ele>
        <time>2022-07-03T11:27:11Z</time>
      </trkpt>
      <trkpt lat="42.367118" lon="1.788231">
        <ele>1051.3</ele>
        <time>2022-07-03T11:27:13Z</time>
      </trkpt>
      <trkpt lat="42.367147" lon="1.788351">
        <ele>1051.4</ele>
        <time>2022-07-03T11:27:15Z</time>
      </trkpt>
      <trkpt lat="42.367187" lon="1.788470">
        <ele>1051.6</ele>
        <time>2022-07-03T11:27:17Z</time>
      </trkpt>
      <trkpt lat="42.367244" lon="1.788568">
        <ele>1051.7</ele>
        <time>2022-07-03T11:27:19Z</time>
      </trkpt>
      <trkpt lat="42.367302" lon="1.788654">
        <ele>1051.7</ele>
        <time>2022-07-03T11:27:21Z</time>
      </trkpt>
      <trkpt lat="42.367358" lon="1.788731">
        <ele>1051.8</ele>
        <time>2022-07-03T11:27:23Z</time>
      </trkpt>
      <trkpt lat="42.367411" lon="1.788814">
        <ele>1052.0</ele>
        <time>2022-07-03T11:27:25Z</time>
      </trkpt>
      <trkpt lat="42.367464" lon="1.788911">
        <ele>1052.7</ele>
        <time>2022-07-03T11:27:27Z</time>
      </trkpt>
      <trkpt lat="42.367515" lon="1.789024">
        <ele>1052.8</ele>
        <time>2022-07-03T11:27:29Z</time>
      </trkpt>
      <trkpt lat="42.367570" lon="1.789137">
        <ele>1052.8</ele>
        <time>2022-07-03T11:27:31Z</time>
      </trkpt>
      <trkpt lat="42.367620" lon="1.789249">
        <ele>1052.9</ele>
        <time>2022-07-03T11:27:33Z</time>
      </trkpt>
      <trkpt lat="42.367658" lon="1.789366">
        <ele>1052.7</ele>
        <time>2022-07-03T11:27:35Z</time>
      </trkpt>
      <trkpt lat="42.367685" lon="1.789487">
        <ele>1052.7</ele>
        <time>2022-07-03T11:27:37Z</time>
      </trkpt>
      <trkpt lat="42.367708" lon="1.789615">
        <ele>1052.7</ele>
        <time>2022-07-03T11:27:39Z</time>
      </trkpt>
      <trkpt lat="42.367757" lon="1.789738">
        <ele>1052.3</ele>
        <time>2022-07-03T11:27:41Z</time>
      </trkpt>
      <trkpt lat="42.367792" lon="1.789798">
        <ele>1052.2</ele>
        <time>2022-07-03T11:27:42Z</time>
      </trkpt>
      <trkpt lat="42.367836" lon="1.789857">
        <ele>1052.2</ele>
        <time>2022-07-03T11:27:43Z</time>
      </trkpt>
      <trkpt lat="42.367885" lon="1.789906">
        <ele>1052.1</ele>
        <time>2022-07-03T11:27:44Z</time>
      </trkpt>
      <trkpt lat="42.367938" lon="1.789939">
        <ele>1051.8</ele>
        <time>2022-07-03T11:27:45Z</time>
      </trkpt>
      <trkpt lat="42.367993" lon="1.789966">
        <ele>1051.6</ele>
        <time>2022-07-03T11:27:46Z</time>
      </trkpt>
      <trkpt lat="42.368047" lon="1.789998">
        <ele>1051.4</ele>
        <time>2022-07-03T11:27:47Z</time>
      </trkpt>
      <trkpt lat="42.368099" lon="1.790041">
        <ele>1051.2</ele>
        <time>2022-07-03T11:27:48Z</time>
      </trkpt>
      <trkpt lat="42.368139" lon="1.790098">
        <ele>1051.1</ele>
        <time>2022-07-03T11:27:49Z</time>
      </trkpt>
      <trkpt lat="42.368172" lon="1.790163">
        <ele>1051.0</ele>
        <time>2022-07-03T11:27:50Z</time>
      </trkpt>
      <trkpt lat="42.368196" lon="1.790231">
        <ele>1050.8</ele>
        <time>2022-07-03T11:27:51Z</time>
      </trkpt>
      <trkpt lat="42.368215" lon="1.790304">
        <ele>1050.7</ele>
        <time>2022-07-03T11:27:52Z</time>
      </trkpt>
      <trkpt lat="42.368226" lon="1.790383">
        <ele>1050.5</ele>
        <time>2022-07-03T11:27:53Z</time>
      </trkpt>
      <trkpt lat="42.368227" lon="1.790468">
        <ele>1050.6</ele>
        <time>2022-07-03T11:27:54Z</time>
      </trkpt>
      <trkpt lat="42.368219" lon="1.790554">
        <ele>1050.5</ele>
        <time>2022-07-03T11:27:55Z</time>
      </trkpt>
      <trkpt lat="42.368209" lon="1.790643">
        <ele>1050.4</ele>
        <time>2022-07-03T11:27:56Z</time>
      </trkpt>
      <trkpt lat="42.368199" lon="1.790734">
        <ele>1050.3</ele>
        <time>2022-07-03T11:27:57Z</time>
      </trkpt>
      <trkpt lat="42.368195" lon="1.790826">
        <ele>1050.2</ele>
        <time>2022-07-03T11:27:58Z</time>
      </trkpt>
      <trkpt lat="42.368196" lon="1.790919">
        <ele>1050.1</ele>
        <time>2022-07-03T11:27:59Z</time>
      </trkpt>
      <trkpt lat="42.368204" lon="1.791010">
        <ele>1050.1</ele>
        <time>2022-07-03T11:28:00Z</time>
      </trkpt>
      <trkpt lat="42.368214" lon="1.791101">
        <ele>1049.9</ele>
        <time>2022-07-03T11:28:01Z</time>
      </trkpt>
      <trkpt lat="42.368216" lon="1.791194">
        <ele>1049.9</ele>
        <time>2022-07-03T11:28:02Z</time>
      </trkpt>
      <trkpt lat="42.368208" lon="1.791293">
        <ele>1049.7</ele>
        <time>2022-07-03T11:28:03Z</time>
      </trkpt>
      <trkpt lat="42.368192" lon="1.791392">
        <ele>1049.0</ele>
        <time>2022-07-03T11:28:04Z</time>
      </trkpt>
      <trkpt lat="42.368176" lon="1.791492">
        <ele>1048.9</ele>
        <time>2022-07-03T11:28:05Z</time>
      </trkpt>
      <trkpt lat="42.368161" lon="1.791589">
        <ele>1048.6</ele>
        <time>2022-07-03T11:28:06Z</time>
      </trkpt>
      <trkpt lat="42.368148" lon="1.791683">
        <ele>1048.0</ele>
        <time>2022-07-03T11:28:07Z</time>
      </trkpt>
      <trkpt lat="42.368134" lon="1.791777">
        <ele>1047.9</ele>
        <time>2022-07-03T11:28:08Z</time>
      </trkpt>
      <trkpt lat="42.368123" lon="1.791872">
        <ele>1048.0</ele>
        <time>2022-07-03T11:28:09Z</time>
      </trkpt>
      <trkpt lat="42.368111" lon="1.791964">
        <ele>1048.1</ele>
        <time>2022-07-03T11:28:10Z</time>
      </trkpt>
      <trkpt lat="42.368097" lon="1.792056">
        <ele>1048.1</ele>
        <time>2022-07-03T11:28:11Z</time>
      </trkpt>
      <trkpt lat="42.368084" lon="1.792152">
        <ele>1047.8</ele>
        <time>2022-07-03T11:28:12Z</time>
      </trkpt>
      <trkpt lat="42.368069" lon="1.792249">
        <ele>1047.7</ele>
        <time>2022-07-03T11:28:13Z</time>
      </trkpt>
      <trkpt lat="42.368054" lon="1.792346">
        <ele>1047.4</ele>
        <time>2022-07-03T11:28:14Z</time>
      </trkpt>
      <trkpt lat="42.368040" lon="1.792442">
        <ele>1047.1</ele>
        <time>2022-07-03T11:28:15Z</time>
      </trkpt>
      <trkpt lat="42.368026" lon="1.792537">
        <ele>1046.8</ele>
        <time>2022-07-03T11:28:16Z</time>
      </trkpt>
      <trkpt lat="42.368012" lon="1.792633">
        <ele>1046.5</ele>
        <time>2022-07-03T11:28:17Z</time>
      </trkpt>
      <trkpt lat="42.367998" lon="1.792727">
        <ele>1046.3</ele>
        <time>2022-07-03T11:28:18Z</time>
      </trkpt>
      <trkpt lat="42.367984" lon="1.792818">
        <ele>1046.3</ele>
        <time>2022-07-03T11:28:19Z</time>
      </trkpt>
      <trkpt lat="42.367971" lon="1.792906">
        <ele>1046.2</ele>
        <time>2022-07-03T11:28:20Z</time>
      </trkpt>
      <trkpt lat="42.367958" lon="1.792992">
        <ele>1046.5</ele>
        <time>2022-07-03T11:28:21Z</time>
      </trkpt>
      <trkpt lat="42.367944" lon="1.793071">
        <ele>1046.5</ele>
        <time>2022-07-03T11:28:22Z</time>
      </trkpt>
      <trkpt lat="42.367928" lon="1.793142">
        <ele>1046.3</ele>
        <time>2022-07-03T11:28:23Z</time>
      </trkpt>
      <trkpt lat="42.367912" lon="1.793214">
        <ele>1046.6</ele>
        <time>2022-07-03T11:28:25Z</time>
      </trkpt>
      <trkpt lat="42.367885" lon="1.793280">
        <ele>1047.1</ele>
        <time>2022-07-03T11:28:31Z</time>
      </trkpt>
      <trkpt lat="42.367874" lon="1.793377">
        <ele>1047.0</ele>
        <time>2022-07-03T11:28:34Z</time>
      </trkpt>
      <trkpt lat="42.367900" lon="1.793466">
        <ele>1047.0</ele>
        <time>2022-07-03T11:28:37Z</time>
      </trkpt>
      <trkpt lat="42.367936" lon="1.793527">
        <ele>1046.8</ele>
        <time>2022-07-03T11:28:40Z</time>
      </trkpt>
      <trkpt lat="42.367993" lon="1.793534">
        <ele>1046.3</ele>
        <time>2022-07-03T11:28:43Z</time>
      </trkpt>
      <trkpt lat="42.368047" lon="1.793533">
        <ele>1044.9</ele>
        <time>2022-07-03T11:28:50Z</time>
      </trkpt>
      <trkpt lat="42.368095" lon="1.793571">
        <ele>1044.3</ele>
        <time>2022-07-03T11:28:58Z</time>
      </trkpt>
      <trkpt lat="42.368130" lon="1.793632">
        <ele>1044.9</ele>
        <time>2022-07-03T11:29:03Z</time>
      </trkpt>
      <trkpt lat="42.368172" lon="1.793687">
        <ele>1045.3</ele>
        <time>2022-07-03T11:29:07Z</time>
      </trkpt>
      <trkpt lat="42.368225" lon="1.793751">
        <ele>1045.9</ele>
        <time>2022-07-03T11:29:12Z</time>
      </trkpt>
      <trkpt lat="42.368273" lon="1.793827">
        <ele>1046.0</ele>
        <time>2022-07-03T11:29:15Z</time>
      </trkpt>
      <trkpt lat="42.368324" lon="1.793894">
        <ele>1046.0</ele>
        <time>2022-07-03T11:29:17Z</time>
      </trkpt>
      <trkpt lat="42.368393" lon="1.793977">
        <ele>1046.1</ele>
        <time>2022-07-03T11:29:19Z</time>
      </trkpt>
      <trkpt lat="42.368433" lon="1.794079">
        <ele>1046.1</ele>
        <time>2022-07-03T11:29:21Z</time>
      </trkpt>
      <trkpt lat="42.368474" lon="1.794184">
        <ele>1046.3</ele>
        <time>2022-07-03T11:29:23Z</time>
      </trkpt>
      <trkpt lat="42.368523" lon="1.794293">
        <ele>1046.2</ele>
        <time>2022-07-03T11:29:25Z</time>
      </trkpt>
      <trkpt lat="42.368562" lon="1.794381">
        <ele>1044.8</ele>
        <time>2022-07-03T11:29:27Z</time>
      </trkpt>
      <trkpt lat="42.368612" lon="1.794476">
        <ele>1045.9</ele>
        <time>2022-07-03T11:29:29Z</time>
      </trkpt>
      <trkpt lat="42.368653" lon="1.794583">
        <ele>1045.6</ele>
        <time>2022-07-03T11:29:31Z</time>
      </trkpt>
      <trkpt lat="42.368699" lon="1.794706">
        <ele>1045.7</ele>
        <time>2022-07-03T11:29:33Z</time>
      </trkpt>
      <trkpt lat="42.368718" lon="1.794775">
        <ele>1045.6</ele>
        <time>2022-07-03T11:29:34Z</time>
      </trkpt>
      <trkpt lat="42.368743" lon="1.794900">
        <ele>1045.3</ele>
        <time>2022-07-03T11:29:36Z</time>
      </trkpt>
      <trkpt lat="42.368770" lon="1.795027">
        <ele>1045.1</ele>
        <time>2022-07-03T11:29:38Z</time>
      </trkpt>
      <trkpt lat="42.368769" lon="1.795138">
        <ele>1045.3</ele>
        <time>2022-07-03T11:29:40Z</time>
      </trkpt>
      <trkpt lat="42.368756" lon="1.795215">
        <ele>1044.5</ele>
        <time>2022-07-03T11:29:42Z</time>
      </trkpt>
      <trkpt lat="42.368743" lon="1.795304">
        <ele>1044.5</ele>
        <time>2022-07-03T11:29:44Z</time>
      </trkpt>
      <trkpt lat="42.368736" lon="1.795440">
        <ele>1044.1</ele>
        <time>2022-07-03T11:29:46Z</time>
      </trkpt>
      <trkpt lat="42.368732" lon="1.795519">
        <ele>1043.1</ele>
        <time>2022-07-03T11:29:47Z</time>
      </trkpt>
      <trkpt lat="42.368727" lon="1.795601">
        <ele>1043.1</ele>
        <time>2022-07-03T11:29:48Z</time>
      </trkpt>
      <trkpt lat="42.368723" lon="1.795677">
        <ele>1043.0</ele>
        <time>2022-07-03T11:29:49Z</time>
      </trkpt>
      <trkpt lat="42.368712" lon="1.795765">
        <ele>1042.9</ele>
        <time>2022-07-03T11:29:50Z</time>
      </trkpt>
      <trkpt lat="42.368702" lon="1.795841">
        <ele>1042.9</ele>
        <time>2022-07-03T11:29:51Z</time>
      </trkpt>
      <trkpt lat="42.368687" lon="1.795915">
        <ele>1042.8</ele>
        <time>2022-07-03T11:29:52Z</time>
      </trkpt>
      <trkpt lat="42.368675" lon="1.795998">
        <ele>1042.8</ele>
        <time>2022-07-03T11:29:53Z</time>
      </trkpt>
      <trkpt lat="42.368659" lon="1.796079">
        <ele>1042.7</ele>
        <time>2022-07-03T11:29:54Z</time>
      </trkpt>
      <trkpt lat="42.368643" lon="1.796156">
        <ele>1042.7</ele>
        <time>2022-07-03T11:29:55Z</time>
      </trkpt>
      <trkpt lat="42.368633" lon="1.796239">
        <ele>1042.7</ele>
        <time>2022-07-03T11:29:56Z</time>
      </trkpt>
      <trkpt lat="42.368622" lon="1.796317">
        <ele>1042.4</ele>
        <time>2022-07-03T11:29:57Z</time>
      </trkpt>
      <trkpt lat="42.368609" lon="1.796407">
        <ele>1042.5</ele>
        <time>2022-07-03T11:29:58Z</time>
      </trkpt>
      <trkpt lat="42.368598" lon="1.796504">
        <ele>1042.8</ele>
        <time>2022-07-03T11:29:59Z</time>
      </trkpt>
      <trkpt lat="42.368585" lon="1.796587">
        <ele>1042.8</ele>
        <time>2022-07-03T11:30:00Z</time>
      </trkpt>
      <trkpt lat="42.368572" lon="1.796671">
        <ele>1042.8</ele>
        <time>2022-07-03T11:30:01Z</time>
      </trkpt>
      <trkpt lat="42.368564" lon="1.796753">
        <ele>1042.8</ele>
        <time>2022-07-03T11:30:02Z</time>
      </trkpt>
      <trkpt lat="42.368555" lon="1.796841">
        <ele>1042.8</ele>
        <time>2022-07-03T11:30:03Z</time>
      </trkpt>
      <trkpt lat="42.368557" lon="1.796918">
        <ele>1042.7</ele>
        <time>2022-07-03T11:30:04Z</time>
      </trkpt>
      <trkpt lat="42.368552" lon="1.797047">
        <ele>1042.8</ele>
        <time>2022-07-03T11:30:06Z</time>
      </trkpt>
      <trkpt lat="42.368538" lon="1.797192">
        <ele>1043.4</ele>
        <time>2022-07-03T11:30:08Z</time>
      </trkpt>
      <trkpt lat="42.368526" lon="1.797271">
        <ele>1043.5</ele>
        <time>2022-07-03T11:30:09Z</time>
      </trkpt>
      <trkpt lat="42.368518" lon="1.797354">
        <ele>1043.4</ele>
        <time>2022-07-03T11:30:10Z</time>
      </trkpt>
      <trkpt lat="42.368520" lon="1.797436">
        <ele>1043.0</ele>
        <time>2022-07-03T11:30:11Z</time>
      </trkpt>
      <trkpt lat="42.368519" lon="1.797568">
        <ele>1042.9</ele>
        <time>2022-07-03T11:30:13Z</time>
      </trkpt>
      <trkpt lat="42.368525" lon="1.797701">
        <ele>1043.0</ele>
        <time>2022-07-03T11:30:15Z</time>
      </trkpt>
      <trkpt lat="42.368515" lon="1.797825">
        <ele>1043.1</ele>
        <time>2022-07-03T11:30:17Z</time>
      </trkpt>
      <trkpt lat="42.368518" lon="1.797906">
        <ele>1043.3</ele>
        <time>2022-07-03T11:30:19Z</time>
      </trkpt>
      <trkpt lat="42.368531" lon="1.797984">
        <ele>1043.5</ele>
        <time>2022-07-03T11:30:21Z</time>
      </trkpt>
      <trkpt lat="42.368526" lon="1.798077">
        <ele>1043.4</ele>
        <time>2022-07-03T11:30:23Z</time>
      </trkpt>
      <trkpt lat="42.368504" lon="1.798154">
        <ele>1043.6</ele>
        <time>2022-07-03T11:30:24Z</time>
      </trkpt>
      <trkpt lat="42.368479" lon="1.798234">
        <ele>1043.5</ele>
        <time>2022-07-03T11:30:26Z</time>
      </trkpt>
      <trkpt lat="42.368451" lon="1.798319">
        <ele>1043.4</ele>
        <time>2022-07-03T11:30:28Z</time>
      </trkpt>
      <trkpt lat="42.368430" lon="1.798426">
        <ele>1043.6</ele>
        <time>2022-07-03T11:30:30Z</time>
      </trkpt>
      <trkpt lat="42.368420" lon="1.798527">
        <ele>1043.4</ele>
        <time>2022-07-03T11:30:32Z</time>
      </trkpt>
      <trkpt lat="42.368415" lon="1.798649">
        <ele>1043.7</ele>
        <time>2022-07-03T11:30:34Z</time>
      </trkpt>
      <trkpt lat="42.368412" lon="1.798756">
        <ele>1044.0</ele>
        <time>2022-07-03T11:30:36Z</time>
      </trkpt>
      <trkpt lat="42.368397" lon="1.798904">
        <ele>1044.1</ele>
        <time>2022-07-03T11:30:38Z</time>
      </trkpt>
      <trkpt lat="42.368383" lon="1.798979">
        <ele>1044.0</ele>
        <time>2022-07-03T11:30:39Z</time>
      </trkpt>
      <trkpt lat="42.368372" lon="1.799052">
        <ele>1044.1</ele>
        <time>2022-07-03T11:30:40Z</time>
      </trkpt>
      <trkpt lat="42.368346" lon="1.799188">
        <ele>1044.2</ele>
        <time>2022-07-03T11:30:42Z</time>
      </trkpt>
      <trkpt lat="42.368320" lon="1.799321">
        <ele>1043.8</ele>
        <time>2022-07-03T11:30:44Z</time>
      </trkpt>
      <trkpt lat="42.368300" lon="1.799452">
        <ele>1043.9</ele>
        <time>2022-07-03T11:30:46Z</time>
      </trkpt>
      <trkpt lat="42.368284" lon="1.799592">
        <ele>1044.4</ele>
        <time>2022-07-03T11:30:48Z</time>
      </trkpt>
      <trkpt lat="42.368252" lon="1.799708">
        <ele>1044.7</ele>
        <time>2022-07-03T11:30:50Z</time>
      </trkpt>
      <trkpt lat="42.368208" lon="1.799755">
        <ele>1044.3</ele>
        <time>2022-07-03T11:30:52Z</time>
      </trkpt>
      <trkpt lat="42.368173" lon="1.799821">
        <ele>1043.7</ele>
        <time>2022-07-03T11:30:58Z</time>
      </trkpt>
      <trkpt lat="42.368142" lon="1.799903">
        <ele>1043.4</ele>
        <time>2022-07-03T11:31:04Z</time>
      </trkpt>
      <trkpt lat="42.368138" lon="1.799979">
        <ele>1043.5</ele>
        <time>2022-07-03T11:31:09Z</time>
      </trkpt>
      <trkpt lat="42.368086" lon="1.800006">
        <ele>1043.6</ele>
        <time>2022-07-03T11:31:13Z</time>
      </trkpt>
      <trkpt lat="42.368031" lon="1.800026">
        <ele>1043.7</ele>
        <time>2022-07-03T11:31:19Z</time>
      </trkpt>
      <trkpt lat="42.367986" lon="1.800077">
        <ele>1044.0</ele>
        <time>2022-07-03T11:31:23Z</time>
      </trkpt>
      <trkpt lat="42.368031" lon="1.800177">
        <ele>1044.4</ele>
        <time>2022-07-03T11:31:26Z</time>
      </trkpt>
      <trkpt lat="42.368069" lon="1.800256">
        <ele>1042.7</ele>
        <time>2022-07-03T11:31:28Z</time>
      </trkpt>
      <trkpt lat="42.368101" lon="1.800330">
        <ele>1043.3</ele>
        <time>2022-07-03T11:31:30Z</time>
      </trkpt>
      <trkpt lat="42.368120" lon="1.800412">
        <ele>1043.7</ele>
        <time>2022-07-03T11:31:32Z</time>
      </trkpt>
      <trkpt lat="42.368138" lon="1.800507">
        <ele>1044.0</ele>
        <time>2022-07-03T11:31:34Z</time>
      </trkpt>
      <trkpt lat="42.368148" lon="1.800601">
        <ele>1044.6</ele>
        <time>2022-07-03T11:31:36Z</time>
      </trkpt>
      <trkpt lat="42.368120" lon="1.800682">
        <ele>1044.5</ele>
        <time>2022-07-03T11:31:38Z</time>
      </trkpt>
      <trkpt lat="42.368103" lon="1.800756">
        <ele>1044.9</ele>
        <time>2022-07-03T11:31:40Z</time>
      </trkpt>
      <trkpt lat="42.368089" lon="1.800832">
        <ele>1045.7</ele>
        <time>2022-07-03T11:31:43Z</time>
      </trkpt>
      <trkpt lat="42.368036" lon="1.800872">
        <ele>1046.3</ele>
        <time>2022-07-03T11:31:46Z</time>
      </trkpt>
      <trkpt lat="42.368011" lon="1.800941">
        <ele>1047.2</ele>
        <time>2022-07-03T11:31:49Z</time>
      </trkpt>
      <trkpt lat="42.368006" lon="1.801025">
        <ele>1047.6</ele>
        <time>2022-07-03T11:31:52Z</time>
      </trkpt>
      <trkpt lat="42.368007" lon="1.801099">
        <ele>1048.5</ele>
        <time>2022-07-03T11:31:55Z</time>
      </trkpt>
      <trkpt lat="42.368008" lon="1.801175">
        <ele>1049.5</ele>
        <time>2022-07-03T11:31:58Z</time>
      </trkpt>
      <trkpt lat="42.367998" lon="1.801252">
        <ele>1049.6</ele>
        <time>2022-07-03T11:32:01Z</time>
      </trkpt>
      <trkpt lat="42.367985" lon="1.801343">
        <ele>1050.2</ele>
        <time>2022-07-03T11:32:05Z</time>
      </trkpt>
      <trkpt lat="42.367969" lon="1.801434">
        <ele>1051.0</ele>
        <time>2022-07-03T11:32:09Z</time>
      </trkpt>
      <trkpt lat="42.367971" lon="1.801510">
        <ele>1051.9</ele>
        <time>2022-07-03T11:32:12Z</time>
      </trkpt>
      <trkpt lat="42.367976" lon="1.801586">
        <ele>1052.7</ele>
        <time>2022-07-03T11:32:15Z</time>
      </trkpt>
      <trkpt lat="42.367982" lon="1.801666">
        <ele>1053.8</ele>
        <time>2022-07-03T11:32:19Z</time>
      </trkpt>
      <trkpt lat="42.367977" lon="1.801741">
        <ele>1054.6</ele>
        <time>2022-07-03T11:32:23Z</time>
      </trkpt>
      <trkpt lat="42.367961" lon="1.801812">
        <ele>1055.0</ele>
        <time>2022-07-03T11:32:26Z</time>
      </trkpt>
      <trkpt lat="42.367952" lon="1.801911">
        <ele>1055.6</ele>
        <time>2022-07-03T11:32:30Z</time>
      </trkpt>
      <trkpt lat="42.367991" lon="1.801970">
        <ele>1055.0</ele>
        <time>2022-07-03T11:32:32Z</time>
      </trkpt>
      <trkpt lat="42.368044" lon="1.802044">
        <ele>1055.2</ele>
        <time>2022-07-03T11:32:34Z</time>
      </trkpt>
      <trkpt lat="42.368081" lon="1.802128">
        <ele>1055.3</ele>
        <time>2022-07-03T11:32:36Z</time>
      </trkpt>
      <trkpt lat="42.368091" lon="1.802215">
        <ele>1055.2</ele>
        <time>2022-07-03T11:32:38Z</time>
      </trkpt>
      <trkpt lat="42.368098" lon="1.802310">
        <ele>1055.6</ele>
        <time>2022-07-03T11:32:40Z</time>
      </trkpt>
      <trkpt lat="42.368110" lon="1.802390">
        <ele>1055.6</ele>
        <time>2022-07-03T11:32:42Z</time>
      </trkpt>
      <trkpt lat="42.368096" lon="1.802464">
        <ele>1055.5</ele>
        <time>2022-07-03T11:32:45Z</time>
      </trkpt>
      <trkpt lat="42.368092" lon="1.802576">
        <ele>1055.0</ele>
        <time>2022-07-03T11:32:49Z</time>
      </trkpt>
      <trkpt lat="42.368098" lon="1.802693">
        <ele>1055.4</ele>
        <time>2022-07-03T11:32:52Z</time>
      </trkpt>
      <trkpt lat="42.368112" lon="1.802776">
        <ele>1055.3</ele>
        <time>2022-07-03T11:32:54Z</time>
      </trkpt>
      <trkpt lat="42.368126" lon="1.802859">
        <ele>1055.0</ele>
        <time>2022-07-03T11:32:56Z</time>
      </trkpt>
      <trkpt lat="42.368140" lon="1.802935">
        <ele>1054.9</ele>
        <time>2022-07-03T11:32:58Z</time>
      </trkpt>
      <trkpt lat="42.368146" lon="1.803008">
        <ele>1054.9</ele>
        <time>2022-07-03T11:33:00Z</time>
      </trkpt>
      <trkpt lat="42.368162" lon="1.803109">
        <ele>1055.5</ele>
        <time>2022-07-03T11:33:03Z</time>
      </trkpt>
      <trkpt lat="42.368181" lon="1.803210">
        <ele>1055.0</ele>
        <time>2022-07-03T11:33:06Z</time>
      </trkpt>
      <trkpt lat="42.368194" lon="1.803286">
        <ele>1054.6</ele>
        <time>2022-07-03T11:33:08Z</time>
      </trkpt>
      <trkpt lat="42.368215" lon="1.803366">
        <ele>1055.0</ele>
        <time>2022-07-03T11:33:10Z</time>
      </trkpt>
      <trkpt lat="42.368245" lon="1.803445">
        <ele>1055.0</ele>
        <time>2022-07-03T11:33:12Z</time>
      </trkpt>
      <trkpt lat="42.368271" lon="1.803515">
        <ele>1055.2</ele>
        <time>2022-07-03T11:33:14Z</time>
      </trkpt>
      <trkpt lat="42.368294" lon="1.803594">
        <ele>1055.0</ele>
        <time>2022-07-03T11:33:16Z</time>
      </trkpt>
      <trkpt lat="42.368329" lon="1.803682">
        <ele>1055.0</ele>
        <time>2022-07-03T11:33:18Z</time>
      </trkpt>
      <trkpt lat="42.368384" lon="1.803816">
        <ele>1055.2</ele>
        <time>2022-07-03T11:33:21Z</time>
      </trkpt>
      <trkpt lat="42.368411" lon="1.803893">
        <ele>1055.2</ele>
        <time>2022-07-03T11:33:23Z</time>
      </trkpt>
      <trkpt lat="42.368439" lon="1.803959">
        <ele>1055.3</ele>
        <time>2022-07-03T11:33:25Z</time>
      </trkpt>
      <trkpt lat="42.368472" lon="1.804020">
        <ele>1055.4</ele>
        <time>2022-07-03T11:33:27Z</time>
      </trkpt>
      <trkpt lat="42.368509" lon="1.804079">
        <ele>1055.5</ele>
        <time>2022-07-03T11:33:29Z</time>
      </trkpt>
      <trkpt lat="42.368549" lon="1.804143">
        <ele>1055.3</ele>
        <time>2022-07-03T11:33:31Z</time>
      </trkpt>
      <trkpt lat="42.368579" lon="1.804204">
        <ele>1055.2</ele>
        <time>2022-07-03T11:33:33Z</time>
      </trkpt>
      <trkpt lat="42.368612" lon="1.804274">
        <ele>1055.1</ele>
        <time>2022-07-03T11:33:35Z</time>
      </trkpt>
      <trkpt lat="42.368652" lon="1.804348">
        <ele>1055.1</ele>
        <time>2022-07-03T11:33:37Z</time>
      </trkpt>
      <trkpt lat="42.368682" lon="1.804417">
        <ele>1055.3</ele>
        <time>2022-07-03T11:33:39Z</time>
      </trkpt>
      <trkpt lat="42.368713" lon="1.804489">
        <ele>1055.3</ele>
        <time>2022-07-03T11:33:41Z</time>
      </trkpt>
      <trkpt lat="42.368740" lon="1.804568">
        <ele>1055.3</ele>
        <time>2022-07-03T11:33:43Z</time>
      </trkpt>
      <trkpt lat="42.368790" lon="1.804648">
        <ele>1055.2</ele>
        <time>2022-07-03T11:33:45Z</time>
      </trkpt>
      <trkpt lat="42.368843" lon="1.804712">
        <ele>1055.0</ele>
        <time>2022-07-03T11:33:47Z</time>
      </trkpt>
      <trkpt lat="42.368886" lon="1.804776">
        <ele>1055.3</ele>
        <time>2022-07-03T11:33:49Z</time>
      </trkpt>
      <trkpt lat="42.368932" lon="1.804855">
        <ele>1055.6</ele>
        <time>2022-07-03T11:33:51Z</time>
      </trkpt>
      <trkpt lat="42.368984" lon="1.804930">
        <ele>1055.6</ele>
        <time>2022-07-03T11:33:53Z</time>
      </trkpt>
      <trkpt lat="42.369031" lon="1.805004">
        <ele>1055.6</ele>
        <time>2022-07-03T11:33:55Z</time>
      </trkpt>
      <trkpt lat="42.369085" lon="1.805082">
        <ele>1055.6</ele>
        <time>2022-07-03T11:33:57Z</time>
      </trkpt>
      <trkpt lat="42.369150" lon="1.805160">
        <ele>1055.8</ele>
        <time>2022-07-03T11:33:59Z</time>
      </trkpt>
      <trkpt lat="42.369209" lon="1.805242">
        <ele>1055.5</ele>
        <time>2022-07-03T11:34:01Z</time>
      </trkpt>
      <trkpt lat="42.369258" lon="1.805327">
        <ele>1055.6</ele>
        <time>2022-07-03T11:34:03Z</time>
      </trkpt>
      <trkpt lat="42.369323" lon="1.805398">
        <ele>1055.6</ele>
        <time>2022-07-03T11:34:05Z</time>
      </trkpt>
      <trkpt lat="42.369389" lon="1.805465">
        <ele>1055.5</ele>
        <time>2022-07-03T11:34:07Z</time>
      </trkpt>
      <trkpt lat="42.369444" lon="1.805541">
        <ele>1055.4</ele>
        <time>2022-07-03T11:34:09Z</time>
      </trkpt>
      <trkpt lat="42.369500" lon="1.805625">
        <ele>1055.5</ele>
        <time>2022-07-03T11:34:11Z</time>
      </trkpt>
      <trkpt lat="42.369549" lon="1.805711">
        <ele>1055.3</ele>
        <time>2022-07-03T11:34:13Z</time>
      </trkpt>
      <trkpt lat="42.369607" lon="1.805801">
        <ele>1055.4</ele>
        <time>2022-07-03T11:34:15Z</time>
      </trkpt>
      <trkpt lat="42.369675" lon="1.805883">
        <ele>1054.9</ele>
        <time>2022-07-03T11:34:17Z</time>
      </trkpt>
      <trkpt lat="42.369720" lon="1.805957">
        <ele>1055.1</ele>
        <time>2022-07-03T11:34:19Z</time>
      </trkpt>
      <trkpt lat="42.369770" lon="1.806040">
        <ele>1055.5</ele>
        <time>2022-07-03T11:34:21Z</time>
      </trkpt>
      <trkpt lat="42.369814" lon="1.806129">
        <ele>1055.6</ele>
        <time>2022-07-03T11:34:23Z</time>
      </trkpt>
      <trkpt lat="42.369847" lon="1.806211">
        <ele>1055.8</ele>
        <time>2022-07-03T11:34:25Z</time>
      </trkpt>
      <trkpt lat="42.369918" lon="1.806266">
        <ele>1055.5</ele>
        <time>2022-07-03T11:34:27Z</time>
      </trkpt>
      <trkpt lat="42.369956" lon="1.806349">
        <ele>1055.9</ele>
        <time>2022-07-03T11:34:29Z</time>
      </trkpt>
      <trkpt lat="42.369962" lon="1.806445">
        <ele>1056.1</ele>
        <time>2022-07-03T11:34:31Z</time>
      </trkpt>
      <trkpt lat="42.369958" lon="1.806541">
        <ele>1056.0</ele>
        <time>2022-07-03T11:34:33Z</time>
      </trkpt>
      <trkpt lat="42.369970" lon="1.806640">
        <ele>1056.2</ele>
        <time>2022-07-03T11:34:35Z</time>
      </trkpt>
      <trkpt lat="42.369970" lon="1.806749">
        <ele>1056.3</ele>
        <time>2022-07-03T11:34:37Z</time>
      </trkpt>
      <trkpt lat="42.369972" lon="1.806842">
        <ele>1056.2</ele>
        <time>2022-07-03T11:34:39Z</time>
      </trkpt>
      <trkpt lat="42.369991" lon="1.806916">
        <ele>1056.1</ele>
        <time>2022-07-03T11:34:41Z</time>
      </trkpt>
      <trkpt lat="42.369996" lon="1.807010">
        <ele>1056.1</ele>
        <time>2022-07-03T11:34:44Z</time>
      </trkpt>
      <trkpt lat="42.369969" lon="1.807115">
        <ele>1056.5</ele>
        <time>2022-07-03T11:34:46Z</time>
      </trkpt>
      <trkpt lat="42.369959" lon="1.807216">
        <ele>1056.3</ele>
        <time>2022-07-03T11:34:48Z</time>
      </trkpt>
      <trkpt lat="42.369942" lon="1.807287">
        <ele>1056.4</ele>
        <time>2022-07-03T11:34:49Z</time>
      </trkpt>
      <trkpt lat="42.369919" lon="1.807420">
        <ele>1056.5</ele>
        <time>2022-07-03T11:34:51Z</time>
      </trkpt>
      <trkpt lat="42.369905" lon="1.807494">
        <ele>1056.5</ele>
        <time>2022-07-03T11:34:52Z</time>
      </trkpt>
      <trkpt lat="42.369880" lon="1.807600">
        <ele>1056.5</ele>
        <time>2022-07-03T11:34:54Z</time>
      </trkpt>
      <trkpt lat="42.369872" lon="1.807680">
        <ele>1056.5</ele>
        <time>2022-07-03T11:34:56Z</time>
      </trkpt>
      <trkpt lat="42.369856" lon="1.807795">
        <ele>1056.5</ele>
        <time>2022-07-03T11:34:58Z</time>
      </trkpt>
      <trkpt lat="42.369852" lon="1.807898">
        <ele>1056.7</ele>
        <time>2022-07-03T11:35:00Z</time>
      </trkpt>
      <trkpt lat="42.369840" lon="1.808013">
        <ele>1056.6</ele>
        <time>2022-07-03T11:35:02Z</time>
      </trkpt>
      <trkpt lat="42.369828" lon="1.808124">
        <ele>1056.5</ele>
        <time>2022-07-03T11:35:04Z</time>
      </trkpt>
      <trkpt lat="42.369825" lon="1.808255">
        <ele>1056.5</ele>
        <time>2022-07-03T11:35:06Z</time>
      </trkpt>
      <trkpt lat="42.369803" lon="1.808349">
        <ele>1056.4</ele>
        <time>2022-07-03T11:35:08Z</time>
      </trkpt>
      <trkpt lat="42.369801" lon="1.808448">
        <ele>1056.4</ele>
        <time>2022-07-03T11:35:10Z</time>
      </trkpt>
      <trkpt lat="42.369800" lon="1.808541">
        <ele>1056.5</ele>
        <time>2022-07-03T11:35:12Z</time>
      </trkpt>
      <trkpt lat="42.369803" lon="1.808620">
        <ele>1056.7</ele>
        <time>2022-07-03T11:35:14Z</time>
      </trkpt>
      <trkpt lat="42.369799" lon="1.808706">
        <ele>1056.6</ele>
        <time>2022-07-03T11:35:16Z</time>
      </trkpt>
      <trkpt lat="42.369808" lon="1.808778">
        <ele>1056.8</ele>
        <time>2022-07-03T11:35:18Z</time>
      </trkpt>
      <trkpt lat="42.369814" lon="1.808868">
        <ele>1056.7</ele>
        <time>2022-07-03T11:35:20Z</time>
      </trkpt>
      <trkpt lat="42.369835" lon="1.808976">
        <ele>1056.6</ele>
        <time>2022-07-03T11:35:23Z</time>
      </trkpt>
      <trkpt lat="42.369835" lon="1.809078">
        <ele>1056.7</ele>
        <time>2022-07-03T11:35:25Z</time>
      </trkpt>
      <trkpt lat="42.369846" lon="1.809157">
        <ele>1056.8</ele>
        <time>2022-07-03T11:35:27Z</time>
      </trkpt>
      <trkpt lat="42.369851" lon="1.809230">
        <ele>1056.9</ele>
        <time>2022-07-03T11:35:29Z</time>
      </trkpt>
      <trkpt lat="42.369856" lon="1.809318">
        <ele>1057.1</ele>
        <time>2022-07-03T11:35:31Z</time>
      </trkpt>
      <trkpt lat="42.369862" lon="1.809410">
        <ele>1056.9</ele>
        <time>2022-07-03T11:35:33Z</time>
      </trkpt>
      <trkpt lat="42.369875" lon="1.809497">
        <ele>1057.0</ele>
        <time>2022-07-03T11:35:35Z</time>
      </trkpt>
      <trkpt lat="42.369905" lon="1.809594">
        <ele>1056.9</ele>
        <time>2022-07-03T11:35:38Z</time>
      </trkpt>
      <trkpt lat="42.369908" lon="1.809701">
        <ele>1056.9</ele>
        <time>2022-07-03T11:35:40Z</time>
      </trkpt>
      <trkpt lat="42.369898" lon="1.809774">
        <ele>1056.8</ele>
        <time>2022-07-03T11:35:41Z</time>
      </trkpt>
      <trkpt lat="42.369912" lon="1.809878">
        <ele>1056.4</ele>
        <time>2022-07-03T11:35:43Z</time>
      </trkpt>
      <trkpt lat="42.369910" lon="1.810001">
        <ele>1056.4</ele>
        <time>2022-07-03T11:35:45Z</time>
      </trkpt>
      <trkpt lat="42.369952" lon="1.810137">
        <ele>1056.6</ele>
        <time>2022-07-03T11:35:47Z</time>
      </trkpt>
      <trkpt lat="42.369961" lon="1.810245">
        <ele>1056.6</ele>
        <time>2022-07-03T11:35:49Z</time>
      </trkpt>
      <trkpt lat="42.369973" lon="1.810342">
        <ele>1056.5</ele>
        <time>2022-07-03T11:35:51Z</time>
      </trkpt>
      <trkpt lat="42.369971" lon="1.810442">
        <ele>1056.6</ele>
        <time>2022-07-03T11:35:53Z</time>
      </trkpt>
      <trkpt lat="42.369968" lon="1.810530">
        <ele>1056.5</ele>
        <time>2022-07-03T11:35:55Z</time>
      </trkpt>
      <trkpt lat="42.369982" lon="1.810623">
        <ele>1056.6</ele>
        <time>2022-07-03T11:35:57Z</time>
      </trkpt>
      <trkpt lat="42.370014" lon="1.810711">
        <ele>1056.8</ele>
        <time>2022-07-03T11:35:59Z</time>
      </trkpt>
      <trkpt lat="42.370025" lon="1.810801">
        <ele>1057.3</ele>
        <time>2022-07-03T11:36:01Z</time>
      </trkpt>
      <trkpt lat="42.370030" lon="1.810892">
        <ele>1057.4</ele>
        <time>2022-07-03T11:36:03Z</time>
      </trkpt>
      <trkpt lat="42.370049" lon="1.810977">
        <ele>1057.4</ele>
        <time>2022-07-03T11:36:05Z</time>
      </trkpt>
      <trkpt lat="42.370080" lon="1.811072">
        <ele>1057.2</ele>
        <time>2022-07-03T11:36:07Z</time>
      </trkpt>
      <trkpt lat="42.370102" lon="1.811167">
        <ele>1057.0</ele>
        <time>2022-07-03T11:36:09Z</time>
      </trkpt>
      <trkpt lat="42.370107" lon="1.811247">
        <ele>1056.9</ele>
        <time>2022-07-03T11:36:11Z</time>
      </trkpt>
      <trkpt lat="42.370129" lon="1.811349">
        <ele>1056.8</ele>
        <time>2022-07-03T11:36:13Z</time>
      </trkpt>
      <trkpt lat="42.370154" lon="1.811457">
        <ele>1056.9</ele>
        <time>2022-07-03T11:36:15Z</time>
      </trkpt>
      <trkpt lat="42.370180" lon="1.811565">
        <ele>1056.9</ele>
        <time>2022-07-03T11:36:17Z</time>
      </trkpt>
      <trkpt lat="42.370200" lon="1.811662">
        <ele>1056.8</ele>
        <time>2022-07-03T11:36:19Z</time>
      </trkpt>
      <trkpt lat="42.370230" lon="1.811736">
        <ele>1056.8</ele>
        <time>2022-07-03T11:36:21Z</time>
      </trkpt>
      <trkpt lat="42.370268" lon="1.811813">
        <ele>1056.4</ele>
        <time>2022-07-03T11:36:23Z</time>
      </trkpt>
      <trkpt lat="42.370323" lon="1.811878">
        <ele>1056.5</ele>
        <time>2022-07-03T11:36:25Z</time>
      </trkpt>
      <trkpt lat="42.370371" lon="1.811974">
        <ele>1056.7</ele>
        <time>2022-07-03T11:36:27Z</time>
      </trkpt>
      <trkpt lat="42.370417" lon="1.812069">
        <ele>1056.8</ele>
        <time>2022-07-03T11:36:29Z</time>
      </trkpt>
      <trkpt lat="42.370478" lon="1.812170">
        <ele>1056.9</ele>
        <time>2022-07-03T11:36:31Z</time>
      </trkpt>
      <trkpt lat="42.370524" lon="1.812263">
        <ele>1057.1</ele>
        <time>2022-07-03T11:36:33Z</time>
      </trkpt>
      <trkpt lat="42.370561" lon="1.812348">
        <ele>1057.1</ele>
        <time>2022-07-03T11:36:35Z</time>
      </trkpt>
      <trkpt lat="42.370624" lon="1.812432">
        <ele>1057.5</ele>
        <time>2022-07-03T11:36:37Z</time>
      </trkpt>
      <trkpt lat="42.370683" lon="1.812503">
        <ele>1057.5</ele>
        <time>2022-07-03T11:36:39Z</time>
      </trkpt>
      <trkpt lat="42.370754" lon="1.812583">
        <ele>1057.4</ele>
        <time>2022-07-03T11:36:41Z</time>
      </trkpt>
      <trkpt lat="42.370833" lon="1.812663">
        <ele>1057.5</ele>
        <time>2022-07-03T11:36:43Z</time>
      </trkpt>
      <trkpt lat="42.370890" lon="1.812743">
        <ele>1057.3</ele>
        <time>2022-07-03T11:36:45Z</time>
      </trkpt>
      <trkpt lat="42.370951" lon="1.812827">
        <ele>1057.2</ele>
        <time>2022-07-03T11:36:47Z</time>
      </trkpt>
      <trkpt lat="42.371006" lon="1.812901">
        <ele>1057.1</ele>
        <time>2022-07-03T11:36:49Z</time>
      </trkpt>
      <trkpt lat="42.371053" lon="1.812974">
        <ele>1056.8</ele>
        <time>2022-07-03T11:36:51Z</time>
      </trkpt>
      <trkpt lat="42.371122" lon="1.813047">
        <ele>1056.5</ele>
        <time>2022-07-03T11:36:53Z</time>
      </trkpt>
      <trkpt lat="42.371198" lon="1.813125">
        <ele>1056.6</ele>
        <time>2022-07-03T11:36:55Z</time>
      </trkpt>
      <trkpt lat="42.371271" lon="1.813211">
        <ele>1056.7</ele>
        <time>2022-07-03T11:36:57Z</time>
      </trkpt>
      <trkpt lat="42.371355" lon="1.813295">
        <ele>1056.6</ele>
        <time>2022-07-03T11:36:59Z</time>
      </trkpt>
      <trkpt lat="42.371429" lon="1.813380">
        <ele>1057.2</ele>
        <time>2022-07-03T11:37:01Z</time>
      </trkpt>
      <trkpt lat="42.371505" lon="1.813460">
        <ele>1056.9</ele>
        <time>2022-07-03T11:37:03Z</time>
      </trkpt>
      <trkpt lat="42.371576" lon="1.813535">
        <ele>1056.6</ele>
        <time>2022-07-03T11:37:05Z</time>
      </trkpt>
      <trkpt lat="42.371633" lon="1.813609">
        <ele>1056.8</ele>
        <time>2022-07-03T11:37:07Z</time>
      </trkpt>
      <trkpt lat="42.371681" lon="1.813687">
        <ele>1056.5</ele>
        <time>2022-07-03T11:37:09Z</time>
      </trkpt>
      <trkpt lat="42.371735" lon="1.813769">
        <ele>1056.2</ele>
        <time>2022-07-03T11:37:11Z</time>
      </trkpt>
      <trkpt lat="42.371799" lon="1.813848">
        <ele>1056.4</ele>
        <time>2022-07-03T11:37:13Z</time>
      </trkpt>
      <trkpt lat="42.371858" lon="1.813934">
        <ele>1056.3</ele>
        <time>2022-07-03T11:37:15Z</time>
      </trkpt>
      <trkpt lat="42.371923" lon="1.814020">
        <ele>1056.4</ele>
        <time>2022-07-03T11:37:17Z</time>
      </trkpt>
      <trkpt lat="42.371992" lon="1.814112">
        <ele>1056.6</ele>
        <time>2022-07-03T11:37:19Z</time>
      </trkpt>
      <trkpt lat="42.372071" lon="1.814203">
        <ele>1056.7</ele>
        <time>2022-07-03T11:37:21Z</time>
      </trkpt>
      <trkpt lat="42.372145" lon="1.814278">
        <ele>1056.4</ele>
        <time>2022-07-03T11:37:23Z</time>
      </trkpt>
      <trkpt lat="42.372215" lon="1.814321">
        <ele>1056.3</ele>
        <time>2022-07-03T11:37:25Z</time>
      </trkpt>
      <trkpt lat="42.372294" lon="1.814327">
        <ele>1055.7</ele>
        <time>2022-07-03T11:37:27Z</time>
      </trkpt>
      <trkpt lat="42.372355" lon="1.814284">
        <ele>1055.4</ele>
        <time>2022-07-03T11:37:30Z</time>
      </trkpt>
      <trkpt lat="42.372411" lon="1.814224">
        <ele>1055.6</ele>
        <time>2022-07-03T11:37:33Z</time>
      </trkpt>
      <trkpt lat="42.372456" lon="1.814161">
        <ele>1055.5</ele>
        <time>2022-07-03T11:37:36Z</time>
      </trkpt>
      <trkpt lat="42.372502" lon="1.814103">
        <ele>1055.6</ele>
        <time>2022-07-03T11:37:41Z</time>
      </trkpt>
      <trkpt lat="42.372550" lon="1.814027">
        <ele>1055.7</ele>
        <time>2022-07-03T11:37:44Z</time>
      </trkpt>
      <trkpt lat="42.372601" lon="1.813950">
        <ele>1055.9</ele>
        <time>2022-07-03T11:37:47Z</time>
      </trkpt>
      <trkpt lat="42.372647" lon="1.813910">
        <ele>1055.8</ele>
        <time>2022-07-03T11:37:53Z</time>
      </trkpt>
      <trkpt lat="42.372706" lon="1.813920">
        <ele>1055.1</ele>
        <time>2022-07-03T11:38:03Z</time>
      </trkpt>
      <trkpt lat="42.372772" lon="1.813940">
        <ele>1055.1</ele>
        <time>2022-07-03T11:38:07Z</time>
      </trkpt>
      <trkpt lat="42.372793" lon="1.814019">
        <ele>1055.5</ele>
        <time>2022-07-03T11:38:09Z</time>
      </trkpt>
      <trkpt lat="42.372838" lon="1.814107">
        <ele>1054.9</ele>
        <time>2022-07-03T11:38:11Z</time>
      </trkpt>
      <trkpt lat="42.372894" lon="1.814208">
        <ele>1054.5</ele>
        <time>2022-07-03T11:38:13Z</time>
      </trkpt>
      <trkpt lat="42.372960" lon="1.814319">
        <ele>1054.3</ele>
        <time>2022-07-03T11:38:15Z</time>
      </trkpt>
      <trkpt lat="42.372996" lon="1.814376">
        <ele>1054.0</ele>
        <time>2022-07-03T11:38:16Z</time>
      </trkpt>
      <trkpt lat="42.373034" lon="1.814433">
        <ele>1053.7</ele>
        <time>2022-07-03T11:38:17Z</time>
      </trkpt>
      <trkpt lat="42.373070" lon="1.814491">
        <ele>1053.2</ele>
        <time>2022-07-03T11:38:18Z</time>
      </trkpt>
      <trkpt lat="42.373100" lon="1.814557">
        <ele>1052.5</ele>
        <time>2022-07-03T11:38:19Z</time>
      </trkpt>
      <trkpt lat="42.373131" lon="1.814622">
        <ele>1052.0</ele>
        <time>2022-07-03T11:38:20Z</time>
      </trkpt>
      <trkpt lat="42.373166" lon="1.814683">
        <ele>1051.8</ele>
        <time>2022-07-03T11:38:21Z</time>
      </trkpt>
      <trkpt lat="42.373232" lon="1.814796">
        <ele>1051.8</ele>
        <time>2022-07-03T11:38:23Z</time>
      </trkpt>
      <trkpt lat="42.373263" lon="1.814867">
        <ele>1052.0</ele>
        <time>2022-07-03T11:38:24Z</time>
      </trkpt>
      <trkpt lat="42.373290" lon="1.814934">
        <ele>1051.9</ele>
        <time>2022-07-03T11:38:25Z</time>
      </trkpt>
      <trkpt lat="42.373318" lon="1.814998">
        <ele>1052.2</ele>
        <time>2022-07-03T11:38:26Z</time>
      </trkpt>
      <trkpt lat="42.373374" lon="1.815102">
        <ele>1052.3</ele>
        <time>2022-07-03T11:38:28Z</time>
      </trkpt>
      <trkpt lat="42.373419" lon="1.815196">
        <ele>1052.5</ele>
        <time>2022-07-03T11:38:30Z</time>
      </trkpt>
      <trkpt lat="42.373462" lon="1.815273">
        <ele>1052.8</ele>
        <time>2022-07-03T11:38:32Z</time>
      </trkpt>
      <trkpt lat="42.373499" lon="1.815350">
        <ele>1052.7</ele>
        <time>2022-07-03T11:38:34Z</time>
      </trkpt>
      <trkpt lat="42.373529" lon="1.815435">
        <ele>1053.8</ele>
        <time>2022-07-03T11:38:36Z</time>
      </trkpt>
      <trkpt lat="42.373572" lon="1.815517">
        <ele>1053.6</ele>
        <time>2022-07-03T11:38:38Z</time>
      </trkpt>
      <trkpt lat="42.373609" lon="1.815604">
        <ele>1053.5</ele>
        <time>2022-07-03T11:38:40Z</time>
      </trkpt>
      <trkpt lat="42.373653" lon="1.815691">
        <ele>1053.3</ele>
        <time>2022-07-03T11:38:42Z</time>
      </trkpt>
      <trkpt lat="42.373699" lon="1.815777">
        <ele>1053.1</ele>
        <time>2022-07-03T11:38:44Z</time>
      </trkpt>
      <trkpt lat="42.373747" lon="1.815865">
        <ele>1053.1</ele>
        <time>2022-07-03T11:38:46Z</time>
      </trkpt>
      <trkpt lat="42.373793" lon="1.815951">
        <ele>1053.1</ele>
        <time>2022-07-03T11:38:48Z</time>
      </trkpt>
      <trkpt lat="42.373839" lon="1.816045">
        <ele>1053.2</ele>
        <time>2022-07-03T11:38:50Z</time>
      </trkpt>
      <trkpt lat="42.373885" lon="1.816140">
        <ele>1053.0</ele>
        <time>2022-07-03T11:38:52Z</time>
      </trkpt>
      <trkpt lat="42.373926" lon="1.816237">
        <ele>1053.2</ele>
        <time>2022-07-03T11:38:54Z</time>
      </trkpt>
      <trkpt lat="42.373966" lon="1.816338">
        <ele>1053.8</ele>
        <time>2022-07-03T11:38:56Z</time>
      </trkpt>
      <trkpt lat="42.373998" lon="1.816445">
        <ele>1053.6</ele>
        <time>2022-07-03T11:38:58Z</time>
      </trkpt>
      <trkpt lat="42.374029" lon="1.816557">
        <ele>1053.8</ele>
        <time>2022-07-03T11:39:00Z</time>
      </trkpt>
      <trkpt lat="42.374047" lon="1.816671">
        <ele>1054.0</ele>
        <time>2022-07-03T11:39:02Z</time>
      </trkpt>
      <trkpt lat="42.374064" lon="1.816789">
        <ele>1054.5</ele>
        <time>2022-07-03T11:39:04Z</time>
      </trkpt>
      <trkpt lat="42.374080" lon="1.816909">
        <ele>1053.5</ele>
        <time>2022-07-03T11:39:06Z</time>
      </trkpt>
      <trkpt lat="42.374095" lon="1.817025">
        <ele>1053.6</ele>
        <time>2022-07-03T11:39:08Z</time>
      </trkpt>
      <trkpt lat="42.374104" lon="1.817140">
        <ele>1053.3</ele>
        <time>2022-07-03T11:39:10Z</time>
      </trkpt>
      <trkpt lat="42.374110" lon="1.817259">
        <ele>1054.2</ele>
        <time>2022-07-03T11:39:12Z</time>
      </trkpt>
      <trkpt lat="42.374117" lon="1.817377">
        <ele>1054.2</ele>
        <time>2022-07-03T11:39:14Z</time>
      </trkpt>
      <trkpt lat="42.374129" lon="1.817494">
        <ele>1054.5</ele>
        <time>2022-07-03T11:39:16Z</time>
      </trkpt>
      <trkpt lat="42.374155" lon="1.817608">
        <ele>1054.0</ele>
        <time>2022-07-03T11:39:18Z</time>
      </trkpt>
      <trkpt lat="42.374174" lon="1.817724">
        <ele>1054.3</ele>
        <time>2022-07-03T11:39:20Z</time>
      </trkpt>
      <trkpt lat="42.374189" lon="1.817854">
        <ele>1054.4</ele>
        <time>2022-07-03T11:39:22Z</time>
      </trkpt>
      <trkpt lat="42.374199" lon="1.817987">
        <ele>1054.3</ele>
        <time>2022-07-03T11:39:24Z</time>
      </trkpt>
      <trkpt lat="42.374214" lon="1.818121">
        <ele>1054.5</ele>
        <time>2022-07-03T11:39:26Z</time>
      </trkpt>
      <trkpt lat="42.374228" lon="1.818251">
        <ele>1054.7</ele>
        <time>2022-07-03T11:39:28Z</time>
      </trkpt>
      <trkpt lat="42.374239" lon="1.818386">
        <ele>1054.4</ele>
        <time>2022-07-03T11:39:30Z</time>
      </trkpt>
      <trkpt lat="42.374245" lon="1.818522">
        <ele>1053.9</ele>
        <time>2022-07-03T11:39:32Z</time>
      </trkpt>
      <trkpt lat="42.374241" lon="1.818653">
        <ele>1053.9</ele>
        <time>2022-07-03T11:39:34Z</time>
      </trkpt>
      <trkpt lat="42.374234" lon="1.818775">
        <ele>1054.3</ele>
        <time>2022-07-03T11:39:36Z</time>
      </trkpt>
      <trkpt lat="42.374231" lon="1.818899">
        <ele>1053.7</ele>
        <time>2022-07-03T11:39:38Z</time>
      </trkpt>
      <trkpt lat="42.374230" lon="1.819033">
        <ele>1053.6</ele>
        <time>2022-07-03T11:39:40Z</time>
      </trkpt>
      <trkpt lat="42.374240" lon="1.819105">
        <ele>1053.8</ele>
        <time>2022-07-03T11:39:41Z</time>
      </trkpt>
      <trkpt lat="42.374248" lon="1.819187">
        <ele>1054.1</ele>
        <time>2022-07-03T11:39:42Z</time>
      </trkpt>
      <trkpt lat="42.374255" lon="1.819263">
        <ele>1053.5</ele>
        <time>2022-07-03T11:39:43Z</time>
      </trkpt>
      <trkpt lat="42.374267" lon="1.819395">
        <ele>1053.2</ele>
        <time>2022-07-03T11:39:45Z</time>
      </trkpt>
      <trkpt lat="42.374275" lon="1.819530">
        <ele>1053.6</ele>
        <time>2022-07-03T11:39:47Z</time>
      </trkpt>
      <trkpt lat="42.374292" lon="1.819659">
        <ele>1053.0</ele>
        <time>2022-07-03T11:39:49Z</time>
      </trkpt>
      <trkpt lat="42.374320" lon="1.819783">
        <ele>1053.0</ele>
        <time>2022-07-03T11:39:51Z</time>
      </trkpt>
      <trkpt lat="42.374360" lon="1.819907">
        <ele>1053.4</ele>
        <time>2022-07-03T11:39:53Z</time>
      </trkpt>
      <trkpt lat="42.374401" lon="1.820027">
        <ele>1053.3</ele>
        <time>2022-07-03T11:39:55Z</time>
      </trkpt>
      <trkpt lat="42.374454" lon="1.820133">
        <ele>1053.0</ele>
        <time>2022-07-03T11:39:57Z</time>
      </trkpt>
      <trkpt lat="42.374511" lon="1.820225">
        <ele>1053.1</ele>
        <time>2022-07-03T11:39:59Z</time>
      </trkpt>
      <trkpt lat="42.374578" lon="1.820309">
        <ele>1052.3</ele>
        <time>2022-07-03T11:40:01Z</time>
      </trkpt>
      <trkpt lat="42.374648" lon="1.820392">
        <ele>1052.3</ele>
        <time>2022-07-03T11:40:03Z</time>
      </trkpt>
      <trkpt lat="42.374714" lon="1.820477">
        <ele>1052.9</ele>
        <time>2022-07-03T11:40:05Z</time>
      </trkpt>
      <trkpt lat="42.374784" lon="1.820563">
        <ele>1053.2</ele>
        <time>2022-07-03T11:40:07Z</time>
      </trkpt>
      <trkpt lat="42.374858" lon="1.820646">
        <ele>1053.5</ele>
        <time>2022-07-03T11:40:09Z</time>
      </trkpt>
      <trkpt lat="42.374932" lon="1.820735">
        <ele>1053.7</ele>
        <time>2022-07-03T11:40:11Z</time>
      </trkpt>
      <trkpt lat="42.375000" lon="1.820829">
        <ele>1053.7</ele>
        <time>2022-07-03T11:40:13Z</time>
      </trkpt>
      <trkpt lat="42.375075" lon="1.820921">
        <ele>1054.0</ele>
        <time>2022-07-03T11:40:15Z</time>
      </trkpt>
      <trkpt lat="42.375153" lon="1.821014">
        <ele>1053.9</ele>
        <time>2022-07-03T11:40:17Z</time>
      </trkpt>
      <trkpt lat="42.375196" lon="1.821058">
        <ele>1053.7</ele>
        <time>2022-07-03T11:40:18Z</time>
      </trkpt>
      <trkpt lat="42.375276" lon="1.821152">
        <ele>1053.7</ele>
        <time>2022-07-03T11:40:20Z</time>
      </trkpt>
      <trkpt lat="42.375353" lon="1.821249">
        <ele>1054.1</ele>
        <time>2022-07-03T11:40:22Z</time>
      </trkpt>
      <trkpt lat="42.375396" lon="1.821294">
        <ele>1054.0</ele>
        <time>2022-07-03T11:40:23Z</time>
      </trkpt>
      <trkpt lat="42.375472" lon="1.821384">
        <ele>1053.9</ele>
        <time>2022-07-03T11:40:25Z</time>
      </trkpt>
      <trkpt lat="42.375537" lon="1.821479">
        <ele>1053.8</ele>
        <time>2022-07-03T11:40:27Z</time>
      </trkpt>
      <trkpt lat="42.375604" lon="1.821560">
        <ele>1053.5</ele>
        <time>2022-07-03T11:40:29Z</time>
      </trkpt>
      <trkpt lat="42.375662" lon="1.821644">
        <ele>1053.4</ele>
        <time>2022-07-03T11:40:31Z</time>
      </trkpt>
      <trkpt lat="42.375741" lon="1.821726">
        <ele>1053.5</ele>
        <time>2022-07-03T11:40:33Z</time>
      </trkpt>
      <trkpt lat="42.375816" lon="1.821809">
        <ele>1053.5</ele>
        <time>2022-07-03T11:40:35Z</time>
      </trkpt>
      <trkpt lat="42.375891" lon="1.821878">
        <ele>1053.3</ele>
        <time>2022-07-03T11:40:37Z</time>
      </trkpt>
      <trkpt lat="42.375972" lon="1.821953">
        <ele>1053.3</ele>
        <time>2022-07-03T11:40:39Z</time>
      </trkpt>
      <trkpt lat="42.376037" lon="1.822027">
        <ele>1052.5</ele>
        <time>2022-07-03T11:40:41Z</time>
      </trkpt>
      <trkpt lat="42.376108" lon="1.822107">
        <ele>1052.7</ele>
        <time>2022-07-03T11:40:43Z</time>
      </trkpt>
      <trkpt lat="42.376160" lon="1.822194">
        <ele>1053.0</ele>
        <time>2022-07-03T11:40:45Z</time>
      </trkpt>
      <trkpt lat="42.376216" lon="1.822259">
        <ele>1053.2</ele>
        <time>2022-07-03T11:40:47Z</time>
      </trkpt>
      <trkpt lat="42.376277" lon="1.822315">
        <ele>1053.4</ele>
        <time>2022-07-03T11:40:49Z</time>
      </trkpt>
      <trkpt lat="42.376350" lon="1.822371">
        <ele>1053.6</ele>
        <time>2022-07-03T11:40:51Z</time>
      </trkpt>
      <trkpt lat="42.376399" lon="1.822420">
        <ele>1053.6</ele>
        <time>2022-07-03T11:40:53Z</time>
      </trkpt>
      <trkpt lat="42.376471" lon="1.822451">
        <ele>1054.1</ele>
        <time>2022-07-03T11:40:55Z</time>
      </trkpt>
      <trkpt lat="42.376536" lon="1.822473">
        <ele>1054.4</ele>
        <time>2022-07-03T11:40:57Z</time>
      </trkpt>
      <trkpt lat="42.376599" lon="1.822494">
        <ele>1054.1</ele>
        <time>2022-07-03T11:40:59Z</time>
      </trkpt>
      <trkpt lat="42.376674" lon="1.822533">
        <ele>1054.5</ele>
        <time>2022-07-03T11:41:01Z</time>
      </trkpt>
      <trkpt lat="42.376746" lon="1.822581">
        <ele>1055.1</ele>
        <time>2022-07-03T11:41:03Z</time>
      </trkpt>
      <trkpt lat="42.376816" lon="1.822627">
        <ele>1055.8</ele>
        <time>2022-07-03T11:41:05Z</time>
      </trkpt>
      <trkpt lat="42.376891" lon="1.822670">
        <ele>1056.1</ele>
        <time>2022-07-03T11:41:07Z</time>
      </trkpt>
      <trkpt lat="42.376953" lon="1.822717">
        <ele>1056.3</ele>
        <time>2022-07-03T11:41:09Z</time>
      </trkpt>
      <trkpt lat="42.377020" lon="1.822777">
        <ele>1056.0</ele>
        <time>2022-07-03T11:41:11Z</time>
      </trkpt>
      <trkpt lat="42.377083" lon="1.822850">
        <ele>1056.0</ele>
        <time>2022-07-03T11:41:13Z</time>
      </trkpt>
      <trkpt lat="42.377143" lon="1.822926">
        <ele>1056.3</ele>
        <time>2022-07-03T11:41:15Z</time>
      </trkpt>
      <trkpt lat="42.377209" lon="1.822987">
        <ele>1055.8</ele>
        <time>2022-07-03T11:41:17Z</time>
      </trkpt>
      <trkpt lat="42.377281" lon="1.823040">
        <ele>1056.5</ele>
        <time>2022-07-03T11:41:19Z</time>
      </trkpt>
      <trkpt lat="42.377357" lon="1.823094">
        <ele>1056.6</ele>
        <time>2022-07-03T11:41:21Z</time>
      </trkpt>
      <trkpt lat="42.377433" lon="1.823142">
        <ele>1057.0</ele>
        <time>2022-07-03T11:41:23Z</time>
      </trkpt>
      <trkpt lat="42.377506" lon="1.823195">
        <ele>1057.3</ele>
        <time>2022-07-03T11:41:25Z</time>
      </trkpt>
      <trkpt lat="42.377577" lon="1.823256">
        <ele>1056.9</ele>
        <time>2022-07-03T11:41:27Z</time>
      </trkpt>
      <trkpt lat="42.377654" lon="1.823323">
        <ele>1056.7</ele>
        <time>2022-07-03T11:41:29Z</time>
      </trkpt>
      <trkpt lat="42.377706" lon="1.823402">
        <ele>1056.6</ele>
        <time>2022-07-03T11:41:31Z</time>
      </trkpt>
      <trkpt lat="42.377777" lon="1.823445">
        <ele>1056.1</ele>
        <time>2022-07-03T11:41:34Z</time>
      </trkpt>
      <trkpt lat="42.377834" lon="1.823471">
        <ele>1056.1</ele>
        <time>2022-07-03T11:41:36Z</time>
      </trkpt>
      <trkpt lat="42.377886" lon="1.823529">
        <ele>1056.2</ele>
        <time>2022-07-03T11:41:38Z</time>
      </trkpt>
      <trkpt lat="42.377935" lon="1.823596">
        <ele>1057.3</ele>
        <time>2022-07-03T11:41:40Z</time>
      </trkpt>
      <trkpt lat="42.377980" lon="1.823664">
        <ele>1057.4</ele>
        <time>2022-07-03T11:41:42Z</time>
      </trkpt>
      <trkpt lat="42.378019" lon="1.823749">
        <ele>1057.3</ele>
        <time>2022-07-03T11:41:44Z</time>
      </trkpt>
      <trkpt lat="42.378065" lon="1.823837">
        <ele>1057.4</ele>
        <time>2022-07-03T11:41:46Z</time>
      </trkpt>
      <trkpt lat="42.378112" lon="1.823934">
        <ele>1057.6</ele>
        <time>2022-07-03T11:41:48Z</time>
      </trkpt>
      <trkpt lat="42.378155" lon="1.824042">
        <ele>1057.4</ele>
        <time>2022-07-03T11:41:50Z</time>
      </trkpt>
      <trkpt lat="42.378187" lon="1.824137">
        <ele>1057.3</ele>
        <time>2022-07-03T11:41:52Z</time>
      </trkpt>
      <trkpt lat="42.378219" lon="1.824240">
        <ele>1057.2</ele>
        <time>2022-07-03T11:41:54Z</time>
      </trkpt>
      <trkpt lat="42.378252" lon="1.824352">
        <ele>1057.1</ele>
        <time>2022-07-03T11:41:56Z</time>
      </trkpt>
      <trkpt lat="42.378281" lon="1.824472">
        <ele>1057.0</ele>
        <time>2022-07-03T11:41:58Z</time>
      </trkpt>
      <trkpt lat="42.378298" lon="1.824598">
        <ele>1057.3</ele>
        <time>2022-07-03T11:42:00Z</time>
      </trkpt>
      <trkpt lat="42.378304" lon="1.824722">
        <ele>1057.1</ele>
        <time>2022-07-03T11:42:02Z</time>
      </trkpt>
      <trkpt lat="42.378308" lon="1.824846">
        <ele>1057.0</ele>
        <time>2022-07-03T11:42:04Z</time>
      </trkpt>
      <trkpt lat="42.378307" lon="1.824971">
        <ele>1056.8</ele>
        <time>2022-07-03T11:42:06Z</time>
      </trkpt>
      <trkpt lat="42.378297" lon="1.825094">
        <ele>1056.8</ele>
        <time>2022-07-03T11:42:08Z</time>
      </trkpt>
      <trkpt lat="42.378285" lon="1.825212">
        <ele>1056.8</ele>
        <time>2022-07-03T11:42:10Z</time>
      </trkpt>
      <trkpt lat="42.378270" lon="1.825328">
        <ele>1057.1</ele>
        <time>2022-07-03T11:42:12Z</time>
      </trkpt>
      <trkpt lat="42.378243" lon="1.825445">
        <ele>1057.6</ele>
        <time>2022-07-03T11:42:14Z</time>
      </trkpt>
      <trkpt lat="42.378212" lon="1.825560">
        <ele>1057.7</ele>
        <time>2022-07-03T11:42:16Z</time>
      </trkpt>
      <trkpt lat="42.378182" lon="1.825677">
        <ele>1057.6</ele>
        <time>2022-07-03T11:42:18Z</time>
      </trkpt>
      <trkpt lat="42.378149" lon="1.825796">
        <ele>1057.6</ele>
        <time>2022-07-03T11:42:20Z</time>
      </trkpt>
      <trkpt lat="42.378101" lon="1.825906">
        <ele>1057.4</ele>
        <time>2022-07-03T11:42:22Z</time>
      </trkpt>
      <trkpt lat="42.378046" lon="1.826019">
        <ele>1057.4</ele>
        <time>2022-07-03T11:42:24Z</time>
      </trkpt>
      <trkpt lat="42.377991" lon="1.826131">
        <ele>1057.9</ele>
        <time>2022-07-03T11:42:26Z</time>
      </trkpt>
      <trkpt lat="42.377926" lon="1.826240">
        <ele>1057.6</ele>
        <time>2022-07-03T11:42:28Z</time>
      </trkpt>
      <trkpt lat="42.377875" lon="1.826349">
        <ele>1057.5</ele>
        <time>2022-07-03T11:42:30Z</time>
      </trkpt>
      <trkpt lat="42.377828" lon="1.826465">
        <ele>1057.5</ele>
        <time>2022-07-03T11:42:32Z</time>
      </trkpt>
      <trkpt lat="42.377784" lon="1.826585">
        <ele>1057.4</ele>
        <time>2022-07-03T11:42:34Z</time>
      </trkpt>
      <trkpt lat="42.377747" lon="1.826701">
        <ele>1057.4</ele>
        <time>2022-07-03T11:42:36Z</time>
      </trkpt>
      <trkpt lat="42.377725" lon="1.826822">
        <ele>1057.4</ele>
        <time>2022-07-03T11:42:38Z</time>
      </trkpt>
      <trkpt lat="42.377712" lon="1.826942">
        <ele>1057.3</ele>
        <time>2022-07-03T11:42:40Z</time>
      </trkpt>
      <trkpt lat="42.377712" lon="1.827068">
        <ele>1057.2</ele>
        <time>2022-07-03T11:42:42Z</time>
      </trkpt>
      <trkpt lat="42.377719" lon="1.827195">
        <ele>1057.7</ele>
        <time>2022-07-03T11:42:44Z</time>
      </trkpt>
      <trkpt lat="42.377728" lon="1.827317">
        <ele>1058.1</ele>
        <time>2022-07-03T11:42:46Z</time>
      </trkpt>
      <trkpt lat="42.377754" lon="1.827431">
        <ele>1058.3</ele>
        <time>2022-07-03T11:42:48Z</time>
      </trkpt>
      <trkpt lat="42.377778" lon="1.827547">
        <ele>1058.5</ele>
        <time>2022-07-03T11:42:50Z</time>
      </trkpt>
      <trkpt lat="42.377799" lon="1.827673">
        <ele>1057.9</ele>
        <time>2022-07-03T11:42:52Z</time>
      </trkpt>
      <trkpt lat="42.377829" lon="1.827801">
        <ele>1057.5</ele>
        <time>2022-07-03T11:42:54Z</time>
      </trkpt>
      <trkpt lat="42.377873" lon="1.827922">
        <ele>1057.1</ele>
        <time>2022-07-03T11:42:56Z</time>
      </trkpt>
      <trkpt lat="42.377906" lon="1.828047">
        <ele>1057.0</ele>
        <time>2022-07-03T11:42:58Z</time>
      </trkpt>
      <trkpt lat="42.377954" lon="1.828159">
        <ele>1056.6</ele>
        <time>2022-07-03T11:43:00Z</time>
      </trkpt>
      <trkpt lat="42.378003" lon="1.828263">
        <ele>1056.8</ele>
        <time>2022-07-03T11:43:02Z</time>
      </trkpt>
      <trkpt lat="42.378055" lon="1.828364">
        <ele>1057.0</ele>
        <time>2022-07-03T11:43:04Z</time>
      </trkpt>
      <trkpt lat="42.378130" lon="1.828447">
        <ele>1056.3</ele>
        <time>2022-07-03T11:43:06Z</time>
      </trkpt>
      <trkpt lat="42.378196" lon="1.828534">
        <ele>1056.7</ele>
        <time>2022-07-03T11:43:08Z</time>
      </trkpt>
      <trkpt lat="42.378272" lon="1.828608">
        <ele>1057.5</ele>
        <time>2022-07-03T11:43:10Z</time>
      </trkpt>
      <trkpt lat="42.378337" lon="1.828688">
        <ele>1057.6</ele>
        <time>2022-07-03T11:43:12Z</time>
      </trkpt>
      <trkpt lat="42.378408" lon="1.828760">
        <ele>1057.6</ele>
        <time>2022-07-03T11:43:14Z</time>
      </trkpt>
      <trkpt lat="42.378479" lon="1.828828">
        <ele>1057.5</ele>
        <time>2022-07-03T11:43:16Z</time>
      </trkpt>
      <trkpt lat="42.378551" lon="1.828891">
        <ele>1057.2</ele>
        <time>2022-07-03T11:43:18Z</time>
      </trkpt>
      <trkpt lat="42.378630" lon="1.828932">
        <ele>1057.3</ele>
        <time>2022-07-03T11:43:20Z</time>
      </trkpt>
      <trkpt lat="42.378710" lon="1.828945">
        <ele>1057.9</ele>
        <time>2022-07-03T11:43:22Z</time>
      </trkpt>
      <trkpt lat="42.378778" lon="1.828931">
        <ele>1058.3</ele>
        <time>2022-07-03T11:43:24Z</time>
      </trkpt>
      <trkpt lat="42.378849" lon="1.828922">
        <ele>1058.4</ele>
        <time>2022-07-03T11:43:26Z</time>
      </trkpt>
      <trkpt lat="42.378925" lon="1.828916">
        <ele>1058.6</ele>
        <time>2022-07-03T11:43:28Z</time>
      </trkpt>
      <trkpt lat="42.378996" lon="1.828910">
        <ele>1058.9</ele>
        <time>2022-07-03T11:43:30Z</time>
      </trkpt>
      <trkpt lat="42.379067" lon="1.828893">
        <ele>1059.4</ele>
        <time>2022-07-03T11:43:32Z</time>
      </trkpt>
      <trkpt lat="42.379135" lon="1.828870">
        <ele>1059.7</ele>
        <time>2022-07-03T11:43:34Z</time>
      </trkpt>
      <trkpt lat="42.379213" lon="1.828834">
        <ele>1059.9</ele>
        <time>2022-07-03T11:43:36Z</time>
      </trkpt>
      <trkpt lat="42.379280" lon="1.828784">
        <ele>1060.2</ele>
        <time>2022-07-03T11:43:38Z</time>
      </trkpt>
      <trkpt lat="42.379348" lon="1.828734">
        <ele>1059.6</ele>
        <time>2022-07-03T11:43:40Z</time>
      </trkpt>
      <trkpt lat="42.379416" lon="1.828691">
        <ele>1059.5</ele>
        <time>2022-07-03T11:43:42Z</time>
      </trkpt>
      <trkpt lat="42.379495" lon="1.828638">
        <ele>1059.5</ele>
        <time>2022-07-03T11:43:44Z</time>
      </trkpt>
      <trkpt lat="42.379570" lon="1.828585">
        <ele>1059.2</ele>
        <time>2022-07-03T11:43:46Z</time>
      </trkpt>
      <trkpt lat="42.379647" lon="1.828537">
        <ele>1059.0</ele>
        <time>2022-07-03T11:43:48Z</time>
      </trkpt>
      <trkpt lat="42.379717" lon="1.828485">
        <ele>1059.5</ele>
        <time>2022-07-03T11:43:50Z</time>
      </trkpt>
      <trkpt lat="42.379791" lon="1.828463">
        <ele>1059.6</ele>
        <time>2022-07-03T11:43:52Z</time>
      </trkpt>
      <trkpt lat="42.379852" lon="1.828509">
        <ele>1059.5</ele>
        <time>2022-07-03T11:43:54Z</time>
      </trkpt>
      <trkpt lat="42.379887" lon="1.828604">
        <ele>1059.7</ele>
        <time>2022-07-03T11:43:56Z</time>
      </trkpt>
      <trkpt lat="42.379925" lon="1.828702">
        <ele>1059.8</ele>
        <time>2022-07-03T11:43:58Z</time>
      </trkpt>
      <trkpt lat="42.379964" lon="1.828797">
        <ele>1059.5</ele>
        <time>2022-07-03T11:44:00Z</time>
      </trkpt>
      <trkpt lat="42.379994" lon="1.828889">
        <ele>1059.9</ele>
        <time>2022-07-03T11:44:02Z</time>
      </trkpt>
      <trkpt lat="42.380030" lon="1.828989">
        <ele>1059.6</ele>
        <time>2022-07-03T11:44:04Z</time>
      </trkpt>
      <trkpt lat="42.380074" lon="1.829093">
        <ele>1059.8</ele>
        <time>2022-07-03T11:44:06Z</time>
      </trkpt>
      <trkpt lat="42.380112" lon="1.829198">
        <ele>1059.8</ele>
        <time>2022-07-03T11:44:08Z</time>
      </trkpt>
      <trkpt lat="42.380151" lon="1.829303">
        <ele>1059.7</ele>
        <time>2022-07-03T11:44:10Z</time>
      </trkpt>
      <trkpt lat="42.380186" lon="1.829403">
        <ele>1059.6</ele>
        <time>2022-07-03T11:44:12Z</time>
      </trkpt>
      <trkpt lat="42.380212" lon="1.829505">
        <ele>1059.8</ele>
        <time>2022-07-03T11:44:14Z</time>
      </trkpt>
      <trkpt lat="42.380232" lon="1.829605">
        <ele>1059.7</ele>
        <time>2022-07-03T11:44:16Z</time>
      </trkpt>
      <trkpt lat="42.380243" lon="1.829713">
        <ele>1060.3</ele>
        <time>2022-07-03T11:44:18Z</time>
      </trkpt>
      <trkpt lat="42.380256" lon="1.829822">
        <ele>1060.9</ele>
        <time>2022-07-03T11:44:20Z</time>
      </trkpt>
      <trkpt lat="42.380276" lon="1.829927">
        <ele>1061.0</ele>
        <time>2022-07-03T11:44:22Z</time>
      </trkpt>
      <trkpt lat="42.380303" lon="1.830026">
        <ele>1061.7</ele>
        <time>2022-07-03T11:44:24Z</time>
      </trkpt>
      <trkpt lat="42.380334" lon="1.830126">
        <ele>1061.3</ele>
        <time>2022-07-03T11:44:26Z</time>
      </trkpt>
      <trkpt lat="42.380354" lon="1.830238">
        <ele>1061.2</ele>
        <time>2022-07-03T11:44:28Z</time>
      </trkpt>
      <trkpt lat="42.380369" lon="1.830351">
        <ele>1060.3</ele>
        <time>2022-07-03T11:44:30Z</time>
      </trkpt>
      <trkpt lat="42.380369" lon="1.830466">
        <ele>1060.3</ele>
        <time>2022-07-03T11:44:32Z</time>
      </trkpt>
      <trkpt lat="42.380364" lon="1.830585">
        <ele>1060.5</ele>
        <time>2022-07-03T11:44:34Z</time>
      </trkpt>
      <trkpt lat="42.380361" lon="1.830710">
        <ele>1060.5</ele>
        <time>2022-07-03T11:44:36Z</time>
      </trkpt>
      <trkpt lat="42.380356" lon="1.830838">
        <ele>1061.0</ele>
        <time>2022-07-03T11:44:38Z</time>
      </trkpt>
      <trkpt lat="42.380335" lon="1.830958">
        <ele>1060.6</ele>
        <time>2022-07-03T11:44:40Z</time>
      </trkpt>
      <trkpt lat="42.380339" lon="1.831092">
        <ele>1060.6</ele>
        <time>2022-07-03T11:44:42Z</time>
      </trkpt>
      <trkpt lat="42.380372" lon="1.831204">
        <ele>1060.9</ele>
        <time>2022-07-03T11:44:44Z</time>
      </trkpt>
      <trkpt lat="42.380426" lon="1.831285">
        <ele>1060.8</ele>
        <time>2022-07-03T11:44:46Z</time>
      </trkpt>
      <trkpt lat="42.380464" lon="1.831358">
        <ele>1060.5</ele>
        <time>2022-07-03T11:44:48Z</time>
      </trkpt>
      <trkpt lat="42.380504" lon="1.831437">
        <ele>1060.0</ele>
        <time>2022-07-03T11:44:50Z</time>
      </trkpt>
      <trkpt lat="42.380552" lon="1.831522">
        <ele>1060.2</ele>
        <time>2022-07-03T11:44:52Z</time>
      </trkpt>
      <trkpt lat="42.380604" lon="1.831611">
        <ele>1060.3</ele>
        <time>2022-07-03T11:44:54Z</time>
      </trkpt>
      <trkpt lat="42.380645" lon="1.831707">
        <ele>1060.2</ele>
        <time>2022-07-03T11:44:56Z</time>
      </trkpt>
      <trkpt lat="42.380696" lon="1.831795">
        <ele>1060.3</ele>
        <time>2022-07-03T11:44:58Z</time>
      </trkpt>
      <trkpt lat="42.380744" lon="1.831876">
        <ele>1060.4</ele>
        <time>2022-07-03T11:45:00Z</time>
      </trkpt>
      <trkpt lat="42.380797" lon="1.831953">
        <ele>1060.0</ele>
        <time>2022-07-03T11:45:02Z</time>
      </trkpt>
      <trkpt lat="42.380844" lon="1.832045">
        <ele>1060.3</ele>
        <time>2022-07-03T11:45:04Z</time>
      </trkpt>
      <trkpt lat="42.380884" lon="1.832143">
        <ele>1060.2</ele>
        <time>2022-07-03T11:45:06Z</time>
      </trkpt>
      <trkpt lat="42.380931" lon="1.832243">
        <ele>1060.4</ele>
        <time>2022-07-03T11:45:08Z</time>
      </trkpt>
      <trkpt lat="42.380980" lon="1.832343">
        <ele>1060.3</ele>
        <time>2022-07-03T11:45:10Z</time>
      </trkpt>
      <trkpt lat="42.381030" lon="1.832444">
        <ele>1060.4</ele>
        <time>2022-07-03T11:45:12Z</time>
      </trkpt>
      <trkpt lat="42.381095" lon="1.832532">
        <ele>1060.5</ele>
        <time>2022-07-03T11:45:14Z</time>
      </trkpt>
      <trkpt lat="42.381173" lon="1.832604">
        <ele>1060.8</ele>
        <time>2022-07-03T11:45:16Z</time>
      </trkpt>
      <trkpt lat="42.381250" lon="1.832679">
        <ele>1060.8</ele>
        <time>2022-07-03T11:45:18Z</time>
      </trkpt>
      <trkpt lat="42.381330" lon="1.832741">
        <ele>1060.8</ele>
        <time>2022-07-03T11:45:20Z</time>
      </trkpt>
      <trkpt lat="42.381404" lon="1.832805">
        <ele>1059.7</ele>
        <time>2022-07-03T11:45:22Z</time>
      </trkpt>
      <trkpt lat="42.381470" lon="1.832867">
        <ele>1060.9</ele>
        <time>2022-07-03T11:45:24Z</time>
      </trkpt>
      <trkpt lat="42.381531" lon="1.832924">
        <ele>1060.5</ele>
        <time>2022-07-03T11:45:26Z</time>
      </trkpt>
      <trkpt lat="42.381596" lon="1.832989">
        <ele>1059.9</ele>
        <time>2022-07-03T11:45:28Z</time>
      </trkpt>
      <trkpt lat="42.381662" lon="1.833051">
        <ele>1060.4</ele>
        <time>2022-07-03T11:45:30Z</time>
      </trkpt>
      <trkpt lat="42.381732" lon="1.833096">
        <ele>1061.1</ele>
        <time>2022-07-03T11:45:32Z</time>
      </trkpt>
      <trkpt lat="42.381799" lon="1.833140">
        <ele>1062.0</ele>
        <time>2022-07-03T11:45:34Z</time>
      </trkpt>
      <trkpt lat="42.381869" lon="1.833182">
        <ele>1061.8</ele>
        <time>2022-07-03T11:45:36Z</time>
      </trkpt>
      <trkpt lat="42.381934" lon="1.833213">
        <ele>1061.3</ele>
        <time>2022-07-03T11:45:38Z</time>
      </trkpt>
      <trkpt lat="42.382026" lon="1.833265">
        <ele>1060.7</ele>
        <time>2022-07-03T11:45:40Z</time>
      </trkpt>
      <trkpt lat="42.382103" lon="1.833288">
        <ele>1060.7</ele>
        <time>2022-07-03T11:45:42Z</time>
      </trkpt>
      <trkpt lat="42.382174" lon="1.833307">
        <ele>1060.3</ele>
        <time>2022-07-03T11:45:44Z</time>
      </trkpt>
      <trkpt lat="42.382223" lon="1.833367">
        <ele>1060.1</ele>
        <time>2022-07-03T11:45:46Z</time>
      </trkpt>
      <trkpt lat="42.382280" lon="1.833419">
        <ele>1060.3</ele>
        <time>2022-07-03T11:45:48Z</time>
      </trkpt>
      <trkpt lat="42.382344" lon="1.833463">
        <ele>1060.0</ele>
        <time>2022-07-03T11:45:50Z</time>
      </trkpt>
      <trkpt lat="42.382401" lon="1.833503">
        <ele>1059.8</ele>
        <time>2022-07-03T11:45:52Z</time>
      </trkpt>
      <trkpt lat="42.382454" lon="1.833548">
        <ele>1059.9</ele>
        <time>2022-07-03T11:45:54Z</time>
      </trkpt>
      <trkpt lat="42.382514" lon="1.833597">
        <ele>1060.2</ele>
        <time>2022-07-03T11:45:56Z</time>
      </trkpt>
      <trkpt lat="42.382565" lon="1.833648">
        <ele>1060.7</ele>
        <time>2022-07-03T11:45:58Z</time>
      </trkpt>
      <trkpt lat="42.382618" lon="1.833706">
        <ele>1060.7</ele>
        <time>2022-07-03T11:46:00Z</time>
      </trkpt>
      <trkpt lat="42.382670" lon="1.833771">
        <ele>1060.5</ele>
        <time>2022-07-03T11:46:02Z</time>
      </trkpt>
      <trkpt lat="42.382715" lon="1.833834">
        <ele>1060.4</ele>
        <time>2022-07-03T11:46:04Z</time>
      </trkpt>
      <trkpt lat="42.382762" lon="1.833900">
        <ele>1060.8</ele>
        <time>2022-07-03T11:46:06Z</time>
      </trkpt>
      <trkpt lat="42.382807" lon="1.833970">
        <ele>1061.2</ele>
        <time>2022-07-03T11:46:08Z</time>
      </trkpt>
      <trkpt lat="42.382857" lon="1.834035">
        <ele>1061.4</ele>
        <time>2022-07-03T11:46:10Z</time>
      </trkpt>
      <trkpt lat="42.382911" lon="1.834097">
        <ele>1061.5</ele>
        <time>2022-07-03T11:46:12Z</time>
      </trkpt>
      <trkpt lat="42.382970" lon="1.834166">
        <ele>1061.5</ele>
        <time>2022-07-03T11:46:14Z</time>
      </trkpt>
      <trkpt lat="42.383027" lon="1.834242">
        <ele>1061.8</ele>
        <time>2022-07-03T11:46:16Z</time>
      </trkpt>
      <trkpt lat="42.383088" lon="1.834314">
        <ele>1061.9</ele>
        <time>2022-07-03T11:46:18Z</time>
      </trkpt>
      <trkpt lat="42.383149" lon="1.834389">
        <ele>1061.7</ele>
        <time>2022-07-03T11:46:20Z</time>
      </trkpt>
      <trkpt lat="42.383196" lon="1.834466">
        <ele>1060.9</ele>
        <time>2022-07-03T11:46:22Z</time>
      </trkpt>
      <trkpt lat="42.383231" lon="1.834542">
        <ele>1061.3</ele>
        <time>2022-07-03T11:46:24Z</time>
      </trkpt>
      <trkpt lat="42.383260" lon="1.834621">
        <ele>1061.8</ele>
        <time>2022-07-03T11:46:26Z</time>
      </trkpt>
      <trkpt lat="42.383284" lon="1.834693">
        <ele>1062.9</ele>
        <time>2022-07-03T11:46:28Z</time>
      </trkpt>
      <trkpt lat="42.383314" lon="1.834797">
        <ele>1063.6</ele>
        <time>2022-07-03T11:46:31Z</time>
      </trkpt>
      <trkpt lat="42.383356" lon="1.834892">
        <ele>1063.8</ele>
        <time>2022-07-03T11:46:34Z</time>
      </trkpt>
      <trkpt lat="42.383386" lon="1.834966">
        <ele>1064.0</ele>
        <time>2022-07-03T11:46:36Z</time>
      </trkpt>
      <trkpt lat="42.383428" lon="1.835032">
        <ele>1063.8</ele>
        <time>2022-07-03T11:46:38Z</time>
      </trkpt>
      <trkpt lat="42.383470" lon="1.835105">
        <ele>1064.0</ele>
        <time>2022-07-03T11:46:40Z</time>
      </trkpt>
      <trkpt lat="42.383508" lon="1.835181">
        <ele>1063.7</ele>
        <time>2022-07-03T11:46:42Z</time>
      </trkpt>
      <trkpt lat="42.383538" lon="1.835270">
        <ele>1063.9</ele>
        <time>2022-07-03T11:46:44Z</time>
      </trkpt>
      <trkpt lat="42.383572" lon="1.835356">
        <ele>1063.7</ele>
        <time>2022-07-03T11:46:46Z</time>
      </trkpt>
      <trkpt lat="42.383602" lon="1.835442">
        <ele>1064.9</ele>
        <time>2022-07-03T11:46:48Z</time>
      </trkpt>
      <trkpt lat="42.383628" lon="1.835533">
        <ele>1064.4</ele>
        <time>2022-07-03T11:46:50Z</time>
      </trkpt>
      <trkpt lat="42.383668" lon="1.835614">
        <ele>1064.6</ele>
        <time>2022-07-03T11:46:52Z</time>
      </trkpt>
      <trkpt lat="42.383704" lon="1.835714">
        <ele>1064.4</ele>
        <time>2022-07-03T11:46:54Z</time>
      </trkpt>
      <trkpt lat="42.383750" lon="1.835811">
        <ele>1064.3</ele>
        <time>2022-07-03T11:46:56Z</time>
      </trkpt>
      <trkpt lat="42.383791" lon="1.835905">
        <ele>1064.4</ele>
        <time>2022-07-03T11:46:58Z</time>
      </trkpt>
      <trkpt lat="42.383829" lon="1.835998">
        <ele>1064.8</ele>
        <time>2022-07-03T11:47:00Z</time>
      </trkpt>
      <trkpt lat="42.383866" lon="1.836099">
        <ele>1065.3</ele>
        <time>2022-07-03T11:47:02Z</time>
      </trkpt>
      <trkpt lat="42.383893" lon="1.836197">
        <ele>1065.2</ele>
        <time>2022-07-03T11:47:04Z</time>
      </trkpt>
      <trkpt lat="42.383932" lon="1.836303">
        <ele>1064.7</ele>
        <time>2022-07-03T11:47:06Z</time>
      </trkpt>
      <trkpt lat="42.383966" lon="1.836415">
        <ele>1064.7</ele>
        <time>2022-07-03T11:47:08Z</time>
      </trkpt>
      <trkpt lat="42.384004" lon="1.836525">
        <ele>1064.8</ele>
        <time>2022-07-03T11:47:10Z</time>
      </trkpt>
      <trkpt lat="42.384050" lon="1.836628">
        <ele>1065.0</ele>
        <time>2022-07-03T11:47:12Z</time>
      </trkpt>
      <trkpt lat="42.384099" lon="1.836717">
        <ele>1064.5</ele>
        <time>2022-07-03T11:47:14Z</time>
      </trkpt>
      <trkpt lat="42.384146" lon="1.836770">
        <ele>1064.2</ele>
        <time>2022-07-03T11:47:16Z</time>
      </trkpt>
      <trkpt lat="42.384192" lon="1.836837">
        <ele>1064.7</ele>
        <time>2022-07-03T11:47:18Z</time>
      </trkpt>
      <trkpt lat="42.384235" lon="1.836941">
        <ele>1064.4</ele>
        <time>2022-07-03T11:47:20Z</time>
      </trkpt>
      <trkpt lat="42.384269" lon="1.837039">
        <ele>1064.2</ele>
        <time>2022-07-03T11:47:22Z</time>
      </trkpt>
      <trkpt lat="42.384319" lon="1.837082">
        <ele>1063.9</ele>
        <time>2022-07-03T11:47:30Z</time>
      </trkpt>
      <trkpt lat="42.384369" lon="1.837111">
        <ele>1064.0</ele>
        <time>2022-07-03T11:47:35Z</time>
      </trkpt>
      <trkpt lat="42.384380" lon="1.837191">
        <ele>1064.0</ele>
        <time>2022-07-03T11:47:41Z</time>
      </trkpt>
      <trkpt lat="42.384384" lon="1.837269">
        <ele>1063.8</ele>
        <time>2022-07-03T11:47:47Z</time>
      </trkpt>
      <trkpt lat="42.384418" lon="1.837345">
        <ele>1063.7</ele>
        <time>2022-07-03T11:47:49Z</time>
      </trkpt>
      <trkpt lat="42.384449" lon="1.837425">
        <ele>1063.7</ele>
        <time>2022-07-03T11:47:51Z</time>
      </trkpt>
      <trkpt lat="42.384497" lon="1.837490">
        <ele>1063.5</ele>
        <time>2022-07-03T11:47:53Z</time>
      </trkpt>
      <trkpt lat="42.384548" lon="1.837563">
        <ele>1063.5</ele>
        <time>2022-07-03T11:47:55Z</time>
      </trkpt>
      <trkpt lat="42.384596" lon="1.837649">
        <ele>1063.6</ele>
        <time>2022-07-03T11:47:57Z</time>
      </trkpt>
      <trkpt lat="42.384654" lon="1.837720">
        <ele>1063.6</ele>
        <time>2022-07-03T11:47:59Z</time>
      </trkpt>
      <trkpt lat="42.384713" lon="1.837764">
        <ele>1063.6</ele>
        <time>2022-07-03T11:48:01Z</time>
      </trkpt>
      <trkpt lat="42.384778" lon="1.837821">
        <ele>1062.9</ele>
        <time>2022-07-03T11:48:03Z</time>
      </trkpt>
      <trkpt lat="42.384839" lon="1.837884">
        <ele>1063.5</ele>
        <time>2022-07-03T11:48:05Z</time>
      </trkpt>
      <trkpt lat="42.384912" lon="1.837947">
        <ele>1063.6</ele>
        <time>2022-07-03T11:48:07Z</time>
      </trkpt>
      <trkpt lat="42.384971" lon="1.838015">
        <ele>1064.3</ele>
        <time>2022-07-03T11:48:09Z</time>
      </trkpt>
      <trkpt lat="42.385041" lon="1.838065">
        <ele>1064.3</ele>
        <time>2022-07-03T11:48:11Z</time>
      </trkpt>
      <trkpt lat="42.385103" lon="1.838125">
        <ele>1064.2</ele>
        <time>2022-07-03T11:48:13Z</time>
      </trkpt>
      <trkpt lat="42.385163" lon="1.838184">
        <ele>1064.6</ele>
        <time>2022-07-03T11:48:15Z</time>
      </trkpt>
      <trkpt lat="42.385227" lon="1.838218">
        <ele>1064.8</ele>
        <time>2022-07-03T11:48:17Z</time>
      </trkpt>
      <trkpt lat="42.385314" lon="1.838270">
        <ele>1064.4</ele>
        <time>2022-07-03T11:48:19Z</time>
      </trkpt>
      <trkpt lat="42.385396" lon="1.838326">
        <ele>1064.6</ele>
        <time>2022-07-03T11:48:21Z</time>
      </trkpt>
      <trkpt lat="42.385479" lon="1.838355">
        <ele>1064.5</ele>
        <time>2022-07-03T11:48:23Z</time>
      </trkpt>
      <trkpt lat="42.385553" lon="1.838373">
        <ele>1064.5</ele>
        <time>2022-07-03T11:48:25Z</time>
      </trkpt>
      <trkpt lat="42.385613" lon="1.838395">
        <ele>1065.3</ele>
        <time>2022-07-03T11:48:27Z</time>
      </trkpt>
      <trkpt lat="42.385675" lon="1.838439">
        <ele>1065.5</ele>
        <time>2022-07-03T11:48:29Z</time>
      </trkpt>
      <trkpt lat="42.385728" lon="1.838491">
        <ele>1065.8</ele>
        <time>2022-07-03T11:48:31Z</time>
      </trkpt>
      <trkpt lat="42.385802" lon="1.838535">
        <ele>1066.5</ele>
        <time>2022-07-03T11:48:33Z</time>
      </trkpt>
      <trkpt lat="42.385883" lon="1.838576">
        <ele>1066.5</ele>
        <time>2022-07-03T11:48:35Z</time>
      </trkpt>
      <trkpt lat="42.385958" lon="1.838618">
        <ele>1066.9</ele>
        <time>2022-07-03T11:48:37Z</time>
      </trkpt>
      <trkpt lat="42.386034" lon="1.838661">
        <ele>1066.5</ele>
        <time>2022-07-03T11:48:39Z</time>
      </trkpt>
      <trkpt lat="42.386108" lon="1.838706">
        <ele>1066.8</ele>
        <time>2022-07-03T11:48:41Z</time>
      </trkpt>
      <trkpt lat="42.386187" lon="1.838751">
        <ele>1067.3</ele>
        <time>2022-07-03T11:48:43Z</time>
      </trkpt>
      <trkpt lat="42.386269" lon="1.838799">
        <ele>1066.7</ele>
        <time>2022-07-03T11:48:45Z</time>
      </trkpt>
      <trkpt lat="42.386352" lon="1.838856">
        <ele>1066.9</ele>
        <time>2022-07-03T11:48:47Z</time>
      </trkpt>
      <trkpt lat="42.386406" lon="1.838884">
        <ele>1067.2</ele>
        <time>2022-07-03T11:48:48Z</time>
      </trkpt>
      <trkpt lat="42.386489" lon="1.838944">
        <ele>1067.3</ele>
        <time>2022-07-03T11:48:50Z</time>
      </trkpt>
      <trkpt lat="42.386538" lon="1.838975">
        <ele>1067.0</ele>
        <time>2022-07-03T11:48:51Z</time>
      </trkpt>
      <trkpt lat="42.386625" lon="1.839044">
        <ele>1066.9</ele>
        <time>2022-07-03T11:48:53Z</time>
      </trkpt>
      <trkpt lat="42.386706" lon="1.839104">
        <ele>1067.2</ele>
        <time>2022-07-03T11:48:55Z</time>
      </trkpt>
      <trkpt lat="42.386796" lon="1.839161">
        <ele>1067.5</ele>
        <time>2022-07-03T11:48:57Z</time>
      </trkpt>
      <trkpt lat="42.386880" lon="1.839226">
        <ele>1067.1</ele>
        <time>2022-07-03T11:48:59Z</time>
      </trkpt>
      <trkpt lat="42.386961" lon="1.839291">
        <ele>1067.0</ele>
        <time>2022-07-03T11:49:01Z</time>
      </trkpt>
      <trkpt lat="42.387039" lon="1.839359">
        <ele>1067.2</ele>
        <time>2022-07-03T11:49:03Z</time>
      </trkpt>
      <trkpt lat="42.387117" lon="1.839431">
        <ele>1067.3</ele>
        <time>2022-07-03T11:49:05Z</time>
      </trkpt>
      <trkpt lat="42.387195" lon="1.839499">
        <ele>1067.5</ele>
        <time>2022-07-03T11:49:07Z</time>
      </trkpt>
      <trkpt lat="42.387270" lon="1.839571">
        <ele>1067.9</ele>
        <time>2022-07-03T11:49:09Z</time>
      </trkpt>
      <trkpt lat="42.387337" lon="1.839642">
        <ele>1067.9</ele>
        <time>2022-07-03T11:49:11Z</time>
      </trkpt>
      <trkpt lat="42.387397" lon="1.839705">
        <ele>1068.1</ele>
        <time>2022-07-03T11:49:13Z</time>
      </trkpt>
      <trkpt lat="42.387450" lon="1.839766">
        <ele>1068.3</ele>
        <time>2022-07-03T11:49:15Z</time>
      </trkpt>
      <trkpt lat="42.387509" lon="1.839841">
        <ele>1068.0</ele>
        <time>2022-07-03T11:49:17Z</time>
      </trkpt>
      <trkpt lat="42.387575" lon="1.839920">
        <ele>1068.4</ele>
        <time>2022-07-03T11:49:19Z</time>
      </trkpt>
      <trkpt lat="42.387633" lon="1.840018">
        <ele>1068.0</ele>
        <time>2022-07-03T11:49:21Z</time>
      </trkpt>
      <trkpt lat="42.387695" lon="1.840112">
        <ele>1067.8</ele>
        <time>2022-07-03T11:49:23Z</time>
      </trkpt>
      <trkpt lat="42.387751" lon="1.840205">
        <ele>1066.3</ele>
        <time>2022-07-03T11:49:25Z</time>
      </trkpt>
      <trkpt lat="42.387807" lon="1.840302">
        <ele>1066.9</ele>
        <time>2022-07-03T11:49:27Z</time>
      </trkpt>
      <trkpt lat="42.387859" lon="1.840398">
        <ele>1067.3</ele>
        <time>2022-07-03T11:49:29Z</time>
      </trkpt>
      <trkpt lat="42.387896" lon="1.840492">
        <ele>1067.7</ele>
        <time>2022-07-03T11:49:31Z</time>
      </trkpt>
      <trkpt lat="42.387940" lon="1.840582">
        <ele>1067.7</ele>
        <time>2022-07-03T11:49:33Z</time>
      </trkpt>
      <trkpt lat="42.387986" lon="1.840673">
        <ele>1067.9</ele>
        <time>2022-07-03T11:49:35Z</time>
      </trkpt>
      <trkpt lat="42.388021" lon="1.840776">
        <ele>1068.2</ele>
        <time>2022-07-03T11:49:37Z</time>
      </trkpt>
      <trkpt lat="42.388066" lon="1.840877">
        <ele>1068.1</ele>
        <time>2022-07-03T11:49:39Z</time>
      </trkpt>
      <trkpt lat="42.388101" lon="1.840991">
        <ele>1067.9</ele>
        <time>2022-07-03T11:49:41Z</time>
      </trkpt>
      <trkpt lat="42.388135" lon="1.841110">
        <ele>1067.9</ele>
        <time>2022-07-03T11:49:43Z</time>
      </trkpt>
      <trkpt lat="42.388163" lon="1.841227">
        <ele>1068.4</ele>
        <time>2022-07-03T11:49:45Z</time>
      </trkpt>
      <trkpt lat="42.388187" lon="1.841343">
        <ele>1068.2</ele>
        <time>2022-07-03T11:49:47Z</time>
      </trkpt>
      <trkpt lat="42.388209" lon="1.841444">
        <ele>1067.9</ele>
        <time>2022-07-03T11:49:49Z</time>
      </trkpt>
      <trkpt lat="42.388229" lon="1.841546">
        <ele>1067.9</ele>
        <time>2022-07-03T11:49:51Z</time>
      </trkpt>
      <trkpt lat="42.388255" lon="1.841651">
        <ele>1068.3</ele>
        <time>2022-07-03T11:49:53Z</time>
      </trkpt>
      <trkpt lat="42.388277" lon="1.841766">
        <ele>1068.7</ele>
        <time>2022-07-03T11:49:55Z</time>
      </trkpt>
      <trkpt lat="42.388296" lon="1.841877">
        <ele>1068.4</ele>
        <time>2022-07-03T11:49:57Z</time>
      </trkpt>
      <trkpt lat="42.388313" lon="1.841983">
        <ele>1067.8</ele>
        <time>2022-07-03T11:49:59Z</time>
      </trkpt>
      <trkpt lat="42.388328" lon="1.842099">
        <ele>1068.1</ele>
        <time>2022-07-03T11:50:01Z</time>
      </trkpt>
      <trkpt lat="42.388344" lon="1.842212">
        <ele>1068.1</ele>
        <time>2022-07-03T11:50:03Z</time>
      </trkpt>
      <trkpt lat="42.388361" lon="1.842328">
        <ele>1068.2</ele>
        <time>2022-07-03T11:50:05Z</time>
      </trkpt>
      <trkpt lat="42.388365" lon="1.842421">
        <ele>1068.0</ele>
        <time>2022-07-03T11:50:07Z</time>
      </trkpt>
      <trkpt lat="42.388372" lon="1.842502">
        <ele>1068.3</ele>
        <time>2022-07-03T11:50:09Z</time>
      </trkpt>
      <trkpt lat="42.388383" lon="1.842600">
        <ele>1068.0</ele>
        <time>2022-07-03T11:50:12Z</time>
      </trkpt>
      <trkpt lat="42.388400" lon="1.842674">
        <ele>1068.1</ele>
        <time>2022-07-03T11:50:15Z</time>
      </trkpt>
      <trkpt lat="42.388413" lon="1.842750">
        <ele>1068.3</ele>
        <time>2022-07-03T11:50:18Z</time>
      </trkpt>
      <trkpt lat="42.388391" lon="1.842822">
        <ele>1068.5</ele>
        <time>2022-07-03T11:50:30Z</time>
      </trkpt>
      <trkpt lat="42.388350" lon="1.842880">
        <ele>1068.8</ele>
        <time>2022-07-03T11:50:35Z</time>
      </trkpt>
      <trkpt lat="42.388316" lon="1.842950">
        <ele>1068.8</ele>
        <time>2022-07-03T11:50:40Z</time>
      </trkpt>
      <trkpt lat="42.388308" lon="1.843022">
        <ele>1068.8</ele>
        <time>2022-07-03T11:50:59Z</time>
      </trkpt>
      <trkpt lat="42.388287" lon="1.843101">
        <ele>1068.6</ele>
        <time>2022-07-03T11:51:16Z</time>
      </trkpt>
      <trkpt lat="42.388274" lon="1.843186">
        <ele>1068.6</ele>
        <time>2022-07-03T11:51:19Z</time>
      </trkpt>
      <trkpt lat="42.388271" lon="1.843262">
        <ele>1068.7</ele>
        <time>2022-07-03T11:51:21Z</time>
      </trkpt>
      <trkpt lat="42.388272" lon="1.843373">
        <ele>1068.8</ele>
        <time>2022-07-03T11:51:24Z</time>
      </trkpt>
      <trkpt lat="42.388256" lon="1.843475">
        <ele>1069.3</ele>
        <time>2022-07-03T11:51:26Z</time>
      </trkpt>
      <trkpt lat="42.388250" lon="1.843568">
        <ele>1069.3</ele>
        <time>2022-07-03T11:51:28Z</time>
      </trkpt>
      <trkpt lat="42.388235" lon="1.843673">
        <ele>1069.5</ele>
        <time>2022-07-03T11:51:31Z</time>
      </trkpt>
      <trkpt lat="42.388236" lon="1.843779">
        <ele>1069.8</ele>
        <time>2022-07-03T11:51:34Z</time>
      </trkpt>
      <trkpt lat="42.388233" lon="1.843873">
        <ele>1070.0</ele>
        <time>2022-07-03T11:51:37Z</time>
      </trkpt>
      <trkpt lat="42.388243" lon="1.843951">
        <ele>1070.4</ele>
        <time>2022-07-03T11:51:39Z</time>
      </trkpt>
      <trkpt lat="42.388235" lon="1.844042">
        <ele>1069.7</ele>
        <time>2022-07-03T11:51:41Z</time>
      </trkpt>
      <trkpt lat="42.388231" lon="1.844138">
        <ele>1069.7</ele>
        <time>2022-07-03T11:51:44Z</time>
      </trkpt>
      <trkpt lat="42.388228" lon="1.844225">
        <ele>1069.0</ele>
        <time>2022-07-03T11:51:46Z</time>
      </trkpt>
      <trkpt lat="42.388245" lon="1.844329">
        <ele>1071.3</ele>
        <time>2022-07-03T11:51:49Z</time>
      </trkpt>
      <trkpt lat="42.388274" lon="1.844424">
        <ele>1071.0</ele>
        <time>2022-07-03T11:51:51Z</time>
      </trkpt>
      <trkpt lat="42.388332" lon="1.844549">
        <ele>1070.3</ele>
        <time>2022-07-03T11:51:53Z</time>
      </trkpt>
      <trkpt lat="42.388377" lon="1.844664">
        <ele>1070.6</ele>
        <time>2022-07-03T11:51:55Z</time>
      </trkpt>
      <trkpt lat="42.388408" lon="1.844752">
        <ele>1070.4</ele>
        <time>2022-07-03T11:51:57Z</time>
      </trkpt>
      <trkpt lat="42.388446" lon="1.844851">
        <ele>1070.2</ele>
        <time>2022-07-03T11:51:59Z</time>
      </trkpt>
      <trkpt lat="42.388461" lon="1.844949">
        <ele>1069.9</ele>
        <time>2022-07-03T11:52:01Z</time>
      </trkpt>
      <trkpt lat="42.388482" lon="1.845047">
        <ele>1069.6</ele>
        <time>2022-07-03T11:52:03Z</time>
      </trkpt>
      <trkpt lat="42.388501" lon="1.845157">
        <ele>1069.4</ele>
        <time>2022-07-03T11:52:05Z</time>
      </trkpt>
      <trkpt lat="42.388519" lon="1.845252">
        <ele>1069.0</ele>
        <time>2022-07-03T11:52:07Z</time>
      </trkpt>
      <trkpt lat="42.388551" lon="1.845322">
        <ele>1069.1</ele>
        <time>2022-07-03T11:52:09Z</time>
      </trkpt>
      <trkpt lat="42.388611" lon="1.845409">
        <ele>1069.4</ele>
        <time>2022-07-03T11:52:12Z</time>
      </trkpt>
      <trkpt lat="42.388642" lon="1.845495">
        <ele>1069.5</ele>
        <time>2022-07-03T11:52:14Z</time>
      </trkpt>
      <trkpt lat="42.388638" lon="1.845593">
        <ele>1069.8</ele>
        <time>2022-07-03T11:52:16Z</time>
      </trkpt>
      <trkpt lat="42.388658" lon="1.845691">
        <ele>1069.8</ele>
        <time>2022-07-03T11:52:18Z</time>
      </trkpt>
      <trkpt lat="42.388658" lon="1.845782">
        <ele>1070.1</ele>
        <time>2022-07-03T11:52:20Z</time>
      </trkpt>
      <trkpt lat="42.388682" lon="1.845876">
        <ele>1070.2</ele>
        <time>2022-07-03T11:52:22Z</time>
      </trkpt>
      <trkpt lat="42.388695" lon="1.845979">
        <ele>1070.3</ele>
        <time>2022-07-03T11:52:24Z</time>
      </trkpt>
      <trkpt lat="42.388697" lon="1.846103">
        <ele>1070.6</ele>
        <time>2022-07-03T11:52:26Z</time>
      </trkpt>
      <trkpt lat="42.388714" lon="1.846189">
        <ele>1071.0</ele>
        <time>2022-07-03T11:52:28Z</time>
      </trkpt>
      <trkpt lat="42.388757" lon="1.846266">
        <ele>1071.3</ele>
        <time>2022-07-03T11:52:31Z</time>
      </trkpt>
      <trkpt lat="42.388804" lon="1.846322">
        <ele>1071.6</ele>
        <time>2022-07-03T11:52:33Z</time>
      </trkpt>
      <trkpt lat="42.388850" lon="1.846410">
        <ele>1072.0</ele>
        <time>2022-07-03T11:52:35Z</time>
      </trkpt>
      <trkpt lat="42.388893" lon="1.846489">
        <ele>1072.1</ele>
        <time>2022-07-03T11:52:37Z</time>
      </trkpt>
      <trkpt lat="42.388939" lon="1.846584">
        <ele>1072.3</ele>
        <time>2022-07-03T11:52:39Z</time>
      </trkpt>
      <trkpt lat="42.388995" lon="1.846665">
        <ele>1072.3</ele>
        <time>2022-07-03T11:52:41Z</time>
      </trkpt>
      <trkpt lat="42.389043" lon="1.846729">
        <ele>1073.3</ele>
        <time>2022-07-03T11:52:43Z</time>
      </trkpt>
      <trkpt lat="42.389079" lon="1.846806">
        <ele>1072.9</ele>
        <time>2022-07-03T11:52:45Z</time>
      </trkpt>
      <trkpt lat="42.389132" lon="1.846880">
        <ele>1072.8</ele>
        <time>2022-07-03T11:52:47Z</time>
      </trkpt>
      <trkpt lat="42.389184" lon="1.846948">
        <ele>1073.1</ele>
        <time>2022-07-03T11:52:49Z</time>
      </trkpt>
      <trkpt lat="42.389245" lon="1.847002">
        <ele>1073.2</ele>
        <time>2022-07-03T11:52:51Z</time>
      </trkpt>
      <trkpt lat="42.389289" lon="1.847081">
        <ele>1073.6</ele>
        <time>2022-07-03T11:52:53Z</time>
      </trkpt>
      <trkpt lat="42.389324" lon="1.847164">
        <ele>1073.9</ele>
        <time>2022-07-03T11:52:55Z</time>
      </trkpt>
      <trkpt lat="42.389380" lon="1.847220">
        <ele>1073.7</ele>
        <time>2022-07-03T11:52:57Z</time>
      </trkpt>
      <trkpt lat="42.389413" lon="1.847283">
        <ele>1072.9</ele>
        <time>2022-07-03T11:52:59Z</time>
      </trkpt>
      <trkpt lat="42.389467" lon="1.847343">
        <ele>1073.0</ele>
        <time>2022-07-03T11:53:01Z</time>
      </trkpt>
      <trkpt lat="42.389498" lon="1.847422">
        <ele>1072.9</ele>
        <time>2022-07-03T11:53:03Z</time>
      </trkpt>
      <trkpt lat="42.389538" lon="1.847486">
        <ele>1072.8</ele>
        <time>2022-07-03T11:53:05Z</time>
      </trkpt>
      <trkpt lat="42.389596" lon="1.847568">
        <ele>1072.5</ele>
        <time>2022-07-03T11:53:07Z</time>
      </trkpt>
      <trkpt lat="42.389649" lon="1.847647">
        <ele>1073.5</ele>
        <time>2022-07-03T11:53:09Z</time>
      </trkpt>
      <trkpt lat="42.389703" lon="1.847713">
        <ele>1073.2</ele>
        <time>2022-07-03T11:53:11Z</time>
      </trkpt>
      <trkpt lat="42.389761" lon="1.847789">
        <ele>1073.6</ele>
        <time>2022-07-03T11:53:13Z</time>
      </trkpt>
      <trkpt lat="42.389791" lon="1.847864">
        <ele>1073.5</ele>
        <time>2022-07-03T11:53:15Z</time>
      </trkpt>
      <trkpt lat="42.389844" lon="1.847935">
        <ele>1073.5</ele>
        <time>2022-07-03T11:53:17Z</time>
      </trkpt>
      <trkpt lat="42.389891" lon="1.847991">
        <ele>1074.0</ele>
        <time>2022-07-03T11:53:19Z</time>
      </trkpt>
      <trkpt lat="42.389935" lon="1.848064">
        <ele>1073.9</ele>
        <time>2022-07-03T11:53:21Z</time>
      </trkpt>
      <trkpt lat="42.389970" lon="1.848132">
        <ele>1074.2</ele>
        <time>2022-07-03T11:53:23Z</time>
      </trkpt>
      <trkpt lat="42.390001" lon="1.848217">
        <ele>1073.8</ele>
        <time>2022-07-03T11:53:26Z</time>
      </trkpt>
      <trkpt lat="42.390011" lon="1.848291">
        <ele>1073.6</ele>
        <time>2022-07-03T11:53:28Z</time>
      </trkpt>
      <trkpt lat="42.390052" lon="1.848370">
        <ele>1073.2</ele>
        <time>2022-07-03T11:53:31Z</time>
      </trkpt>
      <trkpt lat="42.390097" lon="1.848421">
        <ele>1072.9</ele>
        <time>2022-07-03T11:53:34Z</time>
      </trkpt>
      <trkpt lat="42.390098" lon="1.848494">
        <ele>1073.0</ele>
        <time>2022-07-03T11:53:44Z</time>
      </trkpt>
      <trkpt lat="42.390031" lon="1.848560">
        <ele>1073.1</ele>
        <time>2022-07-03T11:53:48Z</time>
      </trkpt>
      <trkpt lat="42.389972" lon="1.848640">
        <ele>1073.0</ele>
        <time>2022-07-03T11:53:51Z</time>
      </trkpt>
      <trkpt lat="42.389927" lon="1.848705">
        <ele>1073.0</ele>
        <time>2022-07-03T11:53:53Z</time>
      </trkpt>
      <trkpt lat="42.389881" lon="1.848763">
        <ele>1073.0</ele>
        <time>2022-07-03T11:53:55Z</time>
      </trkpt>
      <trkpt lat="42.389829" lon="1.848800">
        <ele>1073.0</ele>
        <time>2022-07-03T11:53:57Z</time>
      </trkpt>
      <trkpt lat="42.389783" lon="1.848855">
        <ele>1073.0</ele>
        <time>2022-07-03T11:53:59Z</time>
      </trkpt>
      <trkpt lat="42.389729" lon="1.848906">
        <ele>1073.0</ele>
        <time>2022-07-03T11:54:01Z</time>
      </trkpt>
      <trkpt lat="42.389669" lon="1.848900">
        <ele>1072.0</ele>
        <time>2022-07-03T11:54:03Z</time>
      </trkpt>
      <trkpt lat="42.389611" lon="1.848824">
        <ele>1073.1</ele>
        <time>2022-07-03T11:54:06Z</time>
      </trkpt>
      <trkpt lat="42.389562" lon="1.848760">
        <ele>1073.1</ele>
        <time>2022-07-03T11:54:08Z</time>
      </trkpt>
      <trkpt lat="42.389514" lon="1.848698">
        <ele>1073.7</ele>
        <time>2022-07-03T11:54:10Z</time>
      </trkpt>
      <trkpt lat="42.389467" lon="1.848628">
        <ele>1074.2</ele>
        <time>2022-07-03T11:54:12Z</time>
      </trkpt>
      <trkpt lat="42.389424" lon="1.848560">
        <ele>1074.3</ele>
        <time>2022-07-03T11:54:14Z</time>
      </trkpt>
      <trkpt lat="42.389382" lon="1.848495">
        <ele>1074.1</ele>
        <time>2022-07-03T11:54:16Z</time>
      </trkpt>
      <trkpt lat="42.389330" lon="1.848425">
        <ele>1074.0</ele>
        <time>2022-07-03T11:54:18Z</time>
      </trkpt>
      <trkpt lat="42.389279" lon="1.848344">
        <ele>1074.0</ele>
        <time>2022-07-03T11:54:20Z</time>
      </trkpt>
      <trkpt lat="42.389235" lon="1.848252">
        <ele>1073.7</ele>
        <time>2022-07-03T11:54:22Z</time>
      </trkpt>
      <trkpt lat="42.389188" lon="1.848174">
        <ele>1074.0</ele>
        <time>2022-07-03T11:54:24Z</time>
      </trkpt>
      <trkpt lat="42.389142" lon="1.848102">
        <ele>1073.5</ele>
        <time>2022-07-03T11:54:26Z</time>
      </trkpt>
      <trkpt lat="42.389095" lon="1.848021">
        <ele>1073.6</ele>
        <time>2022-07-03T11:54:28Z</time>
      </trkpt>
      <trkpt lat="42.389042" lon="1.847939">
        <ele>1073.7</ele>
        <time>2022-07-03T11:54:30Z</time>
      </trkpt>
      <trkpt lat="42.388987" lon="1.847858">
        <ele>1073.2</ele>
        <time>2022-07-03T11:54:32Z</time>
      </trkpt>
      <trkpt lat="42.388937" lon="1.847776">
        <ele>1072.9</ele>
        <time>2022-07-03T11:54:34Z</time>
      </trkpt>
      <trkpt lat="42.388890" lon="1.847691">
        <ele>1072.3</ele>
        <time>2022-07-03T11:54:36Z</time>
      </trkpt>
      <trkpt lat="42.388838" lon="1.847622">
        <ele>1072.5</ele>
        <time>2022-07-03T11:54:38Z</time>
      </trkpt>
      <trkpt lat="42.388772" lon="1.847554">
        <ele>1072.8</ele>
        <time>2022-07-03T11:54:40Z</time>
      </trkpt>
      <trkpt lat="42.388681" lon="1.847517">
        <ele>1072.3</ele>
        <time>2022-07-03T11:54:42Z</time>
      </trkpt>
      <trkpt lat="42.388624" lon="1.847543">
        <ele>1072.4</ele>
        <time>2022-07-03T11:54:43Z</time>
      </trkpt>
      <trkpt lat="42.388529" lon="1.847610">
        <ele>1071.2</ele>
        <time>2022-07-03T11:54:45Z</time>
      </trkpt>
      <trkpt lat="42.388451" lon="1.847702">
        <ele>1071.1</ele>
        <time>2022-07-03T11:54:47Z</time>
      </trkpt>
      <trkpt lat="42.388385" lon="1.847805">
        <ele>1070.9</ele>
        <time>2022-07-03T11:54:49Z</time>
      </trkpt>
      <trkpt lat="42.388321" lon="1.847899">
        <ele>1071.7</ele>
        <time>2022-07-03T11:54:51Z</time>
      </trkpt>
      <trkpt lat="42.388263" lon="1.847962">
        <ele>1071.2</ele>
        <time>2022-07-03T11:54:53Z</time>
      </trkpt>
      <trkpt lat="42.388181" lon="1.847983">
        <ele>1070.7</ele>
        <time>2022-07-03T11:54:55Z</time>
      </trkpt>
      <trkpt lat="42.388105" lon="1.847976">
        <ele>1071.4</ele>
        <time>2022-07-03T11:54:57Z</time>
      </trkpt>
      <trkpt lat="42.388030" lon="1.847958">
        <ele>1071.7</ele>
        <time>2022-07-03T11:54:59Z</time>
      </trkpt>
      <trkpt lat="42.387951" lon="1.847944">
        <ele>1071.8</ele>
        <time>2022-07-03T11:55:01Z</time>
      </trkpt>
      <trkpt lat="42.387870" lon="1.847934">
        <ele>1072.1</ele>
        <time>2022-07-03T11:55:03Z</time>
      </trkpt>
      <trkpt lat="42.387786" lon="1.847933">
        <ele>1072.1</ele>
        <time>2022-07-03T11:55:05Z</time>
      </trkpt>
      <trkpt lat="42.387715" lon="1.847979">
        <ele>1072.0</ele>
        <time>2022-07-03T11:55:07Z</time>
      </trkpt>
      <trkpt lat="42.387662" lon="1.848066">
        <ele>1071.9</ele>
        <time>2022-07-03T11:55:09Z</time>
      </trkpt>
      <trkpt lat="42.387617" lon="1.848166">
        <ele>1071.4</ele>
        <time>2022-07-03T11:55:11Z</time>
      </trkpt>
      <trkpt lat="42.387576" lon="1.848272">
        <ele>1071.3</ele>
        <time>2022-07-03T11:55:13Z</time>
      </trkpt>
      <trkpt lat="42.387532" lon="1.848376">
        <ele>1071.3</ele>
        <time>2022-07-03T11:55:15Z</time>
      </trkpt>
      <trkpt lat="42.387487" lon="1.848483">
        <ele>1071.4</ele>
        <time>2022-07-03T11:55:17Z</time>
      </trkpt>
      <trkpt lat="42.387442" lon="1.848583">
        <ele>1071.3</ele>
        <time>2022-07-03T11:55:19Z</time>
      </trkpt>
      <trkpt lat="42.387400" lon="1.848683">
        <ele>1071.3</ele>
        <time>2022-07-03T11:55:21Z</time>
      </trkpt>
      <trkpt lat="42.387355" lon="1.848779">
        <ele>1071.4</ele>
        <time>2022-07-03T11:55:23Z</time>
      </trkpt>
      <trkpt lat="42.387310" lon="1.848883">
        <ele>1071.4</ele>
        <time>2022-07-03T11:55:25Z</time>
      </trkpt>
      <trkpt lat="42.387262" lon="1.848985">
        <ele>1071.6</ele>
        <time>2022-07-03T11:55:27Z</time>
      </trkpt>
      <trkpt lat="42.387212" lon="1.849088">
        <ele>1071.7</ele>
        <time>2022-07-03T11:55:29Z</time>
      </trkpt>
      <trkpt lat="42.387158" lon="1.849184">
        <ele>1070.7</ele>
        <time>2022-07-03T11:55:31Z</time>
      </trkpt>
      <trkpt lat="42.387099" lon="1.849252">
        <ele>1071.0</ele>
        <time>2022-07-03T11:55:33Z</time>
      </trkpt>
      <trkpt lat="42.387044" lon="1.849316">
        <ele>1071.6</ele>
        <time>2022-07-03T11:55:35Z</time>
      </trkpt>
      <trkpt lat="42.386990" lon="1.849385">
        <ele>1071.9</ele>
        <time>2022-07-03T11:55:37Z</time>
      </trkpt>
      <trkpt lat="42.386939" lon="1.849459">
        <ele>1072.1</ele>
        <time>2022-07-03T11:55:39Z</time>
      </trkpt>
      <trkpt lat="42.386892" lon="1.849537">
        <ele>1072.1</ele>
        <time>2022-07-03T11:55:41Z</time>
      </trkpt>
      <trkpt lat="42.386843" lon="1.849610">
        <ele>1072.1</ele>
        <time>2022-07-03T11:55:43Z</time>
      </trkpt>
      <trkpt lat="42.386782" lon="1.849675">
        <ele>1072.2</ele>
        <time>2022-07-03T11:55:45Z</time>
      </trkpt>
      <trkpt lat="42.386715" lon="1.849727">
        <ele>1071.3</ele>
        <time>2022-07-03T11:55:47Z</time>
      </trkpt>
      <trkpt lat="42.386646" lon="1.849747">
        <ele>1071.5</ele>
        <time>2022-07-03T11:55:49Z</time>
      </trkpt>
      <trkpt lat="42.386583" lon="1.849743">
        <ele>1072.3</ele>
        <time>2022-07-03T11:55:51Z</time>
      </trkpt>
      <trkpt lat="42.386522" lon="1.849725">
        <ele>1072.7</ele>
        <time>2022-07-03T11:55:53Z</time>
      </trkpt>
      <trkpt lat="42.386452" lon="1.849690">
        <ele>1073.7</ele>
        <time>2022-07-03T11:55:56Z</time>
      </trkpt>
      <trkpt lat="42.386388" lon="1.849650">
        <ele>1074.7</ele>
        <time>2022-07-03T11:55:59Z</time>
      </trkpt>
      <trkpt lat="42.386323" lon="1.849620">
        <ele>1075.6</ele>
        <time>2022-07-03T11:56:02Z</time>
      </trkpt>
      <trkpt lat="42.386259" lon="1.849583">
        <ele>1076.3</ele>
        <time>2022-07-03T11:56:05Z</time>
      </trkpt>
      <trkpt lat="42.386203" lon="1.849542">
        <ele>1077.1</ele>
        <time>2022-07-03T11:56:08Z</time>
      </trkpt>
      <trkpt lat="42.386153" lon="1.849508">
        <ele>1078.0</ele>
        <time>2022-07-03T11:56:11Z</time>
      </trkpt>
      <trkpt lat="42.386099" lon="1.849508">
        <ele>1078.8</ele>
        <time>2022-07-03T11:56:14Z</time>
      </trkpt>
      <trkpt lat="42.386035" lon="1.849508">
        <ele>1079.8</ele>
        <time>2022-07-03T11:56:17Z</time>
      </trkpt>
      <trkpt lat="42.385968" lon="1.849493">
        <ele>1080.3</ele>
        <time>2022-07-03T11:56:20Z</time>
      </trkpt>
      <trkpt lat="42.385906" lon="1.849479">
        <ele>1080.8</ele>
        <time>2022-07-03T11:56:23Z</time>
      </trkpt>
      <trkpt lat="42.385838" lon="1.849456">
        <ele>1081.3</ele>
        <time>2022-07-03T11:56:26Z</time>
      </trkpt>
      <trkpt lat="42.385762" lon="1.849479">
        <ele>1081.2</ele>
        <time>2022-07-03T11:56:29Z</time>
      </trkpt>
      <trkpt lat="42.385713" lon="1.849516">
        <ele>1081.5</ele>
        <time>2022-07-03T11:56:31Z</time>
      </trkpt>
      <trkpt lat="42.385662" lon="1.849545">
        <ele>1081.5</ele>
        <time>2022-07-03T11:56:33Z</time>
      </trkpt>
      <trkpt lat="42.385610" lon="1.849582">
        <ele>1081.7</ele>
        <time>2022-07-03T11:56:35Z</time>
      </trkpt>
      <trkpt lat="42.385558" lon="1.849618">
        <ele>1081.9</ele>
        <time>2022-07-03T11:56:37Z</time>
      </trkpt>
      <trkpt lat="42.385503" lon="1.849655">
        <ele>1082.0</ele>
        <time>2022-07-03T11:56:39Z</time>
      </trkpt>
      <trkpt lat="42.385443" lon="1.849690">
        <ele>1081.8</ele>
        <time>2022-07-03T11:56:41Z</time>
      </trkpt>
      <trkpt lat="42.385382" lon="1.849722">
        <ele>1082.0</ele>
        <time>2022-07-03T11:56:44Z</time>
      </trkpt>
      <trkpt lat="42.385352" lon="1.849800">
        <ele>1082.0</ele>
        <time>2022-07-03T11:56:48Z</time>
      </trkpt>
      <trkpt lat="42.385308" lon="1.849856">
        <ele>1082.2</ele>
        <time>2022-07-03T11:56:56Z</time>
      </trkpt>
      <trkpt lat="42.385280" lon="1.849926">
        <ele>1082.4</ele>
        <time>2022-07-03T11:57:02Z</time>
      </trkpt>
      <trkpt lat="42.385284" lon="1.849907">
        <ele>1083.1</ele>
        <time>2022-07-03T11:57:27Z</time>
      </trkpt>
    </trkseg>
  </trk>
</gpx>
